<?xml version='1.0' encoding='UTF-8'?><gpx version="1.1" creator="JPX - https://github.com/jenetics/jpx" xmlns="http://www.topografix.com/GPX/1/1"><trk><trkseg><trkpt lat="46.010735485944075" lon="9.375088801673314"><ele>437.3333333333333</ele><time>2026-04-11T08:36:39Z</time></trkpt><trkpt lat="46.01087828949125" lon="9.374856737207852"><ele>437.66666666666663</ele><time>2026-04-11T08:36:40Z</time></trkpt><trkpt lat="46.0110270234483" lon="9.374615419538504"><ele>438.0</ele><time>2026-04-11T08:36:41Z</time></trkpt><trkpt lat="46.011186951788815" lon="9.374356004957495"><ele>438.0</ele><time>2026-04-11T08:36:42Z</time></trkpt><trkpt lat="46.01133759942402" lon="9.374128179681042"><ele>438.0</ele><time>2026-04-11T08:36:43Z</time></trkpt><trkpt lat="46.01150724721871" lon="9.373919934552239"><ele>438.0</ele><time>2026-04-11T08:36:44Z</time></trkpt><trkpt lat="46.01169881095474" lon="9.373743448132066"><ele>437.0</ele><time>2026-04-11T08:36:45Z</time></trkpt><trkpt lat="46.011921662997445" lon="9.37359396250981"><ele>436.0</ele><time>2026-04-11T08:36:46Z</time></trkpt><trkpt lat="46.01216767658552" lon="9.373458088607435"><ele>436.0</ele><time>2026-04-11T08:36:47Z</time></trkpt><trkpt lat="46.01242567885027" lon="9.373330482572626"><ele>436.0</ele><time>2026-04-11T08:36:48Z</time></trkpt><trkpt lat="46.01265639838894" lon="9.373215733034057"><ele>437.0</ele><time>2026-04-11T08:36:49Z</time></trkpt><trkpt lat="46.012858860470686" lon="9.373114998347827"><ele>438.0</ele><time>2026-04-11T08:36:50Z</time></trkpt><trkpt lat="46.013058861364435" lon="9.373014752374358"><ele>439.0</ele><time>2026-04-11T08:36:51Z</time></trkpt><trkpt lat="46.01327310307377" lon="9.372907347597195"><ele>438.6666666666667</ele><time>2026-04-11T08:36:52Z</time></trkpt><trkpt lat="46.01348171493162" lon="9.372802763200964"><ele>438.33333333333337</ele><time>2026-04-11T08:36:53Z</time></trkpt><trkpt lat="46.01368161468085" lon="9.3727002805979"><ele>438.0</ele><time>2026-04-11T08:36:54Z</time></trkpt><trkpt lat="46.01386883695703" lon="9.372557867375907"><ele>438.0</ele><time>2026-04-11T08:36:55Z</time></trkpt><trkpt lat="46.01406643509196" lon="9.37241614144003"><ele>438.0</ele><time>2026-04-11T08:36:56Z</time></trkpt><trkpt lat="46.01425503103205" lon="9.372234877588866"><ele>438.0</ele><time>2026-04-11T08:36:57Z</time></trkpt><trkpt lat="46.01443646078904" lon="9.372022882216946"><ele>436.5</ele><time>2026-04-11T08:36:58Z</time></trkpt><trkpt lat="46.01464483412276" lon="9.371834630031408"><ele>435.0</ele><time>2026-04-11T08:36:59Z</time></trkpt><trkpt lat="46.0148369351473" lon="9.371612131138276"><ele>435.5</ele><time>2026-04-11T08:37:00Z</time></trkpt><trkpt lat="46.01502822788095" lon="9.37139056855004"><ele>436.0</ele><time>2026-04-11T08:37:01Z</time></trkpt><trkpt lat="46.01522172515393" lon="9.37116617230718"><ele>435.0</ele><time>2026-04-11T08:37:02Z</time></trkpt><trkpt lat="46.015414791133686" lon="9.370942567341752"><ele>434.0</ele><time>2026-04-11T08:37:03Z</time></trkpt><trkpt lat="46.01561338505602" lon="9.370712936464434"><ele>433.0</ele><time>2026-04-11T08:37:04Z</time></trkpt><trkpt lat="46.01582951827059" lon="9.370463341875043"><ele>432.0</ele><time>2026-04-11T08:37:05Z</time></trkpt><trkpt lat="46.01606671074438" lon="9.370188772992112"><ele>432.0</ele><time>2026-04-11T08:37:06Z</time></trkpt><trkpt lat="46.01626719918672" lon="9.36985899209215"><ele>432.0</ele><time>2026-04-11T08:37:07Z</time></trkpt><trkpt lat="46.01649202922595" lon="9.369616694832992"><ele>431.0</ele><time>2026-04-11T08:37:08Z</time></trkpt><trkpt lat="46.016703193811935" lon="9.369391943136092"><ele>430.0</ele><time>2026-04-11T08:37:09Z</time></trkpt><trkpt lat="46.01690659617612" lon="9.369162997045516"><ele>430.0</ele><time>2026-04-11T08:37:10Z</time></trkpt><trkpt lat="46.017110552845104" lon="9.368979561631962"><ele>430.0</ele><time>2026-04-11T08:37:11Z</time></trkpt><trkpt lat="46.0172939677844" lon="9.368732218445396"><ele>429.0</ele><time>2026-04-11T08:37:12Z</time></trkpt><trkpt lat="46.01745595351585" lon="9.368473656922912"><ele>428.0</ele><time>2026-04-11T08:37:13Z</time></trkpt><trkpt lat="46.01760985487709" lon="9.368210749351103"><ele>428.3333333333333</ele><time>2026-04-11T08:37:14Z</time></trkpt><trkpt lat="46.01776028330048" lon="9.367957285225652"><ele>428.66666666666663</ele><time>2026-04-11T08:37:15Z</time></trkpt><trkpt lat="46.01789449208315" lon="9.367731738349725"><ele>429.0</ele><time>2026-04-11T08:37:16Z</time></trkpt><trkpt lat="46.018017136675496" lon="9.36752825462144"><ele>429.0</ele><time>2026-04-11T08:37:17Z</time></trkpt><trkpt lat="46.01812047082187" lon="9.367307191566718"><ele>429.0</ele><time>2026-04-11T08:37:18Z</time></trkpt><trkpt lat="46.01827460036639" lon="9.367165827972862"><ele>429.0</ele><time>2026-04-11T08:37:19Z</time></trkpt><trkpt lat="46.01845201455598" lon="9.367077147046876"><ele>428.66666666666663</ele><time>2026-04-11T08:37:20Z</time></trkpt><trkpt lat="46.018654112161634" lon="9.36702797376192"><ele>428.3333333333333</ele><time>2026-04-11T08:37:21Z</time></trkpt><trkpt lat="46.01884525957671" lon="9.367070421610713"><ele>428.0</ele><time>2026-04-11T08:37:22Z</time></trkpt><trkpt lat="46.0190165519646" lon="9.367010139676577"><ele>432.3333333333333</ele><time>2026-04-11T08:37:23Z</time></trkpt><trkpt lat="46.01918505193719" lon="9.36690005822467"><ele>436.66666666666663</ele><time>2026-04-11T08:37:24Z</time></trkpt><trkpt lat="46.019361957477315" lon="9.366777324968504"><ele>441.0</ele><time>2026-04-11T08:37:25Z</time></trkpt><trkpt lat="46.01955578666693" lon="9.366640652771203"><ele>441.0</ele><time>2026-04-11T08:37:26Z</time></trkpt><trkpt lat="46.01972955390524" lon="9.366520270882326"><ele>441.0</ele><time>2026-04-11T08:37:27Z</time></trkpt><trkpt lat="46.019874968391186" lon="9.366399521281629"><ele>441.0</ele><time>2026-04-11T08:37:28Z</time></trkpt><trkpt lat="46.01999133595575" lon="9.36624665037299"><ele>444.33333333333337</ele><time>2026-04-11T08:37:29Z</time></trkpt><trkpt lat="46.020063905146266" lon="9.366023866369869"><ele>447.6666666666667</ele><time>2026-04-11T08:37:30Z</time></trkpt><trkpt lat="46.02014136502934" lon="9.36576645217298"><ele>451.0</ele><time>2026-04-11T08:37:31Z</time></trkpt><trkpt lat="46.02022897730851" lon="9.365518950723317"><ele>451.0</ele><time>2026-04-11T08:37:32Z</time></trkpt><trkpt lat="46.02031574821711" lon="9.365265474986597"><ele>451.0</ele><time>2026-04-11T08:37:33Z</time></trkpt><trkpt lat="46.02042064478885" lon="9.365059370992702"><ele>451.0</ele><time>2026-04-11T08:37:34Z</time></trkpt><trkpt lat="46.02056143823647" lon="9.364861488541138"><ele>450.6666666666667</ele><time>2026-04-11T08:37:35Z</time></trkpt><trkpt lat="46.02073347713416" lon="9.364638203457595"><ele>450.33333333333337</ele><time>2026-04-11T08:37:36Z</time></trkpt><trkpt lat="46.02088666187751" lon="9.364434798098827"><ele>450.0</ele><time>2026-04-11T08:37:37Z</time></trkpt><trkpt lat="46.02104878282936" lon="9.364248717976075"><ele>451.66666666666663</ele><time>2026-04-11T08:37:38Z</time></trkpt><trkpt lat="46.021233235508184" lon="9.364069694849587"><ele>453.3333333333333</ele><time>2026-04-11T08:37:39Z</time></trkpt><trkpt lat="46.02140005722103" lon="9.363918901562235"><ele>455.0</ele><time>2026-04-11T08:37:40Z</time></trkpt><trkpt lat="46.02157346995429" lon="9.363763723829535"><ele>457.66666666666663</ele><time>2026-04-11T08:37:41Z</time></trkpt><trkpt lat="46.021725396666916" lon="9.363624808308654"><ele>460.33333333333337</ele><time>2026-04-11T08:37:42Z</time></trkpt><trkpt lat="46.02187938455403" lon="9.363481584211964"><ele>463.0</ele><time>2026-04-11T08:37:43Z</time></trkpt><trkpt lat="46.02201389189089" lon="9.363355936375703"><ele>463.0</ele><time>2026-04-11T08:37:44Z</time></trkpt><trkpt lat="46.022128800183324" lon="9.363252808497725"><ele>462.99999999999994</ele><time>2026-04-11T08:37:45Z</time></trkpt><trkpt lat="46.02223129729339" lon="9.363191210825567"><ele>462.99999999999994</ele><time>2026-04-11T08:37:46Z</time></trkpt><trkpt lat="46.022325266791164" lon="9.363184039638549"><ele>463.0</ele><time>2026-04-11T08:37:47Z</time></trkpt><trkpt lat="46.022405377874634" lon="9.363212798590704"><ele>463.0</ele><time>2026-04-11T08:37:48Z</time></trkpt><trkpt lat="46.0225030487223" lon="9.36328344114869"><ele>465.0</ele><time>2026-04-11T08:37:49Z</time></trkpt><trkpt lat="46.02260242023747" lon="9.363408731629924"><ele>467.0</ele><time>2026-04-11T08:37:50Z</time></trkpt><trkpt lat="46.0227192403561" lon="9.363522371887194"><ele>469.0</ele><time>2026-04-11T08:37:51Z</time></trkpt><trkpt lat="46.02280440427464" lon="9.363627119983045"><ele>471.0</ele><time>2026-04-11T08:37:52Z</time></trkpt><trkpt lat="46.022887828481856" lon="9.363728046957105"><ele>471.0</ele><time>2026-04-11T08:37:53Z</time></trkpt><trkpt lat="46.02297122455775" lon="9.363823530023884"><ele>471.0</ele><time>2026-04-11T08:37:54Z</time></trkpt><trkpt lat="46.023048298295045" lon="9.363889711123786"><ele>471.0</ele><time>2026-04-11T08:37:55Z</time></trkpt><trkpt lat="46.02313614098244" lon="9.363937798737084"><ele>471.0</ele><time>2026-04-11T08:37:56Z</time></trkpt><trkpt lat="46.023197250445946" lon="9.363999647686622"><ele>471.0</ele><time>2026-04-11T08:37:57Z</time></trkpt><trkpt lat="46.023258460857896" lon="9.364041066253721"><ele>471.0</ele><time>2026-04-11T08:37:58Z</time></trkpt><trkpt lat="46.02335596660895" lon="9.364098579900443"><ele>472.0</ele><time>2026-04-11T08:38:00Z</time></trkpt><trkpt lat="46.0233434289957" lon="9.364236190016411"><ele>473.0</ele><time>2026-04-11T08:38:02Z</time></trkpt><trkpt lat="46.02321943823887" lon="9.364267536366492"><ele>474.0</ele><time>2026-04-11T08:38:04Z</time></trkpt><trkpt lat="46.023125155233224" lon="9.364216261273468"><ele>475.0</ele><time>2026-04-11T08:38:05Z</time></trkpt><trkpt lat="46.02301565904614" lon="9.364186973593904"><ele>476.0</ele><time>2026-04-11T08:38:06Z</time></trkpt><trkpt lat="46.02291114210591" lon="9.364203114411605"><ele>476.0</ele><time>2026-04-11T08:38:07Z</time></trkpt><trkpt lat="46.0228211000186" lon="9.364266489513989"><ele>476.0</ele><time>2026-04-11T08:38:08Z</time></trkpt><trkpt lat="46.0227438832764" lon="9.364354242842827"><ele>476.0</ele><time>2026-04-11T08:38:09Z</time></trkpt><trkpt lat="46.02269115850619" lon="9.36447903492654"><ele>476.0</ele><time>2026-04-11T08:38:10Z</time></trkpt><trkpt lat="46.02267090969852" lon="9.364648272647596"><ele>476.0</ele><time>2026-04-11T08:38:11Z</time></trkpt><trkpt lat="46.0226874101928" lon="9.364821490654995"><ele>477.5</ele><time>2026-04-11T08:38:12Z</time></trkpt><trkpt lat="46.02273584736347" lon="9.364986306833668"><ele>479.0</ele><time>2026-04-11T08:38:13Z</time></trkpt><trkpt lat="46.02281724033156" lon="9.365160661112151"><ele>480.5</ele><time>2026-04-11T08:38:14Z</time></trkpt><trkpt lat="46.0228666877725" lon="9.3653182858208"><ele>482.0</ele><time>2026-04-11T08:38:15Z</time></trkpt><trkpt lat="46.022929587884555" lon="9.365451533439233"><ele>482.0</ele><time>2026-04-11T08:38:16Z</time></trkpt><trkpt lat="46.02301447752911" lon="9.365541141427565"><ele>482.0</ele><time>2026-04-11T08:38:17Z</time></trkpt><trkpt lat="46.0231098296962" lon="9.365603195982391"><ele>482.0</ele><time>2026-04-11T08:38:18Z</time></trkpt><trkpt lat="46.023224190342134" lon="9.365611857936653"><ele>482.0</ele><time>2026-04-11T08:38:19Z</time></trkpt><trkpt lat="46.023358852682314" lon="9.365580843218236"><ele>484.40000000000003</ele><time>2026-04-11T08:38:20Z</time></trkpt><trkpt lat="46.023498925824335" lon="9.365566720358869"><ele>486.80000000000007</ele><time>2026-04-11T08:38:21Z</time></trkpt><trkpt lat="46.02359680143451" lon="9.365557314797497"><ele>489.2</ele><time>2026-04-11T08:38:21.999Z</time></trkpt><trkpt lat="46.023662560984256" lon="9.36556423469581"><ele>491.6</ele><time>2026-04-11T08:38:22.999Z</time></trkpt><trkpt lat="46.02375149039725" lon="9.365622405444867"><ele>494.0</ele><time>2026-04-11T08:38:24.999Z</time></trkpt><trkpt lat="46.02374739014243" lon="9.365783119625647"><ele>494.0</ele><time>2026-04-11T08:38:25.999Z</time></trkpt><trkpt lat="46.02374982548434" lon="9.365968142171177"><ele>494.0</ele><time>2026-04-11T08:38:26.999Z</time></trkpt><trkpt lat="46.02373288460928" lon="9.366149388295955"><ele>494.0</ele><time>2026-04-11T08:38:28Z</time></trkpt><trkpt lat="46.02372122042936" lon="9.366279622967467"><ele>494.0</ele><time>2026-04-11T08:38:29Z</time></trkpt><trkpt lat="46.02370292184987" lon="9.366377885689566"><ele>494.0</ele><time>2026-04-11T08:38:30Z</time></trkpt><trkpt lat="46.023736428645584" lon="9.366513358899239"><ele>494.75</ele><time>2026-04-11T08:38:32Z</time></trkpt><trkpt lat="46.02387667943792" lon="9.366510320673965"><ele>495.5</ele><time>2026-04-11T08:38:34Z</time></trkpt><trkpt lat="46.024008060858634" lon="9.366469426382617"><ele>496.25</ele><time>2026-04-11T08:38:35Z</time></trkpt><trkpt lat="46.02417105888379" lon="9.366390876566948"><ele>497.0</ele><time>2026-04-11T08:38:36Z</time></trkpt><trkpt lat="46.0243349357355" lon="9.36631879683497"><ele>497.0</ele><time>2026-04-11T08:38:37Z</time></trkpt><trkpt lat="46.024433719589666" lon="9.366274078823814"><ele>497.00000000000006</ele><time>2026-04-11T08:38:38Z</time></trkpt><trkpt lat="46.0245339781015" lon="9.366231890684105"><ele>497.00000000000006</ele><time>2026-04-11T08:38:40Z</time></trkpt><trkpt lat="46.02461190157971" lon="9.36624499906251"><ele>497.0</ele><time>2026-04-11T08:38:42Z</time></trkpt><trkpt lat="46.02463362363671" lon="9.366377278032187"><ele>497.0</ele><time>2026-04-11T08:38:44Z</time></trkpt><trkpt lat="46.02447609059438" lon="9.366481950224614"><ele>499.49999999999994</ele><time>2026-04-11T08:38:46Z</time></trkpt><trkpt lat="46.024351117724336" lon="9.366533896966088"><ele>502.0</ele><time>2026-04-11T08:38:47Z</time></trkpt><trkpt lat="46.02425544235387" lon="9.366586407900767"><ele>504.5</ele><time>2026-04-11T08:38:48Z</time></trkpt><trkpt lat="46.024188247359156" lon="9.36665418695802"><ele>507.0</ele><time>2026-04-11T08:38:49Z</time></trkpt><trkpt lat="46.02416174243309" lon="9.366738095468264"><ele>509.49999999999994</ele><time>2026-04-11T08:38:50Z</time></trkpt><trkpt lat="46.02416241491883" lon="9.36683338580444"><ele>512.0</ele><time>2026-04-11T08:38:51Z</time></trkpt><trkpt lat="46.0241769619807" lon="9.366934509803432"><ele>512.0</ele><time>2026-04-11T08:38:52Z</time></trkpt><trkpt lat="46.02426985652958" lon="9.367048730089618"><ele>512.0</ele><time>2026-04-11T08:38:53Z</time></trkpt><trkpt lat="46.02434551204291" lon="9.367166080748682"><ele>512.0</ele><time>2026-04-11T08:38:54Z</time></trkpt><trkpt lat="46.02437991452724" lon="9.367280961801567"><ele>512.0</ele><time>2026-04-11T08:38:55Z</time></trkpt><trkpt lat="46.02442706420556" lon="9.367348059256127"><ele>512.0</ele><time>2026-04-11T08:38:56Z</time></trkpt><trkpt lat="46.024460937035656" lon="9.367432047631825"><ele>513.8333333333333</ele><time>2026-04-11T08:38:57Z</time></trkpt><trkpt lat="46.02448994831196" lon="9.367534679564919"><ele>515.6666666666666</ele><time>2026-04-11T08:38:58Z</time></trkpt><trkpt lat="46.024513853992666" lon="9.367654375005792"><ele>517.5</ele><time>2026-04-11T08:38:59Z</time></trkpt><trkpt lat="46.02452000111209" lon="9.367783035729621"><ele>519.3333333333334</ele><time>2026-04-11T08:39:00Z</time></trkpt><trkpt lat="46.024496019634114" lon="9.367913545971241"><ele>521.1666666666667</ele><time>2026-04-11T08:39:01Z</time></trkpt><trkpt lat="46.02444449756154" lon="9.368036901779137"><ele>523.0</ele><time>2026-04-11T08:39:02Z</time></trkpt><trkpt lat="46.02435337888264" lon="9.368097803582794"><ele>524.0</ele><time>2026-04-11T08:39:03Z</time></trkpt><trkpt lat="46.024250001620345" lon="9.368130860040397"><ele>525.0</ele><time>2026-04-11T08:39:04Z</time></trkpt><trkpt lat="46.02414160888203" lon="9.368143693643963"><ele>526.0</ele><time>2026-04-11T08:39:05Z</time></trkpt><trkpt lat="46.02404758000374" lon="9.368142203409702"><ele>527.0</ele><time>2026-04-11T08:39:06Z</time></trkpt><trkpt lat="46.023975046923724" lon="9.368139110009828"><ele>528.0</ele><time>2026-04-11T08:39:07Z</time></trkpt><trkpt lat="46.02384665480519" lon="9.368152861092405"><ele>528.0</ele><time>2026-04-11T08:39:09Z</time></trkpt><trkpt lat="46.023769887688516" lon="9.368215631199611"><ele>528.0</ele><time>2026-04-11T08:39:10Z</time></trkpt><trkpt lat="46.023683277299405" lon="9.368347264317558"><ele>528.0</ele><time>2026-04-11T08:39:11Z</time></trkpt><trkpt lat="46.023581740372734" lon="9.368535948627162"><ele>528.0</ele><time>2026-04-11T08:39:12Z</time></trkpt><trkpt lat="46.023491917393706" lon="9.368696754001565"><ele>528.0</ele><time>2026-04-11T08:39:13Z</time></trkpt><trkpt lat="46.023425265695366" lon="9.368804558748854"><ele>528.0</ele><time>2026-04-11T08:39:14Z</time></trkpt><trkpt lat="46.02335935758966" lon="9.368883792505871"><ele>528.0</ele><time>2026-04-11T08:39:15Z</time></trkpt><trkpt lat="46.023300650616456" lon="9.36894163780739"><ele>528.0</ele><time>2026-04-11T08:39:16Z</time></trkpt><trkpt lat="46.0232091549554" lon="9.369036707665547"><ele>528.0</ele><time>2026-04-11T08:39:18Z</time></trkpt><trkpt lat="46.02315333709709" lon="9.369169302009976"><ele>531.1999999999999</ele><time>2026-04-11T08:39:20Z</time></trkpt><trkpt lat="46.02322553753292" lon="9.369299555388132"><ele>534.4</ele><time>2026-04-11T08:39:22Z</time></trkpt><trkpt lat="46.02329691491246" lon="9.369322965650985"><ele>537.5999999999999</ele><time>2026-04-11T08:39:23Z</time></trkpt><trkpt lat="46.02338222636152" lon="9.369227849420854"><ele>540.8</ele><time>2026-04-11T08:39:24Z</time></trkpt><trkpt lat="46.023463003281925" lon="9.369142328369861"><ele>544.0</ele><time>2026-04-11T08:39:25Z</time></trkpt><trkpt lat="46.023575322973166" lon="9.369072360374098"><ele>545.0</ele><time>2026-04-11T08:39:26Z</time></trkpt><trkpt lat="46.02369583244433" lon="9.369006495602626"><ele>546.0</ele><time>2026-04-11T08:39:27Z</time></trkpt><trkpt lat="46.02382830051293" lon="9.368946379851188"><ele>547.0</ele><time>2026-04-11T08:39:28Z</time></trkpt><trkpt lat="46.023930309578446" lon="9.368901862130194"><ele>548.0</ele><time>2026-04-11T08:39:29Z</time></trkpt><trkpt lat="46.02401848122245" lon="9.368866902672941"><ele>550.0</ele><time>2026-04-11T08:39:30Z</time></trkpt><trkpt lat="46.02411259771199" lon="9.368847169422597"><ele>552.0</ele><time>2026-04-11T08:39:31Z</time></trkpt><trkpt lat="46.024202714116626" lon="9.368864980224004"><ele>554.0</ele><time>2026-04-11T08:39:32Z</time></trkpt><trkpt lat="46.02428727109467" lon="9.368912421922637"><ele>556.0</ele><time>2026-04-11T08:39:33Z</time></trkpt><trkpt lat="46.02434631792772" lon="9.369032532213948"><ele>558.0</ele><time>2026-04-11T08:39:34Z</time></trkpt><trkpt lat="46.02436394527807" lon="9.36917031345169"><ele>558.0</ele><time>2026-04-11T08:39:35Z</time></trkpt><trkpt lat="46.02434027323124" lon="9.369306795378609"><ele>558.0</ele><time>2026-04-11T08:39:36Z</time></trkpt><trkpt lat="46.02428394859021" lon="9.36941083006738"><ele>558.0</ele><time>2026-04-11T08:39:37Z</time></trkpt><trkpt lat="46.024204042084726" lon="9.36948889313012"><ele>558.0</ele><time>2026-04-11T08:39:38Z</time></trkpt><trkpt lat="46.024098932955404" lon="9.369561482484944"><ele>558.0</ele><time>2026-04-11T08:39:39Z</time></trkpt><trkpt lat="46.02398649803249" lon="9.369652813270404"><ele>559.5</ele><time>2026-04-11T08:39:40Z</time></trkpt><trkpt lat="46.0238840647109" lon="9.36974123632593"><ele>561.0</ele><time>2026-04-11T08:39:41Z</time></trkpt><trkpt lat="46.02379011261255" lon="9.369836875626099"><ele>562.5</ele><time>2026-04-11T08:39:42Z</time></trkpt><trkpt lat="46.02371424276166" lon="9.369953622036412"><ele>564.0</ele><time>2026-04-11T08:39:43Z</time></trkpt><trkpt lat="46.02366703473133" lon="9.370114771096942"><ele>564.0</ele><time>2026-04-11T08:39:44Z</time></trkpt><trkpt lat="46.02363072615882" lon="9.370279859500673"><ele>564.0</ele><time>2026-04-11T08:39:45Z</time></trkpt><trkpt lat="46.0236026969883" lon="9.370403879559843"><ele>564.0</ele><time>2026-04-11T08:39:46Z</time></trkpt><trkpt lat="46.02356349972542" lon="9.370537086708904"><ele>564.0</ele><time>2026-04-11T08:39:47Z</time></trkpt><trkpt lat="46.02350811934975" lon="9.370673622456097"><ele>564.0</ele><time>2026-04-11T08:39:48Z</time></trkpt><trkpt lat="46.02342697599098" lon="9.37077990679457"><ele>567.5</ele><time>2026-04-11T08:39:49Z</time></trkpt><trkpt lat="46.02332924046388" lon="9.370825832518184"><ele>571.0</ele><time>2026-04-11T08:39:50Z</time></trkpt><trkpt lat="46.02320911401304" lon="9.370842715461292"><ele>574.5</ele><time>2026-04-11T08:39:51Z</time></trkpt><trkpt lat="46.02307540099134" lon="9.370829852025166"><ele>578.0</ele><time>2026-04-11T08:39:52Z</time></trkpt><trkpt lat="46.02296437532776" lon="9.370805565081447"><ele>578.0</ele><time>2026-04-11T08:39:53Z</time></trkpt><trkpt lat="46.02285308456009" lon="9.370801741877159"><ele>578.0</ele><time>2026-04-11T08:39:54Z</time></trkpt><trkpt lat="46.02273655581454" lon="9.370840954221235"><ele>578.0</ele><time>2026-04-11T08:39:55Z</time></trkpt><trkpt lat="46.022612104800544" lon="9.370928440486502"><ele>578.0</ele><time>2026-04-11T08:39:56Z</time></trkpt><trkpt lat="46.022500324691435" lon="9.371037114630008"><ele>578.5</ele><time>2026-04-11T08:39:57Z</time></trkpt><trkpt lat="46.02238583922027" lon="9.37112418509849"><ele>579.0</ele><time>2026-04-11T08:39:58Z</time></trkpt><trkpt lat="46.022266981332805" lon="9.371154330088315"><ele>579.5</ele><time>2026-04-11T08:39:59Z</time></trkpt><trkpt lat="46.02214993139371" lon="9.371124891108241"><ele>580.0</ele><time>2026-04-11T08:40:00Z</time></trkpt><trkpt lat="46.0220217944697" lon="9.371075657909328"><ele>580.0</ele><time>2026-04-11T08:40:01Z</time></trkpt><trkpt lat="46.0218939015851" lon="9.371044429625952"><ele>580.0</ele><time>2026-04-11T08:40:02Z</time></trkpt><trkpt lat="46.02178340601935" lon="9.371045468212264"><ele>580.0</ele><time>2026-04-11T08:40:03Z</time></trkpt><trkpt lat="46.02167102316011" lon="9.371081186343371"><ele>580.0</ele><time>2026-04-11T08:40:04Z</time></trkpt><trkpt lat="46.021569250385575" lon="9.37113353347"><ele>580.25</ele><time>2026-04-11T08:40:05Z</time></trkpt><trkpt lat="46.02147380090404" lon="9.371186767348677"><ele>580.5</ele><time>2026-04-11T08:40:06Z</time></trkpt><trkpt lat="46.02137749145798" lon="9.371259937219131"><ele>580.75</ele><time>2026-04-11T08:40:07Z</time></trkpt><trkpt lat="46.02127492126421" lon="9.371392444638236"><ele>581.0</ele><time>2026-04-11T08:40:08Z</time></trkpt><trkpt lat="46.02116312722899" lon="9.37158503963641"><ele>581.0</ele><time>2026-04-11T08:40:09Z</time></trkpt><trkpt lat="46.021076921159484" lon="9.371736074600584"><ele>581.0</ele><time>2026-04-11T08:40:10Z</time></trkpt><trkpt lat="46.0210038438644" lon="9.3718535719775"><ele>581.0</ele><time>2026-04-11T08:40:11Z</time></trkpt><trkpt lat="46.0209433900588" lon="9.37195677261245"><ele>581.0</ele><time>2026-04-11T08:40:12Z</time></trkpt><trkpt lat="46.02089416231459" lon="9.37203311531157"><ele>581.0</ele><time>2026-04-11T08:40:13Z</time></trkpt><trkpt lat="46.02085047414097" lon="9.372169417000201"><ele>581.0</ele><time>2026-04-11T08:40:15Z</time></trkpt><trkpt lat="46.02093589852068" lon="9.37230472568623"><ele>581.0</ele><time>2026-04-11T08:40:17Z</time></trkpt><trkpt lat="46.02100924788991" lon="9.372319837768023"><ele>581.0</ele><time>2026-04-11T08:40:18Z</time></trkpt><trkpt lat="46.02108341089842" lon="9.372267023306305"><ele>581.0</ele><time>2026-04-11T08:40:19Z</time></trkpt><trkpt lat="46.02113198459151" lon="9.372148332943043"><ele>581.0</ele><time>2026-04-11T08:40:20Z</time></trkpt><trkpt lat="46.02119484191495" lon="9.37204960411884"><ele>581.0</ele><time>2026-04-11T08:40:21Z</time></trkpt><trkpt lat="46.021254647311935" lon="9.371953514662572"><ele>581.0</ele><time>2026-04-11T08:40:21.999Z</time></trkpt><trkpt lat="46.02131617992796" lon="9.371863193833201"><ele>581.0</ele><time>2026-04-11T08:40:22.999Z</time></trkpt><trkpt lat="46.02137973926431" lon="9.371791760384435"><ele>581.0</ele><time>2026-04-11T08:40:23.999Z</time></trkpt><trkpt lat="46.02145363480409" lon="9.37175688595292"><ele>581.0</ele><time>2026-04-11T08:40:24.999Z</time></trkpt><trkpt lat="46.02154469207574" lon="9.371759312040945"><ele>581.0</ele><time>2026-04-11T08:40:25.999Z</time></trkpt><trkpt lat="46.02164368694949" lon="9.371812438145856"><ele>586.0</ele><time>2026-04-11T08:40:26.999Z</time></trkpt><trkpt lat="46.02177359943717" lon="9.371857098862927"><ele>591.0</ele><time>2026-04-11T08:40:27.999Z</time></trkpt><trkpt lat="46.02189968361945" lon="9.371900284800349"><ele>596.0</ele><time>2026-04-11T08:40:28.999Z</time></trkpt><trkpt lat="46.022010067609735" lon="9.371938053437589"><ele>601.0</ele><time>2026-04-11T08:40:29.999Z</time></trkpt><trkpt lat="46.02210481149699" lon="9.37198313120374"><ele>601.0</ele><time>2026-04-11T08:40:30.999Z</time></trkpt><trkpt lat="46.02218836089265" lon="9.372041149240134"><ele>601.0</ele><time>2026-04-11T08:40:31.999Z</time></trkpt><trkpt lat="46.02229589260381" lon="9.372148598684202"><ele>601.0</ele><time>2026-04-11T08:40:32.999Z</time></trkpt><trkpt lat="46.022439084621354" lon="9.372299496238991"><ele>601.0</ele><time>2026-04-11T08:40:34Z</time></trkpt><trkpt lat="46.02257815651961" lon="9.372440178733187"><ele>606.0</ele><time>2026-04-11T08:40:35Z</time></trkpt><trkpt lat="46.02269112437059" lon="9.372561993704307"><ele>611.0</ele><time>2026-04-11T08:40:36Z</time></trkpt><trkpt lat="46.02277871796368" lon="9.372681734137403"><ele>616.0</ele><time>2026-04-11T08:40:37Z</time></trkpt><trkpt lat="46.02287004704056" lon="9.372857330187651"><ele>621.0</ele><time>2026-04-11T08:40:38Z</time></trkpt><trkpt lat="46.02296183797829" lon="9.373085436034215"><ele>625.5</ele><time>2026-04-11T08:40:39Z</time></trkpt><trkpt lat="46.0230547354299" lon="9.373284032779454"><ele>630.0</ele><time>2026-04-11T08:40:40Z</time></trkpt><trkpt lat="46.02313993920186" lon="9.373461701781928"><ele>634.5</ele><time>2026-04-11T08:40:41Z</time></trkpt><trkpt lat="46.02322992620723" lon="9.373600405438923"><ele>639.0</ele><time>2026-04-11T08:40:42Z</time></trkpt><trkpt lat="46.02329700441578" lon="9.373690400142152"><ele>640.0</ele><time>2026-04-11T08:40:43Z</time></trkpt><trkpt lat="46.023369273358774" lon="9.373805402102388"><ele>641.0</ele><time>2026-04-11T08:40:44Z</time></trkpt><trkpt lat="46.02342872374453" lon="9.373884838912169"><ele>642.0</ele><time>2026-04-11T08:40:45Z</time></trkpt><trkpt lat="46.02351220148061" lon="9.37389871280361"><ele>643.0</ele><time>2026-04-11T08:40:46Z</time></trkpt><trkpt lat="46.02361917513615" lon="9.373849139973279"><ele>644.0</ele><time>2026-04-11T08:40:47Z</time></trkpt><trkpt lat="46.02372470368012" lon="9.373729510552472"><ele>639.5</ele><time>2026-04-11T08:40:48Z</time></trkpt><trkpt lat="46.02381522681537" lon="9.373597761878628"><ele>635.0</ele><time>2026-04-11T08:40:49Z</time></trkpt><trkpt lat="46.023873731921704" lon="9.37342589711897"><ele>630.5</ele><time>2026-04-11T08:40:50Z</time></trkpt><trkpt lat="46.02392277753159" lon="9.373272267579361"><ele>626.0</ele><time>2026-04-11T08:40:51Z</time></trkpt><trkpt lat="46.023982546458015" lon="9.373138116756197"><ele>625.75</ele><time>2026-04-11T08:40:52Z</time></trkpt><trkpt lat="46.02405575394993" lon="9.373018737436006"><ele>625.5</ele><time>2026-04-11T08:40:53Z</time></trkpt><trkpt lat="46.02415829130088" lon="9.372947023986542"><ele>625.25</ele><time>2026-04-11T08:40:54Z</time></trkpt><trkpt lat="46.024311874463045" lon="9.37289689199183"><ele>625.0</ele><time>2026-04-11T08:40:55Z</time></trkpt><trkpt lat="46.02450972387628" lon="9.372832372743908"><ele>625.0</ele><time>2026-04-11T08:40:56Z</time></trkpt><trkpt lat="46.02471294383068" lon="9.37276739083517"><ele>625.0</ele><time>2026-04-11T08:40:57Z</time></trkpt><trkpt lat="46.02489587188588" lon="9.372709649776153"><ele>625.0</ele><time>2026-04-11T08:40:58Z</time></trkpt><trkpt lat="46.02505471837554" lon="9.372663064999273"><ele>628.25</ele><time>2026-04-11T08:40:59Z</time></trkpt><trkpt lat="46.02520621988034" lon="9.372621500960047"><ele>631.5</ele><time>2026-04-11T08:41:00Z</time></trkpt><trkpt lat="46.025321624919954" lon="9.372590435500443"><ele>634.75</ele><time>2026-04-11T08:41:01Z</time></trkpt><trkpt lat="46.02540361416367" lon="9.372574728091395"><ele>638.0</ele><time>2026-04-11T08:41:02Z</time></trkpt><trkpt lat="46.02550479340458" lon="9.372696344592397"><ele>638.0</ele><time>2026-04-11T08:41:04Z</time></trkpt><trkpt lat="46.025487669735035" lon="9.372843343207862"><ele>638.0</ele><time>2026-04-11T08:41:05Z</time></trkpt><trkpt lat="46.0254815328099" lon="9.37304142332793"><ele>638.0</ele><time>2026-04-11T08:41:06Z</time></trkpt><trkpt lat="46.02551818841106" lon="9.373272759084072"><ele>638.0</ele><time>2026-04-11T08:41:07Z</time></trkpt><trkpt lat="46.02557587571739" lon="9.3735457988156"><ele>641.0</ele><time>2026-04-11T08:41:08Z</time></trkpt><trkpt lat="46.025645731161596" lon="9.373810818908865"><ele>644.0</ele><time>2026-04-11T08:41:09Z</time></trkpt><trkpt lat="46.02572398546455" lon="9.374114437575317"><ele>647.0</ele><time>2026-04-11T08:41:10Z</time></trkpt><trkpt lat="46.025794710737976" lon="9.374412349805635"><ele>652.3333333333333</ele><time>2026-04-11T08:41:11Z</time></trkpt><trkpt lat="46.025864987725924" lon="9.37469472659369"><ele>657.6666666666666</ele><time>2026-04-11T08:41:12Z</time></trkpt><trkpt lat="46.02592316210188" lon="9.374931013552406"><ele>663.0</ele><time>2026-04-11T08:41:13Z</time></trkpt><trkpt lat="46.02597942130766" lon="9.375131797103066"><ele>663.0</ele><time>2026-04-11T08:41:14Z</time></trkpt><trkpt lat="46.02606816911168" lon="9.375294713091836"><ele>663.0</ele><time>2026-04-11T08:41:15Z</time></trkpt><trkpt lat="46.026210047898694" lon="9.37543376182484"><ele>663.0</ele><time>2026-04-11T08:41:16Z</time></trkpt><trkpt lat="46.02635882247932" lon="9.375583728439661"><ele>666.5999999999999</ele><time>2026-04-11T08:41:17Z</time></trkpt><trkpt lat="46.02646747306154" lon="9.375706602194695"><ele>670.1999999999999</ele><time>2026-04-11T08:41:18Z</time></trkpt><trkpt lat="46.026528983302164" lon="9.375795197618828"><ele>673.8</ele><time>2026-04-11T08:41:19Z</time></trkpt><trkpt lat="46.02655342249012" lon="9.375905339420232"><ele>677.4</ele><time>2026-04-11T08:41:20Z</time></trkpt><trkpt lat="46.02658145429143" lon="9.376024166850693"><ele>681.0</ele><time>2026-04-11T08:41:21Z</time></trkpt><trkpt lat="46.026591269696915" lon="9.376190493443929"><ele>679.75</ele><time>2026-04-11T08:41:22Z</time></trkpt><trkpt lat="46.02661107395496" lon="9.376370080378123"><ele>678.5</ele><time>2026-04-11T08:41:23Z</time></trkpt><trkpt lat="46.02664265022575" lon="9.376586864741583"><ele>677.25</ele><time>2026-04-11T08:41:24Z</time></trkpt><trkpt lat="46.02668738307636" lon="9.376807292322736"><ele>676.0</ele><time>2026-04-11T08:41:25Z</time></trkpt><trkpt lat="46.026767806336544" lon="9.376998958404231"><ele>676.0</ele><time>2026-04-11T08:41:26Z</time></trkpt><trkpt lat="46.026905192711645" lon="9.377172320005617"><ele>676.0</ele><time>2026-04-11T08:41:27Z</time></trkpt><trkpt lat="46.02704860513902" lon="9.377353718412705"><ele>676.0</ele><time>2026-04-11T08:41:28Z</time></trkpt><trkpt lat="46.02715583762592" lon="9.377580348040352"><ele>682.3333333333334</ele><time>2026-04-11T08:41:29Z</time></trkpt><trkpt lat="46.02726513237682" lon="9.377817913997456"><ele>688.6666666666666</ele><time>2026-04-11T08:41:30Z</time></trkpt><trkpt lat="46.02734537458579" lon="9.378093864093238"><ele>695.0</ele><time>2026-04-11T08:41:31Z</time></trkpt><trkpt lat="46.027407688423004" lon="9.378363188527006"><ele>693.3333333333333</ele><time>2026-04-11T08:41:32Z</time></trkpt><trkpt lat="46.02745348931443" lon="9.378589990437423"><ele>691.6666666666666</ele><time>2026-04-11T08:41:33Z</time></trkpt><trkpt lat="46.027532446960215" lon="9.378778650218942"><ele>690.0</ele><time>2026-04-11T08:41:34Z</time></trkpt><trkpt lat="46.0276589566821" lon="9.37894551299254"><ele>695.6666666666666</ele><time>2026-04-11T08:41:35Z</time></trkpt><trkpt lat="46.02779975922745" lon="9.379102831483525"><ele>701.3333333333333</ele><time>2026-04-11T08:41:36Z</time></trkpt><trkpt lat="46.027914912046896" lon="9.379235777867775"><ele>707.0</ele><time>2026-04-11T08:41:37Z</time></trkpt><trkpt lat="46.027981108782335" lon="9.379416763768731"><ele>707.0</ele><time>2026-04-11T08:41:38Z</time></trkpt><trkpt lat="46.0280640441892" lon="9.37964197907794"><ele>707.0</ele><time>2026-04-11T08:41:39Z</time></trkpt><trkpt lat="46.02815267855423" lon="9.379892595182417"><ele>707.0</ele><time>2026-04-11T08:41:40Z</time></trkpt><trkpt lat="46.0282788772021" lon="9.380129378942577"><ele>709.0</ele><time>2026-04-11T08:41:41Z</time></trkpt><trkpt lat="46.02838671615495" lon="9.38034476043514"><ele>711.0</ele><time>2026-04-11T08:41:42Z</time></trkpt><trkpt lat="46.028454540244866" lon="9.380519341363247"><ele>713.0</ele><time>2026-04-11T08:41:43Z</time></trkpt><trkpt lat="46.028513793123295" lon="9.380695125068776"><ele>713.0</ele><time>2026-04-11T08:41:44Z</time></trkpt><trkpt lat="46.02856588978047" lon="9.38085746381429"><ele>713.0</ele><time>2026-04-11T08:41:45Z</time></trkpt><trkpt lat="46.028607731440935" lon="9.380978047105119"><ele>713.0</ele><time>2026-04-11T08:41:46Z</time></trkpt><trkpt lat="46.02866113413105" lon="9.381063301290329"><ele>713.0</ele><time>2026-04-11T08:41:47Z</time></trkpt><trkpt lat="46.02873300934326" lon="9.381126774902226"><ele>713.0</ele><time>2026-04-11T08:41:48Z</time></trkpt><trkpt lat="46.02884465541708" lon="9.381123625561745"><ele>713.0</ele><time>2026-04-11T08:41:49Z</time></trkpt><trkpt lat="46.02895611024299" lon="9.381062065745265"><ele>713.0</ele><time>2026-04-11T08:41:50Z</time></trkpt><trkpt lat="46.02904765255439" lon="9.38093359867079"><ele>713.0</ele><time>2026-04-11T08:41:51Z</time></trkpt><trkpt lat="46.02911975019905" lon="9.380784335694472"><ele>713.0</ele><time>2026-04-11T08:41:52Z</time></trkpt><trkpt lat="46.029202656932995" lon="9.380639180096148"><ele>712.4</ele><time>2026-04-11T08:41:53Z</time></trkpt><trkpt lat="46.02928245778351" lon="9.380535643889502"><ele>711.8</ele><time>2026-04-11T08:41:54Z</time></trkpt><trkpt lat="46.029361282823096" lon="9.38047079073299"><ele>711.2</ele><time>2026-04-11T08:41:55Z</time></trkpt><trkpt lat="46.029461680980745" lon="9.380467603376703"><ele>710.6</ele><time>2026-04-11T08:41:56Z</time></trkpt><trkpt lat="46.02956854061279" lon="9.380448457409974"><ele>710.0</ele><time>2026-04-11T08:41:57Z</time></trkpt><trkpt lat="46.02968347124412" lon="9.380429756978307"><ele>710.0</ele><time>2026-04-11T08:41:58Z</time></trkpt><trkpt lat="46.02980755310517" lon="9.380409076682945"><ele>710.0</ele><time>2026-04-11T08:41:59Z</time></trkpt><trkpt lat="46.029943595681814" lon="9.38038280285585"><ele>710.0</ele><time>2026-04-11T08:42:00Z</time></trkpt><trkpt lat="46.030066508107055" lon="9.380359969627706"><ele>710.0</ele><time>2026-04-11T08:42:01Z</time></trkpt><trkpt lat="46.03017641796482" lon="9.380340746187645"><ele>710.0</ele><time>2026-04-11T08:42:02Z</time></trkpt><trkpt lat="46.03027219732813" lon="9.3803240570833"><ele>710.0</ele><time>2026-04-11T08:42:03Z</time></trkpt><trkpt lat="46.030348749596996" lon="9.380310718215078"><ele>710.0</ele><time>2026-04-11T08:42:04Z</time></trkpt><trkpt lat="46.030417840835916" lon="9.380297741654788"><ele>710.0</ele><time>2026-04-11T08:42:05Z</time></trkpt><trkpt lat="46.03049141812326" lon="9.380284093597073"><ele>710.0</ele><time>2026-04-11T08:42:06Z</time></trkpt><trkpt lat="46.030620695392386" lon="9.380223923625186"><ele>710.0</ele><time>2026-04-11T08:42:07.999Z</time></trkpt><trkpt lat="46.0306939876137" lon="9.380230141739759"><ele>710.0</ele><time>2026-04-11T08:42:08.999Z</time></trkpt><trkpt lat="46.030772480721005" lon="9.380223368409276"><ele>710.0</ele><time>2026-04-11T08:42:09.999Z</time></trkpt><trkpt lat="46.03085135826215" lon="9.380215163174977"><ele>710.0</ele><time>2026-04-11T08:42:10.999Z</time></trkpt><trkpt lat="46.03092809741944" lon="9.38020641817677"><ele>710.0</ele><time>2026-04-11T08:42:11.999Z</time></trkpt><trkpt lat="46.031012760429604" lon="9.380203745627453"><ele>710.0</ele><time>2026-04-11T08:42:12.999Z</time></trkpt><trkpt lat="46.03110193357971" lon="9.380237300991647"><ele>711.0</ele><time>2026-04-11T08:42:13.999Z</time></trkpt><trkpt lat="46.031202067923644" lon="9.380264233770795"><ele>712.0</ele><time>2026-04-11T08:42:14.999Z</time></trkpt><trkpt lat="46.0313147040474" lon="9.380288077752104"><ele>713.0</ele><time>2026-04-11T08:42:15.999Z</time></trkpt><trkpt lat="46.03142273796435" lon="9.380313007472154"><ele>714.0</ele><time>2026-04-11T08:42:16.999Z</time></trkpt><trkpt lat="46.031540816636046" lon="9.380343879020355"><ele>715.0</ele><time>2026-04-11T08:42:17.999Z</time></trkpt><trkpt lat="46.031648595891554" lon="9.380385967055576"><ele>715.5</ele><time>2026-04-11T08:42:18.999Z</time></trkpt><trkpt lat="46.03176120107419" lon="9.380454076333313"><ele>716.0</ele><time>2026-04-11T08:42:19.999Z</time></trkpt><trkpt lat="46.03188434338698" lon="9.380529545258977"><ele>716.5</ele><time>2026-04-11T08:42:20.999Z</time></trkpt><trkpt lat="46.032019865799846" lon="9.380612022912821"><ele>717.0</ele><time>2026-04-11T08:42:21.999Z</time></trkpt><trkpt lat="46.03215757634435" lon="9.380696293597001"><ele>719.0</ele><time>2026-04-11T08:42:22.999Z</time></trkpt><trkpt lat="46.03230025005792" lon="9.380784930333256"><ele>721.0</ele><time>2026-04-11T08:42:23.999Z</time></trkpt><trkpt lat="46.032434777966124" lon="9.380867846507975"><ele>723.0</ele><time>2026-04-11T08:42:24.999Z</time></trkpt><trkpt lat="46.032550695671276" lon="9.380915739730996"><ele>725.0</ele><time>2026-04-11T08:42:25.999Z</time></trkpt><trkpt lat="46.032644096674" lon="9.381003177411193"><ele>725.0</ele><time>2026-04-11T08:42:26.999Z</time></trkpt><trkpt lat="46.03274740181521" lon="9.381114208240763"><ele>725.0</ele><time>2026-04-11T08:42:27.999Z</time></trkpt><trkpt lat="46.03280388624757" lon="9.381303613647132"><ele>725.0</ele><time>2026-04-11T08:42:28.999Z</time></trkpt><trkpt lat="46.03286336426472" lon="9.381490074163207"><ele>725.0</ele><time>2026-04-11T08:42:29.999Z</time></trkpt><trkpt lat="46.0329095655549" lon="9.381637918316377"><ele>728.3333333333333</ele><time>2026-04-11T08:42:30.999Z</time></trkpt><trkpt lat="46.03297411150459" lon="9.381804934659343"><ele>731.6666666666666</ele><time>2026-04-11T08:42:31.999Z</time></trkpt><trkpt lat="46.03304459283297" lon="9.382001310669992"><ele>735.0</ele><time>2026-04-11T08:42:32.999Z</time></trkpt><trkpt lat="46.033093057531616" lon="9.382239568029819"><ele>738.6666666666666</ele><time>2026-04-11T08:42:33.999Z</time></trkpt><trkpt lat="46.03315322352266" lon="9.382505153356057"><ele>742.3333333333333</ele><time>2026-04-11T08:42:34.999Z</time></trkpt><trkpt lat="46.03321020960544" lon="9.382755710322453"><ele>746.0</ele><time>2026-04-11T08:42:35.999Z</time></trkpt><trkpt lat="46.03326780774482" lon="9.383008401996676"><ele>747.5</ele><time>2026-04-11T08:42:36.999Z</time></trkpt><trkpt lat="46.0333185757444" lon="9.383223662090481"><ele>749.0</ele><time>2026-04-11T08:42:37.999Z</time></trkpt><trkpt lat="46.03336088858148" lon="9.383401888852232"><ele>750.5</ele><time>2026-04-11T08:42:38.999Z</time></trkpt><trkpt lat="46.03340886243495" lon="9.383557299354175"><ele>752.0</ele><time>2026-04-11T08:42:40Z</time></trkpt><trkpt lat="46.033443149151566" lon="9.383702055351698"><ele>754.0</ele><time>2026-04-11T08:42:41Z</time></trkpt><trkpt lat="46.03348245318629" lon="9.383849910698316"><ele>756.0</ele><time>2026-04-11T08:42:42Z</time></trkpt><trkpt lat="46.033544190414126" lon="9.383974586453535"><ele>758.0</ele><time>2026-04-11T08:42:43Z</time></trkpt><trkpt lat="46.033645553070116" lon="9.384071210861492"><ele>760.0</ele><time>2026-04-11T08:42:44Z</time></trkpt><trkpt lat="46.03376630433662" lon="9.38412770206888"><ele>760.0</ele><time>2026-04-11T08:42:45Z</time></trkpt><trkpt lat="46.03390036738543" lon="9.384104411029192"><ele>760.0</ele><time>2026-04-11T08:42:46Z</time></trkpt><trkpt lat="46.0340471836193" lon="9.384034436237314"><ele>760.0</ele><time>2026-04-11T08:42:47Z</time></trkpt><trkpt lat="46.03421243767456" lon="9.383952869935367"><ele>757.6666666666667</ele><time>2026-04-11T08:42:48Z</time></trkpt><trkpt lat="46.034372393495964" lon="9.38392581267837"><ele>755.3333333333334</ele><time>2026-04-11T08:42:49Z</time></trkpt><trkpt lat="46.034517360568614" lon="9.383945048785165"><ele>753.0</ele><time>2026-04-11T08:42:50Z</time></trkpt><trkpt lat="46.0346694057553" lon="9.384022602222107"><ele>753.0</ele><time>2026-04-11T08:42:51Z</time></trkpt><trkpt lat="46.03484892784945" lon="9.3841233666812"><ele>753.0</ele><time>2026-04-11T08:42:52Z</time></trkpt><trkpt lat="46.034988335280005" lon="9.384197743648778"><ele>753.0</ele><time>2026-04-11T08:42:53Z</time></trkpt><trkpt lat="46.035116830721" lon="9.384240010791764"><ele>756.25</ele><time>2026-04-11T08:42:54Z</time></trkpt><trkpt lat="46.03522068300263" lon="9.384317477395536"><ele>759.5</ele><time>2026-04-11T08:42:55Z</time></trkpt><trkpt lat="46.03531119846821" lon="9.384431175283309"><ele>762.75</ele><time>2026-04-11T08:42:56Z</time></trkpt><trkpt lat="46.035406069302695" lon="9.38454963109586"><ele>766.0</ele><time>2026-04-11T08:42:57Z</time></trkpt><trkpt lat="46.03551234968915" lon="9.384661750721456"><ele>764.5</ele><time>2026-04-11T08:42:58Z</time></trkpt><trkpt lat="46.03560658403072" lon="9.384803142244474"><ele>763.0</ele><time>2026-04-11T08:42:59Z</time></trkpt><trkpt lat="46.03570567509655" lon="9.384929673717838"><ele>761.5</ele><time>2026-04-11T08:43:00Z</time></trkpt><trkpt lat="46.035784058618944" lon="9.385043864698332"><ele>760.0</ele><time>2026-04-11T08:43:01Z</time></trkpt><trkpt lat="46.03585414923775" lon="9.385138523383407"><ele>763.0</ele><time>2026-04-11T08:43:02Z</time></trkpt><trkpt lat="46.0359218328221" lon="9.385196027707588"><ele>766.0</ele><time>2026-04-11T08:43:03Z</time></trkpt><trkpt lat="46.03600443746545" lon="9.38521392085282"><ele>769.0</ele><time>2026-04-11T08:43:04Z</time></trkpt><trkpt lat="46.03609890773805" lon="9.385248449153602"><ele>772.0</ele><time>2026-04-11T08:43:05Z</time></trkpt><trkpt lat="46.03621526515941" lon="9.385304893611771"><ele>775.0</ele><time>2026-04-11T08:43:06Z</time></trkpt><trkpt lat="46.036343981515444" lon="9.385370772631136"><ele>775.0</ele><time>2026-04-11T08:43:07Z</time></trkpt><trkpt lat="46.03644727209624" lon="9.385432595150652"><ele>775.0</ele><time>2026-04-11T08:43:08Z</time></trkpt><trkpt lat="46.03655752659198" lon="9.385500321771087"><ele>775.0</ele><time>2026-04-11T08:43:09Z</time></trkpt><trkpt lat="46.036676609079116" lon="9.385573471146389"><ele>775.0</ele><time>2026-04-11T08:43:10Z</time></trkpt><trkpt lat="46.03679044251325" lon="9.385626673542811"><ele>776.0</ele><time>2026-04-11T08:43:11Z</time></trkpt><trkpt lat="46.03691928593127" lon="9.385661199130729"><ele>777.0</ele><time>2026-04-11T08:43:12Z</time></trkpt><trkpt lat="46.037043112523655" lon="9.385695617685366"><ele>778.0</ele><time>2026-04-11T08:43:13Z</time></trkpt><trkpt lat="46.037147370578474" lon="9.38573083744548"><ele>779.0</ele><time>2026-04-11T08:43:14Z</time></trkpt><trkpt lat="46.03723698489124" lon="9.385764566505822"><ele>779.0000000000001</ele><time>2026-04-11T08:43:15Z</time></trkpt><trkpt lat="46.037320723768474" lon="9.38580184240307"><ele>779.0</ele><time>2026-04-11T08:43:16Z</time></trkpt><trkpt lat="46.03741365104728" lon="9.385817535257152"><ele>779.0</ele><time>2026-04-11T08:43:17Z</time></trkpt><trkpt lat="46.03748413376821" lon="9.38589365220866"><ele>779.0</ele><time>2026-04-11T08:43:18Z</time></trkpt><trkpt lat="46.03754416242621" lon="9.385953752915409"><ele>779.0000000000001</ele><time>2026-04-11T08:43:19Z</time></trkpt><trkpt lat="46.03761272680522" lon="9.386009181836373"><ele>779.0</ele><time>2026-04-11T08:43:20Z</time></trkpt><trkpt lat="46.037665025255166" lon="9.38610622220947"><ele>781.25</ele><time>2026-04-11T08:43:21Z</time></trkpt><trkpt lat="46.037752243716454" lon="9.386220643710763"><ele>783.5</ele><time>2026-04-11T08:43:22Z</time></trkpt><trkpt lat="46.037852698708775" lon="9.386320557063986"><ele>785.75</ele><time>2026-04-11T08:43:23Z</time></trkpt><trkpt lat="46.037956057215155" lon="9.386430968348142"><ele>788.0</ele><time>2026-04-11T08:43:24Z</time></trkpt><trkpt lat="46.0380512359148" lon="9.386540805240413"><ele>788.0</ele><time>2026-04-11T08:43:25Z</time></trkpt><trkpt lat="46.038148859304606" lon="9.38666469129471"><ele>788.0</ele><time>2026-04-11T08:43:26Z</time></trkpt><trkpt lat="46.038242784376" lon="9.386795722596355"><ele>788.0</ele><time>2026-04-11T08:43:27Z</time></trkpt><trkpt lat="46.038347244803354" lon="9.386918375492339"><ele>788.0</ele><time>2026-04-11T08:43:28Z</time></trkpt><trkpt lat="46.03843143077951" lon="9.387042648308935"><ele>790.4</ele><time>2026-04-11T08:43:29Z</time></trkpt><trkpt lat="46.03851641765412" lon="9.387166039529637"><ele>792.8</ele><time>2026-04-11T08:43:30Z</time></trkpt><trkpt lat="46.038592229025255" lon="9.387281765333228"><ele>795.2</ele><time>2026-04-11T08:43:31Z</time></trkpt><trkpt lat="46.03866710727377" lon="9.38737910789808"><ele>797.6</ele><time>2026-04-11T08:43:32Z</time></trkpt><trkpt lat="46.03873605532616" lon="9.387483171101298"><ele>800.0</ele><time>2026-04-11T08:43:33Z</time></trkpt><trkpt lat="46.03880617958603" lon="9.387575167047821"><ele>800.2</ele><time>2026-04-11T08:43:34Z</time></trkpt><trkpt lat="46.038874958995066" lon="9.38767783609736"><ele>800.4</ele><time>2026-04-11T08:43:35Z</time></trkpt><trkpt lat="46.038942798511336" lon="9.387779954514947"><ele>800.5999999999999</ele><time>2026-04-11T08:43:36Z</time></trkpt><trkpt lat="46.03900842670762" lon="9.387881297624196"><ele>800.8</ele><time>2026-04-11T08:43:37Z</time></trkpt><trkpt lat="46.03907597799008" lon="9.387976323485747"><ele>801.0</ele><time>2026-04-11T08:43:38Z</time></trkpt><trkpt lat="46.03915406821903" lon="9.388065744212934"><ele>802.5999999999999</ele><time>2026-04-11T08:43:39Z</time></trkpt><trkpt lat="46.039245815378415" lon="9.388136718385573"><ele>804.2</ele><time>2026-04-11T08:43:40Z</time></trkpt><trkpt lat="46.03935302408052" lon="9.388174499157191"><ele>805.8</ele><time>2026-04-11T08:43:41Z</time></trkpt><trkpt lat="46.039455626820164" lon="9.388242238753735"><ele>807.4000000000001</ele><time>2026-04-11T08:43:42Z</time></trkpt><trkpt lat="46.03955997717293" lon="9.388273040118515"><ele>809.0</ele><time>2026-04-11T08:43:43Z</time></trkpt><trkpt lat="46.03964238907781" lon="9.38832407860547"><ele>809.0000000000001</ele><time>2026-04-11T08:43:44Z</time></trkpt><trkpt lat="46.039723185158664" lon="9.388352479005844"><ele>809.0</ele><time>2026-04-11T08:43:45Z</time></trkpt><trkpt lat="46.03979131068593" lon="9.388372386705433"><ele>809.0</ele><time>2026-04-11T08:43:46Z</time></trkpt><trkpt lat="46.03986121824625" lon="9.388375330472066"><ele>809.0</ele><time>2026-04-11T08:43:47Z</time></trkpt><trkpt lat="46.03993687477583" lon="9.388385183902297"><ele>809.0000000000001</ele><time>2026-04-11T08:43:48Z</time></trkpt><trkpt lat="46.04001324347872" lon="9.388403506942327"><ele>809.0</ele><time>2026-04-11T08:43:49Z</time></trkpt><trkpt lat="46.04008664292067" lon="9.388439528855864"><ele>810.0</ele><time>2026-04-11T08:43:50Z</time></trkpt><trkpt lat="46.04015451323553" lon="9.388450497873963"><ele>811.0</ele><time>2026-04-11T08:43:51Z</time></trkpt><trkpt lat="46.04022696159873" lon="9.388432222671767"><ele>812.0</ele><time>2026-04-11T08:43:52Z</time></trkpt><trkpt lat="46.04029627238763" lon="9.388433279739973"><ele>813.0</ele><time>2026-04-11T08:43:53Z</time></trkpt><trkpt lat="46.04036010203788" lon="9.388453758754732"><ele>814.0</ele><time>2026-04-11T08:43:54Z</time></trkpt><trkpt lat="46.040422602153065" lon="9.388510883780455"><ele>815.0</ele><time>2026-04-11T08:43:54.999Z</time></trkpt><trkpt lat="46.0404680890789" lon="9.388588536014232"><ele>816.0</ele><time>2026-04-11T08:43:55.999Z</time></trkpt><trkpt lat="46.0405608619239" lon="9.388642675572036"><ele>816.0</ele><time>2026-04-11T08:43:56.999Z</time></trkpt><trkpt lat="46.0406315505017" lon="9.388704601330653"><ele>816.0</ele><time>2026-04-11T08:43:57.999Z</time></trkpt><trkpt lat="46.04069654382432" lon="9.388728188276076"><ele>816.0</ele><time>2026-04-11T08:43:58.999Z</time></trkpt><trkpt lat="46.04078983193032" lon="9.388770422742077"><ele>816.0</ele><time>2026-04-11T08:43:59.999Z</time></trkpt><trkpt lat="46.04087100302739" lon="9.38889677546816"><ele>816.0</ele><time>2026-04-11T08:44:00.999Z</time></trkpt><trkpt lat="46.0409734415325" lon="9.388975816246065"><ele>817.0</ele><time>2026-04-11T08:44:01.999Z</time></trkpt><trkpt lat="46.04106020223937" lon="9.389045816406488"><ele>818.0</ele><time>2026-04-11T08:44:02.999Z</time></trkpt><trkpt lat="46.04115685289805" lon="9.389130068371179"><ele>819.0</ele><time>2026-04-11T08:44:03.999Z</time></trkpt><trkpt lat="46.04125705736136" lon="9.389218784025811"><ele>820.0</ele><time>2026-04-11T08:44:04.999Z</time></trkpt><trkpt lat="46.04136855705653" lon="9.3893161795873"><ele>820.0</ele><time>2026-04-11T08:44:05.999Z</time></trkpt><trkpt lat="46.04147089624929" lon="9.389403958521894"><ele>820.0</ele><time>2026-04-11T08:44:06.999Z</time></trkpt><trkpt lat="46.04157837056772" lon="9.389496114261302"><ele>820.0</ele><time>2026-04-11T08:44:07.999Z</time></trkpt><trkpt lat="46.04168847922818" lon="9.389590528893637"><ele>820.0</ele><time>2026-04-11T08:44:08.999Z</time></trkpt><trkpt lat="46.04179959045024" lon="9.389686403523134"><ele>821.25</ele><time>2026-04-11T08:44:09.999Z</time></trkpt><trkpt lat="46.041915272733554" lon="9.389787683593056"><ele>822.5</ele><time>2026-04-11T08:44:10.999Z</time></trkpt><trkpt lat="46.04202926857541" lon="9.3898887575164"><ele>823.75</ele><time>2026-04-11T08:44:11.999Z</time></trkpt><trkpt lat="46.04215726819766" lon="9.389976621267444"><ele>825.0</ele><time>2026-04-11T08:44:12.999Z</time></trkpt><trkpt lat="46.04227093811536" lon="9.390091613965845"><ele>825.0</ele><time>2026-04-11T08:44:13.999Z</time></trkpt><trkpt lat="46.04238486154751" lon="9.390211808246642"><ele>825.0</ele><time>2026-04-11T08:44:14.999Z</time></trkpt><trkpt lat="46.04250460473149" lon="9.390323815224797"><ele>825.0</ele><time>2026-04-11T08:44:15.999Z</time></trkpt><trkpt lat="46.04262248966034" lon="9.390439250165436"><ele>825.0</ele><time>2026-04-11T08:44:16.999Z</time></trkpt><trkpt lat="46.042740349231764" lon="9.39055235566688"><ele>829.0</ele><time>2026-04-11T08:44:17.999Z</time></trkpt><trkpt lat="46.04286419762186" lon="9.39066814925716"><ele>833.0</ele><time>2026-04-11T08:44:18.999Z</time></trkpt><trkpt lat="46.04297778550988" lon="9.390808413936242"><ele>837.0</ele><time>2026-04-11T08:44:19.999Z</time></trkpt><trkpt lat="46.04310684859648" lon="9.390935172002786"><ele>837.0</ele><time>2026-04-11T08:44:20.999Z</time></trkpt><trkpt lat="46.04322693946928" lon="9.391053367660128"><ele>837.0</ele><time>2026-04-11T08:44:21.999Z</time></trkpt><trkpt lat="46.04335373447389" lon="9.391178161514972"><ele>837.0</ele><time>2026-04-11T08:44:22.999Z</time></trkpt><trkpt lat="46.04348645078885" lon="9.391288590683976"><ele>838.75</ele><time>2026-04-11T08:44:23.999Z</time></trkpt><trkpt lat="46.043603668983415" lon="9.391406842281967"><ele>840.5</ele><time>2026-04-11T08:44:24.999Z</time></trkpt><trkpt lat="46.0437026487236" lon="9.391501480207642"><ele>842.25</ele><time>2026-04-11T08:44:25.999Z</time></trkpt><trkpt lat="46.04379290901297" lon="9.391595839413995"><ele>844.0</ele><time>2026-04-11T08:44:26.999Z</time></trkpt><trkpt lat="46.04387188606354" lon="9.39166980874739"><ele>843.9999999999999</ele><time>2026-04-11T08:44:27.999Z</time></trkpt><trkpt lat="46.04394280100309" lon="9.391743786302044"><ele>844.0</ele><time>2026-04-11T08:44:28.999Z</time></trkpt><trkpt lat="46.044002968213555" lon="9.391799784417262"><ele>844.0</ele><time>2026-04-11T08:44:29.999Z</time></trkpt><trkpt lat="46.0440940322628" lon="9.391895670292895"><ele>844.0</ele><time>2026-04-11T08:44:31.999Z</time></trkpt><trkpt lat="46.044163241970736" lon="9.391884878546996"><ele>843.9999999999999</ele><time>2026-04-11T08:44:32.999Z</time></trkpt><trkpt lat="46.04421805769521" lon="9.39177084118557"><ele>844.0</ele><time>2026-04-11T08:44:33.999Z</time></trkpt><trkpt lat="46.04420527001521" lon="9.39162543024593"><ele>844.0</ele><time>2026-04-11T08:44:34.999Z</time></trkpt><trkpt lat="46.04409967515605" lon="9.39152669345083"><ele>844.0</ele><time>2026-04-11T08:44:35.999Z</time></trkpt><trkpt lat="46.044020995738244" lon="9.391421027270662"><ele>844.0</ele><time>2026-04-11T08:44:36.999Z</time></trkpt><trkpt lat="46.04394976128055" lon="9.391302947339327"><ele>844.0</ele><time>2026-04-11T08:44:37.999Z</time></trkpt><trkpt lat="46.04389069370395" lon="9.391184410497225"><ele>844.0</ele><time>2026-04-11T08:44:38.999Z</time></trkpt><trkpt lat="46.04384214049491" lon="9.391088774189901"><ele>845.6666666666666</ele><time>2026-04-11T08:44:39.999Z</time></trkpt><trkpt lat="46.04380098354715" lon="9.391003146112816"><ele>847.3333333333333</ele><time>2026-04-11T08:44:40.999Z</time></trkpt><trkpt lat="46.043774101520654" lon="9.39090795867954"><ele>849.0</ele><time>2026-04-11T08:44:41.999Z</time></trkpt><trkpt lat="46.04376244160793" lon="9.390796122639324"><ele>850.6666666666667</ele><time>2026-04-11T08:44:43.999Z</time></trkpt><trkpt lat="46.043861625127136" lon="9.390805972959564"><ele>852.3333333333334</ele><time>2026-04-11T08:44:47Z</time></trkpt><trkpt lat="46.0439279361143" lon="9.390860077803453"><ele>854.0</ele><time>2026-04-11T08:44:48Z</time></trkpt><trkpt lat="46.04401062499621" lon="9.390906811671277"><ele>854.0</ele><time>2026-04-11T08:44:49Z</time></trkpt><trkpt lat="46.04410018723313" lon="9.390981130556412"><ele>854.0</ele><time>2026-04-11T08:44:50Z</time></trkpt><trkpt lat="46.044198305570376" lon="9.391054919322157"><ele>854.0</ele><time>2026-04-11T08:44:51Z</time></trkpt><trkpt lat="46.04430971335957" lon="9.39116074197696"><ele>854.0</ele><time>2026-04-11T08:44:52Z</time></trkpt><trkpt lat="46.04442142187666" lon="9.39124212200492"><ele>854.75</ele><time>2026-04-11T08:44:53Z</time></trkpt><trkpt lat="46.044530681140124" lon="9.391346380116936"><ele>855.5</ele><time>2026-04-11T08:44:54Z</time></trkpt><trkpt lat="46.04463965132074" lon="9.391469951384412"><ele>856.25</ele><time>2026-04-11T08:44:55Z</time></trkpt><trkpt lat="46.04477058821251" lon="9.391563857090627"><ele>857.0</ele><time>2026-04-11T08:44:56Z</time></trkpt><trkpt lat="46.044901811993924" lon="9.391643121270985"><ele>861.0</ele><time>2026-04-11T08:44:57Z</time></trkpt><trkpt lat="46.045039488671264" lon="9.39173010085171"><ele>865.0</ele><time>2026-04-11T08:44:58Z</time></trkpt><trkpt lat="46.04518184013928" lon="9.391797776611865"><ele>869.0</ele><time>2026-04-11T08:44:59Z</time></trkpt><trkpt lat="46.04532050240768" lon="9.39186409307983"><ele>873.0</ele><time>2026-04-11T08:45:00Z</time></trkpt><trkpt lat="46.04545731247558" lon="9.391926189882785"><ele>873.0</ele><time>2026-04-11T08:45:01Z</time></trkpt><trkpt lat="46.04559410408132" lon="9.391993345646645"><ele>873.0</ele><time>2026-04-11T08:45:02Z</time></trkpt><trkpt lat="46.04573197073254" lon="9.392077051889137"><ele>873.0</ele><time>2026-04-11T08:45:03Z</time></trkpt><trkpt lat="46.04586475984254" lon="9.392162352718518"><ele>873.0</ele><time>2026-04-11T08:45:04Z</time></trkpt><trkpt lat="46.045986759734994" lon="9.392297457046997"><ele>874.6666666666667</ele><time>2026-04-11T08:45:05Z</time></trkpt><trkpt lat="46.04609478261461" lon="9.392457524824943"><ele>876.3333333333334</ele><time>2026-04-11T08:45:06Z</time></trkpt><trkpt lat="46.046225412557774" lon="9.392595888543298"><ele>878.0</ele><time>2026-04-11T08:45:07Z</time></trkpt><trkpt lat="46.04637937486498" lon="9.392728176271321"><ele>878.0</ele><time>2026-04-11T08:45:08Z</time></trkpt><trkpt lat="46.04652156577473" lon="9.392840592079594"><ele>878.0</ele><time>2026-04-11T08:45:09Z</time></trkpt><trkpt lat="46.04664870314079" lon="9.392942212263357"><ele>878.0</ele><time>2026-04-11T08:45:10Z</time></trkpt><trkpt lat="46.04675722555696" lon="9.393043343642244"><ele>878.0</ele><time>2026-04-11T08:45:11Z</time></trkpt><trkpt lat="46.04685519582538" lon="9.393167573385188"><ele>883.0</ele><time>2026-04-11T08:45:12Z</time></trkpt><trkpt lat="46.04690327100017" lon="9.393358964709899"><ele>888.0</ele><time>2026-04-11T08:45:13Z</time></trkpt><trkpt lat="46.0469328637412" lon="9.393577951907801"><ele>893.0</ele><time>2026-04-11T08:45:14Z</time></trkpt><trkpt lat="46.04695805362793" lon="9.393810280970696"><ele>896.0</ele><time>2026-04-11T08:45:15Z</time></trkpt><trkpt lat="46.046985950035186" lon="9.394042231302693"><ele>899.0</ele><time>2026-04-11T08:45:16Z</time></trkpt><trkpt lat="46.04701837435394" lon="9.394259203944937"><ele>902.0</ele><time>2026-04-11T08:45:17Z</time></trkpt><trkpt lat="46.04707531864103" lon="9.394465904045022"><ele>906.0</ele><time>2026-04-11T08:45:18Z</time></trkpt><trkpt lat="46.047147910342645" lon="9.394679194248784"><ele>910.0</ele><time>2026-04-11T08:45:19Z</time></trkpt><trkpt lat="46.047211285526075" lon="9.394887786149592"><ele>914.0</ele><time>2026-04-11T08:45:20Z</time></trkpt><trkpt lat="46.047279102590764" lon="9.395087862370174"><ele>914.0</ele><time>2026-04-11T08:45:21Z</time></trkpt><trkpt lat="46.04735607886134" lon="9.39526265777025"><ele>914.0</ele><time>2026-04-11T08:45:22Z</time></trkpt><trkpt lat="46.04745137797716" lon="9.395427828835821"><ele>914.0</ele><time>2026-04-11T08:45:23Z</time></trkpt><trkpt lat="46.0475727922718" lon="9.395579011984154"><ele>919.6666666666667</ele><time>2026-04-11T08:45:24Z</time></trkpt><trkpt lat="46.04770392898033" lon="9.395712366609125"><ele>925.3333333333333</ele><time>2026-04-11T08:45:25Z</time></trkpt><trkpt lat="46.04784335034404" lon="9.395848504974376"><ele>931.0</ele><time>2026-04-11T08:45:26Z</time></trkpt><trkpt lat="46.04801136998476" lon="9.395939567400124"><ele>931.0</ele><time>2026-04-11T08:45:27Z</time></trkpt><trkpt lat="46.04819221707881" lon="9.395999183452714"><ele>931.0</ele><time>2026-04-11T08:45:28Z</time></trkpt><trkpt lat="46.04836067589573" lon="9.39610389283783"><ele>931.0</ele><time>2026-04-11T08:45:29Z</time></trkpt><trkpt lat="46.04852180178329" lon="9.39617944558224"><ele>929.3333333333333</ele><time>2026-04-11T08:45:30Z</time></trkpt><trkpt lat="46.04868544096686" lon="9.396257714307607"><ele>927.6666666666667</ele><time>2026-04-11T08:45:31Z</time></trkpt><trkpt lat="46.04884601562645" lon="9.396339004789068"><ele>926.0</ele><time>2026-04-11T08:45:32Z</time></trkpt><trkpt lat="46.04900090562348" lon="9.396413840604648"><ele>927.6666666666667</ele><time>2026-04-11T08:45:33Z</time></trkpt><trkpt lat="46.04915178453693" lon="9.396486043141612"><ele>929.3333333333333</ele><time>2026-04-11T08:45:34Z</time></trkpt><trkpt lat="46.04931032477758" lon="9.396562748717136"><ele>931.0</ele><time>2026-04-11T08:45:35Z</time></trkpt><trkpt lat="46.04946020354468" lon="9.396624948130215"><ele>931.0</ele><time>2026-04-11T08:45:36Z</time></trkpt><trkpt lat="46.049609827002534" lon="9.396696121744364"><ele>931.0</ele><time>2026-04-11T08:45:37Z</time></trkpt><trkpt lat="46.049772318677626" lon="9.39677450272991"><ele>931.0</ele><time>2026-04-11T08:45:38Z</time></trkpt><trkpt lat="46.049914305373484" lon="9.39684602969712"><ele>928.75</ele><time>2026-04-11T08:45:39Z</time></trkpt><trkpt lat="46.05004924592571" lon="9.396909279898408"><ele>926.5</ele><time>2026-04-11T08:45:40Z</time></trkpt><trkpt lat="46.05017221584712" lon="9.396970810541315"><ele>924.25</ele><time>2026-04-11T08:45:41Z</time></trkpt><trkpt lat="46.05028502119943" lon="9.3970455064208"><ele>922.0</ele><time>2026-04-11T08:45:42Z</time></trkpt><trkpt lat="46.05037749836303" lon="9.397149779184705"><ele>923.25</ele><time>2026-04-11T08:45:43Z</time></trkpt><trkpt lat="46.050448963392235" lon="9.397278504929838"><ele>924.5</ele><time>2026-04-11T08:45:44Z</time></trkpt><trkpt lat="46.05046926620213" lon="9.397447873255912"><ele>925.75</ele><time>2026-04-11T08:45:45Z</time></trkpt><trkpt lat="46.05050892817382" lon="9.397629620428724"><ele>927.0</ele><time>2026-04-11T08:45:45.999Z</time></trkpt><trkpt lat="46.05053300876543" lon="9.39784312661293"><ele>932.0</ele><time>2026-04-11T08:45:46.999Z</time></trkpt><trkpt lat="46.05057014527722" lon="9.398077011513704"><ele>937.0</ele><time>2026-04-11T08:45:47.999Z</time></trkpt><trkpt lat="46.050604084053596" lon="9.39830385781632"><ele>942.0</ele><time>2026-04-11T08:45:48.999Z</time></trkpt><trkpt lat="46.05063767626139" lon="9.39850488589106"><ele>942.0</ele><time>2026-04-11T08:45:49.999Z</time></trkpt><trkpt lat="46.05066553002181" lon="9.398690764333372"><ele>942.0</ele><time>2026-04-11T08:45:50.999Z</time></trkpt><trkpt lat="46.05068895078574" lon="9.398861266832627"><ele>942.0</ele><time>2026-04-11T08:45:51.999Z</time></trkpt><trkpt lat="46.05070491737435" lon="9.39901257950464"><ele>942.0</ele><time>2026-04-11T08:45:52.999Z</time></trkpt><trkpt lat="46.05071276286161" lon="9.399126328054404"><ele>942.0</ele><time>2026-04-11T08:45:53.999Z</time></trkpt><trkpt lat="46.05072493507936" lon="9.399230632734422"><ele>943.3333333333334</ele><time>2026-04-11T08:45:54.999Z</time></trkpt><trkpt lat="46.05075981903995" lon="9.399338278686413"><ele>944.6666666666667</ele><time>2026-04-11T08:45:55.999Z</time></trkpt><trkpt lat="46.050799548371266" lon="9.399469783656626"><ele>946.0</ele><time>2026-04-11T08:45:56.999Z</time></trkpt><trkpt lat="46.05084651316376" lon="9.399581446632316"><ele>947.3333333333334</ele><time>2026-04-11T08:45:57.999Z</time></trkpt><trkpt lat="46.050899655497496" lon="9.39966495225339"><ele>948.6666666666667</ele><time>2026-04-11T08:45:58.999Z</time></trkpt><trkpt lat="46.050929994505" lon="9.399750485890825"><ele>950.0</ele><time>2026-04-11T08:45:59.999Z</time></trkpt><trkpt lat="46.0509434988281" lon="9.399861431804954"><ele>944.5000000000001</ele><time>2026-04-11T08:46:00.999Z</time></trkpt><trkpt lat="46.05094698362384" lon="9.399977761612789"><ele>939.0</ele><time>2026-04-11T08:46:01.999Z</time></trkpt><trkpt lat="46.05094171759922" lon="9.400091691542661"><ele>933.5</ele><time>2026-04-11T08:46:02.999Z</time></trkpt><trkpt lat="46.050925552839075" lon="9.400203580436763"><ele>928.0</ele><time>2026-04-11T08:46:03.999Z</time></trkpt><trkpt lat="46.05089926761764" lon="9.400307854977203"><ele>922.5000000000001</ele><time>2026-04-11T08:46:04.999Z</time></trkpt><trkpt lat="46.05087195191982" lon="9.400429526651457"><ele>917.0</ele><time>2026-04-11T08:46:05.999Z</time></trkpt><trkpt lat="46.05085057065767" lon="9.400550889600552"><ele>916.3333333333334</ele><time>2026-04-11T08:46:06.999Z</time></trkpt><trkpt lat="46.05082685060885" lon="9.400685337577167"><ele>915.6666666666667</ele><time>2026-04-11T08:46:07.999Z</time></trkpt><trkpt lat="46.05080362710684" lon="9.400791661787313"><ele>915.0</ele><time>2026-04-11T08:46:08.999Z</time></trkpt><trkpt lat="46.050782458298" lon="9.400892620424647"><ele>914.3333333333333</ele><time>2026-04-11T08:46:09.999Z</time></trkpt><trkpt lat="46.05075875141842" lon="9.40098019850178"><ele>913.6666666666666</ele><time>2026-04-11T08:46:10.999Z</time></trkpt><trkpt lat="46.05073901159054" lon="9.401079558969906"><ele>913.0</ele><time>2026-04-11T08:46:11.999Z</time></trkpt><trkpt lat="46.050717571087006" lon="9.401187350490124"><ele>918.1666666666666</ele><time>2026-04-11T08:46:12.999Z</time></trkpt><trkpt lat="46.05069438228813" lon="9.401304924910745"><ele>923.3333333333333</ele><time>2026-04-11T08:46:13.999Z</time></trkpt><trkpt lat="46.05066643926649" lon="9.40141851017909"><ele>928.5</ele><time>2026-04-11T08:46:14.999Z</time></trkpt><trkpt lat="46.050634989722845" lon="9.401535948472747"><ele>933.6666666666667</ele><time>2026-04-11T08:46:15.999Z</time></trkpt><trkpt lat="46.0506062655223" lon="9.401640826140582"><ele>938.8333333333334</ele><time>2026-04-11T08:46:16.999Z</time></trkpt><trkpt lat="46.05057840543092" lon="9.401738704765403"><ele>944.0</ele><time>2026-04-11T08:46:17.999Z</time></trkpt><trkpt lat="46.05055276449238" lon="9.401835178160844"><ele>944.0000000000001</ele><time>2026-04-11T08:46:18.999Z</time></trkpt><trkpt lat="46.05052927623514" lon="9.401934782525473"><ele>944.0</ele><time>2026-04-11T08:46:19.999Z</time></trkpt><trkpt lat="46.05050404859411" lon="9.402032875221977"><ele>944.0</ele><time>2026-04-11T08:46:20.999Z</time></trkpt><trkpt lat="46.05047077623385" lon="9.402144345894856"><ele>944.0</ele><time>2026-04-11T08:46:21.999Z</time></trkpt><trkpt lat="46.05044322368385" lon="9.402257938190578"><ele>944.0000000000001</ele><time>2026-04-11T08:46:22.999Z</time></trkpt><trkpt lat="46.05040592483062" lon="9.402394067432544"><ele>944.0</ele><time>2026-04-11T08:46:23.999Z</time></trkpt><trkpt lat="46.050378249235486" lon="9.402516785301295"><ele>943.1428571428571</ele><time>2026-04-11T08:46:24.999Z</time></trkpt><trkpt lat="46.05035694757742" lon="9.402618650707469"><ele>942.2857142857143</ele><time>2026-04-11T08:46:25.999Z</time></trkpt><trkpt lat="46.05032602586353" lon="9.402730664202759"><ele>941.4285714285714</ele><time>2026-04-11T08:46:26.999Z</time></trkpt><trkpt lat="46.050302542404665" lon="9.402824316605757"><ele>940.5714285714286</ele><time>2026-04-11T08:46:27.999Z</time></trkpt><trkpt lat="46.050275278604914" lon="9.402916749752059"><ele>939.7142857142858</ele><time>2026-04-11T08:46:28.999Z</time></trkpt><trkpt lat="46.05025539231255" lon="9.403010235612268"><ele>938.8571428571429</ele><time>2026-04-11T08:46:29.999Z</time></trkpt><trkpt lat="46.05023219101337" lon="9.403116865774164"><ele>938.0</ele><time>2026-04-11T08:46:30.999Z</time></trkpt><trkpt lat="46.05020142233477" lon="9.403234720698446"><ele>935.8</ele><time>2026-04-11T08:46:31.999Z</time></trkpt><trkpt lat="46.05017146211393" lon="9.403357612591357"><ele>933.5999999999999</ele><time>2026-04-11T08:46:32.999Z</time></trkpt><trkpt lat="46.05014085597641" lon="9.403491294190266"><ele>931.4000000000001</ele><time>2026-04-11T08:46:33.999Z</time></trkpt><trkpt lat="46.05010996819539" lon="9.403628674384517"><ele>929.2</ele><time>2026-04-11T08:46:34.999Z</time></trkpt><trkpt lat="46.05006951405708" lon="9.40373964482447"><ele>927.0</ele><time>2026-04-11T08:46:35.999Z</time></trkpt><trkpt lat="46.05004627221014" lon="9.403845970839706"><ele>924.8</ele><time>2026-04-11T08:46:36.999Z</time></trkpt><trkpt lat="46.050019708589616" lon="9.40396753029166"><ele>922.6</ele><time>2026-04-11T08:46:37.999Z</time></trkpt><trkpt lat="46.049998542713745" lon="9.40406596043794"><ele>920.3999999999999</ele><time>2026-04-11T08:46:38.999Z</time></trkpt><trkpt lat="46.04996001909814" lon="9.404245112561636"><ele>918.1999999999999</ele><time>2026-04-11T08:46:40.999Z</time></trkpt><trkpt lat="46.0499397678398" lon="9.4043384866282"><ele>916.0</ele><time>2026-04-11T08:46:41.999Z</time></trkpt><trkpt lat="46.04990531554293" lon="9.404496105674392"><ele>923.8</ele><time>2026-04-11T08:46:43.999Z</time></trkpt><trkpt lat="46.04986770592699" lon="9.404667905459592"><ele>931.5999999999999</ele><time>2026-04-11T08:46:45.999Z</time></trkpt><trkpt lat="46.049844958273695" lon="9.404771567181301"><ele>939.4</ele><time>2026-04-11T08:46:46.999Z</time></trkpt><trkpt lat="46.04982376041462" lon="9.40491080559693"><ele>947.2</ele><time>2026-04-11T08:46:47.999Z</time></trkpt><trkpt lat="46.049797002561355" lon="9.40505620209952"><ele>955.0</ele><time>2026-04-11T08:46:48.999Z</time></trkpt><trkpt lat="46.04976453725544" lon="9.405204435163496"><ele>955.0</ele><time>2026-04-11T08:46:49.999Z</time></trkpt><trkpt lat="46.0497325358843" lon="9.405346234470903"><ele>955.0</ele><time>2026-04-11T08:46:51Z</time></trkpt><trkpt lat="46.049686966049094" lon="9.405481280410072"><ele>955.0</ele><time>2026-04-11T08:46:52Z</time></trkpt><trkpt lat="46.04966902532775" lon="9.405622230169525"><ele>955.0</ele><time>2026-04-11T08:46:53Z</time></trkpt><trkpt lat="46.0496268870678" lon="9.405741303433874"><ele>955.0</ele><time>2026-04-11T08:46:54Z</time></trkpt><trkpt lat="46.04958786030251" lon="9.405858089796153"><ele>952.0</ele><time>2026-04-11T08:46:55Z</time></trkpt><trkpt lat="46.04954879928649" lon="9.405946142634102"><ele>949.0</ele><time>2026-04-11T08:46:56Z</time></trkpt><trkpt lat="46.04949556644726" lon="9.406057180660978"><ele>946.0</ele><time>2026-04-11T08:46:57Z</time></trkpt><trkpt lat="46.049439880763636" lon="9.406184541870731"><ele>943.0</ele><time>2026-04-11T08:46:58Z</time></trkpt><trkpt lat="46.049371715262225" lon="9.406319159630561"><ele>940.0</ele><time>2026-04-11T08:46:59Z</time></trkpt><trkpt lat="46.04929496687964" lon="9.406467416620973"><ele>937.0</ele><time>2026-04-11T08:47:00Z</time></trkpt><trkpt lat="46.0492195364323" lon="9.406630547075942"><ele>934.0</ele><time>2026-04-11T08:47:01Z</time></trkpt><trkpt lat="46.04915252297998" lon="9.406804787131142"><ele>931.0</ele><time>2026-04-11T08:47:02Z</time></trkpt><trkpt lat="46.04908793712457" lon="9.406987849078233"><ele>928.0</ele><time>2026-04-11T08:47:03Z</time></trkpt><trkpt lat="46.049015889679424" lon="9.40715221835932"><ele>934.5</ele><time>2026-04-11T08:47:04Z</time></trkpt><trkpt lat="46.048937591460536" lon="9.40731824361408"><ele>941.0</ele><time>2026-04-11T08:47:05Z</time></trkpt><trkpt lat="46.04887503597" lon="9.407478008204455"><ele>947.5</ele><time>2026-04-11T08:47:06Z</time></trkpt><trkpt lat="46.048768322429844" lon="9.407588984718247"><ele>954.0</ele><time>2026-04-11T08:47:07Z</time></trkpt><trkpt lat="46.04870232043822" lon="9.407729274150025"><ele>954.0</ele><time>2026-04-11T08:47:08Z</time></trkpt><trkpt lat="46.04863814003875" lon="9.407864672078643"><ele>954.0</ele><time>2026-04-11T08:47:09Z</time></trkpt><trkpt lat="46.048573267686834" lon="9.408000943377331"><ele>954.0</ele><time>2026-04-11T08:47:10Z</time></trkpt><trkpt lat="46.04851615732851" lon="9.408151974045085"><ele>954.0</ele><time>2026-04-11T08:47:11Z</time></trkpt><trkpt lat="46.0484347023958" lon="9.408281515646276"><ele>955.25</ele><time>2026-04-11T08:47:12Z</time></trkpt><trkpt lat="46.0483538709402" lon="9.408421385847038"><ele>956.5</ele><time>2026-04-11T08:47:13Z</time></trkpt><trkpt lat="46.04827105089234" lon="9.408562865780324"><ele>957.75</ele><time>2026-04-11T08:47:14Z</time></trkpt><trkpt lat="46.04819044403237" lon="9.408709263865141"><ele>959.0</ele><time>2026-04-11T08:47:15Z</time></trkpt><trkpt lat="46.04811413779079" lon="9.408843102539393"><ele>959.0</ele><time>2026-04-11T08:47:16Z</time></trkpt><trkpt lat="46.04804795307951" lon="9.408961679986536"><ele>959.0000000000001</ele><time>2026-04-11T08:47:17Z</time></trkpt><trkpt lat="46.04797594705913" lon="9.40908345526476"><ele>959.0000000000001</ele><time>2026-04-11T08:47:18Z</time></trkpt><trkpt lat="46.04790672594034" lon="9.40920613415009"><ele>959.0</ele><time>2026-04-11T08:47:19Z</time></trkpt><trkpt lat="46.04781885589087" lon="9.409313212733574"><ele>959.0</ele><time>2026-04-11T08:47:20Z</time></trkpt><trkpt lat="46.04773775056908" lon="9.409444611817232"><ele>959.0</ele><time>2026-04-11T08:47:21Z</time></trkpt><trkpt lat="46.0476641831183" lon="9.40959577074143"><ele>959.0</ele><time>2026-04-11T08:47:22Z</time></trkpt><trkpt lat="46.047570975676486" lon="9.409726969737253"><ele>959.0</ele><time>2026-04-11T08:47:23Z</time></trkpt><trkpt lat="46.04748064341246" lon="9.409863576473287"><ele>959.0</ele><time>2026-04-11T08:47:24Z</time></trkpt><trkpt lat="46.047389188441855" lon="9.410005204278683"><ele>960.0</ele><time>2026-04-11T08:47:25Z</time></trkpt><trkpt lat="46.04729488578141" lon="9.410152538471477"><ele>961.0</ele><time>2026-04-11T08:47:26Z</time></trkpt><trkpt lat="46.047201273869085" lon="9.4102993533773"><ele>962.0</ele><time>2026-04-11T08:47:27Z</time></trkpt><trkpt lat="46.04711896524594" lon="9.410438012519235"><ele>963.0</ele><time>2026-04-11T08:47:28Z</time></trkpt><trkpt lat="46.047048144574795" lon="9.410557939125136"><ele>963.0</ele><time>2026-04-11T08:47:29Z</time></trkpt><trkpt lat="46.04697420184702" lon="9.410678018483265"><ele>963.0</ele><time>2026-04-11T08:47:30Z</time></trkpt><trkpt lat="46.046903669962916" lon="9.41078309834042"><ele>963.0</ele><time>2026-04-11T08:47:31Z</time></trkpt><trkpt lat="46.04684265713201" lon="9.410863640013208"><ele>963.0</ele><time>2026-04-11T08:47:32Z</time></trkpt><trkpt lat="46.04676680345001" lon="9.41096042317358"><ele>963.0</ele><time>2026-04-11T08:47:33Z</time></trkpt><trkpt lat="46.04671680359295" lon="9.411068115790567"><ele>963.0</ele><time>2026-04-11T08:47:34Z</time></trkpt><trkpt lat="46.046664218217295" lon="9.411176757494566"><ele>963.0</ele><time>2026-04-11T08:47:35Z</time></trkpt><trkpt lat="46.04658430675746" lon="9.41125622176902"><ele>963.0</ele><time>2026-04-11T08:47:36Z</time></trkpt><trkpt lat="46.04650636544918" lon="9.411351195177945"><ele>963.0</ele><time>2026-04-11T08:47:37Z</time></trkpt><trkpt lat="46.04640943838604" lon="9.411479056584291"><ele>963.0</ele><time>2026-04-11T08:47:38.999Z</time></trkpt><trkpt lat="46.046332574634825" lon="9.411546308547475"><ele>965.0</ele><time>2026-04-11T08:47:39.999Z</time></trkpt><trkpt lat="46.04625637203009" lon="9.411607469803485"><ele>967.0</ele><time>2026-04-11T08:47:40.999Z</time></trkpt><trkpt lat="46.04619019537996" lon="9.411644431029087"><ele>969.0</ele><time>2026-04-11T08:47:41.999Z</time></trkpt><trkpt lat="46.04611547460072" lon="9.41163457728662"><ele>971.0</ele><time>2026-04-11T08:47:42.999Z</time></trkpt><trkpt lat="46.04604363864404" lon="9.41165273701306"><ele>973.0</ele><time>2026-04-11T08:47:43.999Z</time></trkpt><trkpt lat="46.04597512989012" lon="9.41168425688871"><ele>975.0</ele><time>2026-04-11T08:47:44.999Z</time></trkpt><trkpt lat="46.04589665890062" lon="9.41168469266248"><ele>975.0</ele><time>2026-04-11T08:47:45.999Z</time></trkpt><trkpt lat="46.0457958723425" lon="9.411785677719163"><ele>975.0</ele><time>2026-04-11T08:47:47.999Z</time></trkpt><trkpt lat="46.045757098691745" lon="9.411873883988306"><ele>975.0</ele><time>2026-04-11T08:47:48.999Z</time></trkpt><trkpt lat="46.0457281968089" lon="9.411981509082104"><ele>975.0</ele><time>2026-04-11T08:47:49.999Z</time></trkpt><trkpt lat="46.04569512873667" lon="9.412097887203688"><ele>975.0</ele><time>2026-04-11T08:47:50.999Z</time></trkpt><trkpt lat="46.0456566094663" lon="9.412191198807704"><ele>975.0</ele><time>2026-04-11T08:47:51.999Z</time></trkpt><trkpt lat="46.04558250353276" lon="9.412293248666089"><ele>976.8333333333334</ele><time>2026-04-11T08:47:53.999Z</time></trkpt><trkpt lat="46.04551057559505" lon="9.412309104604573"><ele>978.6666666666667</ele><time>2026-04-11T08:47:54.999Z</time></trkpt><trkpt lat="46.045447695283286" lon="9.412374983258667"><ele>980.5</ele><time>2026-04-11T08:47:55.999Z</time></trkpt><trkpt lat="46.04538183250312" lon="9.412426120064945"><ele>982.3333333333334</ele><time>2026-04-11T08:47:56.999Z</time></trkpt><trkpt lat="46.045306954320424" lon="9.412482612827358"><ele>984.1666666666667</ele><time>2026-04-11T08:47:57.999Z</time></trkpt><trkpt lat="46.04525182138199" lon="9.412569423589996"><ele>986.0</ele><time>2026-04-11T08:47:58.999Z</time></trkpt><trkpt lat="46.04520690892408" lon="9.412665235709767"><ele>986.0000000000001</ele><time>2026-04-11T08:47:59.999Z</time></trkpt><trkpt lat="46.045162464796846" lon="9.412748627942989"><ele>986.0</ele><time>2026-04-11T08:48:00.999Z</time></trkpt><trkpt lat="46.045129001593374" lon="9.412846700621301"><ele>986.0</ele><time>2026-04-11T08:48:01.999Z</time></trkpt><trkpt lat="46.045104352785025" lon="9.412943497945289"><ele>986.0</ele><time>2026-04-11T08:48:02.999Z</time></trkpt><trkpt lat="46.04509451697863" lon="9.413058772889585"><ele>986.0000000000001</ele><time>2026-04-11T08:48:03.999Z</time></trkpt><trkpt lat="46.045091749953514" lon="9.413173909043811"><ele>986.0</ele><time>2026-04-11T08:48:04.999Z</time></trkpt><trkpt lat="46.04512003004038" lon="9.413280672274091"><ele>985.4</ele><time>2026-04-11T08:48:05.999Z</time></trkpt><trkpt lat="46.04513553492059" lon="9.41338915326255"><ele>984.8</ele><time>2026-04-11T08:48:06.999Z</time></trkpt><trkpt lat="46.045146833874426" lon="9.413500970806144"><ele>984.1999999999999</ele><time>2026-04-11T08:48:07.999Z</time></trkpt><trkpt lat="46.04514751900193" lon="9.413601104524108"><ele>983.5999999999999</ele><time>2026-04-11T08:48:08.999Z</time></trkpt><trkpt lat="46.04509838764714" lon="9.413742862173802"><ele>983.0</ele><time>2026-04-11T08:48:10.999Z</time></trkpt><trkpt lat="46.04503032570539" lon="9.413893340528135"><ele>982.3333333333334</ele><time>2026-04-11T08:48:12.999Z</time></trkpt><trkpt lat="46.04498056793169" lon="9.413969005374286"><ele>981.6666666666667</ele><time>2026-04-11T08:48:13.999Z</time></trkpt><trkpt lat="46.044927208383314" lon="9.41405036648887"><ele>981.0</ele><time>2026-04-11T08:48:14.999Z</time></trkpt><trkpt lat="46.04487248516406" lon="9.414146931782286"><ele>980.3333333333333</ele><time>2026-04-11T08:48:15.999Z</time></trkpt><trkpt lat="46.04480634723257" lon="9.414217572170177"><ele>979.6666666666666</ele><time>2026-04-11T08:48:16.999Z</time></trkpt><trkpt lat="46.0447560758144" lon="9.414301527535542"><ele>979.0</ele><time>2026-04-11T08:48:17.999Z</time></trkpt><trkpt lat="46.04471507746293" lon="9.414406854577624"><ele>983.8333333333333</ele><time>2026-04-11T08:48:18.999Z</time></trkpt><trkpt lat="46.0446643210833" lon="9.41449770572384"><ele>988.6666666666666</ele><time>2026-04-11T08:48:19.999Z</time></trkpt><trkpt lat="46.04461645357028" lon="9.414609480233821"><ele>993.5</ele><time>2026-04-11T08:48:20.999Z</time></trkpt><trkpt lat="46.04457702701215" lon="9.414721443503849"><ele>998.3333333333333</ele><time>2026-04-11T08:48:21.999Z</time></trkpt><trkpt lat="46.044541601631366" lon="9.414844216293853"><ele>1003.1666666666666</ele><time>2026-04-11T08:48:22.999Z</time></trkpt><trkpt lat="46.04449001537431" lon="9.414951439784767"><ele>1008.0</ele><time>2026-04-11T08:48:23.999Z</time></trkpt><trkpt lat="46.04445284088851" lon="9.415047761773529"><ele>1008.0</ele><time>2026-04-11T08:48:24.999Z</time></trkpt><trkpt lat="46.04440693473149" lon="9.415155925502344"><ele>1008.0</ele><time>2026-04-11T08:48:25.999Z</time></trkpt><trkpt lat="46.04437078034879" lon="9.41526149951707"><ele>1008.0</ele><time>2026-04-11T08:48:26.999Z</time></trkpt><trkpt lat="46.04432690641431" lon="9.41536081049129"><ele>1008.0</ele><time>2026-04-11T08:48:27.999Z</time></trkpt><trkpt lat="46.044261724184985" lon="9.415465588364883"><ele>1008.0</ele><time>2026-04-11T08:48:28.999Z</time></trkpt><trkpt lat="46.04421573457255" lon="9.415582119207173"><ele>1008.0</ele><time>2026-04-11T08:48:29.999Z</time></trkpt><trkpt lat="46.044173702600965" lon="9.41569820290298"><ele>1006.8333333333334</ele><time>2026-04-11T08:48:30.999Z</time></trkpt><trkpt lat="46.04413824448113" lon="9.41580943936008"><ele>1005.6666666666667</ele><time>2026-04-11T08:48:31.999Z</time></trkpt><trkpt lat="46.044124218187015" lon="9.4159289170577"><ele>1004.5</ele><time>2026-04-11T08:48:32.999Z</time></trkpt><trkpt lat="46.04409201947984" lon="9.416046479802487"><ele>1003.3333333333334</ele><time>2026-04-11T08:48:33.999Z</time></trkpt><trkpt lat="46.04407117072763" lon="9.416153193740392"><ele>1002.1666666666667</ele><time>2026-04-11T08:48:34.999Z</time></trkpt><trkpt lat="46.04403802586752" lon="9.416263228136485"><ele>1001.0</ele><time>2026-04-11T08:48:36.999Z</time></trkpt><trkpt lat="46.0440053598796" lon="9.41634967672429"><ele>1041.0</ele><time>2026-04-11T08:48:39.999Z</time></trkpt><trkpt lat="46.04395745081577" lon="9.416422457997909"><ele>1041.0</ele><time>2026-04-11T08:48:54.999Z</time></trkpt></trkseg><trkseg><trkpt lat="46.04488663068206" lon="9.414111967825256"><ele>1014.0</ele><time>2026-04-11T09:10:24.999Z</time></trkpt><trkpt lat="46.04495303774403" lon="9.413994380701483"><ele>1014.0</ele><time>2026-04-11T09:10:26.999Z</time></trkpt><trkpt lat="46.04500648455649" lon="9.41391007045526"><ele>1014.0</ele><time>2026-04-11T09:10:28.999Z</time></trkpt><trkpt lat="46.04505455658196" lon="9.41382940253724"><ele>1014.0</ele><time>2026-04-11T09:10:30.999Z</time></trkpt><trkpt lat="46.04509313266284" lon="9.413754990849062"><ele>1014.0</ele><time>2026-04-11T09:10:32.999Z</time></trkpt><trkpt lat="46.04511967442844" lon="9.413640366627142"><ele>1014.0</ele><time>2026-04-11T09:10:34.999Z</time></trkpt><trkpt lat="46.045117328611795" lon="9.413482889796837"><ele>1007.0</ele><time>2026-04-11T09:10:36.999Z</time></trkpt><trkpt lat="46.04517236352172" lon="9.413286918175418"><ele>1000.0</ele><time>2026-04-11T09:10:38.999Z</time></trkpt><trkpt lat="46.04515725773405" lon="9.413145112827099"><ele>993.0</ele><time>2026-04-11T09:10:41.999Z</time></trkpt><trkpt lat="46.04516222235492" lon="9.413010649894087"><ele>986.0</ele><time>2026-04-11T09:10:43.999Z</time></trkpt><trkpt lat="46.04518211135538" lon="9.412848505284426"><ele>986.0</ele><time>2026-04-11T09:10:45.999Z</time></trkpt><trkpt lat="46.04522339506965" lon="9.412713337350471"><ele>985.9999999999999</ele><time>2026-04-11T09:10:48Z</time></trkpt><trkpt lat="46.04527967572736" lon="9.412611148128024"><ele>985.9999999999999</ele><time>2026-04-11T09:10:50Z</time></trkpt><trkpt lat="46.04534515864244" lon="9.412526453301693"><ele>986.0</ele><time>2026-04-11T09:10:52Z</time></trkpt><trkpt lat="46.04543701826656" lon="9.412427186780725"><ele>986.0</ele><time>2026-04-11T09:10:54Z</time></trkpt><trkpt lat="46.045538524672935" lon="9.412345547388103"><ele>986.0</ele><time>2026-04-11T09:10:56Z</time></trkpt><trkpt lat="46.045634137744244" lon="9.412293220919826"><ele>985.9999999999999</ele><time>2026-04-11T09:10:58Z</time></trkpt><trkpt lat="46.04571903185545" lon="9.412205008209405"><ele>985.9999999999999</ele><time>2026-04-11T09:11:00Z</time></trkpt><trkpt lat="46.04575752469635" lon="9.412116139891005"><ele>986.0</ele><time>2026-04-11T09:11:01Z</time></trkpt><trkpt lat="46.045787475065104" lon="9.4120147852832"><ele>986.0</ele><time>2026-04-11T09:11:02Z</time></trkpt><trkpt lat="46.045832165853795" lon="9.41186045201132"><ele>983.8</ele><time>2026-04-11T09:11:04Z</time></trkpt><trkpt lat="46.04591122265957" lon="9.411753046571864"><ele>981.5999999999999</ele><time>2026-04-11T09:11:06Z</time></trkpt><trkpt lat="46.04600198939633" lon="9.411719245968897"><ele>979.4</ele><time>2026-04-11T09:11:08Z</time></trkpt><trkpt lat="46.046097890286966" lon="9.411687602904392"><ele>977.2</ele><time>2026-04-11T09:11:10Z</time></trkpt><trkpt lat="46.04619184624411" lon="9.411670002080568"><ele>975.0</ele><time>2026-04-11T09:11:12Z</time></trkpt><trkpt lat="46.04629330513704" lon="9.411617768235388"><ele>975.0</ele><time>2026-04-11T09:11:14Z</time></trkpt><trkpt lat="46.046382961651794" lon="9.411508749153226"><ele>975.0</ele><time>2026-04-11T09:11:16Z</time></trkpt><trkpt lat="46.04644501727622" lon="9.411478537981589"><ele>975.0</ele><time>2026-04-11T09:11:17Z</time></trkpt><trkpt lat="46.04649528061015" lon="9.411422056122996"><ele>975.0</ele><time>2026-04-11T09:11:18Z</time></trkpt><trkpt lat="46.046551788855666" lon="9.411358793117333"><ele>975.0</ele><time>2026-04-11T09:11:19Z</time></trkpt><trkpt lat="46.04660763811996" lon="9.411290439268592"><ele>975.0</ele><time>2026-04-11T09:11:20Z</time></trkpt><trkpt lat="46.04666363939005" lon="9.41121833781647"><ele>973.2857142857142</ele><time>2026-04-11T09:11:21Z</time></trkpt><trkpt lat="46.04670916842222" lon="9.411125612102422"><ele>971.5714285714284</ele><time>2026-04-11T09:11:22Z</time></trkpt><trkpt lat="46.04675887469666" lon="9.411050280330299"><ele>969.8571428571429</ele><time>2026-04-11T09:11:23Z</time></trkpt><trkpt lat="46.046802507889865" lon="9.41097695433763"><ele>968.1428571428571</ele><time>2026-04-11T09:11:24Z</time></trkpt><trkpt lat="46.04684795583494" lon="9.41090283097069"><ele>966.4285714285714</ele><time>2026-04-11T09:11:25Z</time></trkpt><trkpt lat="46.04689182919974" lon="9.410830023880152"><ele>964.7142857142858</ele><time>2026-04-11T09:11:26Z</time></trkpt><trkpt lat="46.04693739050882" lon="9.41075442955493"><ele>963.0000000000001</ele><time>2026-04-11T09:11:27Z</time></trkpt><trkpt lat="46.0469821017909" lon="9.41068271222177"><ele>963.0000000000001</ele><time>2026-04-11T09:11:28Z</time></trkpt><trkpt lat="46.04702687003374" lon="9.410612758400706"><ele>963.0</ele><time>2026-04-11T09:11:29Z</time></trkpt><trkpt lat="46.04707056628068" lon="9.410545853510762"><ele>963.0000000000001</ele><time>2026-04-11T09:11:30Z</time></trkpt><trkpt lat="46.047121705658626" lon="9.41047458690034"><ele>963.0000000000001</ele><time>2026-04-11T09:11:31Z</time></trkpt><trkpt lat="46.0471656469768" lon="9.410391687360844"><ele>963.0</ele><time>2026-04-11T09:11:32Z</time></trkpt><trkpt lat="46.04722486032459" lon="9.4103276344871"><ele>963.0000000000001</ele><time>2026-04-11T09:11:33Z</time></trkpt><trkpt lat="46.04727170237544" lon="9.410252369872666"><ele>963.0000000000001</ele><time>2026-04-11T09:11:34Z</time></trkpt><trkpt lat="46.04732019792225" lon="9.410176020632061"><ele>962.4285714285716</ele><time>2026-04-11T09:11:35Z</time></trkpt><trkpt lat="46.04736642988493" lon="9.41010384248474"><ele>961.8571428571429</ele><time>2026-04-11T09:11:36Z</time></trkpt><trkpt lat="46.04741295802523" lon="9.410031294603657"><ele>961.2857142857143</ele><time>2026-04-11T09:11:37Z</time></trkpt><trkpt lat="46.04746158558031" lon="9.409955473381878"><ele>960.7142857142858</ele><time>2026-04-11T09:11:38Z</time></trkpt><trkpt lat="46.04749598723271" lon="9.409867430029136"><ele>960.1428571428571</ele><time>2026-04-11T09:11:39Z</time></trkpt><trkpt lat="46.04754949519017" lon="9.409796824559118"><ele>959.5714285714286</ele><time>2026-04-11T09:11:40Z</time></trkpt><trkpt lat="46.04759709974045" lon="9.409720082429095"><ele>959.0</ele><time>2026-04-11T09:11:41Z</time></trkpt><trkpt lat="46.0476492443188" lon="9.409644763121866"><ele>959.0000000000001</ele><time>2026-04-11T09:11:42Z</time></trkpt><trkpt lat="46.04770135656926" lon="9.409568382567427"><ele>959.0</ele><time>2026-04-11T09:11:43Z</time></trkpt><trkpt lat="46.04775509345288" lon="9.409483190114653"><ele>959.0</ele><time>2026-04-11T09:11:44Z</time></trkpt><trkpt lat="46.047805249768366" lon="9.409401626055965"><ele>959.0</ele><time>2026-04-11T09:11:45Z</time></trkpt><trkpt lat="46.04785578985825" lon="9.409322289620139"><ele>959.0000000000001</ele><time>2026-04-11T09:11:46Z</time></trkpt><trkpt lat="46.04790609265961" lon="9.409229027317483"><ele>959.0</ele><time>2026-04-11T09:11:47Z</time></trkpt><trkpt lat="46.04796088570732" lon="9.40912712781109"><ele>959.0</ele><time>2026-04-11T09:11:48Z</time></trkpt><trkpt lat="46.048020602290045" lon="9.40902115808363"><ele>959.0000000000001</ele><time>2026-04-11T09:11:49Z</time></trkpt><trkpt lat="46.048096143069365" lon="9.408928974793872"><ele>959.0000000000001</ele><time>2026-04-11T09:11:50Z</time></trkpt><trkpt lat="46.048156164145624" lon="9.408829307084218"><ele>959.0</ele><time>2026-04-11T09:11:50.999Z</time></trkpt><trkpt lat="46.048216558434305" lon="9.408728664879357"><ele>959.0</ele><time>2026-04-11T09:11:51.999Z</time></trkpt><trkpt lat="46.048273921651685" lon="9.408632888126387"><ele>955.6666666666667</ele><time>2026-04-11T09:11:52.999Z</time></trkpt><trkpt lat="46.04833251059658" lon="9.408534074075144"><ele>952.3333333333334</ele><time>2026-04-11T09:11:53.999Z</time></trkpt><trkpt lat="46.04838844400277" lon="9.408437342705371"><ele>949.0</ele><time>2026-04-11T09:11:54.999Z</time></trkpt><trkpt lat="46.04844524272177" lon="9.408335637209621"><ele>945.6666666666667</ele><time>2026-04-11T09:11:55.999Z</time></trkpt><trkpt lat="46.04849836469913" lon="9.408235604766302"><ele>942.3333333333334</ele><time>2026-04-11T09:11:56.999Z</time></trkpt><trkpt lat="46.04854097341358" lon="9.408116383416058"><ele>939.0</ele><time>2026-04-11T09:11:57.999Z</time></trkpt><trkpt lat="46.048599563050125" lon="9.408020038233785"><ele>941.5</ele><time>2026-04-11T09:11:58.999Z</time></trkpt><trkpt lat="46.0486547056998" lon="9.407921895542273"><ele>944.0</ele><time>2026-04-11T09:11:59.999Z</time></trkpt><trkpt lat="46.04870748362992" lon="9.407817064316216"><ele>946.5</ele><time>2026-04-11T09:12:00.999Z</time></trkpt><trkpt lat="46.04876221283217" lon="9.407717683707718"><ele>949.0</ele><time>2026-04-11T09:12:01.999Z</time></trkpt><trkpt lat="46.04881341152951" lon="9.407610614828652"><ele>951.5</ele><time>2026-04-11T09:12:02.999Z</time></trkpt><trkpt lat="46.048864321349576" lon="9.407506000323863"><ele>954.0</ele><time>2026-04-11T09:12:04Z</time></trkpt><trkpt lat="46.04891326587078" lon="9.407401623144775"><ele>954.0</ele><time>2026-04-11T09:12:05Z</time></trkpt><trkpt lat="46.04895964114992" lon="9.407296091578452"><ele>954.0</ele><time>2026-04-11T09:12:06Z</time></trkpt><trkpt lat="46.0490072506342" lon="9.40719193557948"><ele>954.0</ele><time>2026-04-11T09:12:07Z</time></trkpt><trkpt lat="46.0490532488374" lon="9.407088926298883"><ele>954.0</ele><time>2026-04-11T09:12:08Z</time></trkpt><trkpt lat="46.049104241089346" lon="9.406980663700306"><ele>954.0</ele><time>2026-04-11T09:12:09Z</time></trkpt><trkpt lat="46.049139150094184" lon="9.406861590908271"><ele>954.0</ele><time>2026-04-11T09:12:10Z</time></trkpt><trkpt lat="46.049203017432575" lon="9.40677251987732"><ele>951.2</ele><time>2026-04-11T09:12:11Z</time></trkpt><trkpt lat="46.04925727962963" lon="9.40666415086178"><ele>948.4000000000001</ele><time>2026-04-11T09:12:12Z</time></trkpt><trkpt lat="46.04930894239808" lon="9.406559806513963"><ele>945.6</ele><time>2026-04-11T09:12:13Z</time></trkpt><trkpt lat="46.04936148993989" lon="9.406450751003064"><ele>942.8</ele><time>2026-04-11T09:12:14Z</time></trkpt><trkpt lat="46.04941227164325" lon="9.406338531974045"><ele>940.0</ele><time>2026-04-11T09:12:15Z</time></trkpt><trkpt lat="46.049462142648096" lon="9.406227330738197"><ele>939.9999999999999</ele><time>2026-04-11T09:12:16Z</time></trkpt><trkpt lat="46.049511008544336" lon="9.40611501269542"><ele>940.0</ele><time>2026-04-11T09:12:17Z</time></trkpt><trkpt lat="46.04955604765624" lon="9.406008792913367"><ele>940.0</ele><time>2026-04-11T09:12:18Z</time></trkpt><trkpt lat="46.049600653452515" lon="9.405903597241668"><ele>940.0</ele><time>2026-04-11T09:12:19Z</time></trkpt><trkpt lat="46.04963940454885" lon="9.405789937342707"><ele>939.9999999999999</ele><time>2026-04-11T09:12:20Z</time></trkpt><trkpt lat="46.049675714462936" lon="9.405672614510262"><ele>940.0</ele><time>2026-04-11T09:12:21Z</time></trkpt><trkpt lat="46.049703752676685" lon="9.405567445491167"><ele>943.0</ele><time>2026-04-11T09:12:22Z</time></trkpt><trkpt lat="46.04973067137873" lon="9.405442773376945"><ele>946.0</ele><time>2026-04-11T09:12:23Z</time></trkpt><trkpt lat="46.04974323941623" lon="9.405310583021754"><ele>949.0</ele><time>2026-04-11T09:12:24Z</time></trkpt><trkpt lat="46.0497873796921" lon="9.405192072088429"><ele>952.0</ele><time>2026-04-11T09:12:25Z</time></trkpt><trkpt lat="46.04981710854965" lon="9.405057504738563"><ele>955.0</ele><time>2026-04-11T09:12:26Z</time></trkpt><trkpt lat="46.04984565746386" lon="9.404927406289007"><ele>955.0</ele><time>2026-04-11T09:12:27Z</time></trkpt><trkpt lat="46.049873309542136" lon="9.404801394747865"><ele>955.0</ele><time>2026-04-11T09:12:28Z</time></trkpt><trkpt lat="46.04990237674687" lon="9.404668934508189"><ele>955.0</ele><time>2026-04-11T09:12:29Z</time></trkpt><trkpt lat="46.04992897013306" lon="9.404547481614243"><ele>955.0</ele><time>2026-04-11T09:12:30Z</time></trkpt><trkpt lat="46.049958458954016" lon="9.404412570492664"><ele>955.0</ele><time>2026-04-11T09:12:31Z</time></trkpt><trkpt lat="46.04998640338821" lon="9.404284406699201"><ele>949.4</ele><time>2026-04-11T09:12:32Z</time></trkpt><trkpt lat="46.04999971808411" lon="9.404148890111742"><ele>943.8</ele><time>2026-04-11T09:12:33Z</time></trkpt><trkpt lat="46.050029327401276" lon="9.404027369122085"><ele>938.2</ele><time>2026-04-11T09:12:34Z</time></trkpt><trkpt lat="46.05005605746831" lon="9.40390061922334"><ele>932.6</ele><time>2026-04-11T09:12:35Z</time></trkpt><trkpt lat="46.050079606066916" lon="9.403779404448581"><ele>927.0</ele><time>2026-04-11T09:12:36Z</time></trkpt><trkpt lat="46.05012190840955" lon="9.403665851354406"><ele>927.0</ele><time>2026-04-11T09:12:37Z</time></trkpt><trkpt lat="46.05015262753355" lon="9.403533941824103"><ele>927.0</ele><time>2026-04-11T09:12:38Z</time></trkpt><trkpt lat="46.05018399814688" lon="9.40339923451385"><ele>927.0</ele><time>2026-04-11T09:12:39Z</time></trkpt><trkpt lat="46.05021578038831" lon="9.40326673592735"><ele>927.0</ele><time>2026-04-11T09:12:40Z</time></trkpt><trkpt lat="46.05024661170866" lon="9.403140313857548"><ele>927.0</ele><time>2026-04-11T09:12:41Z</time></trkpt><trkpt lat="46.050279250114755" lon="9.403006482039741"><ele>929.2</ele><time>2026-04-11T09:12:42Z</time></trkpt><trkpt lat="46.05031119044297" lon="9.402875906290149"><ele>931.4000000000001</ele><time>2026-04-11T09:12:43Z</time></trkpt><trkpt lat="46.05034448516812" lon="9.402744587852597"><ele>933.5999999999999</ele><time>2026-04-11T09:12:44Z</time></trkpt><trkpt lat="46.05037669857021" lon="9.40261753450828"><ele>935.8</ele><time>2026-04-11T09:12:45Z</time></trkpt><trkpt lat="46.05041097110386" lon="9.402484756145972"><ele>938.0</ele><time>2026-04-11T09:12:46Z</time></trkpt><trkpt lat="46.050445376667255" lon="9.402351456732646"><ele>938.0</ele><time>2026-04-11T09:12:47Z</time></trkpt><trkpt lat="46.05048135814361" lon="9.402215292302193"><ele>938.0</ele><time>2026-04-11T09:12:48Z</time></trkpt><trkpt lat="46.0505186983313" lon="9.402075010018432"><ele>938.0</ele><time>2026-04-11T09:12:49Z</time></trkpt><trkpt lat="46.0505551748154" lon="9.401937972475336"><ele>938.0</ele><time>2026-04-11T09:12:50Z</time></trkpt><trkpt lat="46.05058965434752" lon="9.401805948238628"><ele>938.0</ele><time>2026-04-11T09:12:51Z</time></trkpt><trkpt lat="46.05061829286053" lon="9.401694696986839"><ele>939.0000000000001</ele><time>2026-04-11T09:12:52Z</time></trkpt><trkpt lat="46.05064330624899" lon="9.401597528538918"><ele>940.0</ele><time>2026-04-11T09:12:53Z</time></trkpt><trkpt lat="46.05067064550768" lon="9.40148763173051"><ele>941.0</ele><time>2026-04-11T09:12:54Z</time></trkpt><trkpt lat="46.05068267417107" lon="9.401368043623256"><ele>942.0</ele><time>2026-04-11T09:12:55Z</time></trkpt><trkpt lat="46.05071170798921" lon="9.401269609599778"><ele>943.0000000000001</ele><time>2026-04-11T09:12:56Z</time></trkpt><trkpt lat="46.050738873281006" lon="9.401143476758266"><ele>944.0</ele><time>2026-04-11T09:12:57Z</time></trkpt><trkpt lat="46.05076096942159" lon="9.401021049294851"><ele>945.4000000000001</ele><time>2026-04-11T09:12:58Z</time></trkpt><trkpt lat="46.05078815739323" lon="9.400888036596491"><ele>946.8000000000001</ele><time>2026-04-11T09:12:59Z</time></trkpt><trkpt lat="46.050818931078524" lon="9.400758393811806"><ele>948.1999999999999</ele><time>2026-04-11T09:13:00Z</time></trkpt><trkpt lat="46.05084374925292" lon="9.400633888065542"><ele>949.5999999999999</ele><time>2026-04-11T09:13:01Z</time></trkpt><trkpt lat="46.05088543273013" lon="9.400517222807512"><ele>951.0</ele><time>2026-04-11T09:13:02Z</time></trkpt><trkpt lat="46.05090985875744" lon="9.400411241200741"><ele>944.1999999999999</ele><time>2026-04-11T09:13:03Z</time></trkpt><trkpt lat="46.05093530564528" lon="9.40030083038433"><ele>937.3999999999999</ele><time>2026-04-11T09:13:04Z</time></trkpt><trkpt lat="46.050967472674486" lon="9.400136977319976"><ele>930.6</ele><time>2026-04-11T09:13:06Z</time></trkpt><trkpt lat="46.05098801398986" lon="9.399979650891963"><ele>923.8</ele><time>2026-04-11T09:13:08Z</time></trkpt><trkpt lat="46.050988943135756" lon="9.399888747294376"><ele>917.0</ele><time>2026-04-11T09:13:09Z</time></trkpt><trkpt lat="46.05092354021623" lon="9.399718816528472"><ele>916.2857142857142</ele><time>2026-04-11T09:13:11Z</time></trkpt><trkpt lat="46.05089695281098" lon="9.399620352217886"><ele>915.5714285714286</ele><time>2026-04-11T09:13:12Z</time></trkpt><trkpt lat="46.05085916167361" lon="9.399528306606852"><ele>914.8571428571429</ele><time>2026-04-11T09:13:13Z</time></trkpt><trkpt lat="46.050819815167095" lon="9.399444309345881"><ele>914.1428571428571</ele><time>2026-04-11T09:13:14Z</time></trkpt><trkpt lat="46.05078255697351" lon="9.39936091064444"><ele>913.4285714285713</ele><time>2026-04-11T09:13:15Z</time></trkpt><trkpt lat="46.05073480489634" lon="9.399248174714382"><ele>912.7142857142857</ele><time>2026-04-11T09:13:17Z</time></trkpt><trkpt lat="46.05074440209138" lon="9.399148847813965"><ele>912.0</ele><time>2026-04-11T09:13:21Z</time></trkpt><trkpt lat="46.050838762706405" lon="9.3993040034205"><ele>912.0</ele><time>2026-04-11T09:13:24Z</time></trkpt><trkpt lat="46.05090381187394" lon="9.399397028044497"><ele>912.0</ele><time>2026-04-11T09:13:25Z</time></trkpt><trkpt lat="46.05097312831036" lon="9.399475189312367"><ele>912.0</ele><time>2026-04-11T09:13:26Z</time></trkpt><trkpt lat="46.05104990959287" lon="9.399545657395068"><ele>912.0</ele><time>2026-04-11T09:13:27Z</time></trkpt><trkpt lat="46.05112902482503" lon="9.399607571879391"><ele>912.0</ele><time>2026-04-11T09:13:28Z</time></trkpt><trkpt lat="46.05121224077124" lon="9.399668088371602"><ele>912.8333333333334</ele><time>2026-04-11T09:13:29Z</time></trkpt><trkpt lat="46.05128687559267" lon="9.399720191566418"><ele>913.6666666666667</ele><time>2026-04-11T09:13:30Z</time></trkpt><trkpt lat="46.051358085829015" lon="9.399771395902453"><ele>914.5</ele><time>2026-04-11T09:13:31Z</time></trkpt><trkpt lat="46.05142794651524" lon="9.399836487783622"><ele>915.3333333333334</ele><time>2026-04-11T09:13:32Z</time></trkpt><trkpt lat="46.05149733692366" lon="9.3999038917956"><ele>916.1666666666667</ele><time>2026-04-11T09:13:33Z</time></trkpt><trkpt lat="46.051557619622514" lon="9.399974412352647"><ele>917.0</ele><time>2026-04-11T09:13:34Z</time></trkpt><trkpt lat="46.05160856018925" lon="9.400063854627595"><ele>915.3333333333334</ele><time>2026-04-11T09:13:35Z</time></trkpt><trkpt lat="46.05165084326917" lon="9.40016705605476"><ele>913.6666666666667</ele><time>2026-04-11T09:13:36Z</time></trkpt><trkpt lat="46.05168109444852" lon="9.40027423512114"><ele>912.0</ele><time>2026-04-11T09:13:37Z</time></trkpt><trkpt lat="46.05170505853554" lon="9.400388992228516"><ele>910.3333333333333</ele><time>2026-04-11T09:13:38Z</time></trkpt><trkpt lat="46.05172541343966" lon="9.400500098641269"><ele>908.6666666666666</ele><time>2026-04-11T09:13:39Z</time></trkpt><trkpt lat="46.051742092295314" lon="9.400611051085933"><ele>907.0</ele><time>2026-04-11T09:13:40Z</time></trkpt><trkpt lat="46.05175867896634" lon="9.400727923861409"><ele>905.6666666666666</ele><time>2026-04-11T09:13:41Z</time></trkpt><trkpt lat="46.051778047242486" lon="9.400845591701367"><ele>904.3333333333333</ele><time>2026-04-11T09:13:42Z</time></trkpt><trkpt lat="46.0518011410012" lon="9.400967694620855"><ele>903.0</ele><time>2026-04-11T09:13:43Z</time></trkpt><trkpt lat="46.05181604002765" lon="9.401087904218425"><ele>901.6666666666667</ele><time>2026-04-11T09:13:44Z</time></trkpt><trkpt lat="46.051818878988456" lon="9.401215720909189"><ele>900.3333333333334</ele><time>2026-04-11T09:13:45Z</time></trkpt><trkpt lat="46.051798629486" lon="9.401340294235494"><ele>899.0</ele><time>2026-04-11T09:13:46Z</time></trkpt><trkpt lat="46.05175245165781" lon="9.401460927616093"><ele>897.2</ele><time>2026-04-11T09:13:47Z</time></trkpt><trkpt lat="46.0516828583091" lon="9.401564017860233"><ele>895.4000000000001</ele><time>2026-04-11T09:13:48Z</time></trkpt><trkpt lat="46.05159652832808" lon="9.401636829772634"><ele>893.6</ele><time>2026-04-11T09:13:49Z</time></trkpt><trkpt lat="46.05150120273136" lon="9.40168888054622"><ele>891.8</ele><time>2026-04-11T09:13:50Z</time></trkpt><trkpt lat="46.051413272167075" lon="9.401736423074011"><ele>890.0</ele><time>2026-04-11T09:13:51Z</time></trkpt><trkpt lat="46.051334941177934" lon="9.401792441360527"><ele>891.8</ele><time>2026-04-11T09:13:52Z</time></trkpt><trkpt lat="46.05125604356679" lon="9.401863505985823"><ele>893.6</ele><time>2026-04-11T09:13:53Z</time></trkpt><trkpt lat="46.051183668688736" lon="9.401947515679101"><ele>895.4000000000001</ele><time>2026-04-11T09:13:54Z</time></trkpt><trkpt lat="46.051124048149944" lon="9.402046418115278"><ele>897.2</ele><time>2026-04-11T09:13:55Z</time></trkpt><trkpt lat="46.051085738242115" lon="9.402164955758254"><ele>899.0</ele><time>2026-04-11T09:13:55.999Z</time></trkpt><trkpt lat="46.051055523257126" lon="9.402300030840404"><ele>899.0</ele><time>2026-04-11T09:13:56.999Z</time></trkpt><trkpt lat="46.05103276027949" lon="9.402444550943262"><ele>899.0000000000001</ele><time>2026-04-11T09:13:57.999Z</time></trkpt><trkpt lat="46.05101139098039" lon="9.40258847870424"><ele>899.0000000000001</ele><time>2026-04-11T09:13:58.999Z</time></trkpt><trkpt lat="46.05098442461613" lon="9.402726916489392"><ele>899.0</ele><time>2026-04-11T09:13:59.999Z</time></trkpt><trkpt lat="46.050955941255616" lon="9.402868306191719"><ele>899.0</ele><time>2026-04-11T09:14:00.999Z</time></trkpt><trkpt lat="46.0509315238454" lon="9.40299711146499"><ele>896.4000000000001</ele><time>2026-04-11T09:14:01.999Z</time></trkpt><trkpt lat="46.05090920460622" lon="9.40312628079914"><ele>893.8000000000001</ele><time>2026-04-11T09:14:02.999Z</time></trkpt><trkpt lat="46.0508882396029" lon="9.403259452833968"><ele>891.1999999999999</ele><time>2026-04-11T09:14:03.999Z</time></trkpt><trkpt lat="46.05086594080498" lon="9.403386726673343"><ele>888.5999999999999</ele><time>2026-04-11T09:14:04.999Z</time></trkpt><trkpt lat="46.05084470254794" lon="9.403515714173263"><ele>886.0</ele><time>2026-04-11T09:14:05.999Z</time></trkpt><trkpt lat="46.050826099512925" lon="9.403647402076658"><ele>885.9999999999999</ele><time>2026-04-11T09:14:06.999Z</time></trkpt><trkpt lat="46.050807359045" lon="9.403770521876393"><ele>886.0</ele><time>2026-04-11T09:14:07.999Z</time></trkpt><trkpt lat="46.05078785130226" lon="9.403893262839714"><ele>886.0</ele><time>2026-04-11T09:14:08.999Z</time></trkpt><trkpt lat="46.05076718222963" lon="9.404007351443985"><ele>886.0</ele><time>2026-04-11T09:14:10Z</time></trkpt><trkpt lat="46.05075047477724" lon="9.404131855616534"><ele>885.9999999999999</ele><time>2026-04-11T09:14:11Z</time></trkpt><trkpt lat="46.05073880810231" lon="9.40426678121173"><ele>886.0</ele><time>2026-04-11T09:14:12Z</time></trkpt><trkpt lat="46.05072593481187" lon="9.404419888741304"><ele>890.4</ele><time>2026-04-11T09:14:13Z</time></trkpt><trkpt lat="46.05071719580191" lon="9.404556725994494"><ele>894.8</ele><time>2026-04-11T09:14:14Z</time></trkpt><trkpt lat="46.05070562769501" lon="9.404706683439933"><ele>899.1999999999999</ele><time>2026-04-11T09:14:15Z</time></trkpt><trkpt lat="46.05069193171642" lon="9.404844011745158"><ele>903.5999999999999</ele><time>2026-04-11T09:14:16Z</time></trkpt><trkpt lat="46.05067688732984" lon="9.404989954560833"><ele>908.0</ele><time>2026-04-11T09:14:17Z</time></trkpt><trkpt lat="46.050661179076634" lon="9.405142641126796"><ele>908.0</ele><time>2026-04-11T09:14:18Z</time></trkpt><trkpt lat="46.05064545714032" lon="9.405296524187898"><ele>908.0</ele><time>2026-04-11T09:14:19Z</time></trkpt><trkpt lat="46.05063070712091" lon="9.405462120012748"><ele>908.0</ele><time>2026-04-11T09:14:20Z</time></trkpt><trkpt lat="46.05061861746988" lon="9.405616729174653"><ele>908.0</ele><time>2026-04-11T09:14:21Z</time></trkpt><trkpt lat="46.050606780925186" lon="9.405773344859984"><ele>908.0</ele><time>2026-04-11T09:14:22Z</time></trkpt><trkpt lat="46.050592710025334" lon="9.405935603332754"><ele>906.4</ele><time>2026-04-11T09:14:23Z</time></trkpt><trkpt lat="46.05057570629363" lon="9.406096412765063"><ele>904.8</ele><time>2026-04-11T09:14:24Z</time></trkpt><trkpt lat="46.05056207383308" lon="9.406257667219087"><ele>903.2</ele><time>2026-04-11T09:14:25Z</time></trkpt><trkpt lat="46.05053300896108" lon="9.406408952921602"><ele>901.6</ele><time>2026-04-11T09:14:26Z</time></trkpt><trkpt lat="46.05051812975209" lon="9.406566262669092"><ele>900.0</ele><time>2026-04-11T09:14:27Z</time></trkpt><trkpt lat="46.05050908041993" lon="9.406719463065823"><ele>897.4</ele><time>2026-04-11T09:14:28Z</time></trkpt><trkpt lat="46.05050429854663" lon="9.406870556059754"><ele>894.8</ele><time>2026-04-11T09:14:29Z</time></trkpt><trkpt lat="46.05050000822275" lon="9.407018447841727"><ele>892.2</ele><time>2026-04-11T09:14:30Z</time></trkpt><trkpt lat="46.05050724097967" lon="9.407168908054302"><ele>889.6</ele><time>2026-04-11T09:14:31Z</time></trkpt><trkpt lat="46.0504973136476" lon="9.40731340668953"><ele>887.0</ele><time>2026-04-11T09:14:32Z</time></trkpt><trkpt lat="46.050488584144084" lon="9.407457782473722"><ele>885.4000000000001</ele><time>2026-04-11T09:14:33Z</time></trkpt><trkpt lat="46.050475656502535" lon="9.407597928565933"><ele>883.8000000000001</ele><time>2026-04-11T09:14:34Z</time></trkpt><trkpt lat="46.05045692378081" lon="9.407741738249618"><ele>882.2</ele><time>2026-04-11T09:14:35Z</time></trkpt><trkpt lat="46.05039798959897" lon="9.407855750539426"><ele>880.6</ele><time>2026-04-11T09:14:36Z</time></trkpt><trkpt lat="46.05033481575847" lon="9.407976868332863"><ele>879.0</ele><time>2026-04-11T09:14:37Z</time></trkpt><trkpt lat="46.05029695918543" lon="9.40808611912376"><ele>877.2</ele><time>2026-04-11T09:14:38Z</time></trkpt><trkpt lat="46.05026444255844" lon="9.408218043330173"><ele>875.4000000000001</ele><time>2026-04-11T09:14:39Z</time></trkpt><trkpt lat="46.050299847323195" lon="9.408361843734504"><ele>873.6</ele><time>2026-04-11T09:14:40Z</time></trkpt><trkpt lat="46.05029237242107" lon="9.40849342855385"><ele>871.8</ele><time>2026-04-11T09:14:41Z</time></trkpt><trkpt lat="46.05027992885218" lon="9.408608562812768"><ele>870.0</ele><time>2026-04-11T09:14:42Z</time></trkpt><trkpt lat="46.05027036626684" lon="9.408729226439885"><ele>870.0</ele><time>2026-04-11T09:14:43Z</time></trkpt><trkpt lat="46.05028239946577" lon="9.408821170776294"><ele>870.0</ele><time>2026-04-11T09:14:44Z</time></trkpt><trkpt lat="46.05027546602251" lon="9.4089739840556"><ele>870.0</ele><time>2026-04-11T09:14:46Z</time></trkpt><trkpt lat="46.05031797909635" lon="9.409055603970605"><ele>870.0</ele><time>2026-04-11T09:14:47Z</time></trkpt><trkpt lat="46.050410129473036" lon="9.409041354983199"><ele>870.0</ele><time>2026-04-11T09:14:48Z</time></trkpt><trkpt lat="46.05046547866537" lon="9.408972864980143"><ele>870.0</ele><time>2026-04-11T09:14:49Z</time></trkpt><trkpt lat="46.05047809605623" lon="9.40881681602349"><ele>870.0</ele><time>2026-04-11T09:14:50Z</time></trkpt><trkpt lat="46.05048734687787" lon="9.40869867684446"><ele>870.0</ele><time>2026-04-11T09:14:51Z</time></trkpt><trkpt lat="46.05046884163017" lon="9.408579611428623"><ele>870.0</ele><time>2026-04-11T09:14:52Z</time></trkpt><trkpt lat="46.050471088407384" lon="9.408486589247914"><ele>870.0</ele><time>2026-04-11T09:14:53Z</time></trkpt><trkpt lat="46.05048343763172" lon="9.408383963101741"><ele>870.0</ele><time>2026-04-11T09:14:54Z</time></trkpt><trkpt lat="46.05049375604222" lon="9.408269761524611"><ele>870.0</ele><time>2026-04-11T09:14:55Z</time></trkpt><trkpt lat="46.05056723730856" lon="9.408215000202793"><ele>870.0</ele><time>2026-04-11T09:14:56Z</time></trkpt><trkpt lat="46.050635231565664" lon="9.40815993154506"><ele>870.0</ele><time>2026-04-11T09:14:57Z</time></trkpt><trkpt lat="46.05070744806311" lon="9.408099359140374"><ele>870.0</ele><time>2026-04-11T09:14:58Z</time></trkpt><trkpt lat="46.05078593632414" lon="9.40803798458374"><ele>870.0</ele><time>2026-04-11T09:14:59Z</time></trkpt><trkpt lat="46.050867630253094" lon="9.407953223019575"><ele>870.0</ele><time>2026-04-11T09:15:00Z</time></trkpt><trkpt lat="46.05093366921277" lon="9.407857416317546"><ele>870.0</ele><time>2026-04-11T09:15:01Z</time></trkpt><trkpt lat="46.050994672991735" lon="9.4077365211485"><ele>867.2</ele><time>2026-04-11T09:15:02Z</time></trkpt><trkpt lat="46.05104487790698" lon="9.407562556731632"><ele>864.4</ele><time>2026-04-11T09:15:04Z</time></trkpt><trkpt lat="46.051097398282906" lon="9.407453130051438"><ele>861.5999999999999</ele><time>2026-04-11T09:15:05Z</time></trkpt><trkpt lat="46.05113759827845" lon="9.407330304584832"><ele>858.8</ele><time>2026-04-11T09:15:06Z</time></trkpt><trkpt lat="46.05117181460299" lon="9.407208021192385"><ele>856.0</ele><time>2026-04-11T09:15:07Z</time></trkpt><trkpt lat="46.051208489180766" lon="9.407087770234146"><ele>855.9999999999999</ele><time>2026-04-11T09:15:08Z</time></trkpt><trkpt lat="46.05124613408473" lon="9.407002750369806"><ele>856.0</ele><time>2026-04-11T09:15:09Z</time></trkpt><trkpt lat="46.05131323569232" lon="9.40688576738777"><ele>856.0</ele><time>2026-04-11T09:15:11Z</time></trkpt><trkpt lat="46.05138108073803" lon="9.406921058771125"><ele>856.0</ele><time>2026-04-11T09:15:13Z</time></trkpt><trkpt lat="46.05139256165823" lon="9.407022310187688"><ele>855.9999999999999</ele><time>2026-04-11T09:15:14Z</time></trkpt><trkpt lat="46.05136860821752" lon="9.407122283500106"><ele>856.0</ele><time>2026-04-11T09:15:15Z</time></trkpt><trkpt lat="46.051332351046824" lon="9.407219393407932"><ele>853.1999999999999</ele><time>2026-04-11T09:15:16Z</time></trkpt><trkpt lat="46.051298019755045" lon="9.4073371161886"><ele>850.3999999999999</ele><time>2026-04-11T09:15:17Z</time></trkpt><trkpt lat="46.05125897821877" lon="9.407475110383226"><ele>847.6</ele><time>2026-04-11T09:15:18Z</time></trkpt><trkpt lat="46.051201409493395" lon="9.407606034096453"><ele>844.8</ele><time>2026-04-11T09:15:19Z</time></trkpt><trkpt lat="46.051175685644225" lon="9.407754948177791"><ele>842.0</ele><time>2026-04-11T09:15:20Z</time></trkpt><trkpt lat="46.05113366530241" lon="9.407886531871998"><ele>840.0</ele><time>2026-04-11T09:15:21Z</time></trkpt><trkpt lat="46.0510927104971" lon="9.408015718496126"><ele>838.0</ele><time>2026-04-11T09:15:22Z</time></trkpt><trkpt lat="46.051059996940815" lon="9.408147164720926"><ele>836.0</ele><time>2026-04-11T09:15:23Z</time></trkpt><trkpt lat="46.0510317362212" lon="9.4082787828788"><ele>834.0</ele><time>2026-04-11T09:15:24Z</time></trkpt><trkpt lat="46.05104544669252" lon="9.408424642368445"><ele>832.0</ele><time>2026-04-11T09:15:25Z</time></trkpt><trkpt lat="46.05104402116377" lon="9.408557629830831"><ele>832.0</ele><time>2026-04-11T09:15:26Z</time></trkpt><trkpt lat="46.051040293814424" lon="9.40868464143084"><ele>832.0</ele><time>2026-04-11T09:15:27Z</time></trkpt><trkpt lat="46.0510339176836" lon="9.408820379450317"><ele>832.0</ele><time>2026-04-11T09:15:28Z</time></trkpt><trkpt lat="46.051032424831924" lon="9.408944811837872"><ele>832.0</ele><time>2026-04-11T09:15:29Z</time></trkpt><trkpt lat="46.05102797520221" lon="9.409079379667972"><ele>832.0</ele><time>2026-04-11T09:15:30Z</time></trkpt><trkpt lat="46.05102180397426" lon="9.409206098254693"><ele>829.2</ele><time>2026-04-11T09:15:31Z</time></trkpt><trkpt lat="46.05101248118329" lon="9.409338033529572"><ele>826.4000000000001</ele><time>2026-04-11T09:15:32Z</time></trkpt><trkpt lat="46.050980731567705" lon="9.409454697082987"><ele>823.5999999999999</ele><time>2026-04-11T09:15:33Z</time></trkpt><trkpt lat="46.05092210036589" lon="9.4095556870405"><ele>820.8</ele><time>2026-04-11T09:15:34Z</time></trkpt><trkpt lat="46.05084029965662" lon="9.409625074020285"><ele>818.0</ele><time>2026-04-11T09:15:35Z</time></trkpt><trkpt lat="46.05074047141403" lon="9.40962377784928"><ele>822.8333333333334</ele><time>2026-04-11T09:15:36Z</time></trkpt><trkpt lat="46.050663372604106" lon="9.409688379199894"><ele>827.6666666666667</ele><time>2026-04-11T09:15:37Z</time></trkpt><trkpt lat="46.05059576324678" lon="9.409733576518747"><ele>832.5</ele><time>2026-04-11T09:15:38Z</time></trkpt><trkpt lat="46.05053160677599" lon="9.409817248732802"><ele>837.3333333333333</ele><time>2026-04-11T09:15:39Z</time></trkpt><trkpt lat="46.05049224552521" lon="9.409923057297014"><ele>842.1666666666666</ele><time>2026-04-11T09:15:40Z</time></trkpt><trkpt lat="46.050485428501105" lon="9.410087589794273"><ele>847.0</ele><time>2026-04-11T09:15:41Z</time></trkpt><trkpt lat="46.05050119837659" lon="9.410242536314808"><ele>847.0</ele><time>2026-04-11T09:15:42Z</time></trkpt><trkpt lat="46.05052621269569" lon="9.410391394559264"><ele>847.0</ele><time>2026-04-11T09:15:43Z</time></trkpt><trkpt lat="46.05051935825609" lon="9.410546671161436"><ele>847.0</ele><time>2026-04-11T09:15:44Z</time></trkpt><trkpt lat="46.05049415352725" lon="9.410691248677564"><ele>847.0</ele><time>2026-04-11T09:15:45Z</time></trkpt><trkpt lat="46.05046139039233" lon="9.410846587837495"><ele>847.0</ele><time>2026-04-11T09:15:46Z</time></trkpt><trkpt lat="46.05042431186045" lon="9.410998406334384"><ele>846.8</ele><time>2026-04-11T09:15:47Z</time></trkpt><trkpt lat="46.05038190656" lon="9.411146898756646"><ele>846.6</ele><time>2026-04-11T09:15:48Z</time></trkpt><trkpt lat="46.05034516617501" lon="9.411288205665624"><ele>846.4</ele><time>2026-04-11T09:15:49Z</time></trkpt><trkpt lat="46.05031175951102" lon="9.411426653265062"><ele>846.1999999999999</ele><time>2026-04-11T09:15:50Z</time></trkpt><trkpt lat="46.05030332779999" lon="9.411564305493059"><ele>846.0</ele><time>2026-04-11T09:15:51Z</time></trkpt><trkpt lat="46.050288056574544" lon="9.4116953990658"><ele>843.4</ele><time>2026-04-11T09:15:52Z</time></trkpt><trkpt lat="46.0502846966283" lon="9.411828745728773"><ele>840.8</ele><time>2026-04-11T09:15:53Z</time></trkpt><trkpt lat="46.050277031647056" lon="9.411968004129276"><ele>838.1999999999999</ele><time>2026-04-11T09:15:54Z</time></trkpt><trkpt lat="46.05025448106781" lon="9.412111118226855"><ele>835.5999999999999</ele><time>2026-04-11T09:15:55Z</time></trkpt><trkpt lat="46.050213151177374" lon="9.412243668466589"><ele>833.0</ele><time>2026-04-11T09:15:56Z</time></trkpt><trkpt lat="46.05017732039345" lon="9.412381159503193"><ele>835.0</ele><time>2026-04-11T09:15:57Z</time></trkpt><trkpt lat="46.050137541068274" lon="9.41251553183912"><ele>837.0</ele><time>2026-04-11T09:15:58Z</time></trkpt><trkpt lat="46.050088722093" lon="9.412647683763321"><ele>839.0</ele><time>2026-04-11T09:15:58.999Z</time></trkpt><trkpt lat="46.05003086942995" lon="9.412769477292294"><ele>841.0</ele><time>2026-04-11T09:15:59.999Z</time></trkpt><trkpt lat="46.04996797881601" lon="9.412893337084801"><ele>843.0</ele><time>2026-04-11T09:16:00.999Z</time></trkpt><trkpt lat="46.04990404428274" lon="9.413014722559035"><ele>843.0</ele><time>2026-04-11T09:16:01.999Z</time></trkpt><trkpt lat="46.0498409750194" lon="9.413129464514652"><ele>843.0</ele><time>2026-04-11T09:16:02.999Z</time></trkpt><trkpt lat="46.04976648595437" lon="9.413223754055785"><ele>843.0</ele><time>2026-04-11T09:16:03.999Z</time></trkpt><trkpt lat="46.04971494676963" lon="9.413343765286635"><ele>843.0</ele><time>2026-04-11T09:16:04.999Z</time></trkpt><trkpt lat="46.04968118642067" lon="9.41347089083369"><ele>843.0</ele><time>2026-04-11T09:16:05.999Z</time></trkpt><trkpt lat="46.049689660537844" lon="9.413610769942368"><ele>843.0</ele><time>2026-04-11T09:16:06.999Z</time></trkpt><trkpt lat="46.04969082533119" lon="9.41375655982873"><ele>843.0</ele><time>2026-04-11T09:16:07.999Z</time></trkpt><trkpt lat="46.049706512093096" lon="9.413890862373888"><ele>843.0</ele><time>2026-04-11T09:16:08.999Z</time></trkpt><trkpt lat="46.04972026547843" lon="9.414032223747943"><ele>843.0</ele><time>2026-04-11T09:16:09.999Z</time></trkpt><trkpt lat="46.04973685404267" lon="9.41418017723705"><ele>843.0</ele><time>2026-04-11T09:16:10.999Z</time></trkpt><trkpt lat="46.049717896319514" lon="9.414316189682582"><ele>841.0</ele><time>2026-04-11T09:16:11.999Z</time></trkpt><trkpt lat="46.04966063051116" lon="9.414429555146961"><ele>839.0</ele><time>2026-04-11T09:16:12.999Z</time></trkpt><trkpt lat="46.04960810682411" lon="9.41454941876231"><ele>837.0</ele><time>2026-04-11T09:16:13.999Z</time></trkpt><trkpt lat="46.04955387332219" lon="9.414652627889799"><ele>835.0</ele><time>2026-04-11T09:16:15Z</time></trkpt><trkpt lat="46.04949421509502" lon="9.414760670936008"><ele>833.0</ele><time>2026-04-11T09:16:16Z</time></trkpt><trkpt lat="46.04946255738982" lon="9.414877294259854"><ele>830.5999999999999</ele><time>2026-04-11T09:16:17Z</time></trkpt><trkpt lat="46.04943610672232" lon="9.414988197458975"><ele>828.1999999999999</ele><time>2026-04-11T09:16:18Z</time></trkpt><trkpt lat="46.049442676693324" lon="9.415118622486705"><ele>825.8</ele><time>2026-04-11T09:16:19Z</time></trkpt><trkpt lat="46.04945937869459" lon="9.41526540573319"><ele>823.4</ele><time>2026-04-11T09:16:20Z</time></trkpt><trkpt lat="46.049509796137784" lon="9.415411634525"><ele>821.0</ele><time>2026-04-11T09:16:21Z</time></trkpt><trkpt lat="46.049564983290566" lon="9.41553710402546"><ele>819.3333333333334</ele><time>2026-04-11T09:16:22Z</time></trkpt><trkpt lat="46.04962993496491" lon="9.415648695192697"><ele>817.6666666666667</ele><time>2026-04-11T09:16:23Z</time></trkpt><trkpt lat="46.049669343603405" lon="9.415767228463597"><ele>816.0</ele><time>2026-04-11T09:16:24Z</time></trkpt><trkpt lat="46.049691364198324" lon="9.415878988671576"><ele>814.3333333333333</ele><time>2026-04-11T09:16:25Z</time></trkpt><trkpt lat="46.0496685581732" lon="9.415989421817592"><ele>812.6666666666666</ele><time>2026-04-11T09:16:26Z</time></trkpt><trkpt lat="46.04961053920552" lon="9.416065725775404"><ele>811.0</ele><time>2026-04-11T09:16:27Z</time></trkpt><trkpt lat="46.04956090008954" lon="9.416148815149864"><ele>811.0</ele><time>2026-04-11T09:16:28Z</time></trkpt><trkpt lat="46.04950708837601" lon="9.416255201404676"><ele>811.0</ele><time>2026-04-11T09:16:29Z</time></trkpt><trkpt lat="46.049474897058715" lon="9.416379758541016"><ele>811.0</ele><time>2026-04-11T09:16:30Z</time></trkpt><trkpt lat="46.04949578672696" lon="9.41652164645681"><ele>811.0</ele><time>2026-04-11T09:16:31Z</time></trkpt><trkpt lat="46.04951424897997" lon="9.416652234243719"><ele>811.0</ele><time>2026-04-11T09:16:32Z</time></trkpt><trkpt lat="46.0495267143831" lon="9.416782896973183"><ele>808.1999999999999</ele><time>2026-04-11T09:16:33Z</time></trkpt><trkpt lat="46.049624569961615" lon="9.416875919479613"><ele>805.4</ele><time>2026-04-11T09:16:34Z</time></trkpt><trkpt lat="46.049697212240446" lon="9.41696331233976"><ele>802.6</ele><time>2026-04-11T09:16:35Z</time></trkpt><trkpt lat="46.04977047259717" lon="9.417043557581351"><ele>799.8</ele><time>2026-04-11T09:16:36Z</time></trkpt><trkpt lat="46.04983586285423" lon="9.41712585696514"><ele>797.0</ele><time>2026-04-11T09:16:37Z</time></trkpt><trkpt lat="46.049904470338014" lon="9.41720948551713"><ele>787.0</ele><time>2026-04-11T09:16:38Z</time></trkpt><trkpt lat="46.04997328138929" lon="9.417299112518604"><ele>777.0</ele><time>2026-04-11T09:16:39Z</time></trkpt><trkpt lat="46.05003271364282" lon="9.41740904929934"><ele>767.0</ele><time>2026-04-11T09:16:40Z</time></trkpt><trkpt lat="46.05010410776441" lon="9.417496188615825"><ele>757.0</ele><time>2026-04-11T09:16:41Z</time></trkpt><trkpt lat="46.05017063791048" lon="9.417574494786116"><ele>747.0</ele><time>2026-04-11T09:16:42Z</time></trkpt><trkpt lat="46.05023989716703" lon="9.417641346300272"><ele>747.0</ele><time>2026-04-11T09:16:43Z</time></trkpt><trkpt lat="46.05030086117142" lon="9.417710763033204"><ele>747.0</ele><time>2026-04-11T09:16:44Z</time></trkpt><trkpt lat="46.05036016045671" lon="9.417783493869386"><ele>747.0</ele><time>2026-04-11T09:16:45Z</time></trkpt><trkpt lat="46.050408566334866" lon="9.41787260332627"><ele>747.0</ele><time>2026-04-11T09:16:46Z</time></trkpt><trkpt lat="46.05048317583484" lon="9.417939806304979"><ele>747.0</ele><time>2026-04-11T09:16:47Z</time></trkpt><trkpt lat="46.0505676643196" lon="9.417989257076282"><ele>747.0</ele><time>2026-04-11T09:16:48Z</time></trkpt><trkpt lat="46.0506666798999" lon="9.418011678924657"><ele>747.0</ele><time>2026-04-11T09:16:49Z</time></trkpt><trkpt lat="46.05076954167251" lon="9.417963477184715"><ele>747.0</ele><time>2026-04-11T09:16:50Z</time></trkpt><trkpt lat="46.050849543781005" lon="9.417883520598837"><ele>747.0</ele><time>2026-04-11T09:16:51Z</time></trkpt><trkpt lat="46.050910265102694" lon="9.41776605176903"><ele>747.0</ele><time>2026-04-11T09:16:52Z</time></trkpt><trkpt lat="46.050960797391156" lon="9.417641460349296"><ele>747.0</ele><time>2026-04-11T09:16:53Z</time></trkpt><trkpt lat="46.05100599586412" lon="9.41751344210072"><ele>748.75</ele><time>2026-04-11T09:16:54Z</time></trkpt><trkpt lat="46.05105013255662" lon="9.417368097546545"><ele>750.5</ele><time>2026-04-11T09:16:55Z</time></trkpt><trkpt lat="46.05108995904333" lon="9.417211090230037"><ele>752.25</ele><time>2026-04-11T09:16:56Z</time></trkpt><trkpt lat="46.05112118995356" lon="9.417043544829319"><ele>754.0</ele><time>2026-04-11T09:16:57Z</time></trkpt><trkpt lat="46.05112851768206" lon="9.41687194624244"><ele>754.0</ele><time>2026-04-11T09:16:58Z</time></trkpt><trkpt lat="46.05114612949607" lon="9.416700928322644"><ele>754.0</ele><time>2026-04-11T09:16:59Z</time></trkpt><trkpt lat="46.051174817126906" lon="9.416548704958746"><ele>754.0</ele><time>2026-04-11T09:17:00Z</time></trkpt><trkpt lat="46.05119344411576" lon="9.41640839759487"><ele>754.0</ele><time>2026-04-11T09:17:01Z</time></trkpt><trkpt lat="46.051220003798164" lon="9.416286885266484"><ele>754.0</ele><time>2026-04-11T09:17:02Z</time></trkpt><trkpt lat="46.05131764433309" lon="9.416254951855082"><ele>750.6</ele><time>2026-04-11T09:17:03Z</time></trkpt><trkpt lat="46.051402670180195" lon="9.416249001947534"><ele>747.2</ele><time>2026-04-11T09:17:04Z</time></trkpt><trkpt lat="46.05151040030528" lon="9.416194765799645"><ele>743.8000000000001</ele><time>2026-04-11T09:17:05Z</time></trkpt><trkpt lat="46.05161255130791" lon="9.416121355727078"><ele>740.4000000000001</ele><time>2026-04-11T09:17:06Z</time></trkpt><trkpt lat="46.05172394976331" lon="9.416056429710371"><ele>737.0</ele><time>2026-04-11T09:17:07Z</time></trkpt><trkpt lat="46.051841846286514" lon="9.415971647365607"><ele>743.0</ele><time>2026-04-11T09:17:08Z</time></trkpt><trkpt lat="46.05194678084571" lon="9.415841279554902"><ele>749.0</ele><time>2026-04-11T09:17:09Z</time></trkpt><trkpt lat="46.052029134442236" lon="9.415679351597529"><ele>755.0</ele><time>2026-04-11T09:17:10Z</time></trkpt><trkpt lat="46.05211074151269" lon="9.415526783197784"><ele>761.0</ele><time>2026-04-11T09:17:11Z</time></trkpt><trkpt lat="46.05219069258409" lon="9.415353598294134"><ele>761.0</ele><time>2026-04-11T09:17:12Z</time></trkpt><trkpt lat="46.05226989081229" lon="9.415171542579738"><ele>761.0</ele><time>2026-04-11T09:17:13Z</time></trkpt><trkpt lat="46.05235044020359" lon="9.41497761523033"><ele>761.0</ele><time>2026-04-11T09:17:14Z</time></trkpt><trkpt lat="46.05240931253805" lon="9.414773831395763"><ele>757.25</ele><time>2026-04-11T09:17:15Z</time></trkpt><trkpt lat="46.0524241582821" lon="9.41458007248379"><ele>753.5</ele><time>2026-04-11T09:17:16Z</time></trkpt><trkpt lat="46.05244598597233" lon="9.414382480595197"><ele>749.75</ele><time>2026-04-11T09:17:17Z</time></trkpt><trkpt lat="46.05249421109032" lon="9.414206053455155"><ele>746.0</ele><time>2026-04-11T09:17:18Z</time></trkpt><trkpt lat="46.05252790612" lon="9.414052692398784"><ele>753.4</ele><time>2026-04-11T09:17:19Z</time></trkpt><trkpt lat="46.05257203064253" lon="9.413923583102891"><ele>760.8</ele><time>2026-04-11T09:17:20Z</time></trkpt><trkpt lat="46.05263559314798" lon="9.413825421056297"><ele>768.1999999999999</ele><time>2026-04-11T09:17:21Z</time></trkpt><trkpt lat="46.052711338845555" lon="9.413791592829414"><ele>775.5999999999999</ele><time>2026-04-11T09:17:22Z</time></trkpt><trkpt lat="46.05279809898433" lon="9.413762072441314"><ele>783.0</ele><time>2026-04-11T09:17:23Z</time></trkpt><trkpt lat="46.05290113387381" lon="9.413709202125542"><ele>783.0</ele><time>2026-04-11T09:17:24Z</time></trkpt><trkpt lat="46.053020332479036" lon="9.413675360065008"><ele>783.0</ele><time>2026-04-11T09:17:25Z</time></trkpt><trkpt lat="46.05313307410717" lon="9.413693601461542"><ele>783.0</ele><time>2026-04-11T09:17:26Z</time></trkpt><trkpt lat="46.053220889580814" lon="9.413749547034845"><ele>783.0</ele><time>2026-04-11T09:17:27Z</time></trkpt><trkpt lat="46.05329493906553" lon="9.413837038754133"><ele>783.0</ele><time>2026-04-11T09:17:28Z</time></trkpt><trkpt lat="46.053374615858544" lon="9.413875902402038"><ele>788.8</ele><time>2026-04-11T09:17:29Z</time></trkpt><trkpt lat="46.05344107724345" lon="9.413879966439746"><ele>794.5999999999999</ele><time>2026-04-11T09:17:30Z</time></trkpt><trkpt lat="46.05351904205883" lon="9.41381700029435"><ele>800.4000000000001</ele><time>2026-04-11T09:17:31Z</time></trkpt><trkpt lat="46.05357911631618" lon="9.413670646155472"><ele>806.2</ele><time>2026-04-11T09:17:32Z</time></trkpt><trkpt lat="46.053548561027085" lon="9.413507227949593"><ele>812.0</ele><time>2026-04-11T09:17:33Z</time></trkpt><trkpt lat="46.05354386833537" lon="9.413360019238148"><ele>812.0</ele><time>2026-04-11T09:17:34Z</time></trkpt><trkpt lat="46.053558380660924" lon="9.413223160250165"><ele>812.0</ele><time>2026-04-11T09:17:35Z</time></trkpt><trkpt lat="46.053613242156004" lon="9.41314915776354"><ele>812.0</ele><time>2026-04-11T09:17:36Z</time></trkpt><trkpt lat="46.05368510738607" lon="9.41310138572249"><ele>812.0</ele><time>2026-04-11T09:17:37Z</time></trkpt><trkpt lat="46.053773634223326" lon="9.413041012086122"><ele>812.0</ele><time>2026-04-11T09:17:38Z</time></trkpt><trkpt lat="46.05387593409478" lon="9.412981758489087"><ele>816.75</ele><time>2026-04-11T09:17:39Z</time></trkpt><trkpt lat="46.05398653055075" lon="9.412924861804017"><ele>821.5</ele><time>2026-04-11T09:17:40Z</time></trkpt><trkpt lat="46.05410722393451" lon="9.412861643517294"><ele>826.25</ele><time>2026-04-11T09:17:41Z</time></trkpt><trkpt lat="46.05421300846083" lon="9.412803108694693"><ele>831.0</ele><time>2026-04-11T09:17:42Z</time></trkpt><trkpt lat="46.054307805931785" lon="9.412749804304182"><ele>831.0</ele><time>2026-04-11T09:17:43Z</time></trkpt><trkpt lat="46.05440025441535" lon="9.412673073066669"><ele>831.0</ele><time>2026-04-11T09:17:44Z</time></trkpt><trkpt lat="46.054479115110006" lon="9.412589859478055"><ele>831.0</ele><time>2026-04-11T09:17:45Z</time></trkpt><trkpt lat="46.05454613660927" lon="9.41242786312146"><ele>831.0</ele><time>2026-04-11T09:17:46Z</time></trkpt><trkpt lat="46.05455581526429" lon="9.412238361080398"><ele>827.0</ele><time>2026-04-11T09:17:47Z</time></trkpt><trkpt lat="46.05456183903256" lon="9.412079026274737"><ele>823.0</ele><time>2026-04-11T09:17:48Z</time></trkpt><trkpt lat="46.05458744668138" lon="9.411927284362898"><ele>819.0</ele><time>2026-04-11T09:17:49Z</time></trkpt><trkpt lat="46.054694426131945" lon="9.41181286417166"><ele>815.0</ele><time>2026-04-11T09:17:50Z</time></trkpt><trkpt lat="46.05477402288942" lon="9.411657392718714"><ele>815.0</ele><time>2026-04-11T09:17:51Z</time></trkpt><trkpt lat="46.05483176636033" lon="9.411457955711102"><ele>815.0</ele><time>2026-04-11T09:17:52Z</time></trkpt><trkpt lat="46.05487242545178" lon="9.411262895150037"><ele>815.0</ele><time>2026-04-11T09:17:53Z</time></trkpt><trkpt lat="46.05491420603105" lon="9.411064669673879"><ele>815.0</ele><time>2026-04-11T09:17:54Z</time></trkpt><trkpt lat="46.054949354184835" lon="9.41086763911414"><ele>820.75</ele><time>2026-04-11T09:17:55Z</time></trkpt><trkpt lat="46.05498361837249" lon="9.410690579492563"><ele>826.5</ele><time>2026-04-11T09:17:56Z</time></trkpt><trkpt lat="46.0550355874475" lon="9.410532783955858"><ele>832.25</ele><time>2026-04-11T09:17:57Z</time></trkpt><trkpt lat="46.055136978268955" lon="9.410421971643615"><ele>838.0</ele><time>2026-04-11T09:17:58Z</time></trkpt><trkpt lat="46.055224331906025" lon="9.410260711146533"><ele>838.0</ele><time>2026-04-11T09:17:59Z</time></trkpt><trkpt lat="46.05525942496001" lon="9.410055016389213"><ele>838.0</ele><time>2026-04-11T09:18:00Z</time></trkpt><trkpt lat="46.05528437792414" lon="9.40986481866927"><ele>838.0</ele><time>2026-04-11T09:18:01Z</time></trkpt><trkpt lat="46.05532692923946" lon="9.409685466089126"><ele>838.0</ele><time>2026-04-11T09:18:02Z</time></trkpt><trkpt lat="46.05538042202019" lon="9.409511037581886"><ele>835.0</ele><time>2026-04-11T09:18:03Z</time></trkpt><trkpt lat="46.05544780917323" lon="9.409340153556041"><ele>832.0</ele><time>2026-04-11T09:18:04Z</time></trkpt><trkpt lat="46.05553152300538" lon="9.409177844575753"><ele>829.0</ele><time>2026-04-11T09:18:05Z</time></trkpt><trkpt lat="46.055614442697646" lon="9.408993753751417"><ele>826.0</ele><time>2026-04-11T09:18:06Z</time></trkpt><trkpt lat="46.05568247265557" lon="9.408804662677259"><ele>823.0</ele><time>2026-04-11T09:18:07Z</time></trkpt><trkpt lat="46.05574952629611" lon="9.408613817806199"><ele>820.0</ele><time>2026-04-11T09:18:08Z</time></trkpt><trkpt lat="46.055821590964925" lon="9.408434662875987"><ele>817.0</ele><time>2026-04-11T09:18:09Z</time></trkpt><trkpt lat="46.05588660177958" lon="9.408268994626274"><ele>814.0</ele><time>2026-04-11T09:18:10Z</time></trkpt><trkpt lat="46.055932835946834" lon="9.408123841895327"><ele>819.4000000000001</ele><time>2026-04-11T09:18:11Z</time></trkpt><trkpt lat="46.05597158367609" lon="9.407987767249018"><ele>824.8</ele><time>2026-04-11T09:18:11.999Z</time></trkpt><trkpt lat="46.05599841584385" lon="9.4078422018834"><ele>830.2</ele><time>2026-04-11T09:18:12.999Z</time></trkpt><trkpt lat="46.05604011354195" lon="9.40773182846652"><ele>835.5999999999999</ele><time>2026-04-11T09:18:13.999Z</time></trkpt><trkpt lat="46.056078701195474" lon="9.407642697996067"><ele>841.0</ele><time>2026-04-11T09:18:14.999Z</time></trkpt><trkpt lat="46.05619490815791" lon="9.407611376473023"><ele>840.9999999999999</ele><time>2026-04-11T09:18:16.999Z</time></trkpt><trkpt lat="46.056297610567206" lon="9.4076610602263"><ele>841.0</ele><time>2026-04-11T09:18:18.999Z</time></trkpt><trkpt lat="46.05633340811055" lon="9.407743330658024"><ele>841.0</ele><time>2026-04-11T09:18:19.999Z</time></trkpt><trkpt lat="46.05634745113133" lon="9.407854448155607"><ele>841.0</ele><time>2026-04-11T09:18:22Z</time></trkpt><trkpt lat="46.05643072990491" lon="9.407947507499156"><ele>840.9999999999999</ele><time>2026-04-11T09:18:25Z</time></trkpt><trkpt lat="46.05647192351818" lon="9.40803129394713"><ele>841.0</ele><time>2026-04-11T09:18:26Z</time></trkpt><trkpt lat="46.056525023767676" lon="9.408139298094511"><ele>844.4</ele><time>2026-04-11T09:18:27Z</time></trkpt><trkpt lat="46.05658068624225" lon="9.408255310309901"><ele>847.8</ele><time>2026-04-11T09:18:28Z</time></trkpt><trkpt lat="46.056643226119604" lon="9.408346194195117"><ele>851.1999999999999</ele><time>2026-04-11T09:18:29Z</time></trkpt><trkpt lat="46.05668103368143" lon="9.40845750153329"><ele>854.5999999999999</ele><time>2026-04-11T09:18:30Z</time></trkpt><trkpt lat="46.05674235929923" lon="9.40855264057022"><ele>858.0</ele><time>2026-04-11T09:18:31Z</time></trkpt><trkpt lat="46.05680927003192" lon="9.408640282148918"><ele>860.0</ele><time>2026-04-11T09:18:32Z</time></trkpt><trkpt lat="46.05688254647732" lon="9.408727891073175"><ele>862.0</ele><time>2026-04-11T09:18:33Z</time></trkpt><trkpt lat="46.05695767403041" lon="9.40880748816893"><ele>864.0</ele><time>2026-04-11T09:18:34Z</time></trkpt><trkpt lat="46.057035146117" lon="9.408884266545614"><ele>866.0</ele><time>2026-04-11T09:18:35Z</time></trkpt><trkpt lat="46.05711063382049" lon="9.408952163890602"><ele>868.0</ele><time>2026-04-11T09:18:36Z</time></trkpt><trkpt lat="46.05718584495277" lon="9.409013286488209"><ele>867.2</ele><time>2026-04-11T09:18:37Z</time></trkpt><trkpt lat="46.05726499881377" lon="9.409072406537362"><ele>866.4</ele><time>2026-04-11T09:18:38Z</time></trkpt><trkpt lat="46.05734914566939" lon="9.409120242945656"><ele>865.6000000000001</ele><time>2026-04-11T09:18:39Z</time></trkpt><trkpt lat="46.05743995631266" lon="9.409151338404556"><ele>864.8000000000001</ele><time>2026-04-11T09:18:40Z</time></trkpt><trkpt lat="46.057537336063945" lon="9.409166271442862"><ele>864.0</ele><time>2026-04-11T09:18:41Z</time></trkpt><trkpt lat="46.057656608977254" lon="9.409161043758665"><ele>864.0</ele><time>2026-04-11T09:18:42Z</time></trkpt><trkpt lat="46.0577438109964" lon="9.409126785636357"><ele>864.0000000000001</ele><time>2026-04-11T09:18:43Z</time></trkpt><trkpt lat="46.05784401341421" lon="9.409111803441194"><ele>864.0000000000001</ele><time>2026-04-11T09:18:44Z</time></trkpt><trkpt lat="46.05793410016621" lon="9.409129822523978"><ele>864.0</ele><time>2026-04-11T09:18:45Z</time></trkpt><trkpt lat="46.058022849766544" lon="9.409163825406095"><ele>864.0</ele><time>2026-04-11T09:18:46Z</time></trkpt><trkpt lat="46.05810475158876" lon="9.40920234850971"><ele>864.0</ele><time>2026-04-11T09:18:47Z</time></trkpt><trkpt lat="46.058181000569185" lon="9.409239768008245"><ele>864.0000000000001</ele><time>2026-04-11T09:18:48Z</time></trkpt><trkpt lat="46.058247536221145" lon="9.409298036931691"><ele>864.0000000000001</ele><time>2026-04-11T09:18:49Z</time></trkpt><trkpt lat="46.0583492226643" lon="9.409283561769561"><ele>864.0</ele><time>2026-04-11T09:18:50Z</time></trkpt><trkpt lat="46.058459710221356" lon="9.409217042887695"><ele>864.0</ele><time>2026-04-11T09:18:51Z</time></trkpt><trkpt lat="46.05854990056815" lon="9.409150921606452"><ele>862.0</ele><time>2026-04-11T09:18:52Z</time></trkpt><trkpt lat="46.05863620226225" lon="9.409083272511841"><ele>860.0000000000001</ele><time>2026-04-11T09:18:53Z</time></trkpt><trkpt lat="46.058711940416515" lon="9.408994309061793"><ele>858.0000000000001</ele><time>2026-04-11T09:18:54Z</time></trkpt><trkpt lat="46.05878207832269" lon="9.408891177026302"><ele>856.0</ele><time>2026-04-11T09:18:55Z</time></trkpt><trkpt lat="46.058826604595886" lon="9.408760205999666"><ele>854.0</ele><time>2026-04-11T09:18:56Z</time></trkpt><trkpt lat="46.05886959827596" lon="9.408649124794302"><ele>849.5000000000001</ele><time>2026-04-11T09:18:57Z</time></trkpt><trkpt lat="46.058921189958966" lon="9.408566629843275"><ele>845.0</ele><time>2026-04-11T09:18:58Z</time></trkpt><trkpt lat="46.058992742601966" lon="9.408478659050461"><ele>840.5</ele><time>2026-04-11T09:18:59Z</time></trkpt><trkpt lat="46.05907881945936" lon="9.408403478115968"><ele>836.0</ele><time>2026-04-11T09:19:00Z</time></trkpt><trkpt lat="46.05914675062027" lon="9.408386173536966"><ele>831.5000000000001</ele><time>2026-04-11T09:19:01Z</time></trkpt><trkpt lat="46.05921804950182" lon="9.408387846003732"><ele>827.0</ele><time>2026-04-11T09:19:02Z</time></trkpt><trkpt lat="46.05928758870048" lon="9.408427168632876"><ele>827.0000000000001</ele><time>2026-04-11T09:19:03Z</time></trkpt><trkpt lat="46.05938392676538" lon="9.408474784849536"><ele>827.0</ele><time>2026-04-11T09:19:04Z</time></trkpt><trkpt lat="46.0594780231574" lon="9.408535364567683"><ele>827.0</ele><time>2026-04-11T09:19:05Z</time></trkpt><trkpt lat="46.05956950925371" lon="9.408592864422753"><ele>827.0</ele><time>2026-04-11T09:19:06Z</time></trkpt><trkpt lat="46.059636186565555" lon="9.408628039871594"><ele>827.0000000000001</ele><time>2026-04-11T09:19:07Z</time></trkpt><trkpt lat="46.05970519225846" lon="9.408650347993829"><ele>827.0</ele><time>2026-04-11T09:19:08Z</time></trkpt><trkpt lat="46.05979170547508" lon="9.408658656921768"><ele>827.0</ele><time>2026-04-11T09:19:09Z</time></trkpt><trkpt lat="46.05990002791156" lon="9.408621411342294"><ele>827.0</ele><time>2026-04-11T09:19:10Z</time></trkpt><trkpt lat="46.05999477878931" lon="9.408536670974007"><ele>827.0</ele><time>2026-04-11T09:19:11Z</time></trkpt><trkpt lat="46.06006108235016" lon="9.40846230804863"><ele>827.0</ele><time>2026-04-11T09:19:12Z</time></trkpt><trkpt lat="46.06010914711958" lon="9.40837995676779"><ele>827.0</ele><time>2026-04-11T09:19:13Z</time></trkpt><trkpt lat="46.06011212904735" lon="9.408248804589885"><ele>829.8333333333334</ele><time>2026-04-11T09:19:14Z</time></trkpt><trkpt lat="46.06006024528232" lon="9.408149100038495"><ele>832.6666666666667</ele><time>2026-04-11T09:19:15Z</time></trkpt><trkpt lat="46.06000493962045" lon="9.408049049842939"><ele>835.5</ele><time>2026-04-11T09:19:16Z</time></trkpt><trkpt lat="46.06000062391653" lon="9.407922030465622"><ele>838.3333333333333</ele><time>2026-04-11T09:19:17Z</time></trkpt><trkpt lat="46.06001927024999" lon="9.407835292246599"><ele>841.1666666666666</ele><time>2026-04-11T09:19:18Z</time></trkpt><trkpt lat="46.060082942356644" lon="9.4076836162974"><ele>844.0</ele><time>2026-04-11T09:19:20Z</time></trkpt><trkpt lat="46.060138073790434" lon="9.40760818062827"><ele>835.9999999999999</ele><time>2026-04-11T09:19:21Z</time></trkpt><trkpt lat="46.06020927056478" lon="9.407545622013147"><ele>828.0</ele><time>2026-04-11T09:19:22Z</time></trkpt><trkpt lat="46.06026674279681" lon="9.407501698327863"><ele>820.0</ele><time>2026-04-11T09:19:23Z</time></trkpt><trkpt lat="46.060326752308576" lon="9.407533292242894"><ele>812.0</ele><time>2026-04-11T09:19:24Z</time></trkpt><trkpt lat="46.06043469338921" lon="9.407649770677976"><ele>803.9999999999999</ele><time>2026-04-11T09:19:26Z</time></trkpt><trkpt lat="46.06051883630503" lon="9.407715147100046"><ele>796.0</ele><time>2026-04-11T09:19:27Z</time></trkpt><trkpt lat="46.06058955186771" lon="9.407789522690889"><ele>795.9999999999999</ele><time>2026-04-11T09:19:28Z</time></trkpt><trkpt lat="46.060664012346244" lon="9.407851001520747"><ele>796.0</ele><time>2026-04-11T09:19:29Z</time></trkpt><trkpt lat="46.0607422983506" lon="9.40786197744224"><ele>796.0</ele><time>2026-04-11T09:19:30Z</time></trkpt><trkpt lat="46.060810578439785" lon="9.407904994007003"><ele>796.0</ele><time>2026-04-11T09:19:31Z</time></trkpt><trkpt lat="46.060883291397566" lon="9.40791877644544"><ele>795.9999999999999</ele><time>2026-04-11T09:19:32Z</time></trkpt><trkpt lat="46.06094621838495" lon="9.40792266432831"><ele>796.0</ele><time>2026-04-11T09:19:33Z</time></trkpt><trkpt lat="46.061052188725704" lon="9.407913310471988"><ele>799.1999999999999</ele><time>2026-04-11T09:19:35Z</time></trkpt><trkpt lat="46.06114212524638" lon="9.407879457479865"><ele>802.4</ele><time>2026-04-11T09:19:37Z</time></trkpt><trkpt lat="46.061232473816126" lon="9.407834292806859"><ele>805.6</ele><time>2026-04-11T09:19:39Z</time></trkpt><trkpt lat="46.06134738219945" lon="9.407760577788457"><ele>808.8</ele><time>2026-04-11T09:19:41Z</time></trkpt><trkpt lat="46.06142256526669" lon="9.407701156523654"><ele>812.0</ele><time>2026-04-11T09:19:42Z</time></trkpt><trkpt lat="46.061493998826904" lon="9.407629642382055"><ele>812.0</ele><time>2026-04-11T09:19:43Z</time></trkpt><trkpt lat="46.061532205126845" lon="9.407526756036571"><ele>812.0</ele><time>2026-04-11T09:19:44Z</time></trkpt><trkpt lat="46.06157758991311" lon="9.40745623796608"><ele>812.0</ele><time>2026-04-11T09:19:45Z</time></trkpt><trkpt lat="46.061629641469494" lon="9.407401409787497"><ele>812.0</ele><time>2026-04-11T09:19:46Z</time></trkpt><trkpt lat="46.06169390361631" lon="9.40734833355233"><ele>812.0</ele><time>2026-04-11T09:19:47Z</time></trkpt><trkpt lat="46.06175689824511" lon="9.40732942838016"><ele>812.0</ele><time>2026-04-11T09:19:48Z</time></trkpt><trkpt lat="46.06184277142012" lon="9.407397873346971"><ele>812.0</ele><time>2026-04-11T09:19:50Z</time></trkpt><trkpt lat="46.06192348354667" lon="9.407479173024521"><ele>813.5000000000001</ele><time>2026-04-11T09:19:52Z</time></trkpt><trkpt lat="46.06198248674993" lon="9.407536471131701"><ele>815.0</ele><time>2026-04-11T09:19:53Z</time></trkpt><trkpt lat="46.062039030775914" lon="9.407604571800361"><ele>816.5</ele><time>2026-04-11T09:19:54Z</time></trkpt><trkpt lat="46.06208824620476" lon="9.407697775690902"><ele>818.0</ele><time>2026-04-11T09:19:55Z</time></trkpt><trkpt lat="46.06215281762691" lon="9.407761926132023"><ele>819.5000000000001</ele><time>2026-04-11T09:19:56Z</time></trkpt><trkpt lat="46.0622189133732" lon="9.407812749790418"><ele>821.0</ele><time>2026-04-11T09:19:57Z</time></trkpt><trkpt lat="46.06233237943586" lon="9.407857573249919"><ele>821.0000000000001</ele><time>2026-04-11T09:19:59Z</time></trkpt><trkpt lat="46.06240803506245" lon="9.407822679447733"><ele>821.0</ele><time>2026-04-11T09:20:00Z</time></trkpt><trkpt lat="46.06244731600098" lon="9.407710803823797"><ele>821.0</ele><time>2026-04-11T09:20:01Z</time></trkpt><trkpt lat="46.062471516922905" lon="9.407571468140802"><ele>821.0</ele><time>2026-04-11T09:20:03Z</time></trkpt><trkpt lat="46.0624620162729" lon="9.407474390614329"><ele>821.0000000000001</ele><time>2026-04-11T09:20:04Z</time></trkpt><trkpt lat="46.062464208016436" lon="9.407368932916768"><ele>821.0</ele><time>2026-04-11T09:20:05Z</time></trkpt><trkpt lat="46.06243034368335" lon="9.407267898847108"><ele>821.0</ele><time>2026-04-11T09:20:06Z</time></trkpt><trkpt lat="46.06239748253472" lon="9.407166308690117"><ele>821.0</ele><time>2026-04-11T09:20:07Z</time></trkpt><trkpt lat="46.062338083938634" lon="9.40706149455383"><ele>821.0</ele><time>2026-04-11T09:20:08Z</time></trkpt><trkpt lat="46.06227191949816" lon="9.406961306182303"><ele>821.0</ele><time>2026-04-11T09:20:09Z</time></trkpt><trkpt lat="46.06220639520433" lon="9.40685657481338"><ele>821.0</ele><time>2026-04-11T09:20:10Z</time></trkpt><trkpt lat="46.06214248809925" lon="9.406755145408177"><ele>820.5999999999999</ele><time>2026-04-11T09:20:11Z</time></trkpt><trkpt lat="46.06206691568471" lon="9.406681523310283"><ele>820.2</ele><time>2026-04-11T09:20:12Z</time></trkpt><trkpt lat="46.061979049274285" lon="9.406623513541474"><ele>819.8</ele><time>2026-04-11T09:20:13Z</time></trkpt><trkpt lat="46.06190215033991" lon="9.406557219218318"><ele>819.4000000000001</ele><time>2026-04-11T09:20:14Z</time></trkpt><trkpt lat="46.06185524999098" lon="9.4064504817164"><ele>819.0</ele><time>2026-04-11T09:20:15Z</time></trkpt><trkpt lat="46.06179561001026" lon="9.406358231831502"><ele>822.1666666666666</ele><time>2026-04-11T09:20:16Z</time></trkpt><trkpt lat="46.06171712066984" lon="9.406309219189167"><ele>825.3333333333333</ele><time>2026-04-11T09:20:17Z</time></trkpt><trkpt lat="46.061638897042585" lon="9.406275426544674"><ele>828.5</ele><time>2026-04-11T09:20:18Z</time></trkpt><trkpt lat="46.06156755628957" lon="9.406272776352019"><ele>831.6666666666666</ele><time>2026-04-11T09:20:19Z</time></trkpt><trkpt lat="46.06148957676514" lon="9.406314245581257"><ele>834.8333333333333</ele><time>2026-04-11T09:20:20Z</time></trkpt><trkpt lat="46.061401640300076" lon="9.406360471554008"><ele>838.0</ele><time>2026-04-11T09:20:21Z</time></trkpt><trkpt lat="46.06133401195524" lon="9.406376035086208"><ele>837.9999999999999</ele><time>2026-04-11T09:20:22Z</time></trkpt><trkpt lat="46.06121736808498" lon="9.406315516539081"><ele>838.0</ele><time>2026-04-11T09:20:24Z</time></trkpt><trkpt lat="46.061149387456396" lon="9.406277397253715"><ele>838.0</ele><time>2026-04-11T09:20:25Z</time></trkpt><trkpt lat="46.06104688119048" lon="9.406315448868524"><ele>838.0</ele><time>2026-04-11T09:20:27Z</time></trkpt><trkpt lat="46.0610053857077" lon="9.406396320988712"><ele>837.9999999999999</ele><time>2026-04-11T09:20:28Z</time></trkpt><trkpt lat="46.06097644918442" lon="9.406480497715087"><ele>838.0</ele><time>2026-04-11T09:20:29Z</time></trkpt><trkpt lat="46.06090410898611" lon="9.40653097544282"><ele>838.0</ele><time>2026-04-11T09:20:31Z</time></trkpt><trkpt lat="46.060818357138636" lon="9.406422238005005"><ele>838.0</ele><time>2026-04-11T09:20:33Z</time></trkpt><trkpt lat="46.06079199329983" lon="9.406319183111137"><ele>838.0</ele><time>2026-04-11T09:20:34Z</time></trkpt><trkpt lat="46.06078197044244" lon="9.406185140617993"><ele>838.0</ele><time>2026-04-11T09:20:35Z</time></trkpt><trkpt lat="46.06070100076483" lon="9.40609640161776"><ele>838.0</ele><time>2026-04-11T09:20:36Z</time></trkpt><trkpt lat="46.0606279958266" lon="9.406016323470006"><ele>835.4999999999999</ele><time>2026-04-11T09:20:37Z</time></trkpt><trkpt lat="46.06057120742595" lon="9.405957100121503"><ele>833.0</ele><time>2026-04-11T09:20:38Z</time></trkpt><trkpt lat="46.060562844231484" lon="9.405785934246904"><ele>830.5</ele><time>2026-04-11T09:20:40Z</time></trkpt><trkpt lat="46.060555482248304" lon="9.405661957445217"><ele>828.0</ele><time>2026-04-11T09:20:41Z</time></trkpt><trkpt lat="46.06054972709202" lon="9.405546233398178"><ele>825.4999999999999</ele><time>2026-04-11T09:20:42Z</time></trkpt><trkpt lat="46.060546382716375" lon="9.405431032940918"><ele>823.0</ele><time>2026-04-11T09:20:43Z</time></trkpt><trkpt lat="46.0605485318153" lon="9.405320507930728"><ele>822.9999999999999</ele><time>2026-04-11T09:20:44Z</time></trkpt><trkpt lat="46.06055124950013" lon="9.405199675095272"><ele>823.0</ele><time>2026-04-11T09:20:45Z</time></trkpt><trkpt lat="46.060547847801644" lon="9.405093274324361"><ele>823.0</ele><time>2026-04-11T09:20:46Z</time></trkpt><trkpt lat="46.0605236514495" lon="9.40498563101147"><ele>823.0</ele><time>2026-04-11T09:20:47Z</time></trkpt><trkpt lat="46.06044761340304" lon="9.404913096950109"><ele>822.9999999999999</ele><time>2026-04-11T09:20:48Z</time></trkpt><trkpt lat="46.060381090139785" lon="9.404852375748925"><ele>823.0</ele><time>2026-04-11T09:20:49Z</time></trkpt><trkpt lat="46.06028008564034" lon="9.404779482431822"><ele>823.0</ele><time>2026-04-11T09:20:51Z</time></trkpt><trkpt lat="46.06017322449106" lon="9.404691076154283"><ele>823.0</ele><time>2026-04-11T09:20:53Z</time></trkpt><trkpt lat="46.06014269809009" lon="9.404529155668978"><ele>823.0</ele><time>2026-04-11T09:20:55Z</time></trkpt><trkpt lat="46.06011471583576" lon="9.404436602256036"><ele>823.0</ele><time>2026-04-11T09:20:56Z</time></trkpt><trkpt lat="46.06007751913698" lon="9.404329729230742"><ele>823.0</ele><time>2026-04-11T09:20:57Z</time></trkpt><trkpt lat="46.06003698665204" lon="9.40422233940182"><ele>826.4</ele><time>2026-04-11T09:20:58Z</time></trkpt><trkpt lat="46.060001504481164" lon="9.404133924259225"><ele>829.8</ele><time>2026-04-11T09:21:00Z</time></trkpt><trkpt lat="46.06007095315604" lon="9.404189182016117"><ele>833.2</ele><time>2026-04-11T09:21:04Z</time></trkpt><trkpt lat="46.06014986390376" lon="9.404346358948354"><ele>836.6</ele><time>2026-04-11T09:21:06Z</time></trkpt><trkpt lat="46.06017094043082" lon="9.404439384861693"><ele>840.0</ele><time>2026-04-11T09:21:07Z</time></trkpt><trkpt lat="46.06023113834054" lon="9.404557835170039"><ele>837.1666666666666</ele><time>2026-04-11T09:21:09Z</time></trkpt><trkpt lat="46.060326962574024" lon="9.404679324386091"><ele>834.3333333333333</ele><time>2026-04-11T09:21:11Z</time></trkpt><trkpt lat="46.060382599131664" lon="9.404732366295635"><ele>831.5</ele><time>2026-04-11T09:21:12Z</time></trkpt><trkpt lat="46.06043593675042" lon="9.404780743835616"><ele>828.6666666666666</ele><time>2026-04-11T09:21:13Z</time></trkpt><trkpt lat="46.06051431828106" lon="9.404826942278294"><ele>825.8333333333333</ele><time>2026-04-11T09:21:15Z</time></trkpt><trkpt lat="46.0605907858915" lon="9.404837243224032"><ele>823.0</ele><time>2026-04-11T09:21:18Z</time></trkpt><trkpt lat="46.06059223009722" lon="9.404719139978482"><ele>826.4</ele><time>2026-04-11T09:21:20Z</time></trkpt><trkpt lat="46.06047525756249" lon="9.40464344218523"><ele>829.8</ele><time>2026-04-11T09:21:22Z</time></trkpt><trkpt lat="46.06041658830926" lon="9.404562938878392"><ele>833.2</ele><time>2026-04-11T09:21:24Z</time></trkpt><trkpt lat="46.06036161122567" lon="9.404475300733136"><ele>836.6</ele><time>2026-04-11T09:21:26Z</time></trkpt><trkpt lat="46.06031993821812" lon="9.404385844768235"><ele>840.0</ele><time>2026-04-11T09:21:28Z</time></trkpt><trkpt lat="46.060285045483134" lon="9.40426932125555"><ele>840.0</ele><time>2026-04-11T09:21:30Z</time></trkpt><trkpt lat="46.060238328270955" lon="9.404110012738327"><ele>840.0</ele><time>2026-04-11T09:21:32Z</time></trkpt><trkpt lat="46.06022694796978" lon="9.404013300126207"><ele>840.0</ele><time>2026-04-11T09:21:33Z</time></trkpt><trkpt lat="46.06022808614884" lon="9.403830359064955"><ele>840.0</ele><time>2026-04-11T09:21:35Z</time></trkpt><trkpt lat="46.06020175675582" lon="9.403733731141308"><ele>840.0</ele><time>2026-04-11T09:21:36Z</time></trkpt><trkpt lat="46.06019000474329" lon="9.403634317706558"><ele>842.2</ele><time>2026-04-11T09:21:37Z</time></trkpt><trkpt lat="46.060175192576956" lon="9.403468984046926"><ele>844.4</ele><time>2026-04-11T09:21:39Z</time></trkpt><trkpt lat="46.06014449607691" lon="9.403309573474582"><ele>846.5999999999999</ele><time>2026-04-11T09:21:41Z</time></trkpt><trkpt lat="46.06013150719253" lon="9.403140627913697"><ele>848.8</ele><time>2026-04-11T09:21:43Z</time></trkpt><trkpt lat="46.0601826279047" lon="9.40303341714402"><ele>851.0</ele><time>2026-04-11T09:21:45Z</time></trkpt><trkpt lat="46.060198549152545" lon="9.402924394669427"><ele>851.0</ele><time>2026-04-11T09:21:47Z</time></trkpt><trkpt lat="46.060240263947925" lon="9.40278834545457"><ele>851.0</ele><time>2026-04-11T09:21:49Z</time></trkpt><trkpt lat="46.060296989802794" lon="9.402647281164036"><ele>851.0</ele><time>2026-04-11T09:21:51Z</time></trkpt><trkpt lat="46.06033058765462" lon="9.402497562453949"><ele>851.0</ele><time>2026-04-11T09:21:53Z</time></trkpt><trkpt lat="46.06035955841163" lon="9.402352293933664"><ele>851.0</ele><time>2026-04-11T09:21:55Z</time></trkpt><trkpt lat="46.0603784255688" lon="9.402244586599652"><ele>847.6666666666667</ele><time>2026-04-11T09:21:57Z</time></trkpt><trkpt lat="46.06039838220391" lon="9.402127018196712"><ele>844.3333333333334</ele><time>2026-04-11T09:21:59Z</time></trkpt><trkpt lat="46.060417745537784" lon="9.401985314795066"><ele>841.0</ele><time>2026-04-11T09:22:01Z</time></trkpt><trkpt lat="46.060430398360765" lon="9.401865140202862"><ele>837.6666666666667</ele><time>2026-04-11T09:22:03Z</time></trkpt><trkpt lat="46.060441205520945" lon="9.401765636862388"><ele>834.3333333333334</ele><time>2026-04-11T09:22:05Z</time></trkpt><trkpt lat="46.06045315110489" lon="9.401665233627794"><ele>831.0</ele><time>2026-04-11T09:22:06Z</time></trkpt><trkpt lat="46.0604688839448" lon="9.401508060889793"><ele>831.0</ele><time>2026-04-11T09:22:08Z</time></trkpt><trkpt lat="46.06049160679521" lon="9.401362749008078"><ele>831.0</ele><time>2026-04-11T09:22:10Z</time></trkpt><trkpt lat="46.06050944566661" lon="9.401248897015599"><ele>831.0</ele><time>2026-04-11T09:22:11Z</time></trkpt><trkpt lat="46.06053299156472" lon="9.401117198913168"><ele>831.0</ele><time>2026-04-11T09:22:12Z</time></trkpt><trkpt lat="46.06057869114554" lon="9.400991081151062"><ele>831.0</ele><time>2026-04-11T09:22:13Z</time></trkpt><trkpt lat="46.06061388397237" lon="9.40085187118938"><ele>832.0</ele><time>2026-04-11T09:22:14Z</time></trkpt><trkpt lat="46.060655952453715" lon="9.40071533631791"><ele>833.0</ele><time>2026-04-11T09:22:15Z</time></trkpt><trkpt lat="46.060692853523044" lon="9.400609309138721"><ele>834.0</ele><time>2026-04-11T09:22:16Z</time></trkpt><trkpt lat="46.06073181104204" lon="9.400511418244417"><ele>835.0</ele><time>2026-04-11T09:22:17Z</time></trkpt><trkpt lat="46.060771386597885" lon="9.40041414834805"><ele>836.0</ele><time>2026-04-11T09:22:18Z</time></trkpt><trkpt lat="46.0608199610307" lon="9.400278629193043"><ele>837.0</ele><time>2026-04-11T09:22:19Z</time></trkpt><trkpt lat="46.060857577064894" lon="9.400156145243816"><ele>842.1666666666666</ele><time>2026-04-11T09:22:20Z</time></trkpt><trkpt lat="46.06089873691884" lon="9.40000873807276"><ele>847.3333333333333</ele><time>2026-04-11T09:22:21Z</time></trkpt><trkpt lat="46.06092758356844" lon="9.39990228893364"><ele>852.5</ele><time>2026-04-11T09:22:22Z</time></trkpt><trkpt lat="46.060953405303614" lon="9.399807002729627"><ele>857.6666666666666</ele><time>2026-04-11T09:22:23Z</time></trkpt><trkpt lat="46.06098182939041" lon="9.399689131508834"><ele>862.8333333333333</ele><time>2026-04-11T09:22:24Z</time></trkpt><trkpt lat="46.061008328661146" lon="9.399561649587694"><ele>868.0</ele><time>2026-04-11T09:22:25Z</time></trkpt><trkpt lat="46.06102946733461" lon="9.399414867331645"><ele>866.8</ele><time>2026-04-11T09:22:26Z</time></trkpt><trkpt lat="46.061046395548225" lon="9.399277348946525"><ele>865.5999999999999</ele><time>2026-04-11T09:22:27Z</time></trkpt><trkpt lat="46.06106098608855" lon="9.399145093499683"><ele>864.4000000000001</ele><time>2026-04-11T09:22:28Z</time></trkpt><trkpt lat="46.061073562072664" lon="9.399007292259078"><ele>863.2</ele><time>2026-04-11T09:22:29Z</time></trkpt><trkpt lat="46.06108362289613" lon="9.398868363950378"><ele>862.0</ele><time>2026-04-11T09:22:30Z</time></trkpt><trkpt lat="46.061099067097174" lon="9.398706461564357"><ele>862.0</ele><time>2026-04-11T09:22:31Z</time></trkpt><trkpt lat="46.06111758168014" lon="9.398555334478699"><ele>862.0</ele><time>2026-04-11T09:22:32Z</time></trkpt><trkpt lat="46.06114081645608" lon="9.398415179954384"><ele>862.0</ele><time>2026-04-11T09:22:33Z</time></trkpt><trkpt lat="46.06117213573851" lon="9.398288533037766"><ele>862.0</ele><time>2026-04-11T09:22:34Z</time></trkpt><trkpt lat="46.06121358089136" lon="9.398179069426822"><ele>862.0</ele><time>2026-04-11T09:22:35Z</time></trkpt><trkpt lat="46.06126477303599" lon="9.398077026463412"><ele>866.2</ele><time>2026-04-11T09:22:36Z</time></trkpt><trkpt lat="46.06132271925279" lon="9.397988956846616"><ele>870.4000000000001</ele><time>2026-04-11T09:22:37Z</time></trkpt><trkpt lat="46.06138630421051" lon="9.397916720561199"><ele>874.5999999999999</ele><time>2026-04-11T09:22:38Z</time></trkpt><trkpt lat="46.0614659529696" lon="9.3978475353853"><ele>878.8</ele><time>2026-04-11T09:22:39Z</time></trkpt><trkpt lat="46.06155834885991" lon="9.397801774200497"><ele>883.0</ele><time>2026-04-11T09:22:40Z</time></trkpt><trkpt lat="46.06166440201883" lon="9.3977795106575"><ele>883.0</ele><time>2026-04-11T09:22:41Z</time></trkpt><trkpt lat="46.06175435491587" lon="9.397745070743387"><ele>883.0</ele><time>2026-04-11T09:22:42Z</time></trkpt><trkpt lat="46.0618375161361" lon="9.397709805662204"><ele>883.0</ele><time>2026-04-11T09:22:43Z</time></trkpt><trkpt lat="46.06191371831091" lon="9.397664076159487"><ele>883.0</ele><time>2026-04-11T09:22:44Z</time></trkpt><trkpt lat="46.06199386585711" lon="9.397565554341721"><ele>883.0</ele><time>2026-04-11T09:22:45Z</time></trkpt><trkpt lat="46.06205593234107" lon="9.397440343258722"><ele>883.0</ele><time>2026-04-11T09:22:46Z</time></trkpt><trkpt lat="46.06210816937634" lon="9.397346894858751"><ele>883.0</ele><time>2026-04-11T09:22:47Z</time></trkpt><trkpt lat="46.06221168502427" lon="9.397242501002724"><ele>883.0</ele><time>2026-04-11T09:22:49Z</time></trkpt><trkpt lat="46.062285555233714" lon="9.397175269153008"><ele>883.0</ele><time>2026-04-11T09:22:50Z</time></trkpt><trkpt lat="46.06237006873189" lon="9.397090648244896"><ele>883.0</ele><time>2026-04-11T09:22:51Z</time></trkpt><trkpt lat="46.06246265779609" lon="9.396986895520708"><ele>885.5</ele><time>2026-04-11T09:22:52Z</time></trkpt><trkpt lat="46.06255563500708" lon="9.396878632497206"><ele>888.0</ele><time>2026-04-11T09:22:53Z</time></trkpt><trkpt lat="46.062648595604486" lon="9.396773433628386"><ele>890.5</ele><time>2026-04-11T09:22:54Z</time></trkpt><trkpt lat="46.06274664467061" lon="9.396666989527613"><ele>893.0</ele><time>2026-04-11T09:22:55Z</time></trkpt><trkpt lat="46.062848165192726" lon="9.39657457944627"><ele>893.0</ele><time>2026-04-11T09:22:56Z</time></trkpt><trkpt lat="46.06294764727667" lon="9.396527537834375"><ele>893.0</ele><time>2026-04-11T09:22:57Z</time></trkpt><trkpt lat="46.063059167791806" lon="9.396472817229709"><ele>893.0</ele><time>2026-04-11T09:22:58Z</time></trkpt><trkpt lat="46.06314656718943" lon="9.39640389718851"><ele>893.0</ele><time>2026-04-11T09:22:59Z</time></trkpt><trkpt lat="46.0632162711286" lon="9.396300019298677"><ele>893.0</ele><time>2026-04-11T09:23:00Z</time></trkpt><trkpt lat="46.06327657699537" lon="9.396178300170657"><ele>895.0</ele><time>2026-04-11T09:23:01Z</time></trkpt><trkpt lat="46.0633350738345" lon="9.396040149465682"><ele>897.0</ele><time>2026-04-11T09:23:02Z</time></trkpt><trkpt lat="46.06339006154135" lon="9.395884503124263"><ele>899.0</ele><time>2026-04-11T09:23:03Z</time></trkpt><trkpt lat="46.063431318289076" lon="9.395744728098277"><ele>901.0</ele><time>2026-04-11T09:23:04Z</time></trkpt><trkpt lat="46.06345975880195" lon="9.39562007834916"><ele>903.0</ele><time>2026-04-11T09:23:05Z</time></trkpt><trkpt lat="46.063476405033356" lon="9.395486342270363"><ele>903.0</ele><time>2026-04-11T09:23:06Z</time></trkpt><trkpt lat="46.06349451177682" lon="9.395369149855423"><ele>903.0</ele><time>2026-04-11T09:23:07Z</time></trkpt><trkpt lat="46.06352475142376" lon="9.39525712311651"><ele>903.0</ele><time>2026-04-11T09:23:08Z</time></trkpt><trkpt lat="46.0635648493229" lon="9.395131095713516"><ele>903.0</ele><time>2026-04-11T09:23:09Z</time></trkpt><trkpt lat="46.06361683707355" lon="9.395028920651447"><ele>903.0</ele><time>2026-04-11T09:23:10Z</time></trkpt><trkpt lat="46.06364842099188" lon="9.394937579535794"><ele>903.0</ele><time>2026-04-11T09:23:11Z</time></trkpt><trkpt lat="46.063655951150324" lon="9.394809860207472"><ele>903.0</ele><time>2026-04-11T09:23:12Z</time></trkpt><trkpt lat="46.063570874423434" lon="9.394689390694168"><ele>903.0</ele><time>2026-04-11T09:23:13Z</time></trkpt><trkpt lat="46.06352993698343" lon="9.394574911888078"><ele>903.0</ele><time>2026-04-11T09:23:14Z</time></trkpt><trkpt lat="46.063475375214395" lon="9.394467707521866"><ele>903.0</ele><time>2026-04-11T09:23:15Z</time></trkpt><trkpt lat="46.06343445128026" lon="9.394377490290339"><ele>903.0</ele><time>2026-04-11T09:23:16Z</time></trkpt><trkpt lat="46.06340932123386" lon="9.394219095674044"><ele>905.8</ele><time>2026-04-11T09:23:18Z</time></trkpt><trkpt lat="46.06344195043267" lon="9.394083203331224"><ele>908.5999999999999</ele><time>2026-04-11T09:23:20Z</time></trkpt><trkpt lat="46.063496207906866" lon="9.394017775947308"><ele>911.4000000000001</ele><time>2026-04-11T09:23:21Z</time></trkpt><trkpt lat="46.063544758958194" lon="9.393894896192887"><ele>914.2</ele><time>2026-04-11T09:23:22Z</time></trkpt><trkpt lat="46.06357478667929" lon="9.393740360035624"><ele>917.0</ele><time>2026-04-11T09:23:23Z</time></trkpt><trkpt lat="46.06359772021554" lon="9.39360735844614"><ele>909.1666666666667</ele><time>2026-04-11T09:23:24Z</time></trkpt><trkpt lat="46.063618479923065" lon="9.393499389812233"><ele>901.3333333333334</ele><time>2026-04-11T09:23:25Z</time></trkpt><trkpt lat="46.06363631109732" lon="9.39340738386994"><ele>893.5</ele><time>2026-04-11T09:23:26Z</time></trkpt><trkpt lat="46.0636723459647" lon="9.393272072979112"><ele>885.6666666666667</ele><time>2026-04-11T09:23:28Z</time></trkpt><trkpt lat="46.06372340034772" lon="9.393195044657075"><ele>877.8333333333334</ele><time>2026-04-11T09:23:30Z</time></trkpt><trkpt lat="46.06382762002125" lon="9.393104683515825"><ele>870.0</ele><time>2026-04-11T09:23:32Z</time></trkpt><trkpt lat="46.063893286519125" lon="9.393061509135004"><ele>870.0</ele><time>2026-04-11T09:23:33Z</time></trkpt><trkpt lat="46.06401686636865" lon="9.393005948450089"><ele>870.0</ele><time>2026-04-11T09:23:35Z</time></trkpt><trkpt lat="46.0641000546831" lon="9.392973434354243"><ele>870.0</ele><time>2026-04-11T09:23:36Z</time></trkpt><trkpt lat="46.064206969897846" lon="9.392947898629176"><ele>870.0</ele><time>2026-04-11T09:23:37Z</time></trkpt><trkpt lat="46.06432886462901" lon="9.39292367341867"><ele>870.0</ele><time>2026-04-11T09:23:38Z</time></trkpt><trkpt lat="46.06442867020769" lon="9.392882832650434"><ele>874.4</ele><time>2026-04-11T09:23:39Z</time></trkpt><trkpt lat="46.06451202055441" lon="9.392834306031562"><ele>878.8</ele><time>2026-04-11T09:23:40Z</time></trkpt><trkpt lat="46.064587197311376" lon="9.39279496115866"><ele>883.2</ele><time>2026-04-11T09:23:41Z</time></trkpt><trkpt lat="46.064658658876176" lon="9.392707066406263"><ele>887.6</ele><time>2026-04-11T09:23:42Z</time></trkpt><trkpt lat="46.06472794348082" lon="9.39259492012932"><ele>892.0</ele><time>2026-04-11T09:23:43Z</time></trkpt><trkpt lat="46.06480438326371" lon="9.39247895068237"><ele>892.0</ele><time>2026-04-11T09:23:44Z</time></trkpt><trkpt lat="46.06488678874407" lon="9.392355155246776"><ele>892.0</ele><time>2026-04-11T09:23:45Z</time></trkpt><trkpt lat="46.06494508319328" lon="9.392242665929455"><ele>892.0</ele><time>2026-04-11T09:23:46Z</time></trkpt><trkpt lat="46.065006374406366" lon="9.392107602262953"><ele>892.0</ele><time>2026-04-11T09:23:47Z</time></trkpt><trkpt lat="46.065079886399424" lon="9.391993046150427"><ele>892.0</ele><time>2026-04-11T09:23:48Z</time></trkpt><trkpt lat="46.06515239510429" lon="9.391900883682856"><ele>894.0</ele><time>2026-04-11T09:23:49Z</time></trkpt><trkpt lat="46.06522127724722" lon="9.391836523134852"><ele>896.0</ele><time>2026-04-11T09:23:50Z</time></trkpt><trkpt lat="46.065285399729675" lon="9.39179580051463"><ele>898.0</ele><time>2026-04-11T09:23:51Z</time></trkpt><trkpt lat="46.065413050375" lon="9.39175619243449"><ele>900.0</ele><time>2026-04-11T09:23:53Z</time></trkpt><trkpt lat="46.06550095968413" lon="9.391741425238052"><ele>902.0</ele><time>2026-04-11T09:23:54Z</time></trkpt><trkpt lat="46.06560108027667" lon="9.391728822179841"><ele>902.0</ele><time>2026-04-11T09:23:55Z</time></trkpt><trkpt lat="46.06570399980568" lon="9.39169655851798"><ele>902.0</ele><time>2026-04-11T09:23:56Z</time></trkpt><trkpt lat="46.06577842940464" lon="9.391651644346663"><ele>902.0</ele><time>2026-04-11T09:23:57Z</time></trkpt><trkpt lat="46.06584434508818" lon="9.391593322003795"><ele>902.0</ele><time>2026-04-11T09:23:58Z</time></trkpt><trkpt lat="46.065905960089324" lon="9.391453489688727"><ele>902.0</ele><time>2026-04-11T09:23:59Z</time></trkpt><trkpt lat="46.06587475544236" lon="9.391278207505936"><ele>904.6666666666667</ele><time>2026-04-11T09:24:00Z</time></trkpt><trkpt lat="46.065895074158334" lon="9.391147841833575"><ele>907.3333333333334</ele><time>2026-04-11T09:24:01Z</time></trkpt><trkpt lat="46.065898739285736" lon="9.39104577390934"><ele>910.0</ele><time>2026-04-11T09:24:02Z</time></trkpt><trkpt lat="46.0659398112485" lon="9.390912448760831"><ele>912.6666666666667</ele><time>2026-04-11T09:24:04Z</time></trkpt><trkpt lat="46.06599990425291" lon="9.390864582500088"><ele>915.3333333333334</ele><time>2026-04-11T09:24:05Z</time></trkpt><trkpt lat="46.06607743289875" lon="9.390826597519796"><ele>918.0</ele><time>2026-04-11T09:24:06Z</time></trkpt><trkpt lat="46.06616882524977" lon="9.390758670570195"><ele>918.0</ele><time>2026-04-11T09:24:07Z</time></trkpt><trkpt lat="46.066255121751176" lon="9.390688714631512"><ele>918.0</ele><time>2026-04-11T09:24:08Z</time></trkpt><trkpt lat="46.06632119013363" lon="9.390633031277849"><ele>918.0</ele><time>2026-04-11T09:24:09Z</time></trkpt><trkpt lat="46.06640986187079" lon="9.390552395337854"><ele>918.0</ele><time>2026-04-11T09:24:11Z</time></trkpt><trkpt lat="46.06646911915619" lon="9.390495924660323"><ele>918.0</ele><time>2026-04-11T09:24:14Z</time></trkpt><trkpt lat="46.06650448447968" lon="9.390132535211231"><ele>914.5</ele><time>2026-04-11T09:26:05Z</time></trkpt><trkpt lat="46.066494277231754" lon="9.390037046065855"><ele>911.0</ele><time>2026-04-11T09:26:06Z</time></trkpt><trkpt lat="46.06648863101794" lon="9.389920014462106"><ele>907.5</ele><time>2026-04-11T09:26:07Z</time></trkpt><trkpt lat="46.06648237710856" lon="9.389785556584146"><ele>904.0</ele><time>2026-04-11T09:26:08Z</time></trkpt><trkpt lat="46.06647782689146" lon="9.389646972970077"><ele>900.5</ele><time>2026-04-11T09:26:09Z</time></trkpt><trkpt lat="46.06647720886355" lon="9.389500433313232"><ele>897.0</ele><time>2026-04-11T09:26:10Z</time></trkpt><trkpt lat="46.06647932136913" lon="9.38937123096546"><ele>895.3333333333334</ele><time>2026-04-11T09:26:11Z</time></trkpt><trkpt lat="46.06648309814463" lon="9.389246389641396"><ele>893.6666666666667</ele><time>2026-04-11T09:26:12Z</time></trkpt><trkpt lat="46.06649011689754" lon="9.38912244804767"><ele>892.0</ele><time>2026-04-11T09:26:13Z</time></trkpt><trkpt lat="46.066498541738106" lon="9.38902190600937"><ele>890.3333333333334</ele><time>2026-04-11T09:26:14Z</time></trkpt><trkpt lat="46.06652844489657" lon="9.388854551149738"><ele>888.6666666666667</ele><time>2026-04-11T09:26:16Z</time></trkpt><trkpt lat="46.06656311503419" lon="9.388750357432102"><ele>887.0</ele><time>2026-04-11T09:26:17Z</time></trkpt><trkpt lat="46.06661161962873" lon="9.38864539853289"><ele>895.5000000000001</ele><time>2026-04-11T09:26:18Z</time></trkpt><trkpt lat="46.066657377223144" lon="9.388560240313847"><ele>904.0</ele><time>2026-04-11T09:26:19Z</time></trkpt><trkpt lat="46.06672071946476" lon="9.388484958668037"><ele>912.5</ele><time>2026-04-11T09:26:20Z</time></trkpt><trkpt lat="46.06678438924948" lon="9.388408986275174"><ele>921.0</ele><time>2026-04-11T09:26:21Z</time></trkpt><trkpt lat="46.066854121878485" lon="9.38833088487184"><ele>929.5000000000001</ele><time>2026-04-11T09:26:22Z</time></trkpt><trkpt lat="46.06692628351524" lon="9.38825313678949"><ele>938.0</ele><time>2026-04-11T09:26:23Z</time></trkpt><trkpt lat="46.06699919256874" lon="9.388176467469066"><ele>938.0</ele><time>2026-04-11T09:26:24Z</time></trkpt><trkpt lat="46.06707169280665" lon="9.388123623130893"><ele>938.0</ele><time>2026-04-11T09:26:25Z</time></trkpt><trkpt lat="46.06715553838388" lon="9.388073471809385"><ele>938.0</ele><time>2026-04-11T09:26:26Z</time></trkpt><trkpt lat="46.067253761683205" lon="9.388019708331814"><ele>938.0</ele><time>2026-04-11T09:26:27Z</time></trkpt><trkpt lat="46.06735596928268" lon="9.387965629000007"><ele>938.0</ele><time>2026-04-11T09:26:28Z</time></trkpt><trkpt lat="46.067462100181984" lon="9.387909473740548"><ele>937.5999999999999</ele><time>2026-04-11T09:26:29Z</time></trkpt><trkpt lat="46.06756071809853" lon="9.387858394314213"><ele>937.1999999999999</ele><time>2026-04-11T09:26:30Z</time></trkpt><trkpt lat="46.06765385398623" lon="9.387810764167634"><ele>936.8</ele><time>2026-04-11T09:26:30.999Z</time></trkpt><trkpt lat="46.06774629106413" lon="9.387763491479921"><ele>936.4</ele><time>2026-04-11T09:26:31.999Z</time></trkpt><trkpt lat="46.067838157258954" lon="9.387716510493217"><ele>936.0</ele><time>2026-04-11T09:26:32.999Z</time></trkpt><trkpt lat="46.0679219284899" lon="9.387672592095742"><ele>936.0</ele><time>2026-04-11T09:26:33.999Z</time></trkpt><trkpt lat="46.068015280927206" lon="9.387622554904084"><ele>935.9999999999999</ele><time>2026-04-11T09:26:34.999Z</time></trkpt><trkpt lat="46.06811638911197" lon="9.387565213511595"><ele>935.9999999999999</ele><time>2026-04-11T09:26:35.999Z</time></trkpt><trkpt lat="46.06821889483683" lon="9.387511454579336"><ele>936.0</ele><time>2026-04-11T09:26:36.999Z</time></trkpt><trkpt lat="46.06831615976664" lon="9.387448659372359"><ele>936.0</ele><time>2026-04-11T09:26:37.999Z</time></trkpt><trkpt lat="46.06840778160592" lon="9.387366243598963"><ele>934.1999999999999</ele><time>2026-04-11T09:26:38.999Z</time></trkpt><trkpt lat="46.068489728900424" lon="9.387267815048007"><ele>932.3999999999999</ele><time>2026-04-11T09:26:39.999Z</time></trkpt><trkpt lat="46.068559993930215" lon="9.38718033126084"><ele>930.6</ele><time>2026-04-11T09:26:40.999Z</time></trkpt><trkpt lat="46.06863143950087" lon="9.387087429797255"><ele>928.8</ele><time>2026-04-11T09:26:41.999Z</time></trkpt><trkpt lat="46.06870249459835" lon="9.386990575657377"><ele>927.0</ele><time>2026-04-11T09:26:42.999Z</time></trkpt><trkpt lat="46.068761782690785" lon="9.386861358883591"><ele>927.0</ele><time>2026-04-11T09:26:43.999Z</time></trkpt><trkpt lat="46.06881574547614" lon="9.386757880953025"><ele>927.0</ele><time>2026-04-11T09:26:45Z</time></trkpt><trkpt lat="46.068862920691195" lon="9.386667416472926"><ele>927.0</ele><time>2026-04-11T09:26:46Z</time></trkpt><trkpt lat="46.06891036514607" lon="9.386566826140486"><ele>927.0</ele><time>2026-04-11T09:26:47Z</time></trkpt><trkpt lat="46.068947105002394" lon="9.38645725176911"><ele>927.0</ele><time>2026-04-11T09:26:48Z</time></trkpt><trkpt lat="46.06895292179661" lon="9.386330398623658"><ele>927.0</ele><time>2026-04-11T09:26:49Z</time></trkpt><trkpt lat="46.06894454127821" lon="9.386184520786276"><ele>929.1666666666666</ele><time>2026-04-11T09:26:51Z</time></trkpt><trkpt lat="46.06892367534832" lon="9.386083178713841"><ele>931.3333333333333</ele><time>2026-04-11T09:27:07Z</time></trkpt><trkpt lat="46.068955739431495" lon="9.385958462765975"><ele>933.5</ele><time>2026-04-11T09:27:38Z</time></trkpt><trkpt lat="46.068983619901346" lon="9.385874642275708"><ele>935.6666666666666</ele><time>2026-04-11T09:27:40Z</time></trkpt><trkpt lat="46.06904367766207" lon="9.385798927980494"><ele>937.8333333333333</ele><time>2026-04-11T09:27:42Z</time></trkpt><trkpt lat="46.069119971731155" lon="9.385763764126606"><ele>940.0</ele><time>2026-04-11T09:27:44Z</time></trkpt><trkpt lat="46.06922284824632" lon="9.385718312847347"><ele>940.0</ele><time>2026-04-11T09:27:46Z</time></trkpt><trkpt lat="46.069300692642386" lon="9.385682514406824"><ele>940.0</ele><time>2026-04-11T09:27:48Z</time></trkpt><trkpt lat="46.06939375060155" lon="9.385641342156923"><ele>940.0</ele><time>2026-04-11T09:27:50Z</time></trkpt><trkpt lat="46.069470523118305" lon="9.385644283830707"><ele>940.0</ele><time>2026-04-11T09:27:52Z</time></trkpt><trkpt lat="46.069526523891746" lon="9.385763358386699"><ele>940.0</ele><time>2026-04-11T09:27:54Z</time></trkpt><trkpt lat="46.06962978436159" lon="9.38579919879562"><ele>940.0</ele><time>2026-04-11T09:27:57Z</time></trkpt><trkpt lat="46.069714430195624" lon="9.385810443854542"><ele>940.0</ele><time>2026-04-11T09:27:59Z</time></trkpt><trkpt lat="46.06981919203029" lon="9.385805272181333"><ele>940.0</ele><time>2026-04-11T09:28:01Z</time></trkpt><trkpt lat="46.06991485854344" lon="9.385783193862776"><ele>940.0</ele><time>2026-04-11T09:28:03Z</time></trkpt><trkpt lat="46.07000476070575" lon="9.385737867081902"><ele>940.0</ele><time>2026-04-11T09:28:05Z</time></trkpt><trkpt lat="46.07010079100164" lon="9.385665391354944"><ele>939.4999999999999</ele><time>2026-04-11T09:28:07Z</time></trkpt><trkpt lat="46.07019843556556" lon="9.385585730692974"><ele>939.0</ele><time>2026-04-11T09:28:09Z</time></trkpt><trkpt lat="46.07028643122887" lon="9.385511960854885"><ele>938.5</ele><time>2026-04-11T09:28:11Z</time></trkpt><trkpt lat="46.070362004552614" lon="9.385445939442727"><ele>938.0</ele><time>2026-04-11T09:28:13Z</time></trkpt><trkpt lat="46.07043101080831" lon="9.385384216696231"><ele>937.4999999999999</ele><time>2026-04-11T09:28:15Z</time></trkpt><trkpt lat="46.07048824521136" lon="9.385342343651878"><ele>937.0</ele><time>2026-04-11T09:28:17Z</time></trkpt><trkpt lat="46.070573108770795" lon="9.385289375474981"><ele>936.9999999999999</ele><time>2026-04-11T09:31:56Z</time></trkpt><trkpt lat="46.07065798379219" lon="9.385226300479959"><ele>937.0</ele><time>2026-04-11T09:31:58Z</time></trkpt><trkpt lat="46.07076548826619" lon="9.385211484927032"><ele>937.0</ele><time>2026-04-11T09:32:00Z</time></trkpt><trkpt lat="46.07084906866071" lon="9.385195758211161"><ele>937.0</ele><time>2026-04-11T09:32:02Z</time></trkpt><trkpt lat="46.07091396985347" lon="9.38520205269594"><ele>936.9999999999999</ele><time>2026-04-11T09:32:04Z</time></trkpt><trkpt lat="46.070970942623994" lon="9.385253953452105"><ele>937.0</ele><time>2026-04-11T09:32:06Z</time></trkpt><trkpt lat="46.0710698172132" lon="9.385317046095444"><ele>941.0</ele><time>2026-04-11T09:32:08Z</time></trkpt><trkpt lat="46.0711879723077" lon="9.385350734639466"><ele>945.0</ele><time>2026-04-11T09:32:10Z</time></trkpt><trkpt lat="46.07126855361878" lon="9.385370062183453"><ele>949.0</ele><time>2026-04-11T09:32:12Z</time></trkpt><trkpt lat="46.07133249733006" lon="9.385379240219821"><ele>953.0</ele><time>2026-04-11T09:32:13Z</time></trkpt><trkpt lat="46.07144114386432" lon="9.385388686719565"><ele>957.0</ele><time>2026-04-11T09:32:15Z</time></trkpt><trkpt lat="46.07155559044009" lon="9.385388874255671"><ele>957.0</ele><time>2026-04-11T09:32:17Z</time></trkpt><trkpt lat="46.07166076068517" lon="9.385371021943794"><ele>957.0</ele><time>2026-04-11T09:32:19Z</time></trkpt><trkpt lat="46.07172673055968" lon="9.385382945523249"><ele>957.0</ele><time>2026-04-11T09:32:23Z</time></trkpt><trkpt lat="46.07164306207617" lon="9.385383396416788"><ele>957.0</ele><time>2026-04-11T09:35:13Z</time></trkpt><trkpt lat="46.07155655557662" lon="9.385399376877723"><ele>957.0</ele><time>2026-04-11T09:35:16Z</time></trkpt><trkpt lat="46.07148844629675" lon="9.38540073192758"><ele>957.0</ele><time>2026-04-11T09:35:17Z</time></trkpt><trkpt lat="46.071411193180836" lon="9.385367586193235"><ele>957.0</ele><time>2026-04-11T09:35:19Z</time></trkpt><trkpt lat="46.07134777081295" lon="9.385369005376745"><ele>957.0000000000001</ele><time>2026-04-11T09:35:21Z</time></trkpt><trkpt lat="46.07127514563902" lon="9.385346608725392"><ele>957.0</ele><time>2026-04-11T09:35:23Z</time></trkpt><trkpt lat="46.07119932899045" lon="9.385353862292579"><ele>957.0</ele><time>2026-04-11T09:35:25Z</time></trkpt><trkpt lat="46.07112450785398" lon="9.385332476686365"><ele>957.0000000000001</ele><time>2026-04-11T09:35:27Z</time></trkpt><trkpt lat="46.071048665329656" lon="9.38530375141668"><ele>957.0</ele><time>2026-04-11T09:35:29Z</time></trkpt><trkpt lat="46.07098148261999" lon="9.385266888852959"><ele>957.0</ele><time>2026-04-11T09:35:31Z</time></trkpt><trkpt lat="46.07092146580518" lon="9.38521524353826"><ele>957.0</ele><time>2026-04-11T09:35:33Z</time></trkpt><trkpt lat="46.070838803452986" lon="9.385169484407845"><ele>957.0</ele><time>2026-04-11T09:35:36Z</time></trkpt><trkpt lat="46.07074100980868" lon="9.385214725003175"><ele>957.0</ele><time>2026-04-11T09:35:38Z</time></trkpt><trkpt lat="46.07064448170664" lon="9.385247914866438"><ele>957.0</ele><time>2026-04-11T09:35:40Z</time></trkpt><trkpt lat="46.07057664500919" lon="9.385287563113613"><ele>957.0</ele><time>2026-04-11T09:35:42Z</time></trkpt><trkpt lat="46.07048144936902" lon="9.385324497512732"><ele>959.8</ele><time>2026-04-11T09:35:44Z</time></trkpt><trkpt lat="46.070416045532546" lon="9.385398730246992"><ele>962.6</ele><time>2026-04-11T09:35:46Z</time></trkpt><trkpt lat="46.070311403621204" lon="9.385439202503742"><ele>965.3999999999999</ele><time>2026-04-11T09:35:48Z</time></trkpt><trkpt lat="46.070246172436285" lon="9.38550609371575"><ele>968.1999999999999</ele><time>2026-04-11T09:35:50Z</time></trkpt><trkpt lat="46.07017221614775" lon="9.385585819800621"><ele>971.0</ele><time>2026-04-11T09:35:52Z</time></trkpt><trkpt lat="46.070076731278114" lon="9.385668250489939"><ele>971.0</ele><time>2026-04-11T09:35:54Z</time></trkpt><trkpt lat="46.069989280179975" lon="9.385727086553954"><ele>970.9999999999999</ele><time>2026-04-11T09:35:56Z</time></trkpt><trkpt lat="46.069881551635675" lon="9.38575568843741"><ele>970.9999999999999</ele><time>2026-04-11T09:35:58Z</time></trkpt><trkpt lat="46.06978603970133" lon="9.385781153311077"><ele>971.0</ele><time>2026-04-11T09:36:00Z</time></trkpt><trkpt lat="46.069688522032514" lon="9.38578082135772"><ele>971.0</ele><time>2026-04-11T09:36:02Z</time></trkpt><trkpt lat="46.069593604348285" lon="9.385770057142617"><ele>965.8333333333334</ele><time>2026-04-11T09:36:04Z</time></trkpt><trkpt lat="46.069522107403635" lon="9.385715150070961"><ele>960.6666666666667</ele><time>2026-04-11T09:36:06Z</time></trkpt><trkpt lat="46.0694426980271" lon="9.385661708066943"><ele>955.5</ele><time>2026-04-11T09:36:08Z</time></trkpt><trkpt lat="46.069362841748486" lon="9.385657795088203"><ele>950.3333333333333</ele><time>2026-04-11T09:36:10Z</time></trkpt><trkpt lat="46.069275294286136" lon="9.385707271380467"><ele>945.1666666666666</ele><time>2026-04-11T09:36:12Z</time></trkpt><trkpt lat="46.069193275447546" lon="9.385748730131969"><ele>940.0</ele><time>2026-04-11T09:36:14Z</time></trkpt><trkpt lat="46.06913450261582" lon="9.385781329033323"><ele>938.1428571428571</ele><time>2026-04-11T09:36:16Z</time></trkpt><trkpt lat="46.069065780449314" lon="9.385821292223621"><ele>936.2857142857142</ele><time>2026-04-11T09:36:18Z</time></trkpt><trkpt lat="46.0690047880664" lon="9.38586157201764"><ele>934.4285714285713</ele><time>2026-04-11T09:36:20Z</time></trkpt><trkpt lat="46.06896433421116" lon="9.385943957180428"><ele>932.5714285714284</ele><time>2026-04-11T09:36:22Z</time></trkpt><trkpt lat="46.06894294471345" lon="9.386033048934037"><ele>930.7142857142857</ele><time>2026-04-11T09:36:24Z</time></trkpt><trkpt lat="46.068933780049946" lon="9.386125800976247"><ele>928.8571428571427</ele><time>2026-04-11T09:36:26Z</time></trkpt><trkpt lat="46.068917753449014" lon="9.386255994106302"><ele>926.9999999999999</ele><time>2026-04-11T09:36:28Z</time></trkpt><trkpt lat="46.06888149072812" lon="9.38645801199261"><ele>927.0</ele><time>2026-04-11T09:36:30Z</time></trkpt><trkpt lat="46.068859009003326" lon="9.386562789111457"><ele>927.0</ele><time>2026-04-11T09:36:31Z</time></trkpt><trkpt lat="46.06881730033416" lon="9.38666035510523"><ele>927.0</ele><time>2026-04-11T09:36:32Z</time></trkpt><trkpt lat="46.06877681850161" lon="9.386732600016648"><ele>927.0</ele><time>2026-04-11T09:36:33Z</time></trkpt><trkpt lat="46.06872047929929" lon="9.386839086273838"><ele>927.0</ele><time>2026-04-11T09:36:35Z</time></trkpt><trkpt lat="46.06862377831608" lon="9.386993631595677"><ele>927.0</ele><time>2026-04-11T09:36:37Z</time></trkpt><trkpt lat="46.06854728032969" lon="9.387067707515314"><ele>927.0</ele><time>2026-04-11T09:36:38Z</time></trkpt><trkpt lat="46.068484916457024" lon="9.387120097405946"><ele>927.0</ele><time>2026-04-11T09:36:39Z</time></trkpt><trkpt lat="46.06843077968427" lon="9.387192412965263"><ele>927.0</ele><time>2026-04-11T09:36:40Z</time></trkpt><trkpt lat="46.06837656622455" lon="9.387282075659448"><ele>927.0</ele><time>2026-04-11T09:36:41Z</time></trkpt><trkpt lat="46.06831616928367" lon="9.387377578793126"><ele>927.0</ele><time>2026-04-11T09:36:42Z</time></trkpt><trkpt lat="46.06823072772032" lon="9.387439737732777"><ele>928.8</ele><time>2026-04-11T09:36:43Z</time></trkpt><trkpt lat="46.068126503744615" lon="9.387492728765094"><ele>930.6</ele><time>2026-04-11T09:36:44Z</time></trkpt><trkpt lat="46.068035998074876" lon="9.387539489143895"><ele>932.3999999999999</ele><time>2026-04-11T09:36:45Z</time></trkpt><trkpt lat="46.067950821509136" lon="9.387590333722391"><ele>934.1999999999999</ele><time>2026-04-11T09:36:46Z</time></trkpt><trkpt lat="46.06786977473027" lon="9.387636434605433"><ele>936.0</ele><time>2026-04-11T09:36:47Z</time></trkpt><trkpt lat="46.06778833771979" lon="9.38767987709948"><ele>936.0</ele><time>2026-04-11T09:36:48Z</time></trkpt><trkpt lat="46.06770379408235" lon="9.387713286380686"><ele>936.0</ele><time>2026-04-11T09:36:49Z</time></trkpt><trkpt lat="46.067631721706135" lon="9.387734291872459"><ele>936.0</ele><time>2026-04-11T09:36:50Z</time></trkpt><trkpt lat="46.06755626194886" lon="9.387777451911646"><ele>936.0</ele><time>2026-04-11T09:36:51Z</time></trkpt><trkpt lat="46.0674857747461" lon="9.387830022004126"><ele>936.0</ele><time>2026-04-11T09:36:52Z</time></trkpt><trkpt lat="46.067408260985985" lon="9.387879792224732"><ele>936.0</ele><time>2026-04-11T09:36:53Z</time></trkpt><trkpt lat="46.06731415265077" lon="9.38792560804236"><ele>936.3333333333334</ele><time>2026-04-11T09:36:54Z</time></trkpt><trkpt lat="46.06723273072404" lon="9.387963235716908"><ele>936.6666666666667</ele><time>2026-04-11T09:36:55Z</time></trkpt><trkpt lat="46.06714772194303" lon="9.388015940765447"><ele>937.0</ele><time>2026-04-11T09:36:56Z</time></trkpt><trkpt lat="46.06706597777912" lon="9.388066277543357"><ele>937.3333333333334</ele><time>2026-04-11T09:36:57Z</time></trkpt><trkpt lat="46.06698330091148" lon="9.388126263614662"><ele>937.6666666666667</ele><time>2026-04-11T09:36:58Z</time></trkpt><trkpt lat="46.066911730182085" lon="9.388191830606349"><ele>938.0</ele><time>2026-04-11T09:36:59Z</time></trkpt><trkpt lat="46.06685968417246" lon="9.38826522833837"><ele>938.0</ele><time>2026-04-11T09:37:00Z</time></trkpt><trkpt lat="46.06679352384105" lon="9.388349458516597"><ele>938.0</ele><time>2026-04-11T09:37:01Z</time></trkpt><trkpt lat="46.06671215243282" lon="9.388432687262359"><ele>938.0</ele><time>2026-04-11T09:37:02Z</time></trkpt><trkpt lat="46.06663912800591" lon="9.388515806704103"><ele>938.0</ele><time>2026-04-11T09:37:03Z</time></trkpt><trkpt lat="46.06658449139249" lon="9.388614865441438"><ele>938.0</ele><time>2026-04-11T09:37:04Z</time></trkpt><trkpt lat="46.06654171357392" lon="9.388731660730423"><ele>927.8</ele><time>2026-04-11T09:37:05Z</time></trkpt><trkpt lat="46.06651286533948" lon="9.388835865876661"><ele>917.5999999999999</ele><time>2026-04-11T09:37:06Z</time></trkpt><trkpt lat="46.06647838990744" lon="9.388948865526482"><ele>907.4000000000001</ele><time>2026-04-11T09:37:07Z</time></trkpt><trkpt lat="46.0664646150344" lon="9.389109314427905"><ele>897.2</ele><time>2026-04-11T09:37:09Z</time></trkpt><trkpt lat="46.06644755670611" lon="9.389307142624338"><ele>887.0</ele><time>2026-04-11T09:37:10.999Z</time></trkpt><trkpt lat="46.0664449191617" lon="9.389425290325708"><ele>887.0</ele><time>2026-04-11T09:37:11.999Z</time></trkpt><trkpt lat="46.066443675857066" lon="9.389570987440854"><ele>887.0</ele><time>2026-04-11T09:37:12.999Z</time></trkpt><trkpt lat="46.06644533261978" lon="9.389716691184715"><ele>887.0</ele><time>2026-04-11T09:37:13.999Z</time></trkpt><trkpt lat="46.06646078669341" lon="9.389851176813382"><ele>887.0</ele><time>2026-04-11T09:37:15Z</time></trkpt><trkpt lat="46.06646288269845" lon="9.38996754597997"><ele>887.0</ele><time>2026-04-11T09:37:16Z</time></trkpt><trkpt lat="46.06647185568005" lon="9.39007270755363"><ele>888.6666666666667</ele><time>2026-04-11T09:37:17Z</time></trkpt><trkpt lat="46.0664809069181" lon="9.390174304447216"><ele>890.3333333333334</ele><time>2026-04-11T09:37:18Z</time></trkpt><trkpt lat="46.06647726694618" lon="9.39033397323117"><ele>892.0</ele><time>2026-04-11T09:37:20Z</time></trkpt><trkpt lat="46.06644087640708" lon="9.390418137921236"><ele>893.6666666666667</ele><time>2026-04-11T09:37:21Z</time></trkpt><trkpt lat="46.066369091270936" lon="9.390509191897804"><ele>895.3333333333334</ele><time>2026-04-11T09:37:22Z</time></trkpt><trkpt lat="46.06628317326404" lon="9.390590550148284"><ele>897.0</ele><time>2026-04-11T09:37:23Z</time></trkpt><trkpt lat="46.06619251809419" lon="9.390667159406435"><ele>901.2</ele><time>2026-04-11T09:37:24Z</time></trkpt><trkpt lat="46.066109520866945" lon="9.390720846653105"><ele>905.4000000000001</ele><time>2026-04-11T09:37:25Z</time></trkpt><trkpt lat="46.066027037745116" lon="9.390776605823241"><ele>909.5999999999999</ele><time>2026-04-11T09:37:26Z</time></trkpt><trkpt lat="46.06596596569555" lon="9.390827604244338"><ele>913.8</ele><time>2026-04-11T09:37:27Z</time></trkpt><trkpt lat="46.06587743108778" lon="9.390917434147276"><ele>918.0</ele><time>2026-04-11T09:37:29Z</time></trkpt><trkpt lat="46.06585717490324" lon="9.391094818411998"><ele>918.0</ele><time>2026-04-11T09:37:31Z</time></trkpt><trkpt lat="46.065874455314294" lon="9.391211276751157"><ele>918.0</ele><time>2026-04-11T09:37:32Z</time></trkpt><trkpt lat="46.06586256127251" lon="9.39133412571443"><ele>918.0</ele><time>2026-04-11T09:37:33Z</time></trkpt><trkpt lat="46.06586072405228" lon="9.39143185243244"><ele>918.0</ele><time>2026-04-11T09:37:34Z</time></trkpt><trkpt lat="46.06581198430808" lon="9.391510063210458"><ele>918.0</ele><time>2026-04-11T09:37:35Z</time></trkpt><trkpt lat="46.06574098017565" lon="9.391566969049752"><ele>918.0</ele><time>2026-04-11T09:37:36Z</time></trkpt><trkpt lat="46.065654258095215" lon="9.391620236851619"><ele>915.3333333333334</ele><time>2026-04-11T09:37:37Z</time></trkpt><trkpt lat="46.06558293766407" lon="9.391671800943197"><ele>912.6666666666667</ele><time>2026-04-11T09:37:38Z</time></trkpt><trkpt lat="46.06551234139428" lon="9.391704874166452"><ele>910.0</ele><time>2026-04-11T09:37:39Z</time></trkpt><trkpt lat="46.065431835715366" lon="9.391696222246207"><ele>907.3333333333334</ele><time>2026-04-11T09:37:40Z</time></trkpt><trkpt lat="46.06536192776864" lon="9.391688131693915"><ele>904.6666666666667</ele><time>2026-04-11T09:37:41Z</time></trkpt><trkpt lat="46.0652980078949" lon="9.391701175254745"><ele>902.0</ele><time>2026-04-11T09:37:42Z</time></trkpt><trkpt lat="46.06518764049514" lon="9.39179589325591"><ele>902.0000000000001</ele><time>2026-04-11T09:37:44Z</time></trkpt><trkpt lat="46.065129636986526" lon="9.391876434993195"><ele>902.0</ele><time>2026-04-11T09:37:45Z</time></trkpt><trkpt lat="46.06506173041704" lon="9.391952562171152"><ele>902.0</ele><time>2026-04-11T09:37:46Z</time></trkpt><trkpt lat="46.06500146450755" lon="9.392049605606013"><ele>902.0</ele><time>2026-04-11T09:37:47Z</time></trkpt><trkpt lat="46.06494482779777" lon="9.392159945810972"><ele>902.0000000000001</ele><time>2026-04-11T09:37:48Z</time></trkpt><trkpt lat="46.06490042400722" lon="9.392248841906039"><ele>902.0</ele><time>2026-04-11T09:37:49Z</time></trkpt><trkpt lat="46.06485123181927" lon="9.392342036389996"><ele>900.3333333333334</ele><time>2026-04-11T09:37:50Z</time></trkpt><trkpt lat="46.06479531042383" lon="9.392429690237645"><ele>898.6666666666667</ele><time>2026-04-11T09:37:51Z</time></trkpt><trkpt lat="46.06473267857598" lon="9.392514361323437"><ele>897.0</ele><time>2026-04-11T09:37:52Z</time></trkpt><trkpt lat="46.064682730687636" lon="9.392576098677853"><ele>895.3333333333333</ele><time>2026-04-11T09:37:53Z</time></trkpt><trkpt lat="46.064625397463466" lon="9.392642642359872"><ele>893.6666666666666</ele><time>2026-04-11T09:37:54Z</time></trkpt><trkpt lat="46.06456117565893" lon="9.392711115893093"><ele>892.0</ele><time>2026-04-11T09:37:55Z</time></trkpt><trkpt lat="46.06449918708764" lon="9.392770113852002"><ele>892.0</ele><time>2026-04-11T09:37:56Z</time></trkpt><trkpt lat="46.06443414984442" lon="9.392848876658668"><ele>892.0</ele><time>2026-04-11T09:37:57Z</time></trkpt><trkpt lat="46.06432492087895" lon="9.392855580115015"><ele>892.0</ele><time>2026-04-11T09:37:58Z</time></trkpt><trkpt lat="46.06423033437927" lon="9.39288584273349"><ele>892.0</ele><time>2026-04-11T09:37:59Z</time></trkpt><trkpt lat="46.06414426630489" lon="9.39291460594332"><ele>892.0</ele><time>2026-04-11T09:38:00Z</time></trkpt><trkpt lat="46.06406962959723" lon="9.392925074389309"><ele>888.3333333333333</ele><time>2026-04-11T09:38:01Z</time></trkpt><trkpt lat="46.0639586536135" lon="9.392931006541236"><ele>884.6666666666666</ele><time>2026-04-11T09:38:03Z</time></trkpt><trkpt lat="46.06389239829787" lon="9.392958781225405"><ele>881.0</ele><time>2026-04-11T09:38:05Z</time></trkpt><trkpt lat="46.06383999919857" lon="9.393013717197446"><ele>877.3333333333333</ele><time>2026-04-11T09:38:06Z</time></trkpt><trkpt lat="46.06377587797608" lon="9.393087824835838"><ele>873.6666666666666</ele><time>2026-04-11T09:38:07Z</time></trkpt><trkpt lat="46.063719692350304" lon="9.393148199086657"><ele>870.0</ele><time>2026-04-11T09:38:08Z</time></trkpt><trkpt lat="46.06366542149998" lon="9.393213915841509"><ele>870.0</ele><time>2026-04-11T09:38:09Z</time></trkpt><trkpt lat="46.063616804084944" lon="9.393301741014483"><ele>870.0</ele><time>2026-04-11T09:38:10Z</time></trkpt><trkpt lat="46.06358338347843" lon="9.393401065842388"><ele>870.0</ele><time>2026-04-11T09:38:11Z</time></trkpt><trkpt lat="46.06356339719491" lon="9.393535736963887"><ele>870.0</ele><time>2026-04-11T09:38:12Z</time></trkpt><trkpt lat="46.06354852115803" lon="9.393661198609253"><ele>870.0</ele><time>2026-04-11T09:38:13Z</time></trkpt><trkpt lat="46.06352883235403" lon="9.39377090655349"><ele>870.0</ele><time>2026-04-11T09:38:14Z</time></trkpt><trkpt lat="46.06349889052805" lon="9.393872409025693"><ele>879.4</ele><time>2026-04-11T09:38:15Z</time></trkpt><trkpt lat="46.06346568686431" lon="9.393958915973624"><ele>888.8</ele><time>2026-04-11T09:38:16Z</time></trkpt><trkpt lat="46.063430996859054" lon="9.394037928391404"><ele>898.2</ele><time>2026-04-11T09:38:17Z</time></trkpt><trkpt lat="46.06337678250493" lon="9.39419189246205"><ele>907.6</ele><time>2026-04-11T09:38:19Z</time></trkpt><trkpt lat="46.06339015575256" lon="9.394377438588686"><ele>917.0</ele><time>2026-04-11T09:38:21Z</time></trkpt><trkpt lat="46.06342934242908" lon="9.394468979581962"><ele>917.0</ele><time>2026-04-11T09:38:22Z</time></trkpt><trkpt lat="46.06347736620782" lon="9.394555334721638"><ele>917.0</ele><time>2026-04-11T09:38:23Z</time></trkpt><trkpt lat="46.063531228060896" lon="9.394634793339481"><ele>917.0</ele><time>2026-04-11T09:38:24Z</time></trkpt><trkpt lat="46.06355756269658" lon="9.394724619860748"><ele>917.0</ele><time>2026-04-11T09:38:25Z</time></trkpt><trkpt lat="46.06360096641631" lon="9.394806233222665"><ele>917.0</ele><time>2026-04-11T09:38:26Z</time></trkpt><trkpt lat="46.06359859954221" lon="9.394910870690946"><ele>917.0</ele><time>2026-04-11T09:38:27Z</time></trkpt><trkpt lat="46.06357427407953" lon="9.39502543493838"><ele>917.0</ele><time>2026-04-11T09:38:28Z</time></trkpt><trkpt lat="46.06353582581923" lon="9.395130152278185"><ele>915.0</ele><time>2026-04-11T09:38:29Z</time></trkpt><trkpt lat="46.063501083286255" lon="9.395218616933931"><ele>913.0</ele><time>2026-04-11T09:38:30Z</time></trkpt><trkpt lat="46.063454678957726" lon="9.395404858242541"><ele>911.0</ele><time>2026-04-11T09:38:32Z</time></trkpt><trkpt lat="46.0634365227462" lon="9.395530523456383"><ele>909.0</ele><time>2026-04-11T09:38:33Z</time></trkpt><trkpt lat="46.06341672739915" lon="9.395659051181074"><ele>907.0</ele><time>2026-04-11T09:38:34Z</time></trkpt><trkpt lat="46.06338465615268" lon="9.395785006678308"><ele>906.9999999999999</ele><time>2026-04-11T09:38:35Z</time></trkpt><trkpt lat="46.063348531688334" lon="9.395898977369576"><ele>907.0</ele><time>2026-04-11T09:38:36Z</time></trkpt><trkpt lat="46.06330868850218" lon="9.396009964825943"><ele>907.0</ele><time>2026-04-11T09:38:37Z</time></trkpt><trkpt lat="46.06326503441272" lon="9.39611296128598"><ele>907.0</ele><time>2026-04-11T09:38:38Z</time></trkpt><trkpt lat="46.06322040189382" lon="9.396208106606169"><ele>906.9999999999999</ele><time>2026-04-11T09:38:39Z</time></trkpt><trkpt lat="46.06318250646268" lon="9.39631121735158"><ele>907.0</ele><time>2026-04-11T09:38:40Z</time></trkpt><trkpt lat="46.06310351788876" lon="9.396376749103439"><ele>904.2</ele><time>2026-04-11T09:38:41Z</time></trkpt><trkpt lat="46.06301704471428" lon="9.396426353910016"><ele>901.4000000000001</ele><time>2026-04-11T09:38:42Z</time></trkpt><trkpt lat="46.062931325185794" lon="9.39645993659473"><ele>898.5999999999999</ele><time>2026-04-11T09:38:43Z</time></trkpt><trkpt lat="46.06284654181412" lon="9.396495296139946"><ele>895.8</ele><time>2026-04-11T09:38:44Z</time></trkpt><trkpt lat="46.062762432836" lon="9.396564323339987"><ele>893.0</ele><time>2026-04-11T09:38:45Z</time></trkpt><trkpt lat="46.062672731963396" lon="9.396655185040585"><ele>893.0</ele><time>2026-04-11T09:38:46Z</time></trkpt><trkpt lat="46.06258381194655" lon="9.396759484332541"><ele>893.0</ele><time>2026-04-11T09:38:47Z</time></trkpt><trkpt lat="46.06249691140393" lon="9.396867880510706"><ele>893.0</ele><time>2026-04-11T09:38:48Z</time></trkpt><trkpt lat="46.06242165608163" lon="9.39695983371531"><ele>893.0</ele><time>2026-04-11T09:38:49Z</time></trkpt><trkpt lat="46.06235327731708" lon="9.397046928018558"><ele>893.0</ele><time>2026-04-11T09:38:50Z</time></trkpt><trkpt lat="46.06228905088393" lon="9.397128864175546"><ele>891.3333333333334</ele><time>2026-04-11T09:38:51Z</time></trkpt><trkpt lat="46.06222463235775" lon="9.397191989213457"><ele>889.6666666666667</ele><time>2026-04-11T09:38:52Z</time></trkpt><trkpt lat="46.06216032974063" lon="9.397218816552064"><ele>888.0</ele><time>2026-04-11T09:38:53Z</time></trkpt><trkpt lat="46.06206737815253" lon="9.397307170638278"><ele>886.3333333333333</ele><time>2026-04-11T09:38:55Z</time></trkpt><trkpt lat="46.062027575406944" lon="9.397385260244443"><ele>884.6666666666666</ele><time>2026-04-11T09:38:56Z</time></trkpt><trkpt lat="46.061985426716575" lon="9.397471624307641"><ele>883.0</ele><time>2026-04-11T09:38:57Z</time></trkpt><trkpt lat="46.06194313538429" lon="9.397563004349035"><ele>882.9999999999999</ele><time>2026-04-11T09:38:58Z</time></trkpt><trkpt lat="46.06189045393708" lon="9.397644557813948"><ele>883.0</ele><time>2026-04-11T09:38:59Z</time></trkpt><trkpt lat="46.06182261081837" lon="9.397687758576433"><ele>883.0</ele><time>2026-04-11T09:39:00Z</time></trkpt><trkpt lat="46.06173831691304" lon="9.397696111129614"><ele>883.0</ele><time>2026-04-11T09:39:01Z</time></trkpt><trkpt lat="46.06165447449331" lon="9.397692616375299"><ele>882.9999999999999</ele><time>2026-04-11T09:39:02Z</time></trkpt><trkpt lat="46.061578670110414" lon="9.397723119604517"><ele>883.0</ele><time>2026-04-11T09:39:03Z</time></trkpt><trkpt lat="46.06149773223664" lon="9.39777072745998"><ele>879.4999999999999</ele><time>2026-04-11T09:39:04Z</time></trkpt><trkpt lat="46.06142465356445" lon="9.397812158289428"><ele>876.0</ele><time>2026-04-11T09:39:05Z</time></trkpt><trkpt lat="46.06135603331497" lon="9.397867072561814"><ele>872.5</ele><time>2026-04-11T09:39:06Z</time></trkpt><trkpt lat="46.06129261284103" lon="9.397943188335574"><ele>869.0</ele><time>2026-04-11T09:39:07Z</time></trkpt><trkpt lat="46.061232335039904" lon="9.39803190148576"><ele>865.4999999999999</ele><time>2026-04-11T09:39:08Z</time></trkpt><trkpt lat="46.061181047404226" lon="9.398122474206914"><ele>862.0</ele><time>2026-04-11T09:39:09Z</time></trkpt><trkpt lat="46.06114236577541" lon="9.398231394430699"><ele>862.0</ele><time>2026-04-11T09:39:10Z</time></trkpt><trkpt lat="46.06111154755032" lon="9.39835128241927"><ele>862.0</ele><time>2026-04-11T09:39:11Z</time></trkpt><trkpt lat="46.06108453775628" lon="9.398481108311804"><ele>862.0</ele><time>2026-04-11T09:39:12Z</time></trkpt><trkpt lat="46.061064605598396" lon="9.398611016868314"><ele>862.0</ele><time>2026-04-11T09:39:13Z</time></trkpt><trkpt lat="46.061047109739235" lon="9.3987443147088"><ele>862.0</ele><time>2026-04-11T09:39:14Z</time></trkpt><trkpt lat="46.061036419457544" lon="9.398887950916818"><ele>864.6</ele><time>2026-04-11T09:39:15Z</time></trkpt><trkpt lat="46.06102603941318" lon="9.399041409334636"><ele>867.2</ele><time>2026-04-11T09:39:16Z</time></trkpt><trkpt lat="46.061015140114584" lon="9.399185719378563"><ele>869.8</ele><time>2026-04-11T09:39:17Z</time></trkpt><trkpt lat="46.06100292993442" lon="9.399323692190618"><ele>872.4</ele><time>2026-04-11T09:39:18Z</time></trkpt><trkpt lat="46.060991264693534" lon="9.399451971584456"><ele>875.0</ele><time>2026-04-11T09:39:19Z</time></trkpt><trkpt lat="46.06097397740941" lon="9.399577678268578"><ele>873.8333333333334</ele><time>2026-04-11T09:39:20Z</time></trkpt><trkpt lat="46.06094972430462" lon="9.399694469231608"><ele>872.6666666666667</ele><time>2026-04-11T09:39:21Z</time></trkpt><trkpt lat="46.06091830598332" lon="9.399807832308532"><ele>871.5</ele><time>2026-04-11T09:39:22Z</time></trkpt><trkpt lat="46.06088757563294" lon="9.39990792218799"><ele>870.3333333333333</ele><time>2026-04-11T09:39:23Z</time></trkpt><trkpt lat="46.060852400298735" lon="9.40001617919015"><ele>869.1666666666666</ele><time>2026-04-11T09:39:24Z</time></trkpt><trkpt lat="46.06082122797398" lon="9.40013127269136"><ele>868.0</ele><time>2026-04-11T09:39:25Z</time></trkpt><trkpt lat="46.06079610759381" lon="9.400270179636534"><ele>862.8333333333333</ele><time>2026-04-11T09:39:26Z</time></trkpt><trkpt lat="46.06075453758065" lon="9.400364524194673"><ele>857.6666666666666</ele><time>2026-04-11T09:39:27Z</time></trkpt><trkpt lat="46.06071516680741" lon="9.400457881744696"><ele>852.5</ele><time>2026-04-11T09:39:28Z</time></trkpt><trkpt lat="46.06067979750852" lon="9.400544773832152"><ele>847.3333333333333</ele><time>2026-04-11T09:39:29Z</time></trkpt><trkpt lat="46.06065952825582" lon="9.400642413615026"><ele>842.1666666666666</ele><time>2026-04-11T09:39:30Z</time></trkpt><trkpt lat="46.06059690355918" lon="9.400810360940374"><ele>837.0</ele><time>2026-04-11T09:39:32Z</time></trkpt><trkpt lat="46.060572381299544" lon="9.400916780581857"><ele>837.0</ele><time>2026-04-11T09:39:33Z</time></trkpt><trkpt lat="46.06054494960729" lon="9.401035595979206"><ele>837.0</ele><time>2026-04-11T09:39:34Z</time></trkpt><trkpt lat="46.060520953393805" lon="9.401136747166039"><ele>837.0</ele><time>2026-04-11T09:39:35Z</time></trkpt><trkpt lat="46.06049696639474" lon="9.401254178573131"><ele>837.0</ele><time>2026-04-11T09:39:36Z</time></trkpt><trkpt lat="46.060473716442644" lon="9.401380678423504"><ele>837.0</ele><time>2026-04-11T09:39:37Z</time></trkpt><trkpt lat="46.06045294753137" lon="9.401499349206844"><ele>837.0</ele><time>2026-04-11T09:39:38Z</time></trkpt><trkpt lat="46.060439611184314" lon="9.401617868754254"><ele>836.1428571428571</ele><time>2026-04-11T09:39:39Z</time></trkpt><trkpt lat="46.06041100158233" lon="9.401735700916545"><ele>835.2857142857143</ele><time>2026-04-11T09:39:40Z</time></trkpt><trkpt lat="46.0603997017613" lon="9.401836979428753"><ele>834.4285714285713</ele><time>2026-04-11T09:39:41Z</time></trkpt><trkpt lat="46.060389160993324" lon="9.401937094075372"><ele>833.5714285714286</ele><time>2026-04-11T09:39:42Z</time></trkpt><trkpt lat="46.060378765182904" lon="9.402028359475986"><ele>832.7142857142857</ele><time>2026-04-11T09:39:43Z</time></trkpt><trkpt lat="46.060365562016365" lon="9.402118569634734"><ele>831.8571428571428</ele><time>2026-04-11T09:39:44Z</time></trkpt><trkpt lat="46.06035816924113" lon="9.402214773631098"><ele>831.0</ele><time>2026-04-11T09:39:45Z</time></trkpt><trkpt lat="46.06033328246997" lon="9.402332972240117"><ele>834.3333333333334</ele><time>2026-04-11T09:39:46Z</time></trkpt><trkpt lat="46.06030169719323" lon="9.40246985326813"><ele>837.6666666666667</ele><time>2026-04-11T09:39:47Z</time></trkpt><trkpt lat="46.06027453006202" lon="9.402600439452565"><ele>841.0</ele><time>2026-04-11T09:39:48Z</time></trkpt><trkpt lat="46.060249545625204" lon="9.402725613839607"><ele>844.3333333333334</ele><time>2026-04-11T09:39:49Z</time></trkpt><trkpt lat="46.06020708394868" lon="9.402830352819276"><ele>847.6666666666667</ele><time>2026-04-11T09:39:50Z</time></trkpt><trkpt lat="46.06019190443762" lon="9.402932801980167"><ele>851.0</ele><time>2026-04-11T09:39:51Z</time></trkpt><trkpt lat="46.06015514854759" lon="9.40301768215909"><ele>851.3333333333334</ele><time>2026-04-11T09:39:52Z</time></trkpt><trkpt lat="46.06012889463917" lon="9.403101721140024"><ele>851.6666666666667</ele><time>2026-04-11T09:39:53Z</time></trkpt><trkpt lat="46.060121103828855" lon="9.403277007258861"><ele>852.0</ele><time>2026-04-11T09:39:55Z</time></trkpt><trkpt lat="46.06015032881469" lon="9.403399599484583"><ele>852.3333333333333</ele><time>2026-04-11T09:39:56Z</time></trkpt><trkpt lat="46.06017252055545" lon="9.403524184922551"><ele>852.6666666666666</ele><time>2026-04-11T09:39:57Z</time></trkpt><trkpt lat="46.060182005931324" lon="9.40364425568342"><ele>853.0</ele><time>2026-04-11T09:39:58Z</time></trkpt><trkpt lat="46.06019298029618" lon="9.403766566349026"><ele>850.8333333333333</ele><time>2026-04-11T09:39:59Z</time></trkpt><trkpt lat="46.060206935458446" lon="9.403878981201059"><ele>848.6666666666666</ele><time>2026-04-11T09:40:00Z</time></trkpt><trkpt lat="46.06020509761818" lon="9.403993520421825"><ele>846.5</ele><time>2026-04-11T09:40:01Z</time></trkpt><trkpt lat="46.060219742405465" lon="9.404106191039165"><ele>844.3333333333333</ele><time>2026-04-11T09:40:02Z</time></trkpt><trkpt lat="46.060245561890724" lon="9.404209314133645"><ele>842.1666666666666</ele><time>2026-04-11T09:40:03Z</time></trkpt><trkpt lat="46.06025468796436" lon="9.404313740575319"><ele>840.0</ele><time>2026-04-11T09:40:04Z</time></trkpt><trkpt lat="46.06026877578645" lon="9.404404145046403"><ele>840.0</ele><time>2026-04-11T09:40:05Z</time></trkpt><trkpt lat="46.06029813651906" lon="9.404487035654126"><ele>840.0</ele><time>2026-04-11T09:40:06Z</time></trkpt><trkpt lat="46.06034635092637" lon="9.404560121262609"><ele>840.0</ele><time>2026-04-11T09:40:07Z</time></trkpt><trkpt lat="46.06040159880116" lon="9.404618385445369"><ele>840.0</ele><time>2026-04-11T09:40:08Z</time></trkpt><trkpt lat="46.060491742139114" lon="9.404728382070843"><ele>840.0</ele><time>2026-04-11T09:40:10Z</time></trkpt><trkpt lat="46.0605594797932" lon="9.404796625717033"><ele>840.0</ele><time>2026-04-11T09:40:12Z</time></trkpt><trkpt lat="46.060489905193194" lon="9.404829094651117"><ele>840.0</ele><time>2026-04-11T09:40:16Z</time></trkpt><trkpt lat="46.06044259353036" lon="9.40475068936069"><ele>840.0</ele><time>2026-04-11T09:40:17Z</time></trkpt><trkpt lat="46.06038531598633" lon="9.404668741513317"><ele>840.0</ele><time>2026-04-11T09:40:18Z</time></trkpt><trkpt lat="46.06031553064063" lon="9.404611768007042"><ele>840.0</ele><time>2026-04-11T09:40:19Z</time></trkpt><trkpt lat="46.06026718702629" lon="9.404545846701456"><ele>840.0</ele><time>2026-04-11T09:40:20Z</time></trkpt><trkpt lat="46.060203984287575" lon="9.404417820990595"><ele>840.0</ele><time>2026-04-11T09:40:22Z</time></trkpt><trkpt lat="46.06016913941003" lon="9.404338625986043"><ele>840.0</ele><time>2026-04-11T09:40:23Z</time></trkpt><trkpt lat="46.06013160287911" lon="9.404259686675804"><ele>840.0</ele><time>2026-04-11T09:40:24Z</time></trkpt><trkpt lat="46.06010539628799" lon="9.404172788258853"><ele>840.0</ele><time>2026-04-11T09:40:25Z</time></trkpt><trkpt lat="46.06004818238422" lon="9.404092187412248"><ele>840.0</ele><time>2026-04-11T09:40:27Z</time></trkpt><trkpt lat="46.05998144510301" lon="9.404141240221412"><ele>840.0</ele><time>2026-04-11T09:40:29Z</time></trkpt><trkpt lat="46.05999862997617" lon="9.404263281679027"><ele>840.0</ele><time>2026-04-11T09:40:31Z</time></trkpt><trkpt lat="46.06006892543205" lon="9.404392101749757"><ele>840.0</ele><time>2026-04-11T09:40:33Z</time></trkpt><trkpt lat="46.060104505909734" lon="9.404525842754097"><ele>840.0</ele><time>2026-04-11T09:40:35Z</time></trkpt><trkpt lat="46.06015053169202" lon="9.404650404753502"><ele>840.0</ele><time>2026-04-11T09:40:37Z</time></trkpt><trkpt lat="46.060207683003576" lon="9.404748885592927"><ele>840.0</ele><time>2026-04-11T09:40:39Z</time></trkpt><trkpt lat="46.06030224698808" lon="9.404858786595332"><ele>840.0</ele><time>2026-04-11T09:40:41Z</time></trkpt><trkpt lat="46.060416149991326" lon="9.404938041140088"><ele>837.1666666666666</ele><time>2026-04-11T09:40:43Z</time></trkpt><trkpt lat="46.06049280443025" lon="9.405065857994643"><ele>834.3333333333333</ele><time>2026-04-11T09:40:45Z</time></trkpt><trkpt lat="46.060507338487795" lon="9.405189259370482"><ele>831.5</ele><time>2026-04-11T09:40:47Z</time></trkpt><trkpt lat="46.060503016563196" lon="9.405285585347658"><ele>828.6666666666666</ele><time>2026-04-11T09:40:50Z</time></trkpt><trkpt lat="46.06049139869329" lon="9.405390110568877"><ele>825.8333333333333</ele><time>2026-04-11T09:43:25.999Z</time></trkpt><trkpt lat="46.06049719676373" lon="9.405522858267016"><ele>823.0</ele><time>2026-04-11T09:43:27.999Z</time></trkpt><trkpt lat="46.060503216493" lon="9.405624470629329"><ele>817.2</ele><time>2026-04-11T09:43:28.999Z</time></trkpt><trkpt lat="46.06051165212671" lon="9.405718377136589"><ele>811.4</ele><time>2026-04-11T09:43:29.999Z</time></trkpt><trkpt lat="46.060516752705986" lon="9.40589277627125"><ele>805.6</ele><time>2026-04-11T09:43:32Z</time></trkpt><trkpt lat="46.0605762128122" lon="9.406053116521775"><ele>799.8000000000001</ele><time>2026-04-11T09:43:34Z</time></trkpt><trkpt lat="46.060645069706666" lon="9.406131908564058"><ele>794.0</ele><time>2026-04-11T09:43:35Z</time></trkpt><trkpt lat="46.06071848720815" lon="9.406183269124504"><ele>794.0000000000001</ele><time>2026-04-11T09:43:36Z</time></trkpt><trkpt lat="46.0607660058843" lon="9.406259941035115"><ele>794.0</ele><time>2026-04-11T09:43:37Z</time></trkpt><trkpt lat="46.06077325092624" lon="9.406374779381235"><ele>794.0</ele><time>2026-04-11T09:43:38Z</time></trkpt><trkpt lat="46.0608454646008" lon="9.406500357225813"><ele>794.0</ele><time>2026-04-11T09:43:40Z</time></trkpt><trkpt lat="46.06092056130973" lon="9.406588360976487"><ele>794.0000000000001</ele><time>2026-04-11T09:43:42Z</time></trkpt><trkpt lat="46.06099480448148" lon="9.406567716645105"><ele>794.0</ele><time>2026-04-11T09:43:43Z</time></trkpt><trkpt lat="46.061047975584074" lon="9.4064663350012"><ele>793.5000000000001</ele><time>2026-04-11T09:43:44Z</time></trkpt><trkpt lat="46.06111814323863" lon="9.40635745331361"><ele>793.0</ele><time>2026-04-11T09:43:46Z</time></trkpt><trkpt lat="46.06118747149481" lon="9.406343572192164"><ele>792.5</ele><time>2026-04-11T09:43:48Z</time></trkpt><trkpt lat="46.06130338051776" lon="9.406388442402545"><ele>792.0</ele><time>2026-04-11T09:43:50Z</time></trkpt><trkpt lat="46.06135639675365" lon="9.406440850176708"><ele>791.5000000000001</ele><time>2026-04-11T09:43:51Z</time></trkpt><trkpt lat="46.0614398357508" lon="9.406428382958431"><ele>791.0</ele><time>2026-04-11T09:43:52Z</time></trkpt><trkpt lat="46.061510307951885" lon="9.406373611476164"><ele>791.0</ele><time>2026-04-11T09:43:53Z</time></trkpt><trkpt lat="46.06157268233966" lon="9.406344980731372"><ele>791.0</ele><time>2026-04-11T09:43:54Z</time></trkpt><trkpt lat="46.06168099371711" lon="9.406362742438045"><ele>791.0</ele><time>2026-04-11T09:43:56Z</time></trkpt><trkpt lat="46.06179483929483" lon="9.406425102719224"><ele>791.0</ele><time>2026-04-11T09:43:58Z</time></trkpt><trkpt lat="46.06187389979939" lon="9.406577149029616"><ele>791.0</ele><time>2026-04-11T09:44:00Z</time></trkpt><trkpt lat="46.06192771524866" lon="9.406668383786128"><ele>795.6666666666667</ele><time>2026-04-11T09:44:01Z</time></trkpt><trkpt lat="46.06200344071971" lon="9.406739303433293"><ele>800.3333333333334</ele><time>2026-04-11T09:44:02Z</time></trkpt><trkpt lat="46.06208590822039" lon="9.406809955238987"><ele>805.0</ele><time>2026-04-11T09:44:03Z</time></trkpt><trkpt lat="46.06215466171436" lon="9.406883938480199"><ele>809.6666666666667</ele><time>2026-04-11T09:44:04Z</time></trkpt><trkpt lat="46.06220971093755" lon="9.406967036277692"><ele>814.3333333333334</ele><time>2026-04-11T09:44:05Z</time></trkpt><trkpt lat="46.062269526897566" lon="9.407068637259714"><ele>819.0</ele><time>2026-04-11T09:44:06Z</time></trkpt><trkpt lat="46.06232282351793" lon="9.40715320776258"><ele>819.4000000000001</ele><time>2026-04-11T09:44:07Z</time></trkpt><trkpt lat="46.062367531945036" lon="9.40722856918545"><ele>819.8</ele><time>2026-04-11T09:44:08Z</time></trkpt><trkpt lat="46.062438368710225" lon="9.407365939849266"><ele>820.2</ele><time>2026-04-11T09:44:10Z</time></trkpt><trkpt lat="46.062452067306126" lon="9.407520523386742"><ele>820.5999999999999</ele><time>2026-04-11T09:44:12Z</time></trkpt><trkpt lat="46.062434803824324" lon="9.407646847402711"><ele>821.0</ele><time>2026-04-11T09:44:14Z</time></trkpt><trkpt lat="46.0623949072005" lon="9.40772788233846"><ele>821.0</ele><time>2026-04-11T09:44:16Z</time></trkpt><trkpt lat="46.06225723318239" lon="9.40773413166862"><ele>821.0</ele><time>2026-04-11T09:44:18Z</time></trkpt><trkpt lat="46.062154232849245" lon="9.407676054987585"><ele>821.0</ele><time>2026-04-11T09:44:19Z</time></trkpt><trkpt lat="46.062044489248514" lon="9.407599993837056"><ele>821.0</ele><time>2026-04-11T09:44:20Z</time></trkpt><trkpt lat="46.06197072037496" lon="9.407497124846154"><ele>821.0000000000001</ele><time>2026-04-11T09:44:21Z</time></trkpt><trkpt lat="46.06191729995766" lon="9.407390131329489"><ele>821.0</ele><time>2026-04-11T09:44:22Z</time></trkpt><trkpt lat="46.06185798872829" lon="9.40732188301746"><ele>821.0</ele><time>2026-04-11T09:44:23Z</time></trkpt><trkpt lat="46.06178200661977" lon="9.407268199848389"><ele>821.0</ele><time>2026-04-11T09:44:24Z</time></trkpt><trkpt lat="46.061697209555504" lon="9.407277676094289"><ele>821.0000000000001</ele><time>2026-04-11T09:44:25Z</time></trkpt><trkpt lat="46.06161819609917" lon="9.407317176587947"><ele>821.0</ele><time>2026-04-11T09:44:26Z</time></trkpt><trkpt lat="46.061545558020505" lon="9.407380200487179"><ele>819.1999999999999</ele><time>2026-04-11T09:44:27Z</time></trkpt><trkpt lat="46.06149540345942" lon="9.407475952671401"><ele>817.4</ele><time>2026-04-11T09:44:28Z</time></trkpt><trkpt lat="46.061452932147155" lon="9.407597452582712"><ele>815.6</ele><time>2026-04-11T09:44:29Z</time></trkpt><trkpt lat="46.06138819469731" lon="9.40768895683015"><ele>813.8</ele><time>2026-04-11T09:44:30Z</time></trkpt><trkpt lat="46.06129127141855" lon="9.407765435282302"><ele>812.0</ele><time>2026-04-11T09:44:31Z</time></trkpt><trkpt lat="46.06117577080807" lon="9.407812162972778"><ele>812.0</ele><time>2026-04-11T09:44:32Z</time></trkpt><trkpt lat="46.061084745840986" lon="9.407852418871606"><ele>812.0</ele><time>2026-04-11T09:44:33Z</time></trkpt><trkpt lat="46.060995427589" lon="9.407875332415264"><ele>812.0</ele><time>2026-04-11T09:44:34Z</time></trkpt><trkpt lat="46.06089222337757" lon="9.40787147501481"><ele>812.0</ele><time>2026-04-11T09:44:35Z</time></trkpt><trkpt lat="46.06078971726868" lon="9.407859125267667"><ele>812.0</ele><time>2026-04-11T09:44:36Z</time></trkpt><trkpt lat="46.06069802514858" lon="9.407821469319087"><ele>809.3333333333334</ele><time>2026-04-11T09:44:37Z</time></trkpt><trkpt lat="46.060621039971295" lon="9.407780043800658"><ele>806.6666666666667</ele><time>2026-04-11T09:44:38Z</time></trkpt><trkpt lat="46.0605458440861" lon="9.407712588104049"><ele>804.0</ele><time>2026-04-11T09:44:39Z</time></trkpt><trkpt lat="46.060460646921186" lon="9.407616435459333"><ele>801.3333333333333</ele><time>2026-04-11T09:44:40Z</time></trkpt><trkpt lat="46.06037138389968" lon="9.40755424522532"><ele>798.6666666666666</ele><time>2026-04-11T09:44:41Z</time></trkpt><trkpt lat="46.06031068258562" lon="9.407506632536052"><ele>796.0</ele><time>2026-04-11T09:44:42Z</time></trkpt><trkpt lat="46.06019592064994" lon="9.407495552256153"><ele>795.9999999999999</ele><time>2026-04-11T09:44:44Z</time></trkpt><trkpt lat="46.06012383733411" lon="9.407562072054459"><ele>796.0</ele><time>2026-04-11T09:44:45Z</time></trkpt><trkpt lat="46.060049151353816" lon="9.407644870010701"><ele>796.0</ele><time>2026-04-11T09:44:46Z</time></trkpt><trkpt lat="46.05999015288944" lon="9.407743831467645"><ele>796.0</ele><time>2026-04-11T09:44:47Z</time></trkpt><trkpt lat="46.059956922011835" lon="9.407848344396903"><ele>795.9999999999999</ele><time>2026-04-11T09:44:48Z</time></trkpt><trkpt lat="46.05994861751995" lon="9.407982776389586"><ele>796.0</ele><time>2026-04-11T09:44:49Z</time></trkpt><trkpt lat="46.05996861188336" lon="9.408094020980862"><ele>801.1666666666666</ele><time>2026-04-11T09:44:49.999Z</time></trkpt><trkpt lat="46.06002164307112" lon="9.40817841608758"><ele>806.3333333333333</ele><time>2026-04-11T09:44:50.999Z</time></trkpt><trkpt lat="46.06006088572544" lon="9.408259433841424"><ele>811.5</ele><time>2026-04-11T09:44:51.999Z</time></trkpt><trkpt lat="46.06005111654453" lon="9.408413928034134"><ele>816.6666666666667</ele><time>2026-04-11T09:44:53.999Z</time></trkpt><trkpt lat="46.05998415182992" lon="9.408481220818206"><ele>821.8333333333334</ele><time>2026-04-11T09:44:54.999Z</time></trkpt><trkpt lat="46.059905518568875" lon="9.408540884889014"><ele>827.0</ele><time>2026-04-11T09:44:55.999Z</time></trkpt><trkpt lat="46.05981820318651" lon="9.408609564661981"><ele>827.0</ele><time>2026-04-11T09:44:56.999Z</time></trkpt><trkpt lat="46.059750146487076" lon="9.408636936521967"><ele>827.0</ele><time>2026-04-11T09:44:57.999Z</time></trkpt><trkpt lat="46.05966691296186" lon="9.408604746297229"><ele>827.0</ele><time>2026-04-11T09:44:58.999Z</time></trkpt><trkpt lat="46.059576350951204" lon="9.40853844704163"><ele>827.0</ele><time>2026-04-11T09:44:59.999Z</time></trkpt><trkpt lat="46.059491105933" lon="9.408458158852016"><ele>827.0</ele><time>2026-04-11T09:45:00.999Z</time></trkpt><trkpt lat="46.05939466243221" lon="9.40841148713628"><ele>827.0</ele><time>2026-04-11T09:45:01.999Z</time></trkpt><trkpt lat="46.05927869797348" lon="9.408387065069894"><ele>827.0</ele><time>2026-04-11T09:45:02.999Z</time></trkpt><trkpt lat="46.05919170592394" lon="9.408359117291294"><ele>827.0</ele><time>2026-04-11T09:45:03.999Z</time></trkpt><trkpt lat="46.059118346458845" lon="9.408333126984457"><ele>827.0</ele><time>2026-04-11T09:45:04.999Z</time></trkpt><trkpt lat="46.05904298295207" lon="9.408351575184264"><ele>827.0</ele><time>2026-04-11T09:45:05.999Z</time></trkpt><trkpt lat="46.058962024809084" lon="9.408424686846713"><ele>824.8</ele><time>2026-04-11T09:45:06.999Z</time></trkpt><trkpt lat="46.05888284489508" lon="9.408506806807486"><ele>822.6</ele><time>2026-04-11T09:45:07.999Z</time></trkpt><trkpt lat="46.05881764987159" lon="9.40859118544698"><ele>820.4</ele><time>2026-04-11T09:45:08.999Z</time></trkpt><trkpt lat="46.05877402408325" lon="9.408704481926982"><ele>818.1999999999999</ele><time>2026-04-11T09:45:09.999Z</time></trkpt><trkpt lat="46.05874042306728" lon="9.408843602416068"><ele>816.0</ele><time>2026-04-11T09:45:10.999Z</time></trkpt><trkpt lat="46.058679207133686" lon="9.408961484458988"><ele>823.5999999999999</ele><time>2026-04-11T09:45:11.999Z</time></trkpt><trkpt lat="46.05859418583307" lon="9.40903725399672"><ele>831.2</ele><time>2026-04-11T09:45:12.999Z</time></trkpt><trkpt lat="46.05848882929003" lon="9.40910269665748"><ele>838.8000000000001</ele><time>2026-04-11T09:45:13.999Z</time></trkpt><trkpt lat="46.05838733474499" lon="9.409179530512626"><ele>846.4000000000001</ele><time>2026-04-11T09:45:14.999Z</time></trkpt><trkpt lat="46.05830253582097" lon="9.409240087524982"><ele>854.0</ele><time>2026-04-11T09:45:15.999Z</time></trkpt><trkpt lat="46.05822026640428" lon="9.409264435626309"><ele>856.0</ele><time>2026-04-11T09:45:16.999Z</time></trkpt><trkpt lat="46.058136167185054" lon="9.409199578542962"><ele>858.0000000000001</ele><time>2026-04-11T09:45:17.999Z</time></trkpt><trkpt lat="46.05804381485593" lon="9.40913839577602"><ele>860.0000000000001</ele><time>2026-04-11T09:45:18.999Z</time></trkpt><trkpt lat="46.05795554041344" lon="9.409051996918075"><ele>862.0</ele><time>2026-04-11T09:45:19.999Z</time></trkpt><trkpt lat="46.057847082207694" lon="9.409023283562314"><ele>864.0</ele><time>2026-04-11T09:45:20.999Z</time></trkpt><trkpt lat="46.05772670060998" lon="9.40904893066665"><ele>864.0</ele><time>2026-04-11T09:45:21.999Z</time></trkpt><trkpt lat="46.05759669033495" lon="9.409086691708445"><ele>864.0</ele><time>2026-04-11T09:45:22.999Z</time></trkpt><trkpt lat="46.05747583209071" lon="9.40910486417287"><ele>864.0</ele><time>2026-04-11T09:45:23.999Z</time></trkpt><trkpt lat="46.057369299195905" lon="9.409080916654782"><ele>864.0</ele><time>2026-04-11T09:45:24.999Z</time></trkpt><trkpt lat="46.05725794456956" lon="9.408996513226745"><ele>865.0</ele><time>2026-04-11T09:45:25.999Z</time></trkpt><trkpt lat="46.05714275569513" lon="9.408891628253171"><ele>866.0</ele><time>2026-04-11T09:45:26.999Z</time></trkpt><trkpt lat="46.0570311950095" lon="9.408799410052428"><ele>867.0</ele><time>2026-04-11T09:45:27.999Z</time></trkpt><trkpt lat="46.05692453102815" lon="9.408712320116877"><ele>868.0</ele><time>2026-04-11T09:45:28.999Z</time></trkpt><trkpt lat="46.05683247805172" lon="9.408618652308277"><ele>868.0</ele><time>2026-04-11T09:45:29.999Z</time></trkpt><trkpt lat="46.056740946242705" lon="9.408508805857183"><ele>868.0</ele><time>2026-04-11T09:45:30.999Z</time></trkpt><trkpt lat="46.05665650567857" lon="9.408372171508105"><ele>868.0</ele><time>2026-04-11T09:45:31.999Z</time></trkpt><trkpt lat="46.05658912398005" lon="9.408215702079668"><ele>868.0</ele><time>2026-04-11T09:45:32.999Z</time></trkpt><trkpt lat="46.05653403225397" lon="9.408064611100215"><ele>863.4999999999999</ele><time>2026-04-11T09:45:33.999Z</time></trkpt><trkpt lat="46.05648441666293" lon="9.407945664437605"><ele>859.0</ele><time>2026-04-11T09:45:34.999Z</time></trkpt><trkpt lat="46.05643765424094" lon="9.40786122004714"><ele>854.5</ele><time>2026-04-11T09:45:35.999Z</time></trkpt><trkpt lat="46.05639723347537" lon="9.407786688310335"><ele>850.0</ele><time>2026-04-11T09:45:36.999Z</time></trkpt><trkpt lat="46.05633074339779" lon="9.407648894052315"><ele>845.4999999999999</ele><time>2026-04-11T09:45:39Z</time></trkpt><trkpt lat="46.05627508012804" lon="9.407573874123807"><ele>841.0</ele><time>2026-04-11T09:45:40Z</time></trkpt><trkpt lat="46.05620959889809" lon="9.407538317144272"><ele>841.0</ele><time>2026-04-11T09:45:41Z</time></trkpt><trkpt lat="46.05613207416768" lon="9.407556582881558"><ele>841.0</ele><time>2026-04-11T09:45:42Z</time></trkpt><trkpt lat="46.056057639605285" lon="9.40762546250092"><ele>841.0</ele><time>2026-04-11T09:45:43Z</time></trkpt><trkpt lat="46.056001857004404" lon="9.407749641186854"><ele>841.0</ele><time>2026-04-11T09:45:44Z</time></trkpt><trkpt lat="46.05595980357401" lon="9.407914883444658"><ele>841.0</ele><time>2026-04-11T09:45:45Z</time></trkpt><trkpt lat="46.05591254788648" lon="9.408075471752127"><ele>844.4</ele><time>2026-04-11T09:45:46Z</time></trkpt><trkpt lat="46.05585704392436" lon="9.408219105653998"><ele>847.8</ele><time>2026-04-11T09:45:47Z</time></trkpt><trkpt lat="46.05580360532091" lon="9.408360423591242"><ele>851.1999999999999</ele><time>2026-04-11T09:45:48Z</time></trkpt><trkpt lat="46.05575053388445" lon="9.408500481802527"><ele>854.5999999999999</ele><time>2026-04-11T09:45:49Z</time></trkpt><trkpt lat="46.05569598284701" lon="9.408637202961572"><ele>858.0</ele><time>2026-04-11T09:45:50Z</time></trkpt><trkpt lat="46.05564381117636" lon="9.408769002584167"><ele>851.5999999999999</ele><time>2026-04-11T09:45:51Z</time></trkpt><trkpt lat="46.05559244708253" lon="9.408901481618257"><ele>845.1999999999999</ele><time>2026-04-11T09:45:52Z</time></trkpt><trkpt lat="46.05554380671697" lon="9.409031212449099"><ele>838.8</ele><time>2026-04-11T09:45:53Z</time></trkpt><trkpt lat="46.05549372592893" lon="9.409164239692009"><ele>832.4</ele><time>2026-04-11T09:45:54Z</time></trkpt><trkpt lat="46.055440014290646" lon="9.409287704796414"><ele>826.0</ele><time>2026-04-11T09:45:55Z</time></trkpt><trkpt lat="46.05537718999015" lon="9.409412765364332"><ele>826.0</ele><time>2026-04-11T09:45:56Z</time></trkpt><trkpt lat="46.05531565046142" lon="9.409539173885033"><ele>826.0</ele><time>2026-04-11T09:45:57Z</time></trkpt><trkpt lat="46.055267719620176" lon="9.409693313148873"><ele>826.0</ele><time>2026-04-11T09:45:58Z</time></trkpt><trkpt lat="46.05524019207287" lon="9.40987885540876"><ele>826.0</ele><time>2026-04-11T09:45:59Z</time></trkpt><trkpt lat="46.055233902506636" lon="9.410061655583135"><ele>829.0</ele><time>2026-04-11T09:46:00Z</time></trkpt><trkpt lat="46.055198179067" lon="9.410223431159261"><ele>832.0</ele><time>2026-04-11T09:46:01Z</time></trkpt><trkpt lat="46.05512231730707" lon="9.410358450032168"><ele>835.0</ele><time>2026-04-11T09:46:02Z</time></trkpt><trkpt lat="46.05503371187477" lon="9.41048212679126"><ele>838.0</ele><time>2026-04-11T09:46:03Z</time></trkpt><trkpt lat="46.0549699020245" lon="9.410612484707455"><ele>833.4</ele><time>2026-04-11T09:46:04Z</time></trkpt><trkpt lat="46.05492873969162" lon="9.410764436864243"><ele>828.8</ele><time>2026-04-11T09:46:05Z</time></trkpt><trkpt lat="46.054903871883475" lon="9.410918413307787"><ele>824.2</ele><time>2026-04-11T09:46:06Z</time></trkpt><trkpt lat="46.05488006725746" lon="9.411075459389634"><ele>819.6</ele><time>2026-04-11T09:46:07Z</time></trkpt><trkpt lat="46.05484392638814" lon="9.411227850063018"><ele>815.0</ele><time>2026-04-11T09:46:08Z</time></trkpt><trkpt lat="46.054799770057755" lon="9.411385266890598"><ele>815.0</ele><time>2026-04-11T09:46:09Z</time></trkpt><trkpt lat="46.05473867854643" lon="9.411541871053775"><ele>815.0</ele><time>2026-04-11T09:46:10Z</time></trkpt><trkpt lat="46.05466850968173" lon="9.411688224061384"><ele>815.0</ele><time>2026-04-11T09:46:11Z</time></trkpt><trkpt lat="46.05460415742388" lon="9.41183187947353"><ele>815.0</ele><time>2026-04-11T09:46:12Z</time></trkpt><trkpt lat="46.05454832394842" lon="9.411971031286946"><ele>815.0</ele><time>2026-04-11T09:46:13Z</time></trkpt><trkpt lat="46.05451670316844" lon="9.412113507113235"><ele>815.0</ele><time>2026-04-11T09:46:14Z</time></trkpt><trkpt lat="46.05450299204249" lon="9.412259697482915"><ele>815.0</ele><time>2026-04-11T09:46:15Z</time></trkpt><trkpt lat="46.0544989596491" lon="9.412398535114669"><ele>815.0</ele><time>2026-04-11T09:46:16Z</time></trkpt><trkpt lat="46.05446844499882" lon="9.412524178554792"><ele>815.0</ele><time>2026-04-11T09:46:17Z</time></trkpt><trkpt lat="46.05439598713457" lon="9.412622987974045"><ele>819.0</ele><time>2026-04-11T09:46:18Z</time></trkpt><trkpt lat="46.054299263653775" lon="9.412682069273009"><ele>823.0</ele><time>2026-04-11T09:46:19Z</time></trkpt><trkpt lat="46.05417825051724" lon="9.412736107112"><ele>827.0</ele><time>2026-04-11T09:46:20Z</time></trkpt><trkpt lat="46.05406049629714" lon="9.41281597876875"><ele>831.0</ele><time>2026-04-11T09:46:21Z</time></trkpt><trkpt lat="46.053950409216476" lon="9.412890794854698"><ele>827.1999999999999</ele><time>2026-04-11T09:46:22Z</time></trkpt><trkpt lat="46.053840852309484" lon="9.412954465829296"><ele>823.4</ele><time>2026-04-11T09:46:23Z</time></trkpt><trkpt lat="46.05374032036977" lon="9.413013708630677"><ele>819.6</ele><time>2026-04-11T09:46:24Z</time></trkpt><trkpt lat="46.053658795808616" lon="9.41306662645684"><ele>815.8</ele><time>2026-04-11T09:46:25Z</time></trkpt><trkpt lat="46.05359228822272" lon="9.41312827860641"><ele>812.0</ele><time>2026-04-11T09:46:26Z</time></trkpt><trkpt lat="46.05352923663877" lon="9.413209249536996"><ele>812.0</ele><time>2026-04-11T09:46:27Z</time></trkpt><trkpt lat="46.05349367760537" lon="9.41334168488593"><ele>812.0</ele><time>2026-04-11T09:46:28Z</time></trkpt><trkpt lat="46.05350798994607" lon="9.413491239082633"><ele>812.0</ele><time>2026-04-11T09:46:29Z</time></trkpt><trkpt lat="46.05352035832827" lon="9.41361701455586"><ele>812.0</ele><time>2026-04-11T09:46:30Z</time></trkpt><trkpt lat="46.05351698117654" lon="9.413707695996377"><ele>812.0</ele><time>2026-04-11T09:46:31Z</time></trkpt><trkpt lat="46.053439162314824" lon="9.413831203203506"><ele>812.0</ele><time>2026-04-11T09:46:33Z</time></trkpt><trkpt lat="46.05336727345704" lon="9.413806294214913"><ele>812.0</ele><time>2026-04-11T09:46:34Z</time></trkpt><trkpt lat="46.05328691703294" lon="9.413743790010258"><ele>812.0</ele><time>2026-04-11T09:46:35Z</time></trkpt><trkpt lat="46.053191667345864" lon="9.413673169940543"><ele>812.0</ele><time>2026-04-11T09:46:36Z</time></trkpt><trkpt lat="46.053087985306654" lon="9.413645307803254"><ele>812.0</ele><time>2026-04-11T09:46:37Z</time></trkpt><trkpt lat="46.0529736184375" lon="9.413656702890668"><ele>810.0</ele><time>2026-04-11T09:46:38Z</time></trkpt><trkpt lat="46.05285817419612" lon="9.413696669916819"><ele>808.0</ele><time>2026-04-11T09:46:39Z</time></trkpt><trkpt lat="46.052755055864" lon="9.41374304004582"><ele>806.0</ele><time>2026-04-11T09:46:40Z</time></trkpt><trkpt lat="46.052664390141736" lon="9.413772576043304"><ele>804.0</ele><time>2026-04-11T09:46:41Z</time></trkpt><trkpt lat="46.052593282929664" lon="9.413814735734121"><ele>802.0</ele><time>2026-04-11T09:46:42Z</time></trkpt><trkpt lat="46.052529966870004" lon="9.413894729808117"><ele>802.0</ele><time>2026-04-11T09:46:43Z</time></trkpt><trkpt lat="46.05247766212152" lon="9.414014687691669"><ele>802.0</ele><time>2026-04-11T09:46:44Z</time></trkpt><trkpt lat="46.052447948906796" lon="9.414170601923878"><ele>802.0</ele><time>2026-04-11T09:46:45Z</time></trkpt><trkpt lat="46.052426030666744" lon="9.414339461350114"><ele>802.0</ele><time>2026-04-11T09:46:46Z</time></trkpt><trkpt lat="46.052414037884446" lon="9.414509422330104"><ele>802.0</ele><time>2026-04-11T09:46:47Z</time></trkpt><trkpt lat="46.05239203859377" lon="9.414678412775753"><ele>791.75</ele><time>2026-04-11T09:46:48Z</time></trkpt><trkpt lat="46.052353366374746" lon="9.414853833447804"><ele>781.5</ele><time>2026-04-11T09:46:49Z</time></trkpt><trkpt lat="46.052292022677236" lon="9.415019965681484"><ele>771.25</ele><time>2026-04-11T09:46:50Z</time></trkpt><trkpt lat="46.052226440060934" lon="9.415179932047815"><ele>761.0</ele><time>2026-04-11T09:46:51Z</time></trkpt><trkpt lat="46.05216989986094" lon="9.415334122168899"><ele>761.0</ele><time>2026-04-11T09:46:52Z</time></trkpt><trkpt lat="46.0521143063349" lon="9.41548378093522"><ele>761.0</ele><time>2026-04-11T09:46:53Z</time></trkpt><trkpt lat="46.052039312355646" lon="9.415613699691406"><ele>761.0</ele><time>2026-04-11T09:46:54Z</time></trkpt><trkpt lat="46.051979861209134" lon="9.415750193224511"><ele>761.0</ele><time>2026-04-11T09:46:55Z</time></trkpt><trkpt lat="46.05189093812932" lon="9.415856984460403"><ele>765.1999999999999</ele><time>2026-04-11T09:46:56Z</time></trkpt><trkpt lat="46.05179811317082" lon="9.415949278092187"><ele>769.4</ele><time>2026-04-11T09:46:57Z</time></trkpt><trkpt lat="46.05171391323458" lon="9.416046227139805"><ele>773.6</ele><time>2026-04-11T09:46:58Z</time></trkpt><trkpt lat="46.051606479953115" lon="9.416094467067271"><ele>777.8</ele><time>2026-04-11T09:46:59Z</time></trkpt><trkpt lat="46.051508770825414" lon="9.416154326242628"><ele>782.0</ele><time>2026-04-11T09:47:00Z</time></trkpt><trkpt lat="46.05140075840831" lon="9.41617395831426"><ele>776.4000000000001</ele><time>2026-04-11T09:47:01Z</time></trkpt><trkpt lat="46.05130618366063" lon="9.416206694135132"><ele>770.8000000000001</ele><time>2026-04-11T09:47:02Z</time></trkpt><trkpt lat="46.05122411381846" lon="9.416278528818113"><ele>765.2</ele><time>2026-04-11T09:47:03Z</time></trkpt><trkpt lat="46.05116250766609" lon="9.416409688594863"><ele>759.6</ele><time>2026-04-11T09:47:04Z</time></trkpt><trkpt lat="46.05113140058517" lon="9.416592691860577"><ele>754.0</ele><time>2026-04-11T09:47:05Z</time></trkpt><trkpt lat="46.051114679633244" lon="9.416779221384154"><ele>754.0</ele><time>2026-04-11T09:47:06Z</time></trkpt><trkpt lat="46.051098170301195" lon="9.416950015373324"><ele>754.0</ele><time>2026-04-11T09:47:06.999Z</time></trkpt><trkpt lat="46.051082452778644" lon="9.417132263185259"><ele>754.0</ele><time>2026-04-11T09:47:07.999Z</time></trkpt><trkpt lat="46.05102555818369" lon="9.417287709185969"><ele>754.0</ele><time>2026-04-11T09:47:08.999Z</time></trkpt><trkpt lat="46.05097765492406" lon="9.417444274345488"><ele>752.8333333333334</ele><time>2026-04-11T09:47:09.999Z</time></trkpt><trkpt lat="46.05093654178114" lon="9.417587615904793"><ele>751.6666666666667</ele><time>2026-04-11T09:47:10.999Z</time></trkpt><trkpt lat="46.0508971792716" lon="9.417711171810526"><ele>750.5</ele><time>2026-04-11T09:47:11.999Z</time></trkpt><trkpt lat="46.05085037867643" lon="9.417807253044897"><ele>749.3333333333334</ele><time>2026-04-11T09:47:12.999Z</time></trkpt><trkpt lat="46.05079866819599" lon="9.417869839518097"><ele>748.1666666666666</ele><time>2026-04-11T09:47:13.999Z</time></trkpt><trkpt lat="46.05073382780161" lon="9.417909797108523"><ele>747.0</ele><time>2026-04-11T09:47:14.999Z</time></trkpt><trkpt lat="46.05065339344458" lon="9.417927428736025"><ele>747.0</ele><time>2026-04-11T09:47:15.999Z</time></trkpt><trkpt lat="46.05055895903255" lon="9.417915258230545"><ele>747.0</ele><time>2026-04-11T09:47:16.999Z</time></trkpt><trkpt lat="46.05046944495631" lon="9.417865049527705"><ele>747.0</ele><time>2026-04-11T09:47:17.999Z</time></trkpt><trkpt lat="46.05038933926016" lon="9.417770384386278"><ele>747.0</ele><time>2026-04-11T09:47:18.999Z</time></trkpt><trkpt lat="46.05029870053036" lon="9.417665692660046"><ele>747.0</ele><time>2026-04-11T09:47:19.999Z</time></trkpt><trkpt lat="46.050204191807" lon="9.417556959367257"><ele>747.0</ele><time>2026-04-11T09:47:20.999Z</time></trkpt><trkpt lat="46.05014249301921" lon="9.417457985313751"><ele>747.0</ele><time>2026-04-11T09:47:21.999Z</time></trkpt><trkpt lat="46.050058664091594" lon="9.417358007862683"><ele>747.0</ele><time>2026-04-11T09:47:22.999Z</time></trkpt><trkpt lat="46.0499762665068" lon="9.417256572517768"><ele>747.0</ele><time>2026-04-11T09:47:23.999Z</time></trkpt><trkpt lat="46.04989456290364" lon="9.417164357255842"><ele>747.0</ele><time>2026-04-11T09:47:24.999Z</time></trkpt><trkpt lat="46.049816035127826" lon="9.417077859907115"><ele>755.3333333333334</ele><time>2026-04-11T09:47:25.999Z</time></trkpt><trkpt lat="46.04974222290773" lon="9.416996515504382"><ele>763.6666666666667</ele><time>2026-04-11T09:47:26.999Z</time></trkpt><trkpt lat="46.04968077774962" lon="9.416910638722417"><ele>772.0</ele><time>2026-04-11T09:47:27.999Z</time></trkpt><trkpt lat="46.04961831051563" lon="9.416838936124176"><ele>780.3333333333334</ele><time>2026-04-11T09:47:28.999Z</time></trkpt><trkpt lat="46.04958927519733" lon="9.4167566420183"><ele>788.6666666666667</ele><time>2026-04-11T09:47:29.999Z</time></trkpt><trkpt lat="46.04959746184439" lon="9.41665584053142"><ele>797.0</ele><time>2026-04-11T09:47:32.999Z</time></trkpt><trkpt lat="46.04973772695402" lon="9.416708520813563"><ele>797.0000000000001</ele><time>2026-04-11T09:47:35.999Z</time></trkpt><trkpt lat="46.04982527525416" lon="9.416724348472236"><ele>797.0</ele><time>2026-04-11T09:47:36.999Z</time></trkpt><trkpt lat="46.04991674125051" lon="9.416737658800248"><ele>797.0</ele><time>2026-04-11T09:47:37.999Z</time></trkpt><trkpt lat="46.050002655775074" lon="9.416752082421889"><ele>797.0</ele><time>2026-04-11T09:47:38.999Z</time></trkpt><trkpt lat="46.05007679205456" lon="9.416766690622614"><ele>797.0000000000001</ele><time>2026-04-11T09:47:39.999Z</time></trkpt><trkpt lat="46.05014542138759" lon="9.416781650751298"><ele>797.0</ele><time>2026-04-11T09:47:40.999Z</time></trkpt><trkpt lat="46.0502165419048" lon="9.416797615215104"><ele>787.0</ele><time>2026-04-11T09:47:41.999Z</time></trkpt><trkpt lat="46.050317712869195" lon="9.416870178514912"><ele>777.0</ele><time>2026-04-11T09:47:44Z</time></trkpt><trkpt lat="46.05036545497075" lon="9.417032201714687"><ele>767.0</ele><time>2026-04-11T09:47:46Z</time></trkpt><trkpt lat="46.05035299102278" lon="9.417132539465657"><ele>757.0</ele><time>2026-04-11T09:47:47Z</time></trkpt><trkpt lat="46.05031386664053" lon="9.41723012885923"><ele>747.0</ele><time>2026-04-11T09:47:48Z</time></trkpt><trkpt lat="46.05025934949207" lon="9.417315863301802"><ele>746.9999999999999</ele><time>2026-04-11T09:47:49Z</time></trkpt><trkpt lat="46.05020538125443" lon="9.417381819356894"><ele>747.0</ele><time>2026-04-11T09:47:50Z</time></trkpt><trkpt lat="46.05013447204981" lon="9.417430286351221"><ele>747.0</ele><time>2026-04-11T09:47:51Z</time></trkpt><trkpt lat="46.05005635742594" lon="9.417446129613488"><ele>747.0</ele><time>2026-04-11T09:47:52Z</time></trkpt><trkpt lat="46.04999727564528" lon="9.417490675543448"><ele>747.0</ele><time>2026-04-11T09:47:53Z</time></trkpt><trkpt lat="46.04996260757619" lon="9.41757978926851"><ele>746.9999999999999</ele><time>2026-04-11T09:47:54Z</time></trkpt><trkpt lat="46.04994018852741" lon="9.41767995300869"><ele>747.0</ele><time>2026-04-11T09:47:55Z</time></trkpt><trkpt lat="46.0499367459919" lon="9.417796553295391"><ele>747.6</ele><time>2026-04-11T09:47:56Z</time></trkpt><trkpt lat="46.049941658345745" lon="9.417940314677558"><ele>748.2</ele><time>2026-04-11T09:47:57Z</time></trkpt><trkpt lat="46.049936113771004" lon="9.418102358703841"><ele>748.8</ele><time>2026-04-11T09:47:58Z</time></trkpt><trkpt lat="46.04995329514225" lon="9.418262451436666"><ele>749.4</ele><time>2026-04-11T09:47:59Z</time></trkpt><trkpt lat="46.04997037672327" lon="9.418411887928587"><ele>750.0</ele><time>2026-04-11T09:48:00Z</time></trkpt><trkpt lat="46.04998238105323" lon="9.418550944850642"><ele>750.0</ele><time>2026-04-11T09:48:01Z</time></trkpt><trkpt lat="46.04997283354256" lon="9.418685123577331"><ele>750.0</ele><time>2026-04-11T09:48:02Z</time></trkpt><trkpt lat="46.04993345525348" lon="9.41881482747063"><ele>750.0</ele><time>2026-04-11T09:48:03Z</time></trkpt><trkpt lat="46.04989200803396" lon="9.418937278940467"><ele>750.0</ele><time>2026-04-11T09:48:04Z</time></trkpt><trkpt lat="46.049843765677984" lon="9.419079616762868"><ele>750.0</ele><time>2026-04-11T09:48:05Z</time></trkpt><trkpt lat="46.04980475594013" lon="9.419193127259733"><ele>750.6666666666666</ele><time>2026-04-11T09:48:06Z</time></trkpt><trkpt lat="46.0497702018867" lon="9.419292253117122"><ele>751.3333333333334</ele><time>2026-04-11T09:48:07Z</time></trkpt><trkpt lat="46.049743381892924" lon="9.419383772032372"><ele>752.0</ele><time>2026-04-11T09:48:08Z</time></trkpt><trkpt lat="46.049735506008915" lon="9.419483444666694"><ele>752.6666666666667</ele><time>2026-04-11T09:48:09Z</time></trkpt><trkpt lat="46.04971172000235" lon="9.419596597625194"><ele>753.3333333333334</ele><time>2026-04-11T09:48:10Z</time></trkpt><trkpt lat="46.04967978665134" lon="9.419741518661985"><ele>754.0</ele><time>2026-04-11T09:48:11Z</time></trkpt><trkpt lat="46.049642446797314" lon="9.419886733770221"><ele>754.0</ele><time>2026-04-11T09:48:12Z</time></trkpt><trkpt lat="46.049607682970056" lon="9.420020783277302"><ele>754.0</ele><time>2026-04-11T09:48:13Z</time></trkpt><trkpt lat="46.04958615384851" lon="9.420161427127184"><ele>754.0</ele><time>2026-04-11T09:48:14Z</time></trkpt><trkpt lat="46.0495984941193" lon="9.420307365568892"><ele>754.0</ele><time>2026-04-11T09:48:15Z</time></trkpt><trkpt lat="46.049602101274594" lon="9.420452226864038"><ele>754.0</ele><time>2026-04-11T09:48:16Z</time></trkpt><trkpt lat="46.049625874738354" lon="9.42058766481365"><ele>753.25</ele><time>2026-04-11T09:48:17Z</time></trkpt><trkpt lat="46.04961734461453" lon="9.420720351970337"><ele>752.5</ele><time>2026-04-11T09:48:18Z</time></trkpt><trkpt lat="46.049582659577666" lon="9.42083425202341"><ele>751.75</ele><time>2026-04-11T09:48:19Z</time></trkpt><trkpt lat="46.0494300485959" lon="9.420809359157197"><ele>751.0</ele><time>2026-04-11T09:48:20Z</time></trkpt><trkpt lat="46.049310644524745" lon="9.420909063590427"><ele>751.0</ele><time>2026-04-11T09:48:21Z</time></trkpt><trkpt lat="46.04920529218186" lon="9.420991265488235"><ele>751.0</ele><time>2026-04-11T09:48:22Z</time></trkpt><trkpt lat="46.049063016384856" lon="9.421100310709738"><ele>751.0</ele><time>2026-04-11T09:48:23Z</time></trkpt><trkpt lat="46.04897452345324" lon="9.42116555037107"><ele>751.0</ele><time>2026-04-11T09:48:24Z</time></trkpt><trkpt lat="46.04886827464707" lon="9.421242507543113"><ele>751.25</ele><time>2026-04-11T09:48:25Z</time></trkpt><trkpt lat="46.048770759634465" lon="9.421320094443281"><ele>751.5</ele><time>2026-04-11T09:48:26Z</time></trkpt><trkpt lat="46.048681731334746" lon="9.421431816233486"><ele>751.75</ele><time>2026-04-11T09:48:27Z</time></trkpt><trkpt lat="46.04857915848631" lon="9.421519097884042"><ele>752.0</ele><time>2026-04-11T09:48:28Z</time></trkpt><trkpt lat="46.04848340229839" lon="9.42163197665847"><ele>752.0</ele><time>2026-04-11T09:48:29Z</time></trkpt><trkpt lat="46.0483978825171" lon="9.42175699596624"><ele>752.0</ele><time>2026-04-11T09:48:30Z</time></trkpt><trkpt lat="46.04829498076718" lon="9.421861953206282"><ele>752.0</ele><time>2026-04-11T09:48:31Z</time></trkpt><trkpt lat="46.04820670716855" lon="9.4219921132818"><ele>752.0</ele><time>2026-04-11T09:48:32Z</time></trkpt><trkpt lat="46.04810043489183" lon="9.422103879694694"><ele>754.4000000000001</ele><time>2026-04-11T09:48:33Z</time></trkpt><trkpt lat="46.04798969242671" lon="9.42220892642006"><ele>756.8000000000001</ele><time>2026-04-11T09:48:34Z</time></trkpt><trkpt lat="46.04790065884512" lon="9.42230509330831"><ele>759.2</ele><time>2026-04-11T09:48:35Z</time></trkpt><trkpt lat="46.04782265609444" lon="9.422396124455744"><ele>761.6</ele><time>2026-04-11T09:48:36Z</time></trkpt><trkpt lat="46.04775693611769" lon="9.422465129281415"><ele>764.0</ele><time>2026-04-11T09:48:37Z</time></trkpt><trkpt lat="46.047688941427445" lon="9.422574190487044"><ele>764.0</ele><time>2026-04-11T09:48:39Z</time></trkpt><trkpt lat="46.047639802789256" lon="9.422663051207886"><ele>764.0</ele><time>2026-04-11T09:48:42Z</time></trkpt><trkpt lat="46.04759438725662" lon="9.422744995209964"><ele>764.0</ele><time>2026-04-11T09:48:44Z</time></trkpt><trkpt lat="46.047558120518346" lon="9.422935680558378"><ele>764.0</ele><time>2026-04-11T09:48:46Z</time></trkpt><trkpt lat="46.047521474033324" lon="9.423046697845706"><ele>764.0</ele><time>2026-04-11T09:48:47Z</time></trkpt><trkpt lat="46.04748868971409" lon="9.423157585375066"><ele>763.4000000000001</ele><time>2026-04-11T09:48:48Z</time></trkpt><trkpt lat="46.04746678826741" lon="9.423284399140158"><ele>762.8</ele><time>2026-04-11T09:48:49Z</time></trkpt><trkpt lat="46.047454875133326" lon="9.423434047868184"><ele>762.2</ele><time>2026-04-11T09:48:50Z</time></trkpt><trkpt lat="46.0474748928804" lon="9.423589790363174"><ele>761.5999999999999</ele><time>2026-04-11T09:48:51Z</time></trkpt><trkpt lat="46.04752427235135" lon="9.42375700283595"><ele>761.0</ele><time>2026-04-11T09:48:52Z</time></trkpt><trkpt lat="46.04757691004567" lon="9.423928800566996"><ele>761.0</ele><time>2026-04-11T09:48:53Z</time></trkpt><trkpt lat="46.047621452464575" lon="9.424083661246284"><ele>761.0</ele><time>2026-04-11T09:48:54Z</time></trkpt><trkpt lat="46.047655320939306" lon="9.424210274273575"><ele>761.0</ele><time>2026-04-11T09:48:55Z</time></trkpt><trkpt lat="46.04768556822392" lon="9.42431162276248"><ele>761.0</ele><time>2026-04-11T09:48:56Z</time></trkpt><trkpt lat="46.04771255519288" lon="9.424417048706458"><ele>761.0</ele><time>2026-04-11T09:48:57Z</time></trkpt><trkpt lat="46.04771047502763" lon="9.42459495305916"><ele>763.0</ele><time>2026-04-11T09:48:58.999Z</time></trkpt><trkpt lat="46.047674674564945" lon="9.42469465527004"><ele>765.0</ele><time>2026-04-11T09:48:59.999Z</time></trkpt><trkpt lat="46.04764412188437" lon="9.42481955049563"><ele>767.0</ele><time>2026-04-11T09:49:00.999Z</time></trkpt><trkpt lat="46.047646334526846" lon="9.424942480501883"><ele>769.0</ele><time>2026-04-11T09:49:01.999Z</time></trkpt><trkpt lat="46.04763768961434" lon="9.425037368342702"><ele>771.0000000000001</ele><time>2026-04-11T09:49:02.999Z</time></trkpt><trkpt lat="46.04766812029608" lon="9.425209216233918"><ele>773.0</ele><time>2026-04-11T09:49:04.999Z</time></trkpt><trkpt lat="46.04771396060413" lon="9.425337106270069"><ele>773.0</ele><time>2026-04-11T09:49:05.999Z</time></trkpt><trkpt lat="46.047744151941124" lon="9.425464977664657"><ele>773.0</ele><time>2026-04-11T09:49:06.999Z</time></trkpt><trkpt lat="46.04776132288921" lon="9.425610172217882"><ele>773.0</ele><time>2026-04-11T09:49:07.999Z</time></trkpt><trkpt lat="46.04776704629396" lon="9.425739233980917"><ele>773.0</ele><time>2026-04-11T09:49:08.999Z</time></trkpt><trkpt lat="46.047736690498056" lon="9.425870880202815"><ele>773.0</ele><time>2026-04-11T09:49:09.999Z</time></trkpt><trkpt lat="46.047707817222246" lon="9.42599314638338"><ele>774.0000000000001</ele><time>2026-04-11T09:49:10.999Z</time></trkpt><trkpt lat="46.04768567065412" lon="9.426097072270199"><ele>775.0</ele><time>2026-04-11T09:49:11.999Z</time></trkpt><trkpt lat="46.04766971191021" lon="9.42623228190082"><ele>776.0</ele><time>2026-04-11T09:49:13.999Z</time></trkpt><trkpt lat="46.047688536917576" lon="9.426345655867829"><ele>777.0</ele><time>2026-04-11T09:49:15.999Z</time></trkpt><trkpt lat="46.047754687973985" lon="9.42647543455314"><ele>778.0000000000001</ele><time>2026-04-11T09:49:17.999Z</time></trkpt><trkpt lat="46.04780428472298" lon="9.426553299785443"><ele>779.0</ele><time>2026-04-11T09:49:19.999Z</time></trkpt><trkpt lat="46.04782610042827" lon="9.426662056846913"><ele>780.4000000000001</ele><time>2026-04-11T09:49:23.999Z</time></trkpt><trkpt lat="46.04785049927646" lon="9.426759366965754"><ele>781.8</ele><time>2026-04-11T09:49:25.999Z</time></trkpt><trkpt lat="46.04788978736499" lon="9.426916059739087"><ele>783.2</ele><time>2026-04-11T09:49:27.999Z</time></trkpt><trkpt lat="46.04802597852132" lon="9.427029081018327"><ele>784.5999999999999</ele><time>2026-04-11T09:49:29.999Z</time></trkpt><trkpt lat="46.04806990640096" lon="9.427101095641785"><ele>786.0</ele><time>2026-04-11T09:49:30.999Z</time></trkpt><trkpt lat="46.04811066339917" lon="9.427170332804087"><ele>785.0</ele><time>2026-04-11T09:49:31.999Z</time></trkpt><trkpt lat="46.048179319114176" lon="9.42725990712863"><ele>784.0</ele><time>2026-04-11T09:49:33.999Z</time></trkpt><trkpt lat="46.048278130778705" lon="9.427345226376143"><ele>783.0</ele><time>2026-04-11T09:49:36.999Z</time></trkpt><trkpt lat="46.048375407740345" lon="9.427363735027932"><ele>782.0</ele><time>2026-04-11T09:49:38.999Z</time></trkpt><trkpt lat="46.04848849735049" lon="9.427418731791272"><ele>781.0</ele><time>2026-04-11T09:49:40.999Z</time></trkpt><trkpt lat="46.048587263159895" lon="9.427509180812917"><ele>781.0</ele><time>2026-04-11T09:49:42.999Z</time></trkpt><trkpt lat="46.04867668316855" lon="9.427617914580193"><ele>781.0</ele><time>2026-04-11T09:49:44.999Z</time></trkpt><trkpt lat="46.04875397841257" lon="9.427675416014047"><ele>781.0</ele><time>2026-04-11T09:49:46.999Z</time></trkpt><trkpt lat="46.04881850365353" lon="9.427767665545645"><ele>781.0</ele><time>2026-04-11T09:49:48.999Z</time></trkpt><trkpt lat="46.04886988897944" lon="9.427905509913586"><ele>781.0</ele><time>2026-04-11T09:49:51Z</time></trkpt><trkpt lat="46.048890803079516" lon="9.428004167294297"><ele>780.9999999999999</ele><time>2026-04-11T09:49:53Z</time></trkpt><trkpt lat="46.04894844484021" lon="9.428060791397712"><ele>781.0</ele><time>2026-04-11T09:49:57Z</time></trkpt><trkpt lat="46.048895254235745" lon="9.427942271470997"><ele>781.0</ele><time>2026-04-11T09:52:36Z</time></trkpt><trkpt lat="46.048855188927426" lon="9.427868079651176"><ele>781.0</ele><time>2026-04-11T09:52:38Z</time></trkpt><trkpt lat="46.04879717185855" lon="9.427760836348666"><ele>780.9999999999999</ele><time>2026-04-11T09:52:40Z</time></trkpt><trkpt lat="46.048722219114396" lon="9.427668736846297"><ele>781.0</ele><time>2026-04-11T09:52:42Z</time></trkpt><trkpt lat="46.04865523484106" lon="9.427601615802857"><ele>780.9999999999999</ele><time>2026-04-11T09:52:44Z</time></trkpt><trkpt lat="46.04858494678674" lon="9.427535806385507"><ele>781.0</ele><time>2026-04-11T09:52:46Z</time></trkpt><trkpt lat="46.04852732424577" lon="9.427457440204378"><ele>781.0</ele><time>2026-04-11T09:52:48Z</time></trkpt><trkpt lat="46.04844671735073" lon="9.427401926096831"><ele>781.0</ele><time>2026-04-11T09:52:50Z</time></trkpt><trkpt lat="46.0483620435866" lon="9.427374627232377"><ele>780.9999999999999</ele><time>2026-04-11T09:52:52Z</time></trkpt><trkpt lat="46.04827383309909" lon="9.427349370244304"><ele>781.0</ele><time>2026-04-11T09:52:54Z</time></trkpt><trkpt lat="46.04820305776146" lon="9.427295432367924"><ele>781.8333333333333</ele><time>2026-04-11T09:52:56Z</time></trkpt><trkpt lat="46.048138006167584" lon="9.4272144075924"><ele>782.6666666666666</ele><time>2026-04-11T09:52:58Z</time></trkpt><trkpt lat="46.04807611194049" lon="9.427130707228018"><ele>783.5</ele><time>2026-04-11T09:53:00Z</time></trkpt><trkpt lat="46.048012709625446" lon="9.427040324597373"><ele>784.3333333333333</ele><time>2026-04-11T09:53:01.999Z</time></trkpt><trkpt lat="46.047965157750845" lon="9.42692938881213"><ele>785.1666666666666</ele><time>2026-04-11T09:53:03.999Z</time></trkpt><trkpt lat="46.04791063893986" lon="9.426815186087396"><ele>786.0</ele><time>2026-04-11T09:53:05.999Z</time></trkpt><trkpt lat="46.04785350688161" lon="9.426701029499473"><ele>786.0</ele><time>2026-04-11T09:53:07.999Z</time></trkpt><trkpt lat="46.04782699368599" lon="9.426585253790192"><ele>786.0</ele><time>2026-04-11T09:53:09.999Z</time></trkpt><trkpt lat="46.04777977492884" lon="9.42645791756317"><ele>786.0</ele><time>2026-04-11T09:53:11.999Z</time></trkpt><trkpt lat="46.04771803316994" lon="9.426358095316106"><ele>786.0</ele><time>2026-04-11T09:53:13.999Z</time></trkpt><trkpt lat="46.047683508209225" lon="9.426231566037572"><ele>786.0</ele><time>2026-04-11T09:53:16.999Z</time></trkpt><trkpt lat="46.04770769603687" lon="9.426118090387696"><ele>784.5999999999999</ele><time>2026-04-11T09:53:18.999Z</time></trkpt><trkpt lat="46.04772965963381" lon="9.425987427707527"><ele>783.2</ele><time>2026-04-11T09:53:20.999Z</time></trkpt><trkpt lat="46.047773314455114" lon="9.425851020794012"><ele>781.8</ele><time>2026-04-11T09:53:22.999Z</time></trkpt><trkpt lat="46.04778770509622" lon="9.425700909103153"><ele>780.4000000000001</ele><time>2026-04-11T09:53:24.999Z</time></trkpt><trkpt lat="46.04777849372803" lon="9.425552324794893"><ele>779.0</ele><time>2026-04-11T09:53:26.999Z</time></trkpt><trkpt lat="46.04776004009144" lon="9.42538112010693"><ele>777.8000000000001</ele><time>2026-04-11T09:53:28.999Z</time></trkpt><trkpt lat="46.04773181971571" lon="9.425216404559254"><ele>776.6</ele><time>2026-04-11T09:53:30.999Z</time></trkpt><trkpt lat="46.04769062608081" lon="9.425070965973719"><ele>775.4</ele><time>2026-04-11T09:53:32.999Z</time></trkpt><trkpt lat="46.04767036996825" lon="9.424973696651914"><ele>774.2</ele><time>2026-04-11T09:53:34.999Z</time></trkpt><trkpt lat="46.04767176854574" lon="9.424848381491625"><ele>773.0</ele><time>2026-04-11T09:53:36.999Z</time></trkpt><trkpt lat="46.04768659284092" lon="9.424751172562512"><ele>773.0</ele><time>2026-04-11T09:53:38.999Z</time></trkpt><trkpt lat="46.04759194949121" lon="9.424696145412025"><ele>773.0</ele><time>2026-04-11T09:53:40.999Z</time></trkpt><trkpt lat="46.04755673682019" lon="9.424618897738487"><ele>773.0</ele><time>2026-04-11T09:53:41.999Z</time></trkpt><trkpt lat="46.047485773051015" lon="9.42451740640659"><ele>773.0</ele><time>2026-04-11T09:53:43.999Z</time></trkpt><trkpt lat="46.04742384621594" lon="9.42438969898644"><ele>773.0</ele><time>2026-04-11T09:53:45.999Z</time></trkpt><trkpt lat="46.047367053236414" lon="9.424290785010108"><ele>772.4</ele><time>2026-04-11T09:53:47.999Z</time></trkpt><trkpt lat="46.04729005579546" lon="9.424209880384412"><ele>771.8</ele><time>2026-04-11T09:53:49.999Z</time></trkpt><trkpt lat="46.047218116591836" lon="9.424116782140882"><ele>771.2</ele><time>2026-04-11T09:53:51.999Z</time></trkpt><trkpt lat="46.04717347791925" lon="9.423993896876805"><ele>770.6</ele><time>2026-04-11T09:53:53.999Z</time></trkpt><trkpt lat="46.04713995003828" lon="9.423838694716935"><ele>770.0</ele><time>2026-04-11T09:53:55.999Z</time></trkpt><trkpt lat="46.04708880204473" lon="9.423696786302584"><ele>772.0000000000001</ele><time>2026-04-11T09:53:57.999Z</time></trkpt><trkpt lat="46.04706422530143" lon="9.423572021735316"><ele>774.0</ele><time>2026-04-11T09:53:59.999Z</time></trkpt><trkpt lat="46.047032754771614" lon="9.423451664637474"><ele>776.0</ele><time>2026-04-11T09:54:02Z</time></trkpt><trkpt lat="46.04703480255037" lon="9.423336746126283"><ele>778.0</ele><time>2026-04-11T09:54:05Z</time></trkpt><trkpt lat="46.04710660908577" lon="9.42332316154022"><ele>780.0000000000001</ele><time>2026-04-11T09:54:07Z</time></trkpt><trkpt lat="46.047217525548234" lon="9.423277080982059"><ele>782.0</ele><time>2026-04-11T09:54:09Z</time></trkpt><trkpt lat="46.04730878595435" lon="9.42324741508486"><ele>782.0000000000001</ele><time>2026-04-11T09:54:11Z</time></trkpt><trkpt lat="46.04738550144" lon="9.423222029865451"><ele>782.0</ele><time>2026-04-11T09:54:13Z</time></trkpt><trkpt lat="46.047459887609214" lon="9.423184674592125"><ele>782.0</ele><time>2026-04-11T09:54:15Z</time></trkpt><trkpt lat="46.04749301927321" lon="9.42304637566777"><ele>782.0</ele><time>2026-04-11T09:54:17Z</time></trkpt><trkpt lat="46.0475279620299" lon="9.422951512177562"><ele>782.0000000000001</ele><time>2026-04-11T09:54:18Z</time></trkpt><trkpt lat="46.047561545197844" lon="9.422836686109614"><ele>782.0</ele><time>2026-04-11T09:54:19Z</time></trkpt><trkpt lat="46.047617267033395" lon="9.422717455372249"><ele>778.4000000000001</ele><time>2026-04-11T09:54:20Z</time></trkpt><trkpt lat="46.047673765816434" lon="9.422601549857557"><ele>774.8000000000001</ele><time>2026-04-11T09:54:21Z</time></trkpt><trkpt lat="46.04774238239936" lon="9.422496065819667"><ele>771.2</ele><time>2026-04-11T09:54:22Z</time></trkpt><trkpt lat="46.04782242359313" lon="9.422388403479614"><ele>767.6</ele><time>2026-04-11T09:54:23Z</time></trkpt><trkpt lat="46.047934543868024" lon="9.422342956889885"><ele>764.0</ele><time>2026-04-11T09:54:24Z</time></trkpt><trkpt lat="46.04802240906296" lon="9.42224524988998"><ele>761.0</ele><time>2026-04-11T09:54:25Z</time></trkpt><trkpt lat="46.04812325408265" lon="9.422135297484438"><ele>758.0</ele><time>2026-04-11T09:54:26Z</time></trkpt><trkpt lat="46.04821886644015" lon="9.422023684499989"><ele>755.0</ele><time>2026-04-11T09:54:27Z</time></trkpt><trkpt lat="46.04830232146081" lon="9.421920591044358"><ele>752.0</ele><time>2026-04-11T09:54:28Z</time></trkpt><trkpt lat="46.0483847117839" lon="9.421816657344202"><ele>752.0</ele><time>2026-04-11T09:54:29Z</time></trkpt><trkpt lat="46.0484650296823" lon="9.421715334839242"><ele>752.0</ele><time>2026-04-11T09:54:30Z</time></trkpt><trkpt lat="46.048543977733594" lon="9.421622412243945"><ele>752.0</ele><time>2026-04-11T09:54:31Z</time></trkpt><trkpt lat="46.04862867146955" lon="9.421522574291913"><ele>752.0</ele><time>2026-04-11T09:54:32Z</time></trkpt><trkpt lat="46.04870058457958" lon="9.421444305550779"><ele>752.0</ele><time>2026-04-11T09:54:33Z</time></trkpt><trkpt lat="46.048785841890165" lon="9.421362426564714"><ele>751.8</ele><time>2026-04-11T09:54:34Z</time></trkpt><trkpt lat="46.04887017237307" lon="9.421295245983694"><ele>751.6</ele><time>2026-04-11T09:54:35Z</time></trkpt><trkpt lat="46.04896284604449" lon="9.421227269862044"><ele>751.4</ele><time>2026-04-11T09:54:36Z</time></trkpt><trkpt lat="46.049058763192015" lon="9.421132784697665"><ele>751.1999999999999</ele><time>2026-04-11T09:54:37Z</time></trkpt><trkpt lat="46.0491767584527" lon="9.421064795312423"><ele>751.0</ele><time>2026-04-11T09:54:38Z</time></trkpt><trkpt lat="46.04928403479713" lon="9.420985275578989"><ele>751.0</ele><time>2026-04-11T09:54:39Z</time></trkpt><trkpt lat="46.049387626289835" lon="9.420904433919208"><ele>751.0</ele><time>2026-04-11T09:54:40Z</time></trkpt><trkpt lat="46.04947492162168" lon="9.420817589100169"><ele>751.0</ele><time>2026-04-11T09:54:41Z</time></trkpt><trkpt lat="46.04956464651533" lon="9.420747398780243"><ele>751.0</ele><time>2026-04-11T09:54:42Z</time></trkpt><trkpt lat="46.049626548208316" lon="9.420675318436263"><ele>751.0</ele><time>2026-04-11T09:54:43Z</time></trkpt><trkpt lat="46.04966373954655" lon="9.420587366482733"><ele>751.5999999999999</ele><time>2026-04-11T09:54:44Z</time></trkpt><trkpt lat="46.04967512797597" lon="9.420475046807317"><ele>752.2</ele><time>2026-04-11T09:54:45Z</time></trkpt><trkpt lat="46.04963111243177" lon="9.420327711919942"><ele>752.8</ele><time>2026-04-11T09:54:46Z</time></trkpt><trkpt lat="46.04961152468209" lon="9.42018559417543"><ele>753.4000000000001</ele><time>2026-04-11T09:54:47Z</time></trkpt><trkpt lat="46.04962486521781" lon="9.420056979449441"><ele>754.0</ele><time>2026-04-11T09:54:48Z</time></trkpt><trkpt lat="46.04963210387035" lon="9.419940055917886"><ele>754.0</ele><time>2026-04-11T09:54:49Z</time></trkpt><trkpt lat="46.04966867351727" lon="9.419818370870825"><ele>754.0</ele><time>2026-04-11T09:54:50Z</time></trkpt><trkpt lat="46.04971277528419" lon="9.419700182996662"><ele>754.0</ele><time>2026-04-11T09:54:51Z</time></trkpt><trkpt lat="46.049777836566136" lon="9.419623549499033"><ele>754.0</ele><time>2026-04-11T09:54:52Z</time></trkpt><trkpt lat="46.04982848088941" lon="9.41953741620345"><ele>754.0</ele><time>2026-04-11T09:54:53Z</time></trkpt><trkpt lat="46.04987642788756" lon="9.41943050679335"><ele>754.0</ele><time>2026-04-11T09:54:54Z</time></trkpt><trkpt lat="46.049939666261" lon="9.419345817926192"><ele>753.3333333333334</ele><time>2026-04-11T09:54:54.999Z</time></trkpt><trkpt lat="46.049991038163874" lon="9.419250304032852"><ele>752.6666666666667</ele><time>2026-04-11T09:54:55.999Z</time></trkpt><trkpt lat="46.050032905317096" lon="9.419152163107066"><ele>752.0</ele><time>2026-04-11T09:54:56.999Z</time></trkpt><trkpt lat="46.050060651607936" lon="9.41904790928693"><ele>751.3333333333334</ele><time>2026-04-11T09:54:57.999Z</time></trkpt><trkpt lat="46.050078545234356" lon="9.418932300275225"><ele>750.6666666666666</ele><time>2026-04-11T09:54:58.999Z</time></trkpt><trkpt lat="46.05009055106041" lon="9.418801615041149"><ele>750.0</ele><time>2026-04-11T09:54:59.999Z</time></trkpt><trkpt lat="46.050094421134595" lon="9.41867583961027"><ele>750.0</ele><time>2026-04-11T09:55:00.999Z</time></trkpt><trkpt lat="46.05009330272329" lon="9.418540953373688"><ele>750.0</ele><time>2026-04-11T09:55:01.999Z</time></trkpt><trkpt lat="46.050096635799896" lon="9.418423918173294"><ele>750.0</ele><time>2026-04-11T09:55:02.999Z</time></trkpt><trkpt lat="46.05013651006522" lon="9.418337467211952"><ele>750.0</ele><time>2026-04-11T09:55:03.999Z</time></trkpt><trkpt lat="46.050172672183116" lon="9.418211614694336"><ele>750.0</ele><time>2026-04-11T09:55:05.999Z</time></trkpt><trkpt lat="46.05027031893077" lon="9.418145413530434"><ele>750.0</ele><time>2026-04-11T09:55:07.999Z</time></trkpt><trkpt lat="46.05034284022627" lon="9.418111499909077"><ele>750.0</ele><time>2026-04-11T09:55:08.999Z</time></trkpt><trkpt lat="46.0504281439647" lon="9.418082098568135"><ele>750.0</ele><time>2026-04-11T09:55:09.999Z</time></trkpt><trkpt lat="46.05050756763241" lon="9.418047761100437"><ele>750.0</ele><time>2026-04-11T09:55:10.999Z</time></trkpt><trkpt lat="46.05057055913052" lon="9.418006172455803"><ele>750.0</ele><time>2026-04-11T09:55:11.999Z</time></trkpt><trkpt lat="46.050641788057696" lon="9.418019121878347"><ele>750.0</ele><time>2026-04-11T09:55:12.999Z</time></trkpt><trkpt lat="46.05070944865996" lon="9.418033138828399"><ele>750.0</ele><time>2026-04-11T09:55:13.999Z</time></trkpt><trkpt lat="46.05077477525247" lon="9.41800134967367"><ele>750.0</ele><time>2026-04-11T09:55:15.999Z</time></trkpt><trkpt lat="46.05080757381681" lon="9.417919261264732"><ele>749.4</ele><time>2026-04-11T09:55:18.999Z</time></trkpt><trkpt lat="46.05074870756201" lon="9.417970675825051"><ele>748.8</ele><time>2026-04-11T09:55:36.999Z</time></trkpt><trkpt lat="46.050625826571306" lon="9.417909443519948"><ele>748.2</ele><time>2026-04-11T09:55:37.999Z</time></trkpt><trkpt lat="46.05054705846496" lon="9.417907440666193"><ele>747.6</ele><time>2026-04-11T09:55:38.999Z</time></trkpt><trkpt lat="46.05046764222777" lon="9.417864668723862"><ele>747.0</ele><time>2026-04-11T09:55:39.999Z</time></trkpt><trkpt lat="46.05039327821305" lon="9.417796964557176"><ele>747.0</ele><time>2026-04-11T09:55:40.999Z</time></trkpt><trkpt lat="46.05032473769457" lon="9.41771291940119"><ele>747.0</ele><time>2026-04-11T09:55:41.999Z</time></trkpt><trkpt lat="46.05026000823701" lon="9.41762789048222"><ele>747.0</ele><time>2026-04-11T09:55:42.999Z</time></trkpt><trkpt lat="46.05019064644124" lon="9.417543439742705"><ele>747.0</ele><time>2026-04-11T09:55:43.999Z</time></trkpt><trkpt lat="46.05012197839743" lon="9.417460615115694"><ele>747.0</ele><time>2026-04-11T09:55:44.999Z</time></trkpt><trkpt lat="46.0500555907994" lon="9.41738225631883"><ele>747.0</ele><time>2026-04-11T09:55:45.999Z</time></trkpt><trkpt lat="46.049993280519374" lon="9.417305574832238"><ele>752.5</ele><time>2026-04-11T09:55:46.999Z</time></trkpt><trkpt lat="46.04993230055913" lon="9.417228548644685"><ele>758.0</ele><time>2026-04-11T09:55:47.999Z</time></trkpt><trkpt lat="46.04987269039734" lon="9.417153990459935"><ele>763.5</ele><time>2026-04-11T09:55:48.999Z</time></trkpt><trkpt lat="46.049817325246515" lon="9.417086180142029"><ele>769.0</ele><time>2026-04-11T09:55:49.999Z</time></trkpt><trkpt lat="46.04976647867206" lon="9.41699468070638"><ele>774.5</ele><time>2026-04-11T09:55:50.999Z</time></trkpt><trkpt lat="46.049693110259796" lon="9.41693187546906"><ele>780.0</ele><time>2026-04-11T09:55:51.999Z</time></trkpt><trkpt lat="46.04963693096464" lon="9.416847322258402"><ele>782.8333333333334</ele><time>2026-04-11T09:55:52.999Z</time></trkpt><trkpt lat="46.04957289378907" lon="9.416751455339359"><ele>785.6666666666667</ele><time>2026-04-11T09:55:53.999Z</time></trkpt><trkpt lat="46.049541736195465" lon="9.416643428632996"><ele>788.5</ele><time>2026-04-11T09:55:54.999Z</time></trkpt><trkpt lat="46.04952167373606" lon="9.416542818233916"><ele>791.3333333333334</ele><time>2026-04-11T09:55:55.999Z</time></trkpt><trkpt lat="46.04950914984846" lon="9.416447322061568"><ele>794.1666666666667</ele><time>2026-04-11T09:55:56.999Z</time></trkpt><trkpt lat="46.049509687897945" lon="9.416348657888182"><ele>797.0</ele><time>2026-04-11T09:55:57.999Z</time></trkpt><trkpt lat="46.049550308949435" lon="9.416238041863028"><ele>799.3333333333334</ele><time>2026-04-11T09:55:58.999Z</time></trkpt><trkpt lat="46.04960649813673" lon="9.416136097052775"><ele>801.6666666666667</ele><time>2026-04-11T09:55:59.999Z</time></trkpt><trkpt lat="46.049665955773804" lon="9.41604339817933"><ele>804.0</ele><time>2026-04-11T09:56:00.999Z</time></trkpt><trkpt lat="46.04970362204512" lon="9.41593775144597"><ele>806.3333333333333</ele><time>2026-04-11T09:56:01.999Z</time></trkpt><trkpt lat="46.04970605116526" lon="9.415812392485774"><ele>808.6666666666666</ele><time>2026-04-11T09:56:02.999Z</time></trkpt><trkpt lat="46.04966927408485" lon="9.415682988986772"><ele>811.0</ele><time>2026-04-11T09:56:03.999Z</time></trkpt><trkpt lat="46.04961818468067" lon="9.41554319884377"><ele>813.0</ele><time>2026-04-11T09:56:04.999Z</time></trkpt><trkpt lat="46.04956148973615" lon="9.41538920175347"><ele>815.0</ele><time>2026-04-11T09:56:05.999Z</time></trkpt><trkpt lat="46.04950184300207" lon="9.41524596385984"><ele>817.0</ele><time>2026-04-11T09:56:06.999Z</time></trkpt><trkpt lat="46.0494565039685" lon="9.415135059100786"><ele>819.0</ele><time>2026-04-11T09:56:08Z</time></trkpt><trkpt lat="46.0494620501194" lon="9.415006493150907"><ele>821.0</ele><time>2026-04-11T09:56:09Z</time></trkpt><trkpt lat="46.04948053873707" lon="9.414876074566717"><ele>821.0</ele><time>2026-04-11T09:56:10Z</time></trkpt><trkpt lat="46.049532730241445" lon="9.414752980216623"><ele>821.0</ele><time>2026-04-11T09:56:11Z</time></trkpt><trkpt lat="46.04960621711589" lon="9.414634718641247"><ele>821.0</ele><time>2026-04-11T09:56:12Z</time></trkpt><trkpt lat="46.04967037675556" lon="9.414496133864779"><ele>821.0</ele><time>2026-04-11T09:56:13Z</time></trkpt><trkpt lat="46.04973021770171" lon="9.414348821257184"><ele>821.0</ele><time>2026-04-11T09:56:14Z</time></trkpt><trkpt lat="46.049767596439565" lon="9.414176479598336"><ele>824.0</ele><time>2026-04-11T09:56:15Z</time></trkpt><trkpt lat="46.04975887686904" lon="9.413997539761205"><ele>827.0</ele><time>2026-04-11T09:56:16Z</time></trkpt><trkpt lat="46.04973447880816" lon="9.413812502720573"><ele>830.0</ele><time>2026-04-11T09:56:17Z</time></trkpt><trkpt lat="46.04970359909422" lon="9.413665713099476"><ele>833.0</ele><time>2026-04-11T09:56:18Z</time></trkpt><trkpt lat="46.049714618956166" lon="9.413534009673226"><ele>835.0</ele><time>2026-04-11T09:56:19Z</time></trkpt><trkpt lat="46.049730455801814" lon="9.413399675502939"><ele>837.0</ele><time>2026-04-11T09:56:20Z</time></trkpt><trkpt lat="46.04978088456555" lon="9.41327388524146"><ele>839.0</ele><time>2026-04-11T09:56:21Z</time></trkpt><trkpt lat="46.049857297373215" lon="9.413142481004941"><ele>841.0</ele><time>2026-04-11T09:56:22Z</time></trkpt><trkpt lat="46.04994259146919" lon="9.413002753276798"><ele>843.0</ele><time>2026-04-11T09:56:23Z</time></trkpt><trkpt lat="46.05002309745936" lon="9.412840228670072"><ele>834.5</ele><time>2026-04-11T09:56:24Z</time></trkpt><trkpt lat="46.050099399718206" lon="9.412669265958716"><ele>826.0</ele><time>2026-04-11T09:56:25Z</time></trkpt><trkpt lat="46.0501464613059" lon="9.412506542404273"><ele>817.5</ele><time>2026-04-11T09:56:26Z</time></trkpt><trkpt lat="46.05021347736573" lon="9.412361284906419"><ele>809.0</ele><time>2026-04-11T09:56:27Z</time></trkpt><trkpt lat="46.05026395448238" lon="9.412192830217913"><ele>815.0</ele><time>2026-04-11T09:56:28Z</time></trkpt><trkpt lat="46.0503005320049" lon="9.412012862796201"><ele>821.0</ele><time>2026-04-11T09:56:29Z</time></trkpt><trkpt lat="46.05029849259891" lon="9.41182578848997"><ele>827.0</ele><time>2026-04-11T09:56:30Z</time></trkpt><trkpt lat="46.050319692609044" lon="9.41164722098511"><ele>833.0</ele><time>2026-04-11T09:56:31Z</time></trkpt><trkpt lat="46.05032582029534" lon="9.411462344061745"><ele>836.25</ele><time>2026-04-11T09:56:32Z</time></trkpt><trkpt lat="46.050378201210464" lon="9.411297535010185"><ele>839.5</ele><time>2026-04-11T09:56:33Z</time></trkpt><trkpt lat="46.050422794059514" lon="9.411116144248563"><ele>842.75</ele><time>2026-04-11T09:56:34Z</time></trkpt><trkpt lat="46.0504761161858" lon="9.410939377059947"><ele>846.0</ele><time>2026-04-11T09:56:35Z</time></trkpt><trkpt lat="46.05051175011663" lon="9.410759106948392"><ele>846.0</ele><time>2026-04-11T09:56:36Z</time></trkpt><trkpt lat="46.05053636544869" lon="9.410590035901894"><ele>846.0</ele><time>2026-04-11T09:56:37Z</time></trkpt><trkpt lat="46.05053886321223" lon="9.410410743529928"><ele>846.0</ele><time>2026-04-11T09:56:38Z</time></trkpt><trkpt lat="46.05051007705022" lon="9.410237872802231"><ele>846.0</ele><time>2026-04-11T09:56:39Z</time></trkpt><trkpt lat="46.050512867321736" lon="9.410082636911888"><ele>846.1999999999999</ele><time>2026-04-11T09:56:40Z</time></trkpt><trkpt lat="46.05051386181291" lon="9.409959190723207"><ele>846.4</ele><time>2026-04-11T09:56:41Z</time></trkpt><trkpt lat="46.05053663313558" lon="9.409824719014566"><ele>846.6</ele><time>2026-04-11T09:56:42Z</time></trkpt><trkpt lat="46.05062749274843" lon="9.409757754132391"><ele>846.8</ele><time>2026-04-11T09:56:43Z</time></trkpt><trkpt lat="46.050715586284326" lon="9.409675787343279"><ele>847.0</ele><time>2026-04-11T09:56:44Z</time></trkpt><trkpt lat="46.05082731767952" lon="9.409632857503953"><ele>841.2</ele><time>2026-04-11T09:56:45Z</time></trkpt><trkpt lat="46.05092365789575" lon="9.409572100072024"><ele>835.4000000000001</ele><time>2026-04-11T09:56:46Z</time></trkpt><trkpt lat="46.05099953281391" lon="9.409467300213612"><ele>829.5999999999999</ele><time>2026-04-11T09:56:47Z</time></trkpt><trkpt lat="46.05104402389055" lon="9.40932252321821"><ele>823.8</ele><time>2026-04-11T09:56:48Z</time></trkpt><trkpt lat="46.05105861616755" lon="9.409142295594371"><ele>818.0</ele><time>2026-04-11T09:56:49Z</time></trkpt><trkpt lat="46.05105903950434" lon="9.408945957668683"><ele>822.6666666666667</ele><time>2026-04-11T09:56:50Z</time></trkpt><trkpt lat="46.051060511440404" lon="9.408733895767485"><ele>827.3333333333333</ele><time>2026-04-11T09:56:51Z</time></trkpt><trkpt lat="46.051069658474916" lon="9.408509980033802"><ele>832.0</ele><time>2026-04-11T09:56:52Z</time></trkpt><trkpt lat="46.05107862244656" lon="9.408288725306052"><ele>832.0</ele><time>2026-04-11T09:56:53Z</time></trkpt><trkpt lat="46.051119348577785" lon="9.40809978735763"><ele>832.0</ele><time>2026-04-11T09:56:54Z</time></trkpt><trkpt lat="46.05113965717801" lon="9.407914323142531"><ele>832.0</ele><time>2026-04-11T09:56:55Z</time></trkpt><trkpt lat="46.051199545843836" lon="9.407734449416852"><ele>832.0</ele><time>2026-04-11T09:56:56Z</time></trkpt><trkpt lat="46.05125357161801" lon="9.40755156874683"><ele>834.0</ele><time>2026-04-11T09:56:57Z</time></trkpt><trkpt lat="46.05130978185861" lon="9.40740337470476"><ele>836.0</ele><time>2026-04-11T09:56:57.999Z</time></trkpt><trkpt lat="46.05135572019803" lon="9.407266332990162"><ele>838.0</ele><time>2026-04-11T09:56:58.999Z</time></trkpt><trkpt lat="46.05139232646653" lon="9.407148146656837"><ele>840.0</ele><time>2026-04-11T09:56:59.999Z</time></trkpt><trkpt lat="46.05141763195387" lon="9.407053630652097"><ele>842.0</ele><time>2026-04-11T09:57:00.999Z</time></trkpt><trkpt lat="46.051434815547125" lon="9.40689005994217"><ele>842.0</ele><time>2026-04-11T09:57:02.999Z</time></trkpt><trkpt lat="46.05136586830246" lon="9.406814846338987"><ele>842.0</ele><time>2026-04-11T09:57:03.999Z</time></trkpt><trkpt lat="46.05127767782494" lon="9.406869486642483"><ele>842.0</ele><time>2026-04-11T09:57:04.999Z</time></trkpt><trkpt lat="46.05122104873797" lon="9.406943027154576"><ele>842.0</ele><time>2026-04-11T09:57:05.999Z</time></trkpt><trkpt lat="46.05116865162583" lon="9.407072320214425"><ele>842.0</ele><time>2026-04-11T09:57:06.999Z</time></trkpt><trkpt lat="46.05111895772171" lon="9.4072251954107"><ele>842.0</ele><time>2026-04-11T09:57:07.999Z</time></trkpt><trkpt lat="46.05106498795291" lon="9.407405131071465"><ele>842.0</ele><time>2026-04-11T09:57:08.999Z</time></trkpt><trkpt lat="46.051003059357534" lon="9.407604829751094"><ele>842.0</ele><time>2026-04-11T09:57:09.999Z</time></trkpt><trkpt lat="46.05094180702129" lon="9.407775753587721"><ele>842.0</ele><time>2026-04-11T09:57:10.999Z</time></trkpt><trkpt lat="46.05086826974889" lon="9.407899449445356"><ele>849.0</ele><time>2026-04-11T09:57:11.999Z</time></trkpt><trkpt lat="46.050762853036844" lon="9.407999969039457"><ele>856.0</ele><time>2026-04-11T09:57:12.999Z</time></trkpt><trkpt lat="46.050644882739036" lon="9.40808165780413"><ele>863.0</ele><time>2026-04-11T09:57:13.999Z</time></trkpt><trkpt lat="46.05053617453978" lon="9.408162498170931"><ele>870.0</ele><time>2026-04-11T09:57:14.999Z</time></trkpt><trkpt lat="46.0504620856862" lon="9.408262019456544"><ele>870.0</ele><time>2026-04-11T09:57:15.999Z</time></trkpt><trkpt lat="46.050426724815615" lon="9.408403008056785"><ele>870.0</ele><time>2026-04-11T09:57:16.999Z</time></trkpt><trkpt lat="46.050425454124195" lon="9.40856865555144"><ele>870.0</ele><time>2026-04-11T09:57:17.999Z</time></trkpt><trkpt lat="46.05043891311103" lon="9.408733395857901"><ele>870.0</ele><time>2026-04-11T09:57:18.999Z</time></trkpt><trkpt lat="46.0504406735798" lon="9.408865014782142"><ele>870.0</ele><time>2026-04-11T09:57:19.999Z</time></trkpt><trkpt lat="46.050386786855064" lon="9.408973015009822"><ele>870.0</ele><time>2026-04-11T09:57:21.999Z</time></trkpt><trkpt lat="46.05029110928712" lon="9.408903536479766"><ele>870.0</ele><time>2026-04-11T09:57:23.999Z</time></trkpt><trkpt lat="46.050286138528335" lon="9.408804173843732"><ele>870.0</ele><time>2026-04-11T09:57:24.999Z</time></trkpt><trkpt lat="46.05030429155686" lon="9.408656740184714"><ele>870.0</ele><time>2026-04-11T09:57:25.999Z</time></trkpt><trkpt lat="46.05032126414084" lon="9.408462585837155"><ele>870.0</ele><time>2026-04-11T09:57:26.999Z</time></trkpt><trkpt lat="46.05031191915084" lon="9.408265950691213"><ele>870.0</ele><time>2026-04-11T09:57:27.999Z</time></trkpt><trkpt lat="46.05030483581799" lon="9.408109550689929"><ele>870.0</ele><time>2026-04-11T09:57:28.999Z</time></trkpt><trkpt lat="46.050375873848445" lon="9.408016708014063"><ele>870.0</ele><time>2026-04-11T09:57:29.999Z</time></trkpt><trkpt lat="46.050427209531684" lon="9.407878516238702"><ele>870.0</ele><time>2026-04-11T09:57:30.999Z</time></trkpt><trkpt lat="46.05046856808603" lon="9.407728144767443"><ele>870.0</ele><time>2026-04-11T09:57:31.999Z</time></trkpt><trkpt lat="46.05050707901048" lon="9.407564987620772"><ele>872.25</ele><time>2026-04-11T09:57:32.999Z</time></trkpt><trkpt lat="46.05052326504185" lon="9.407383198202218"><ele>874.5</ele><time>2026-04-11T09:57:33.999Z</time></trkpt><trkpt lat="46.050528092612446" lon="9.407187280084235"><ele>876.75</ele><time>2026-04-11T09:57:34.999Z</time></trkpt><trkpt lat="46.05052727156494" lon="9.406989931796394"><ele>879.0</ele><time>2026-04-11T09:57:35.999Z</time></trkpt><trkpt lat="46.05053824600927" lon="9.406783116299858"><ele>881.0</ele><time>2026-04-11T09:57:36.999Z</time></trkpt><trkpt lat="46.05055044154115" lon="9.40657514917271"><ele>883.0</ele><time>2026-04-11T09:57:37.999Z</time></trkpt><trkpt lat="46.05056526670559" lon="9.40636391118934"><ele>885.0</ele><time>2026-04-11T09:57:38.999Z</time></trkpt><trkpt lat="46.050581822077795" lon="9.4061517152707"><ele>887.0</ele><time>2026-04-11T09:57:39.999Z</time></trkpt><trkpt lat="46.05062186126562" lon="9.405937119793506"><ele>890.25</ele><time>2026-04-11T09:57:40.999Z</time></trkpt><trkpt lat="46.05064351253443" lon="9.405702170908237"><ele>893.5</ele><time>2026-04-11T09:57:41.999Z</time></trkpt><trkpt lat="46.05066114565" lon="9.405498119247264"><ele>896.75</ele><time>2026-04-11T09:57:42.999Z</time></trkpt><trkpt lat="46.05066036743946" lon="9.405317753535574"><ele>900.0</ele><time>2026-04-11T09:57:43.999Z</time></trkpt><trkpt lat="46.05068321496459" lon="9.40513833190681"><ele>902.0</ele><time>2026-04-11T09:57:44.999Z</time></trkpt><trkpt lat="46.05069483427096" lon="9.404950852472274"><ele>904.0</ele><time>2026-04-11T09:57:45.999Z</time></trkpt><trkpt lat="46.05071487049294" lon="9.404761403418581"><ele>906.0</ele><time>2026-04-11T09:57:46.999Z</time></trkpt><trkpt lat="46.05073274717296" lon="9.40457597542836"><ele>908.0</ele><time>2026-04-11T09:57:47.999Z</time></trkpt><trkpt lat="46.05075235910658" lon="9.404379810646173"><ele>910.0</ele><time>2026-04-11T09:57:48.999Z</time></trkpt><trkpt lat="46.050770475364764" lon="9.404185028821725"><ele>912.0</ele><time>2026-04-11T09:57:49.999Z</time></trkpt><trkpt lat="46.050789505084694" lon="9.403986671944287"><ele>914.0</ele><time>2026-04-11T09:57:50.999Z</time></trkpt><trkpt lat="46.050813643119376" lon="9.403786125518844"><ele>916.0</ele><time>2026-04-11T09:57:51.999Z</time></trkpt><trkpt lat="46.050848968183026" lon="9.403602115847118"><ele>911.75</ele><time>2026-04-11T09:57:52.999Z</time></trkpt><trkpt lat="46.05088648104263" lon="9.403410009888523"><ele>907.5</ele><time>2026-04-11T09:57:53.999Z</time></trkpt><trkpt lat="46.050921106101285" lon="9.403210359886716"><ele>903.25</ele><time>2026-04-11T09:57:54.999Z</time></trkpt><trkpt lat="46.05095381790188" lon="9.403000954075416"><ele>899.0</ele><time>2026-04-11T09:57:55.999Z</time></trkpt><trkpt lat="46.050989162287834" lon="9.402794369974936"><ele>899.0</ele><time>2026-04-11T09:57:56.999Z</time></trkpt><trkpt lat="46.05102577487223" lon="9.40259057821778"><ele>899.0</ele><time>2026-04-11T09:57:57.999Z</time></trkpt><trkpt lat="46.051056569369095" lon="9.402411317641155"><ele>899.0</ele><time>2026-04-11T09:57:58.999Z</time></trkpt><trkpt lat="46.051084312292666" lon="9.402253443856548"><ele>899.0</ele><time>2026-04-11T09:57:59.999Z</time></trkpt><trkpt lat="46.051139146059846" lon="9.402112878443523"><ele>901.25</ele><time>2026-04-11T09:58:00.999Z</time></trkpt><trkpt lat="46.05120984995488" lon="9.401987434520066"><ele>903.5</ele><time>2026-04-11T09:58:01.999Z</time></trkpt><trkpt lat="46.05130460517495" lon="9.401869977396721"><ele>905.75</ele><time>2026-04-11T09:58:02.999Z</time></trkpt><trkpt lat="46.05140784799492" lon="9.401764006402047"><ele>908.0</ele><time>2026-04-11T09:58:03.999Z</time></trkpt><trkpt lat="46.05153457318703" lon="9.401698755169363"><ele>906.2</ele><time>2026-04-11T09:58:04.999Z</time></trkpt><trkpt lat="46.051644603623956" lon="9.401625462589186"><ele>904.4</ele><time>2026-04-11T09:58:05.999Z</time></trkpt><trkpt lat="46.05172981217879" lon="9.401539469164884"><ele>902.6000000000001</ele><time>2026-04-11T09:58:06.999Z</time></trkpt><trkpt lat="46.05179742615451" lon="9.401424120232875"><ele>900.8000000000001</ele><time>2026-04-11T09:58:07.999Z</time></trkpt><trkpt lat="46.0518367511305" lon="9.401281142278801"><ele>899.0</ele><time>2026-04-11T09:58:08.999Z</time></trkpt><trkpt lat="46.0518497779411" lon="9.401122329841465"><ele>899.0</ele><time>2026-04-11T09:58:09.999Z</time></trkpt><trkpt lat="46.05182876718431" lon="9.400950982995694"><ele>899.0</ele><time>2026-04-11T09:58:10.999Z</time></trkpt><trkpt lat="46.05179709833791" lon="9.40077486171139"><ele>899.0</ele><time>2026-04-11T09:58:11.999Z</time></trkpt><trkpt lat="46.05176532248378" lon="9.400596543606834"><ele>899.0</ele><time>2026-04-11T09:58:12.999Z</time></trkpt><trkpt lat="46.05173329652448" lon="9.40041639360756"><ele>900.6</ele><time>2026-04-11T09:58:14Z</time></trkpt><trkpt lat="46.0517028249423" lon="9.400266209479602"><ele>902.2</ele><time>2026-04-11T09:58:15Z</time></trkpt><trkpt lat="46.05166864561623" lon="9.400131255022558"><ele>903.8000000000001</ele><time>2026-04-11T09:58:16Z</time></trkpt><trkpt lat="46.05161543383067" lon="9.400004373379577"><ele>905.4000000000001</ele><time>2026-04-11T09:58:17Z</time></trkpt><trkpt lat="46.051539362898886" lon="9.399886679111958"><ele>907.0</ele><time>2026-04-11T09:58:18Z</time></trkpt><trkpt lat="46.05144216483815" lon="9.399789285964196"><ele>908.25</ele><time>2026-04-11T09:58:19Z</time></trkpt><trkpt lat="46.05133254721956" lon="9.39971052223914"><ele>909.5</ele><time>2026-04-11T09:58:20Z</time></trkpt><trkpt lat="46.051214775751575" lon="9.399638370880975"><ele>910.75</ele><time>2026-04-11T09:58:21Z</time></trkpt><trkpt lat="46.05110459246943" lon="9.399564124852716"><ele>912.0</ele><time>2026-04-11T09:58:22Z</time></trkpt><trkpt lat="46.05101171025363" lon="9.399484699348058"><ele>912.0</ele><time>2026-04-11T09:58:23Z</time></trkpt><trkpt lat="46.050922893820555" lon="9.399387017574554"><ele>912.0</ele><time>2026-04-11T09:58:24Z</time></trkpt><trkpt lat="46.050844642050485" lon="9.399267676968988"><ele>912.0</ele><time>2026-04-11T09:58:25Z</time></trkpt><trkpt lat="46.05078473549627" lon="9.399128125062825"><ele>912.0</ele><time>2026-04-11T09:58:26Z</time></trkpt><trkpt lat="46.05073167674423" lon="9.398979845354367"><ele>919.5</ele><time>2026-04-11T09:58:27Z</time></trkpt><trkpt lat="46.05071328597384" lon="9.398806925099128"><ele>927.0</ele><time>2026-04-11T09:58:28Z</time></trkpt><trkpt lat="46.05067272057256" lon="9.398639422067655"><ele>934.5</ele><time>2026-04-11T09:58:29Z</time></trkpt><trkpt lat="46.05065024317064" lon="9.398450656253692"><ele>942.0</ele><time>2026-04-11T09:58:30Z</time></trkpt><trkpt lat="46.05062247830065" lon="9.398278268777302"><ele>942.0</ele><time>2026-04-11T09:58:31Z</time></trkpt><trkpt lat="46.050597819398305" lon="9.398107408542126"><ele>942.0</ele><time>2026-04-11T09:58:32Z</time></trkpt><trkpt lat="46.05057401783104" lon="9.397934991573281"><ele>942.0</ele><time>2026-04-11T09:58:33Z</time></trkpt><trkpt lat="46.050546605056844" lon="9.397756563456268"><ele>942.0</ele><time>2026-04-11T09:58:34Z</time></trkpt><trkpt lat="46.05052079112046" lon="9.397579008270414"><ele>938.25</ele><time>2026-04-11T09:58:35Z</time></trkpt><trkpt lat="46.05049187882171" lon="9.397407464122155"><ele>934.5</ele><time>2026-04-11T09:58:36Z</time></trkpt><trkpt lat="46.05045236999299" lon="9.397252108534913"><ele>930.75</ele><time>2026-04-11T09:58:37Z</time></trkpt><trkpt lat="46.050379496508405" lon="9.397114864290113"><ele>927.0</ele><time>2026-04-11T09:58:38Z</time></trkpt><trkpt lat="46.050275146027936" lon="9.39699530799279"><ele>928.3333333333333</ele><time>2026-04-11T09:58:39Z</time></trkpt><trkpt lat="46.05014710623114" lon="9.396911272343274"><ele>929.6666666666666</ele><time>2026-04-11T09:58:40Z</time></trkpt><trkpt lat="46.0499997112469" lon="9.396845909782455"><ele>931.0</ele><time>2026-04-11T09:58:41Z</time></trkpt><trkpt lat="46.04983978583513" lon="9.396773308856861"><ele>931.0</ele><time>2026-04-11T09:58:42Z</time></trkpt><trkpt lat="46.04969358688219" lon="9.396701525582856"><ele>931.0</ele><time>2026-04-11T09:58:43Z</time></trkpt><trkpt lat="46.049569603694614" lon="9.396635523066143"><ele>931.0</ele><time>2026-04-11T09:58:44Z</time></trkpt><trkpt lat="46.049447735263804" lon="9.396574725394942"><ele>931.0</ele><time>2026-04-11T09:58:45Z</time></trkpt><trkpt lat="46.049323066827334" lon="9.396512422062688"><ele>931.0</ele><time>2026-04-11T09:58:46Z</time></trkpt><trkpt lat="46.049196263511064" lon="9.396445913428252"><ele>931.0</ele><time>2026-04-11T09:58:47Z</time></trkpt><trkpt lat="46.04906851997411" lon="9.396384032137155"><ele>931.0</ele><time>2026-04-11T09:58:47.999Z</time></trkpt><trkpt lat="46.04894026374088" lon="9.396320875189915"><ele>931.0</ele><time>2026-04-11T09:58:48.999Z</time></trkpt><trkpt lat="46.048819875504925" lon="9.396264564294096"><ele>930.0</ele><time>2026-04-11T09:58:49.999Z</time></trkpt><trkpt lat="46.048707668546015" lon="9.396212450882382"><ele>928.9999999999999</ele><time>2026-04-11T09:58:50.999Z</time></trkpt><trkpt lat="46.04861720909847" lon="9.396165678932066"><ele>927.9999999999999</ele><time>2026-04-11T09:58:51.999Z</time></trkpt><trkpt lat="46.04854736774564" lon="9.39611876215983"><ele>927.0</ele><time>2026-04-11T09:58:52.999Z</time></trkpt><trkpt lat="46.04846265001721" lon="9.396048438684042"><ele>926.0</ele><time>2026-04-11T09:58:54.999Z</time></trkpt><trkpt lat="46.048387412609145" lon="9.395995244880176"><ele>926.0000000000001</ele><time>2026-04-11T09:58:56.999Z</time></trkpt><trkpt lat="46.04832484192724" lon="9.39596773540301"><ele>926.0</ele><time>2026-04-11T09:59:17.999Z</time></trkpt><trkpt lat="46.048237376052754" lon="9.395950665913764"><ele>926.0</ele><time>2026-04-11T09:59:21.999Z</time></trkpt><trkpt lat="46.04813018738819" lon="9.395933685180276"><ele>926.0</ele><time>2026-04-11T09:59:23.999Z</time></trkpt><trkpt lat="46.04804543438224" lon="9.395888103095041"><ele>926.0000000000001</ele><time>2026-04-11T09:59:24.999Z</time></trkpt><trkpt lat="46.0479596270144" lon="9.395843110901101"><ele>926.0</ele><time>2026-04-11T09:59:25.999Z</time></trkpt><trkpt lat="46.04786485638952" lon="9.395790551503197"><ele>926.8333333333334</ele><time>2026-04-11T09:59:26.999Z</time></trkpt><trkpt lat="46.04778178270373" lon="9.395735649455936"><ele>927.6666666666667</ele><time>2026-04-11T09:59:27.999Z</time></trkpt><trkpt lat="46.04770732594175" lon="9.39567332730202"><ele>928.5</ele><time>2026-04-11T09:59:28.999Z</time></trkpt><trkpt lat="46.04763872180486" lon="9.395611333875317"><ele>929.3333333333333</ele><time>2026-04-11T09:59:29.999Z</time></trkpt><trkpt lat="46.04757635012335" lon="9.395546542833483"><ele>930.1666666666666</ele><time>2026-04-11T09:59:30.999Z</time></trkpt><trkpt lat="46.04751804345219" lon="9.395476501337722"><ele>931.0</ele><time>2026-04-11T09:59:31.999Z</time></trkpt><trkpt lat="46.047438552245985" lon="9.395371767204718"><ele>927.5999999999999</ele><time>2026-04-11T09:59:33.999Z</time></trkpt><trkpt lat="46.047393483005514" lon="9.39527655761481"><ele>924.1999999999999</ele><time>2026-04-11T09:59:35.999Z</time></trkpt><trkpt lat="46.04727527564905" lon="9.39536948786692"><ele>920.8000000000001</ele><time>2026-04-11T09:59:36.999Z</time></trkpt><trkpt lat="46.047202953303255" lon="9.395386461382438"><ele>917.4000000000001</ele><time>2026-04-11T09:59:37.999Z</time></trkpt><trkpt lat="46.04711529049774" lon="9.395388085376736"><ele>914.0</ele><time>2026-04-11T09:59:38.999Z</time></trkpt><trkpt lat="46.047018827268346" lon="9.395386556295268"><ele>914.0</ele><time>2026-04-11T09:59:39.999Z</time></trkpt><trkpt lat="46.04690014162664" lon="9.39538284267532"><ele>914.0000000000001</ele><time>2026-04-11T09:59:40.999Z</time></trkpt><trkpt lat="46.04678206734121" lon="9.395390835532114"><ele>914.0000000000001</ele><time>2026-04-11T09:59:41.999Z</time></trkpt><trkpt lat="46.04667560945434" lon="9.39540687319729"><ele>914.0</ele><time>2026-04-11T09:59:42.999Z</time></trkpt><trkpt lat="46.04657521593153" lon="9.395427839921801"><ele>914.0</ele><time>2026-04-11T09:59:43.999Z</time></trkpt><trkpt lat="46.04647261750963" lon="9.395466149025893"><ele>919.0000000000001</ele><time>2026-04-11T09:59:44.999Z</time></trkpt><trkpt lat="46.04637933121873" lon="9.395515506860544"><ele>924.0</ele><time>2026-04-11T09:59:45.999Z</time></trkpt><trkpt lat="46.046293667216325" lon="9.395530881281985"><ele>929.0</ele><time>2026-04-11T09:59:46.999Z</time></trkpt><trkpt lat="46.04621424659804" lon="9.395569245690774"><ele>934.0</ele><time>2026-04-11T09:59:47.999Z</time></trkpt><trkpt lat="46.046133771020216" lon="9.395582781690022"><ele>939.0000000000001</ele><time>2026-04-11T09:59:48.999Z</time></trkpt><trkpt lat="46.046048153697335" lon="9.395577501170788"><ele>944.0</ele><time>2026-04-11T09:59:49.999Z</time></trkpt><trkpt lat="46.04596863492422" lon="9.395601054079808"><ele>944.0000000000001</ele><time>2026-04-11T09:59:50.999Z</time></trkpt><trkpt lat="46.04588465468553" lon="9.395592585167163"><ele>944.0</ele><time>2026-04-11T09:59:51.999Z</time></trkpt><trkpt lat="46.04580352501003" lon="9.395590293570812"><ele>944.0</ele><time>2026-04-11T09:59:52.999Z</time></trkpt><trkpt lat="46.04571975722518" lon="9.39559306274336"><ele>944.0</ele><time>2026-04-11T09:59:53.999Z</time></trkpt><trkpt lat="46.045631848630855" lon="9.395597522926002"><ele>944.0000000000001</ele><time>2026-04-11T09:59:54.999Z</time></trkpt><trkpt lat="46.04555598733071" lon="9.395602979864826"><ele>944.0</ele><time>2026-04-11T09:59:55.999Z</time></trkpt><trkpt lat="46.04543755964193" lon="9.395617548252785"><ele>944.8000000000001</ele><time>2026-04-11T09:59:57.999Z</time></trkpt><trkpt lat="46.045345483349976" lon="9.395656535988024"><ele>945.6000000000001</ele><time>2026-04-11T09:59:59.999Z</time></trkpt><trkpt lat="46.045252253905296" lon="9.395677361120264"><ele>946.4</ele><time>2026-04-11T10:00:01.999Z</time></trkpt><trkpt lat="46.04513157557488" lon="9.395691583215559"><ele>947.2</ele><time>2026-04-11T10:00:03.999Z</time></trkpt><trkpt lat="46.04506571889454" lon="9.395687923138798"><ele>948.0</ele><time>2026-04-11T10:00:04.999Z</time></trkpt><trkpt lat="46.04498906856041" lon="9.395683666523796"><ele>949.6666666666666</ele><time>2026-04-11T10:00:05.999Z</time></trkpt><trkpt lat="46.04491168260767" lon="9.395673241525753"><ele>951.3333333333333</ele><time>2026-04-11T10:00:06.999Z</time></trkpt><trkpt lat="46.04483501038652" lon="9.395662033342"><ele>953.0</ele><time>2026-04-11T10:00:07.999Z</time></trkpt><trkpt lat="46.04475240681614" lon="9.395656466644992"><ele>954.6666666666666</ele><time>2026-04-11T10:00:08.999Z</time></trkpt><trkpt lat="46.044656142921696" lon="9.395654412439338"><ele>956.3333333333333</ele><time>2026-04-11T10:00:09.999Z</time></trkpt><trkpt lat="46.04454291802059" lon="9.395642440378987"><ele>958.0</ele><time>2026-04-11T10:00:10.999Z</time></trkpt><trkpt lat="46.0444201696499" lon="9.395629598258683"><ele>958.0</ele><time>2026-04-11T10:00:11.999Z</time></trkpt><trkpt lat="46.04429463196297" lon="9.395620272366811"><ele>958.0</ele><time>2026-04-11T10:00:12.999Z</time></trkpt><trkpt lat="46.04415505755834" lon="9.395613614074264"><ele>958.0</ele><time>2026-04-11T10:00:13.999Z</time></trkpt><trkpt lat="46.04402916447134" lon="9.395615766762363"><ele>958.0</ele><time>2026-04-11T10:00:14.999Z</time></trkpt><trkpt lat="46.04392040527678" lon="9.395618310892186"><ele>961.25</ele><time>2026-04-11T10:00:15.999Z</time></trkpt><trkpt lat="46.04381521423095" lon="9.395619146365481"><ele>964.5</ele><time>2026-04-11T10:00:16.999Z</time></trkpt><trkpt lat="46.04370360490994" lon="9.395622201310923"><ele>967.75</ele><time>2026-04-11T10:00:17.999Z</time></trkpt><trkpt lat="46.04358472665946" lon="9.395630622498402"><ele>971.0</ele><time>2026-04-11T10:00:18.999Z</time></trkpt><trkpt lat="46.04346095633708" lon="9.395638870912741"><ele>971.0</ele><time>2026-04-11T10:00:20Z</time></trkpt><trkpt lat="46.043333736808705" lon="9.395647174494064"><ele>971.0</ele><time>2026-04-11T10:00:21Z</time></trkpt><trkpt lat="46.04320483371894" lon="9.39564904991865"><ele>971.0</ele><time>2026-04-11T10:00:22Z</time></trkpt><trkpt lat="46.04307504051968" lon="9.395642696105044"><ele>971.0</ele><time>2026-04-11T10:00:23Z</time></trkpt><trkpt lat="46.0429484967337" lon="9.395625333911042"><ele>974.0</ele><time>2026-04-11T10:00:24Z</time></trkpt><trkpt lat="46.04281926663918" lon="9.39561415176561"><ele>977.0</ele><time>2026-04-11T10:00:25Z</time></trkpt><trkpt lat="46.04268908657675" lon="9.395619645043878"><ele>980.0</ele><time>2026-04-11T10:00:26Z</time></trkpt><trkpt lat="46.04255238220435" lon="9.395634436022005"><ele>983.0</ele><time>2026-04-11T10:00:27Z</time></trkpt><trkpt lat="46.04241929972942" lon="9.395617732032797"><ele>981.75</ele><time>2026-04-11T10:00:28Z</time></trkpt><trkpt lat="46.04228172802196" lon="9.395568276399128"><ele>980.5</ele><time>2026-04-11T10:00:29Z</time></trkpt><trkpt lat="46.04214511060924" lon="9.395503241514612"><ele>979.25</ele><time>2026-04-11T10:00:30Z</time></trkpt><trkpt lat="46.04200322437767" lon="9.395455388161245"><ele>978.0</ele><time>2026-04-11T10:00:31Z</time></trkpt><trkpt lat="46.041863704299615" lon="9.395377415825545"><ele>978.0</ele><time>2026-04-11T10:00:32Z</time></trkpt><trkpt lat="46.041722735468426" lon="9.395307366710298"><ele>978.0</ele><time>2026-04-11T10:00:33Z</time></trkpt><trkpt lat="46.04157763743525" lon="9.395248804824378"><ele>978.0</ele><time>2026-04-11T10:00:34Z</time></trkpt><trkpt lat="46.04143668175753" lon="9.395156898724574"><ele>987.6666666666667</ele><time>2026-04-11T10:00:35Z</time></trkpt><trkpt lat="46.04129385394416" lon="9.395076992368466"><ele>997.3333333333334</ele><time>2026-04-11T10:00:36Z</time></trkpt><trkpt lat="46.04114561195236" lon="9.394997984720321"><ele>1007.0</ele><time>2026-04-11T10:00:37Z</time></trkpt><trkpt lat="46.040989746862564" lon="9.394920324218793"><ele>1007.0</ele><time>2026-04-11T10:00:38Z</time></trkpt><trkpt lat="46.040835996422324" lon="9.394850853551759"><ele>1007.0</ele><time>2026-04-11T10:00:39Z</time></trkpt><trkpt lat="46.04068102375551" lon="9.394790634289118"><ele>1007.0</ele><time>2026-04-11T10:00:40Z</time></trkpt><trkpt lat="46.040528187309874" lon="9.394748621663696"><ele>1002.75</ele><time>2026-04-11T10:00:41Z</time></trkpt><trkpt lat="46.04039799518313" lon="9.394715584855176"><ele>998.5</ele><time>2026-04-11T10:00:42Z</time></trkpt><trkpt lat="46.040275221677135" lon="9.394663152598273"><ele>994.25</ele><time>2026-04-11T10:00:43Z</time></trkpt><trkpt lat="46.04016334187277" lon="9.394597596543779"><ele>990.0</ele><time>2026-04-11T10:00:44Z</time></trkpt><trkpt lat="46.0400546657039" lon="9.394543299953712"><ele>992.5</ele><time>2026-04-11T10:00:45Z</time></trkpt><trkpt lat="46.039933349766464" lon="9.394514225878938"><ele>995.0</ele><time>2026-04-11T10:00:46Z</time></trkpt><trkpt lat="46.03979781051047" lon="9.394511283814277"><ele>997.5</ele><time>2026-04-11T10:00:47Z</time></trkpt><trkpt lat="46.0396548934102" lon="9.39452656721036"><ele>1000.0</ele><time>2026-04-11T10:00:48Z</time></trkpt><trkpt lat="46.03950704166606" lon="9.394548841604813"><ele>1000.0</ele><time>2026-04-11T10:00:49Z</time></trkpt><trkpt lat="46.03935847568874" lon="9.394574249764934"><ele>1000.0</ele><time>2026-04-11T10:00:50Z</time></trkpt><trkpt lat="46.03920181703377" lon="9.39459247231778"><ele>1000.0</ele><time>2026-04-11T10:00:51Z</time></trkpt><trkpt lat="46.03904272667847" lon="9.394607074688869"><ele>1001.75</ele><time>2026-04-11T10:00:52Z</time></trkpt><trkpt lat="46.03890212699775" lon="9.394619763523602"><ele>1003.5</ele><time>2026-04-11T10:00:53Z</time></trkpt><trkpt lat="46.03876700416524" lon="9.394630657598618"><ele>1005.25</ele><time>2026-04-11T10:00:54Z</time></trkpt><trkpt lat="46.038646364615644" lon="9.394636218918954"><ele>1007.0</ele><time>2026-04-11T10:00:55Z</time></trkpt><trkpt lat="46.0385383957313" lon="9.394617748306146"><ele>1007.0000000000001</ele><time>2026-04-11T10:00:55.999Z</time></trkpt><trkpt lat="46.03844209365421" lon="9.394616244161677"><ele>1007.0</ele><time>2026-04-11T10:00:56.999Z</time></trkpt><trkpt lat="46.03835674672461" lon="9.394617405370564"><ele>1007.0</ele><time>2026-04-11T10:00:57.999Z</time></trkpt><trkpt lat="46.038292009964344" lon="9.394619228035745"><ele>1007.0</ele><time>2026-04-11T10:00:58.999Z</time></trkpt><trkpt lat="46.03820434142144" lon="9.394616326521112"><ele>1007.0000000000001</ele><time>2026-04-11T10:01:00.999Z</time></trkpt><trkpt lat="46.03815608792968" lon="9.394713510781898"><ele>1007.0</ele><time>2026-04-11T10:01:02.999Z</time></trkpt><trkpt lat="46.03822926385666" lon="9.394854113212263"><ele>1013.4000000000001</ele><time>2026-04-11T10:01:04.999Z</time></trkpt><trkpt lat="46.03830797403077" lon="9.394899787618035"><ele>1019.8000000000001</ele><time>2026-04-11T10:01:05.999Z</time></trkpt><trkpt lat="46.038401343447546" lon="9.394932990354102"><ele>1026.2</ele><time>2026-04-11T10:01:06.999Z</time></trkpt><trkpt lat="46.0385175864527" lon="9.39497186090729"><ele>1032.6000000000001</ele><time>2026-04-11T10:01:07.999Z</time></trkpt><trkpt lat="46.03864274704987" lon="9.395012010988115"><ele>1039.0</ele><time>2026-04-11T10:01:08.999Z</time></trkpt><trkpt lat="46.03875919215335" lon="9.395048838773683"><ele>1039.0</ele><time>2026-04-11T10:01:09.999Z</time></trkpt><trkpt lat="46.03887543570492" lon="9.395092903070791"><ele>1039.0</ele><time>2026-04-11T10:01:10.999Z</time></trkpt><trkpt lat="46.03899354352718" lon="9.39514083073801"><ele>1039.0</ele><time>2026-04-11T10:01:11.999Z</time></trkpt><trkpt lat="46.03911227093786" lon="9.395185536254628"><ele>1039.0</ele><time>2026-04-11T10:01:12.999Z</time></trkpt><trkpt lat="46.03922980409701" lon="9.395224582537624"><ele>1038.6000000000001</ele><time>2026-04-11T10:01:13.999Z</time></trkpt><trkpt lat="46.039340537169835" lon="9.395264075540258"><ele>1038.2</ele><time>2026-04-11T10:01:14.999Z</time></trkpt><trkpt lat="46.03944872100782" lon="9.39529384793494"><ele>1037.8000000000002</ele><time>2026-04-11T10:01:15.999Z</time></trkpt><trkpt lat="46.03954980560855" lon="9.395339475196858"><ele>1037.4</ele><time>2026-04-11T10:01:16.999Z</time></trkpt><trkpt lat="46.03963351126169" lon="9.39539430165343"><ele>1037.0</ele><time>2026-04-11T10:01:17.999Z</time></trkpt><trkpt lat="46.03969844499499" lon="9.39542302931713"><ele>1037.0</ele><time>2026-04-11T10:01:18.999Z</time></trkpt><trkpt lat="46.03980612136087" lon="9.395474544037496"><ele>1037.0</ele><time>2026-04-11T10:01:20.999Z</time></trkpt><trkpt lat="46.03983334276386" lon="9.395576154116622"><ele>1037.0</ele><time>2026-04-11T10:01:23.999Z</time></trkpt><trkpt lat="46.03973692328842" lon="9.395616005727767"><ele>1037.0</ele><time>2026-04-11T10:01:25.999Z</time></trkpt><trkpt lat="46.03966636559542" lon="9.395584685309089"><ele>1037.0</ele><time>2026-04-11T10:01:26.999Z</time></trkpt><trkpt lat="46.03959073302778" lon="9.395531229675205"><ele>1037.0</ele><time>2026-04-11T10:01:27.999Z</time></trkpt><trkpt lat="46.03950082429296" lon="9.395522100982713"><ele>1037.0</ele><time>2026-04-11T10:01:28.999Z</time></trkpt><trkpt lat="46.03940111086146" lon="9.395494907319742"><ele>1037.0</ele><time>2026-04-11T10:01:29.999Z</time></trkpt><trkpt lat="46.03928943520781" lon="9.395493372842036"><ele>1037.0</ele><time>2026-04-11T10:01:30.999Z</time></trkpt><trkpt lat="46.039169882830436" lon="9.395501873103697"><ele>1037.0</ele><time>2026-04-11T10:01:31.999Z</time></trkpt><trkpt lat="46.039060661109346" lon="9.395515344696012"><ele>1037.0</ele><time>2026-04-11T10:01:32.999Z</time></trkpt><trkpt lat="46.03895050076431" lon="9.395521122463702"><ele>1047.25</ele><time>2026-04-11T10:01:33.999Z</time></trkpt><trkpt lat="46.03883443164967" lon="9.395529785765293"><ele>1057.5</ele><time>2026-04-11T10:01:34.999Z</time></trkpt><trkpt lat="46.03872281175628" lon="9.395546661852132"><ele>1067.75</ele><time>2026-04-11T10:01:35.999Z</time></trkpt><trkpt lat="46.0386050380232" lon="9.395547156443445"><ele>1078.0</ele><time>2026-04-11T10:01:36.999Z</time></trkpt><trkpt lat="46.03848969002803" lon="9.395566604467366"><ele>1078.0</ele><time>2026-04-11T10:01:37.999Z</time></trkpt><trkpt lat="46.03837956602827" lon="9.39559168284295"><ele>1078.0</ele><time>2026-04-11T10:01:38.999Z</time></trkpt><trkpt lat="46.03827112286687" lon="9.395588022454518"><ele>1078.0</ele><time>2026-04-11T10:01:39.999Z</time></trkpt><trkpt lat="46.03816357278147" lon="9.395592303826083"><ele>1078.0</ele><time>2026-04-11T10:01:40.999Z</time></trkpt><trkpt lat="46.038065062498625" lon="9.395583874188702"><ele>1078.0</ele><time>2026-04-11T10:01:41.999Z</time></trkpt><trkpt lat="46.03797191621018" lon="9.395570613123908"><ele>1076.4</ele><time>2026-04-11T10:01:42.999Z</time></trkpt><trkpt lat="46.03789486915783" lon="9.395545748041648"><ele>1074.8</ele><time>2026-04-11T10:01:43.999Z</time></trkpt><trkpt lat="46.037783490634155" lon="9.395528459847773"><ele>1073.2</ele><time>2026-04-11T10:01:45.999Z</time></trkpt><trkpt lat="46.0376925630276" lon="9.395550934690464"><ele>1071.6</ele><time>2026-04-11T10:01:47.999Z</time></trkpt><trkpt lat="46.03768023228464" lon="9.395713657654918"><ele>1070.0</ele><time>2026-04-11T10:01:49.999Z</time></trkpt><trkpt lat="46.03771352053818" lon="9.395801792754964"><ele>1070.0</ele><time>2026-04-11T10:01:50.999Z</time></trkpt><trkpt lat="46.03778350570741" lon="9.395855882047888"><ele>1070.0</ele><time>2026-04-11T10:01:51.999Z</time></trkpt><trkpt lat="46.03787745211924" lon="9.395880434218652"><ele>1070.0</ele><time>2026-04-11T10:01:52.999Z</time></trkpt><trkpt lat="46.03798287261389" lon="9.395892504782848"><ele>1070.0</ele><time>2026-04-11T10:01:53.999Z</time></trkpt><trkpt lat="46.038091197316504" lon="9.39592743153158"><ele>1070.0</ele><time>2026-04-11T10:01:54.999Z</time></trkpt><trkpt lat="46.03820573810579" lon="9.395969851354522"><ele>1072.0</ele><time>2026-04-11T10:01:55.999Z</time></trkpt><trkpt lat="46.03833002740442" lon="9.396001147566706"><ele>1074.0</ele><time>2026-04-11T10:01:56.999Z</time></trkpt><trkpt lat="46.03846257547524" lon="9.396024159451624"><ele>1076.0</ele><time>2026-04-11T10:01:57.999Z</time></trkpt><trkpt lat="46.03858851947648" lon="9.39608372061183"><ele>1078.0</ele><time>2026-04-11T10:01:58.999Z</time></trkpt><trkpt lat="46.038710567226595" lon="9.396121023773828"><ele>1078.0</ele><time>2026-04-11T10:01:59.999Z</time></trkpt><trkpt lat="46.038840759755416" lon="9.396161637105013"><ele>1078.0</ele><time>2026-04-11T10:02:00.999Z</time></trkpt><trkpt lat="46.03897099382669" lon="9.396202263383225"><ele>1078.0</ele><time>2026-04-11T10:02:01.999Z</time></trkpt><trkpt lat="46.039102117015496" lon="9.396243168033065"><ele>1078.0</ele><time>2026-04-11T10:02:02.999Z</time></trkpt><trkpt lat="46.03921288982121" lon="9.396275122962509"><ele>1077.3333333333333</ele><time>2026-04-11T10:02:03.999Z</time></trkpt><trkpt lat="46.03930543900678" lon="9.396307173843658"><ele>1076.6666666666665</ele><time>2026-04-11T10:02:04.999Z</time></trkpt><trkpt lat="46.039378462934266" lon="9.396336357109957"><ele>1076.0</ele><time>2026-04-11T10:02:05.999Z</time></trkpt><trkpt lat="46.03944383263356" lon="9.396363362083882"><ele>1075.3333333333333</ele><time>2026-04-11T10:02:06.999Z</time></trkpt><trkpt lat="46.039543666472795" lon="9.396407242402605"><ele>1074.6666666666667</ele><time>2026-04-11T10:02:08.999Z</time></trkpt><trkpt lat="46.03949050602999" lon="9.396499710459853"><ele>1074.0</ele><time>2026-04-11T10:02:13.999Z</time></trkpt><trkpt lat="46.0394262121854" lon="9.396490739236576"><ele>1080.8</ele><time>2026-04-11T10:02:14.999Z</time></trkpt><trkpt lat="46.03934598442238" lon="9.396441268194216"><ele>1087.6000000000001</ele><time>2026-04-11T10:02:15.999Z</time></trkpt><trkpt lat="46.03925271486381" lon="9.396443701121772"><ele>1094.4</ele><time>2026-04-11T10:02:16.999Z</time></trkpt><trkpt lat="46.039150405634814" lon="9.39641946356458"><ele>1101.2</ele><time>2026-04-11T10:02:17.999Z</time></trkpt><trkpt lat="46.03902994684244" lon="9.396425585173718"><ele>1108.0</ele><time>2026-04-11T10:02:18.999Z</time></trkpt><trkpt lat="46.03891447374108" lon="9.39643789637247"><ele>1110.25</ele><time>2026-04-11T10:02:19.999Z</time></trkpt><trkpt lat="46.03879216666746" lon="9.396463302410421"><ele>1112.5</ele><time>2026-04-11T10:02:20.999Z</time></trkpt><trkpt lat="46.03866911317776" lon="9.396487367050245"><ele>1114.75</ele><time>2026-04-11T10:02:21.999Z</time></trkpt><trkpt lat="46.03854120768385" lon="9.396518627662207"><ele>1117.0</ele><time>2026-04-11T10:02:22.999Z</time></trkpt><trkpt lat="46.038409521100526" lon="9.396548569747335"><ele>1117.25</ele><time>2026-04-11T10:02:23.999Z</time></trkpt><trkpt lat="46.03827978708539" lon="9.39653924895645"><ele>1117.5</ele><time>2026-04-11T10:02:24.999Z</time></trkpt><trkpt lat="46.03815498956402" lon="9.396542455057046"><ele>1117.75</ele><time>2026-04-11T10:02:26Z</time></trkpt><trkpt lat="46.03804149992995" lon="9.396563354882343"><ele>1118.0</ele><time>2026-04-11T10:02:27Z</time></trkpt><trkpt lat="46.03792613582417" lon="9.396555194926433"><ele>1118.0</ele><time>2026-04-11T10:02:28Z</time></trkpt><trkpt lat="46.03780540273991" lon="9.396586610569749"><ele>1118.0</ele><time>2026-04-11T10:02:29Z</time></trkpt><trkpt lat="46.03768577563697" lon="9.396594970079107"><ele>1118.0</ele><time>2026-04-11T10:02:30Z</time></trkpt><trkpt lat="46.037558834544434" lon="9.39663340472509"><ele>1118.0</ele><time>2026-04-11T10:02:31Z</time></trkpt><trkpt lat="46.03744039415798" lon="9.39666684007779"><ele>1114.8</ele><time>2026-04-11T10:02:32Z</time></trkpt><trkpt lat="46.03732435815479" lon="9.396683794635722"><ele>1111.6</ele><time>2026-04-11T10:02:33Z</time></trkpt><trkpt lat="46.03723435666466" lon="9.396720804480612"><ele>1108.4</ele><time>2026-04-11T10:02:34Z</time></trkpt><trkpt lat="46.037157570816525" lon="9.396757601419875"><ele>1105.2</ele><time>2026-04-11T10:02:35Z</time></trkpt><trkpt lat="46.037061064337884" lon="9.396825804242646"><ele>1102.0</ele><time>2026-04-11T10:02:37Z</time></trkpt><trkpt lat="46.037017946049644" lon="9.396915316162254"><ele>1102.0</ele><time>2026-04-11T10:02:39Z</time></trkpt><trkpt lat="46.0370366624464" lon="9.39702078487952"><ele>1102.0</ele><time>2026-04-11T10:02:41Z</time></trkpt><trkpt lat="46.03714727585319" lon="9.397070580104055"><ele>1102.0</ele><time>2026-04-11T10:02:43Z</time></trkpt><trkpt lat="46.03722087720545" lon="9.397048765428199"><ele>1102.0</ele><time>2026-04-11T10:02:44Z</time></trkpt><trkpt lat="46.03731247736264" lon="9.39701128346521"><ele>1102.0</ele><time>2026-04-11T10:02:45Z</time></trkpt><trkpt lat="46.03741936680492" lon="9.396988037757676"><ele>1106.0</ele><time>2026-04-11T10:02:46Z</time></trkpt><trkpt lat="46.03754015020033" lon="9.396987669931578"><ele>1110.0</ele><time>2026-04-11T10:02:47Z</time></trkpt><trkpt lat="46.03766418973163" lon="9.397011676323498"><ele>1114.0</ele><time>2026-04-11T10:02:48Z</time></trkpt><trkpt lat="46.03778661454393" lon="9.39704652626167"><ele>1118.0</ele><time>2026-04-11T10:02:49Z</time></trkpt><trkpt lat="46.037917072725435" lon="9.397084448192906"><ele>1118.0</ele><time>2026-04-11T10:02:50Z</time></trkpt><trkpt lat="46.0380552635603" lon="9.397124918437386"><ele>1118.0</ele><time>2026-04-11T10:02:51Z</time></trkpt><trkpt lat="46.038195357543245" lon="9.397174815898982"><ele>1118.0</ele><time>2026-04-11T10:02:52Z</time></trkpt><trkpt lat="46.03833302554397" lon="9.39723618323942"><ele>1118.0</ele><time>2026-04-11T10:02:53Z</time></trkpt><trkpt lat="46.03847224889307" lon="9.397276662570103"><ele>1128.75</ele><time>2026-04-11T10:02:54Z</time></trkpt><trkpt lat="46.038610891466305" lon="9.397275012127807"><ele>1139.5</ele><time>2026-04-11T10:02:55Z</time></trkpt><trkpt lat="46.038749701504756" lon="9.397297580912939"><ele>1150.25</ele><time>2026-04-11T10:02:56Z</time></trkpt><trkpt lat="46.03887505397176" lon="9.39729110108673"><ele>1161.0</ele><time>2026-04-11T10:02:57Z</time></trkpt><trkpt lat="46.038984044594606" lon="9.397314168922465"><ele>1161.0</ele><time>2026-04-11T10:02:58Z</time></trkpt><trkpt lat="46.03909055918462" lon="9.397344831680543"><ele>1161.0</ele><time>2026-04-11T10:02:59Z</time></trkpt><trkpt lat="46.03917933145007" lon="9.397362359444685"><ele>1161.0</ele><time>2026-04-11T10:03:00Z</time></trkpt><trkpt lat="46.03924977364016" lon="9.39736192468023"><ele>1161.0</ele><time>2026-04-11T10:03:01Z</time></trkpt><trkpt lat="46.039341381306386" lon="9.397403616215975"><ele>1161.0</ele><time>2026-04-11T10:03:02.999Z</time></trkpt><trkpt lat="46.03937759253308" lon="9.39748334555939"><ele>1161.0</ele><time>2026-04-11T10:03:05.999Z</time></trkpt><trkpt lat="46.0392518511573" lon="9.397512583756837"><ele>1161.0</ele><time>2026-04-11T10:03:07.999Z</time></trkpt><trkpt lat="46.03915540969246" lon="9.39751070213793"><ele>1161.0</ele><time>2026-04-11T10:03:08.999Z</time></trkpt><trkpt lat="46.03905102575484" lon="9.397479256059894"><ele>1161.0</ele><time>2026-04-11T10:03:09.999Z</time></trkpt><trkpt lat="46.038933515347765" lon="9.397506907549602"><ele>1161.0</ele><time>2026-04-11T10:03:10.999Z</time></trkpt><trkpt lat="46.03880876539908" lon="9.39750702996625"><ele>1161.0</ele><time>2026-04-11T10:03:11.999Z</time></trkpt><trkpt lat="46.03869222636097" lon="9.397550019038407"><ele>1161.0</ele><time>2026-04-11T10:03:12.999Z</time></trkpt><trkpt lat="46.03856757603517" lon="9.397605147708255"><ele>1161.0</ele><time>2026-04-11T10:03:13.999Z</time></trkpt><trkpt lat="46.038443629197985" lon="9.39763631562175"><ele>1161.0</ele><time>2026-04-11T10:03:14.999Z</time></trkpt><trkpt lat="46.03831530801186" lon="9.39767000006466"><ele>1161.0</ele><time>2026-04-11T10:03:15.999Z</time></trkpt><trkpt lat="46.038188469115354" lon="9.397717742446348"><ele>1160.0</ele><time>2026-04-11T10:03:16.999Z</time></trkpt><trkpt lat="46.03805229946703" lon="9.3977070673991"><ele>1159.0</ele><time>2026-04-11T10:03:17.999Z</time></trkpt><trkpt lat="46.03792885431973" lon="9.397729078996631"><ele>1158.0</ele><time>2026-04-11T10:03:18.999Z</time></trkpt><trkpt lat="46.037798228207855" lon="9.397780661454949"><ele>1157.0</ele><time>2026-04-11T10:03:19.999Z</time></trkpt><trkpt lat="46.03767721049181" lon="9.397803320593084"><ele>1157.0</ele><time>2026-04-11T10:03:20.999Z</time></trkpt><trkpt lat="46.037567318808094" lon="9.397817554339262"><ele>1157.0</ele><time>2026-04-11T10:03:21.999Z</time></trkpt><trkpt lat="46.03745874984624" lon="9.397844145587584"><ele>1157.0</ele><time>2026-04-11T10:03:22.999Z</time></trkpt><trkpt lat="46.03735544588524" lon="9.397841840287425"><ele>1157.0</ele><time>2026-04-11T10:03:23.999Z</time></trkpt><trkpt lat="46.0372627634423" lon="9.397867228844374"><ele>1157.0</ele><time>2026-04-11T10:03:24.999Z</time></trkpt><trkpt lat="46.037187091226585" lon="9.397896480983954"><ele>1154.4</ele><time>2026-04-11T10:03:25.999Z</time></trkpt><trkpt lat="46.03710422059018" lon="9.397949940825374"><ele>1151.8000000000002</ele><time>2026-04-11T10:03:27.999Z</time></trkpt><trkpt lat="46.03713506995864" lon="9.398114504748861"><ele>1149.2</ele><time>2026-04-11T10:03:29.999Z</time></trkpt><trkpt lat="46.03721301286737" lon="9.398131809345934"><ele>1146.6000000000001</ele><time>2026-04-11T10:03:30.999Z</time></trkpt><trkpt lat="46.03728679453328" lon="9.398143292353708"><ele>1144.0</ele><time>2026-04-11T10:03:31.999Z</time></trkpt><trkpt lat="46.03738587774051" lon="9.398149595736554"><ele>1156.25</ele><time>2026-04-11T10:03:32.999Z</time></trkpt><trkpt lat="46.037507614650664" lon="9.398149595731988"><ele>1168.5</ele><time>2026-04-11T10:03:33.999Z</time></trkpt><trkpt lat="46.037648880327424" lon="9.39815577748146"><ele>1180.75</ele><time>2026-04-11T10:03:34.999Z</time></trkpt><trkpt lat="46.037799958906376" lon="9.398162738752045"><ele>1193.0</ele><time>2026-04-11T10:03:35.999Z</time></trkpt><trkpt lat="46.03795687610644" lon="9.39817303254273"><ele>1193.0</ele><time>2026-04-11T10:03:36.999Z</time></trkpt><trkpt lat="46.038106002183845" lon="9.398187404782682"><ele>1193.0</ele><time>2026-04-11T10:03:37.999Z</time></trkpt><trkpt lat="46.03821295865267" lon="9.398204299086103"><ele>1193.0</ele><time>2026-04-11T10:03:38.999Z</time></trkpt><trkpt lat="46.0383020943122" lon="9.398224736524174"><ele>1193.0</ele><time>2026-04-11T10:03:39.999Z</time></trkpt><trkpt lat="46.03841765614143" lon="9.398257779523389"><ele>1193.0</ele><time>2026-04-11T10:03:41.999Z</time></trkpt><trkpt lat="46.038382623964544" lon="9.398414582139939"><ele>1193.0</ele><time>2026-04-11T10:03:45.999Z</time></trkpt><trkpt lat="46.038208067430055" lon="9.398299622860119"><ele>1193.0</ele><time>2026-04-11T10:03:47.999Z</time></trkpt><trkpt lat="46.0381049013125" lon="9.398289048246284"><ele>1193.0</ele><time>2026-04-11T10:03:48.999Z</time></trkpt><trkpt lat="46.03798208007965" lon="9.398306795247603"><ele>1193.0</ele><time>2026-04-11T10:03:49.999Z</time></trkpt><trkpt lat="46.037839011423934" lon="9.398383983093558"><ele>1193.0</ele><time>2026-04-11T10:03:50.999Z</time></trkpt><trkpt lat="46.037686993859964" lon="9.398477423852984"><ele>1193.0</ele><time>2026-04-11T10:03:51.999Z</time></trkpt><trkpt lat="46.037537941389516" lon="9.398552303038619"><ele>1191.2</ele><time>2026-04-11T10:03:52.999Z</time></trkpt><trkpt lat="46.03741167966964" lon="9.398601905339538"><ele>1189.4</ele><time>2026-04-11T10:03:53.999Z</time></trkpt><trkpt lat="46.03729287232678" lon="9.398575589257234"><ele>1187.6000000000001</ele><time>2026-04-11T10:03:54.999Z</time></trkpt><trkpt lat="46.03720840406714" lon="9.39861631726712"><ele>1185.8</ele><time>2026-04-11T10:03:55.999Z</time></trkpt><trkpt lat="46.037117082952896" lon="9.398665926932738"><ele>1184.0</ele><time>2026-04-11T10:03:57.999Z</time></trkpt><trkpt lat="46.03713467616925" lon="9.398821884009886"><ele>1186.25</ele><time>2026-04-11T10:03:59.999Z</time></trkpt><trkpt lat="46.03727595868375" lon="9.398857967194793"><ele>1188.5</ele><time>2026-04-11T10:04:01.999Z</time></trkpt><trkpt lat="46.03737201070697" lon="9.398852655098336"><ele>1190.75</ele><time>2026-04-11T10:04:02.999Z</time></trkpt><trkpt lat="46.037486955835696" lon="9.398842296843501"><ele>1193.0</ele><time>2026-04-11T10:04:03.999Z</time></trkpt><trkpt lat="46.03761798309846" lon="9.398827251328676"><ele>1193.0</ele><time>2026-04-11T10:04:04.999Z</time></trkpt><trkpt lat="46.03776905015018" lon="9.398812592307962"><ele>1193.0</ele><time>2026-04-11T10:04:05.999Z</time></trkpt><trkpt lat="46.037921394962794" lon="9.39880337675014"><ele>1193.0</ele><time>2026-04-11T10:04:06.999Z</time></trkpt><trkpt lat="46.03809333646678" lon="9.398793362374331"><ele>1193.0</ele><time>2026-04-11T10:04:07.999Z</time></trkpt><trkpt lat="46.03824668096526" lon="9.398784431157226"><ele>1193.0</ele><time>2026-04-11T10:04:08.999Z</time></trkpt><trkpt lat="46.03838326437843" lon="9.398762593889602"><ele>1193.0</ele><time>2026-04-11T10:04:09.999Z</time></trkpt><trkpt lat="46.0385158105409" lon="9.398745424917626"><ele>1193.0</ele><time>2026-04-11T10:04:10.999Z</time></trkpt><trkpt lat="46.03864294536283" lon="9.39870946197135"><ele>1195.0</ele><time>2026-04-11T10:04:11.999Z</time></trkpt><trkpt lat="46.03875287206013" lon="9.398671506576527"><ele>1197.0</ele><time>2026-04-11T10:04:12.999Z</time></trkpt><trkpt lat="46.038843205949526" lon="9.398639813927824"><ele>1199.0</ele><time>2026-04-11T10:04:13.999Z</time></trkpt><trkpt lat="46.03891547051759" lon="9.398602041599164"><ele>1201.0</ele><time>2026-04-11T10:04:14.999Z</time></trkpt><trkpt lat="46.03900942039081" lon="9.398625413896587"><ele>1203.0</ele><time>2026-04-11T10:04:16.999Z</time></trkpt><trkpt lat="46.03895099484114" lon="9.39874721085382"><ele>1203.0</ele><time>2026-04-11T10:04:19.999Z</time></trkpt><trkpt lat="46.03888519769539" lon="9.398803081975387"><ele>1203.0</ele><time>2026-04-11T10:04:20.999Z</time></trkpt><trkpt lat="46.03878509971403" lon="9.398825907962177"><ele>1203.0</ele><time>2026-04-11T10:04:21.999Z</time></trkpt><trkpt lat="46.03866566709395" lon="9.398877854024306"><ele>1203.0</ele><time>2026-04-11T10:04:22.999Z</time></trkpt><trkpt lat="46.03854135314965" lon="9.39894938413961"><ele>1203.0</ele><time>2026-04-11T10:04:23.999Z</time></trkpt><trkpt lat="46.03841708624023" lon="9.398976928087281"><ele>1209.25</ele><time>2026-04-11T10:04:24.999Z</time></trkpt><trkpt lat="46.038295084362886" lon="9.399033046455099"><ele>1215.5</ele><time>2026-04-11T10:04:25.999Z</time></trkpt><trkpt lat="46.038177655305205" lon="9.399092164683447"><ele>1221.75</ele><time>2026-04-11T10:04:26.999Z</time></trkpt><trkpt lat="46.038058024855566" lon="9.399153435138214"><ele>1228.0</ele><time>2026-04-11T10:04:27.999Z</time></trkpt><trkpt lat="46.037941154046926" lon="9.399215870461376"><ele>1228.0</ele><time>2026-04-11T10:04:28.999Z</time></trkpt><trkpt lat="46.03782377040709" lon="9.399279432393884"><ele>1228.0</ele><time>2026-04-11T10:04:29.999Z</time></trkpt><trkpt lat="46.03772046790052" lon="9.399335369730418"><ele>1228.0</ele><time>2026-04-11T10:04:30.999Z</time></trkpt><trkpt lat="46.03761445746412" lon="9.39939313593051"><ele>1228.0</ele><time>2026-04-11T10:04:32Z</time></trkpt><trkpt lat="46.03752041382686" lon="9.399447424460336"><ele>1227.5</ele><time>2026-04-11T10:04:33Z</time></trkpt><trkpt lat="46.03744347045478" lon="9.399493904920835"><ele>1227.0</ele><time>2026-04-11T10:04:34Z</time></trkpt><trkpt lat="46.037369971411074" lon="9.399534277150723"><ele>1226.5</ele><time>2026-04-11T10:04:35Z</time></trkpt><trkpt lat="46.037267542041604" lon="9.399604930624097"><ele>1226.0</ele><time>2026-04-11T10:04:37Z</time></trkpt><trkpt lat="46.03720476645893" lon="9.399697354288909"><ele>1225.5</ele><time>2026-04-11T10:04:39Z</time></trkpt><trkpt lat="46.037239689795086" lon="9.39980637711505"><ele>1225.0</ele><time>2026-04-11T10:04:40Z</time></trkpt><trkpt lat="46.03730100474123" lon="9.399838210445964"><ele>1225.6</ele><time>2026-04-11T10:04:41Z</time></trkpt><trkpt lat="46.0373664875895" lon="9.399824141672235"><ele>1226.2</ele><time>2026-04-11T10:04:42Z</time></trkpt><trkpt lat="46.03744488218294" lon="9.39978477564323"><ele>1226.8</ele><time>2026-04-11T10:04:43Z</time></trkpt><trkpt lat="46.03756945384562" lon="9.399730391349522"><ele>1227.4</ele><time>2026-04-11T10:04:44Z</time></trkpt><trkpt lat="46.03769462476437" lon="9.399694610771277"><ele>1228.0</ele><time>2026-04-11T10:04:45Z</time></trkpt><trkpt lat="46.03782560883005" lon="9.399665069929645"><ele>1228.0</ele><time>2026-04-11T10:04:46Z</time></trkpt><trkpt lat="46.037933652689624" lon="9.399621564584931"><ele>1228.0</ele><time>2026-04-11T10:04:47Z</time></trkpt><trkpt lat="46.03803468019106" lon="9.39958721247554"><ele>1228.0</ele><time>2026-04-11T10:04:48Z</time></trkpt><trkpt lat="46.038111538244564" lon="9.399574520988415"><ele>1228.0</ele><time>2026-04-11T10:04:49Z</time></trkpt><trkpt lat="46.03820175834424" lon="9.399525716871812"><ele>1228.0</ele><time>2026-04-11T10:04:51Z</time></trkpt><trkpt lat="46.03821551817197" lon="9.399624569823265"><ele>1236.8</ele><time>2026-04-11T10:04:53Z</time></trkpt><trkpt lat="46.03810245559658" lon="9.399675501382687"><ele>1245.6</ele><time>2026-04-11T10:04:55Z</time></trkpt><trkpt lat="46.03801824532793" lon="9.399723503914027"><ele>1254.4</ele><time>2026-04-11T10:04:56Z</time></trkpt><trkpt lat="46.037916799090524" lon="9.39977476829572"><ele>1263.2</ele><time>2026-04-11T10:04:57Z</time></trkpt><trkpt lat="46.03779345210738" lon="9.399837099602443"><ele>1272.0</ele><time>2026-04-11T10:04:58Z</time></trkpt><trkpt lat="46.037670986878" lon="9.399895656179538"><ele>1272.0</ele><time>2026-04-11T10:04:59Z</time></trkpt><trkpt lat="46.037574684514404" lon="9.399943032654388"><ele>1272.0</ele><time>2026-04-11T10:05:00Z</time></trkpt><trkpt lat="46.037498338421784" lon="9.399983782490798"><ele>1272.0</ele><time>2026-04-11T10:05:01Z</time></trkpt><trkpt lat="46.037440798035" lon="9.40002126834185"><ele>1272.0</ele><time>2026-04-11T10:05:02Z</time></trkpt><trkpt lat="46.0373716348383" lon="9.400110933389017"><ele>1272.0</ele><time>2026-04-11T10:05:04Z</time></trkpt><trkpt lat="46.03739405077266" lon="9.400209403167711"><ele>1272.0</ele><time>2026-04-11T10:05:06Z</time></trkpt><trkpt lat="46.03752973818849" lon="9.400195428195177"><ele>1272.0</ele><time>2026-04-11T10:05:08Z</time></trkpt><trkpt lat="46.037617389933075" lon="9.400173106627363"><ele>1272.0</ele><time>2026-04-11T10:05:09Z</time></trkpt><trkpt lat="46.03772295979604" lon="9.400127221193117"><ele>1272.0</ele><time>2026-04-11T10:05:10Z</time></trkpt><trkpt lat="46.03783315022104" lon="9.400077935498572"><ele>1272.0</ele><time>2026-04-11T10:05:11Z</time></trkpt><trkpt lat="46.037942587285855" lon="9.400044916135876"><ele>1272.0</ele><time>2026-04-11T10:05:12Z</time></trkpt><trkpt lat="46.03805166291185" lon="9.400027027637638"><ele>1272.0</ele><time>2026-04-11T10:05:12.999Z</time></trkpt><trkpt lat="46.0381581151669" lon="9.399987960586113"><ele>1272.0</ele><time>2026-04-11T10:05:13.999Z</time></trkpt><trkpt lat="46.03827009767236" lon="9.399937204820109"><ele>1272.0</ele><time>2026-04-11T10:05:14.999Z</time></trkpt><trkpt lat="46.038388828979585" lon="9.399879982730496"><ele>1272.0</ele><time>2026-04-11T10:05:15.999Z</time></trkpt><trkpt lat="46.03850915183048" lon="9.399822738123168"><ele>1276.8</ele><time>2026-04-11T10:05:16.999Z</time></trkpt><trkpt lat="46.03862942843361" lon="9.399774035701787"><ele>1281.6</ele><time>2026-04-11T10:05:17.999Z</time></trkpt><trkpt lat="46.038739319064355" lon="9.399733574747751"><ele>1286.3999999999999</ele><time>2026-04-11T10:05:18.999Z</time></trkpt><trkpt lat="46.038830510805525" lon="9.399703453841111"><ele>1291.2</ele><time>2026-04-11T10:05:19.999Z</time></trkpt><trkpt lat="46.03891960290031" lon="9.399675807143229"><ele>1296.0</ele><time>2026-04-11T10:05:20.999Z</time></trkpt><trkpt lat="46.039006648511666" lon="9.399649940839641"><ele>1298.8333333333333</ele><time>2026-04-11T10:05:21.999Z</time></trkpt><trkpt lat="46.039086463111055" lon="9.399652435950133"><ele>1301.6666666666667</ele><time>2026-04-11T10:05:22.999Z</time></trkpt><trkpt lat="46.03917131172329" lon="9.399660101332174"><ele>1304.5</ele><time>2026-04-11T10:05:23.999Z</time></trkpt><trkpt lat="46.039233875137214" lon="9.399729419545505"><ele>1307.3333333333335</ele><time>2026-04-11T10:05:24.999Z</time></trkpt><trkpt lat="46.039274755293086" lon="9.399829749524395"><ele>1310.1666666666667</ele><time>2026-04-11T10:05:25.999Z</time></trkpt><trkpt lat="46.0392869279912" lon="9.399961057417162"><ele>1313.0</ele><time>2026-04-11T10:05:26.999Z</time></trkpt><trkpt lat="46.039279551142776" lon="9.400136485144767"><ele>1313.0</ele><time>2026-04-11T10:05:27.999Z</time></trkpt><trkpt lat="46.039260605866325" lon="9.40031876139948"><ele>1313.0</ele><time>2026-04-11T10:05:28.999Z</time></trkpt><trkpt lat="46.039231897071794" lon="9.400518122778713"><ele>1313.0</ele><time>2026-04-11T10:05:29.999Z</time></trkpt><trkpt lat="46.03918197124225" lon="9.40072409445456"><ele>1313.0</ele><time>2026-04-11T10:05:30.999Z</time></trkpt><trkpt lat="46.03914530889856" lon="9.400936148414727"><ele>1319.5</ele><time>2026-04-11T10:05:31.999Z</time></trkpt><trkpt lat="46.0391132950015" lon="9.401119979271753"><ele>1326.0</ele><time>2026-04-11T10:05:32.999Z</time></trkpt><trkpt lat="46.03908121067745" lon="9.401295959279626"><ele>1332.5</ele><time>2026-04-11T10:05:33.999Z</time></trkpt><trkpt lat="46.039047416103664" lon="9.40147607363431"><ele>1339.0</ele><time>2026-04-11T10:05:34.999Z</time></trkpt><trkpt lat="46.03901174827184" lon="9.401622690864682"><ele>1341.8000000000002</ele><time>2026-04-11T10:05:35.999Z</time></trkpt><trkpt lat="46.03896000325303" lon="9.401766211121691"><ele>1344.6000000000001</ele><time>2026-04-11T10:05:36.999Z</time></trkpt><trkpt lat="46.038902510614484" lon="9.40189832854588"><ele>1347.4</ele><time>2026-04-11T10:05:37.999Z</time></trkpt><trkpt lat="46.03885554645068" lon="9.4020226268228"><ele>1350.2</ele><time>2026-04-11T10:05:38.999Z</time></trkpt><trkpt lat="46.03882360107891" lon="9.402129848368729"><ele>1353.0</ele><time>2026-04-11T10:05:39.999Z</time></trkpt><trkpt lat="46.03880294280676" lon="9.402292715918877"><ele>1355.0</ele><time>2026-04-11T10:05:41.999Z</time></trkpt><trkpt lat="46.03883904595028" lon="9.402395014692333"><ele>1357.0</ele><time>2026-04-11T10:05:42.999Z</time></trkpt><trkpt lat="46.038919282740494" lon="9.402435976453596"><ele>1359.0</ele><time>2026-04-11T10:05:43.999Z</time></trkpt><trkpt lat="46.03898542392658" lon="9.402506631465759"><ele>1361.0</ele><time>2026-04-11T10:05:44.999Z</time></trkpt><trkpt lat="46.03908235258422" lon="9.402567146345145"><ele>1363.0</ele><time>2026-04-11T10:05:45.999Z</time></trkpt><trkpt lat="46.03918468452004" lon="9.402605361712196"><ele>1357.25</ele><time>2026-04-11T10:05:46.999Z</time></trkpt><trkpt lat="46.03929679432517" lon="9.4026156925971"><ele>1351.5</ele><time>2026-04-11T10:05:47.999Z</time></trkpt><trkpt lat="46.03941607860882" lon="9.402560765381448"><ele>1345.75</ele><time>2026-04-11T10:05:48.999Z</time></trkpt><trkpt lat="46.039551918826106" lon="9.402544352114699"><ele>1340.0</ele><time>2026-04-11T10:05:49.999Z</time></trkpt><trkpt lat="46.03969054456758" lon="9.402566356167421"><ele>1340.0</ele><time>2026-04-11T10:05:50.999Z</time></trkpt><trkpt lat="46.039811151508836" lon="9.4025943740695"><ele>1340.0</ele><time>2026-04-11T10:05:51.999Z</time></trkpt><trkpt lat="46.03991747276586" lon="9.402634539199658"><ele>1340.0</ele><time>2026-04-11T10:05:52.999Z</time></trkpt><trkpt lat="46.0400286826024" lon="9.402708744189077"><ele>1340.0</ele><time>2026-04-11T10:05:53.999Z</time></trkpt><trkpt lat="46.04015725770375" lon="9.402761682138209"><ele>1338.75</ele><time>2026-04-11T10:05:54.999Z</time></trkpt><trkpt lat="46.040278823240335" lon="9.402758195147678"><ele>1337.5</ele><time>2026-04-11T10:05:55.999Z</time></trkpt><trkpt lat="46.04039463124301" lon="9.402732829059323"><ele>1336.25</ele><time>2026-04-11T10:05:56.999Z</time></trkpt><trkpt lat="46.04051943927196" lon="9.402697086669592"><ele>1335.0</ele><time>2026-04-11T10:05:57.999Z</time></trkpt><trkpt lat="46.04064363993782" lon="9.402652450390164"><ele>1335.0</ele><time>2026-04-11T10:05:58.999Z</time></trkpt><trkpt lat="46.04077403869382" lon="9.402615204979105"><ele>1335.0</ele><time>2026-04-11T10:05:59.999Z</time></trkpt><trkpt lat="46.0409174490164" lon="9.402602368803745"><ele>1335.0</ele><time>2026-04-11T10:06:00.999Z</time></trkpt><trkpt lat="46.041055540806944" lon="9.402601603593048"><ele>1335.0</ele><time>2026-04-11T10:06:01.999Z</time></trkpt><trkpt lat="46.04118910097017" lon="9.402600786570678"><ele>1337.25</ele><time>2026-04-11T10:06:02.999Z</time></trkpt><trkpt lat="46.04133116182078" lon="9.40259996810651"><ele>1339.5</ele><time>2026-04-11T10:06:03.999Z</time></trkpt><trkpt lat="46.04146489145102" lon="9.402602147669942"><ele>1341.75</ele><time>2026-04-11T10:06:04.999Z</time></trkpt><trkpt lat="46.041596510840215" lon="9.402606116089606"><ele>1344.0</ele><time>2026-04-11T10:06:05.999Z</time></trkpt><trkpt lat="46.04172566063947" lon="9.402606843943602"><ele>1345.6666666666667</ele><time>2026-04-11T10:06:06.999Z</time></trkpt><trkpt lat="46.04183240366881" lon="9.402618538620457"><ele>1347.3333333333333</ele><time>2026-04-11T10:06:07.999Z</time></trkpt><trkpt lat="46.04192611706653" lon="9.402621300049388"><ele>1349.0</ele><time>2026-04-11T10:06:08.999Z</time></trkpt><trkpt lat="46.04199602555551" lon="9.40265125715367"><ele>1350.6666666666665</ele><time>2026-04-11T10:06:09.999Z</time></trkpt><trkpt lat="46.04210164870705" lon="9.402644106406285"><ele>1352.3333333333333</ele><time>2026-04-11T10:06:11.999Z</time></trkpt><trkpt lat="46.04215611388295" lon="9.402598119565821"><ele>1354.0</ele><time>2026-04-11T10:06:13.999Z</time></trkpt><trkpt lat="46.042221640757774" lon="9.402604253730416"><ele>1354.0</ele><time>2026-04-11T10:06:15.999Z</time></trkpt><trkpt lat="46.04231397332535" lon="9.402697076846758"><ele>1354.0</ele><time>2026-04-11T10:06:19.999Z</time></trkpt><trkpt lat="46.042217332399225" lon="9.40253828499619"><ele>1354.0</ele><time>2026-04-11T10:06:36.999Z</time></trkpt></trkseg><trkseg><trkpt lat="46.04233070649556" lon="9.402697651378222"><ele>1354.0</ele><time>2026-04-11T10:19:39.999Z</time></trkpt><trkpt lat="46.042404386040495" lon="9.402686495123662"><ele>1354.0</ele><time>2026-04-11T10:19:41.999Z</time></trkpt><trkpt lat="46.04249780754435" lon="9.402699460145792"><ele>1354.0</ele><time>2026-04-11T10:19:43.999Z</time></trkpt><trkpt lat="46.042546615533205" lon="9.402799538184459"><ele>1354.0</ele><time>2026-04-11T10:19:45.999Z</time></trkpt><trkpt lat="46.04249558332611" lon="9.402902790789275"><ele>1354.0</ele><time>2026-04-11T10:19:47.999Z</time></trkpt><trkpt lat="46.0424036978191" lon="9.402898548126375"><ele>1354.0</ele><time>2026-04-11T10:19:49.999Z</time></trkpt><trkpt lat="46.042105651265395" lon="9.402846417493764"><ele>1354.0</ele><time>2026-04-11T10:19:55Z</time></trkpt><trkpt lat="46.04207884973561" lon="9.402754270658814"><ele>1354.0</ele><time>2026-04-11T10:19:57Z</time></trkpt><trkpt lat="46.042051591396856" lon="9.402661726709141"><ele>1354.0</ele><time>2026-04-11T10:19:59Z</time></trkpt><trkpt lat="46.04210418740356" lon="9.402611824200742"><ele>1354.0</ele><time>2026-04-11T10:20:00Z</time></trkpt><trkpt lat="46.042008885438165" lon="9.402601095285775"><ele>1354.0</ele><time>2026-04-11T10:20:02Z</time></trkpt><trkpt lat="46.04191045452694" lon="9.402592360995115"><ele>1354.0</ele><time>2026-04-11T10:20:04Z</time></trkpt><trkpt lat="46.041804205173925" lon="9.402620441679787"><ele>1354.0</ele><time>2026-04-11T10:20:06Z</time></trkpt><trkpt lat="46.04169698897526" lon="9.40261541808187"><ele>1354.0</ele><time>2026-04-11T10:20:08Z</time></trkpt><trkpt lat="46.04159697805844" lon="9.402558307035894"><ele>1354.0</ele><time>2026-04-11T10:20:10Z</time></trkpt><trkpt lat="46.041491069956784" lon="9.40254775853559"><ele>1354.0</ele><time>2026-04-11T10:20:12Z</time></trkpt><trkpt lat="46.041428687524494" lon="9.40253045896864"><ele>1354.0</ele><time>2026-04-11T10:20:13Z</time></trkpt><trkpt lat="46.04134245651842" lon="9.402533462226822"><ele>1352.3333333333333</ele><time>2026-04-11T10:20:14Z</time></trkpt><trkpt lat="46.0412483626666" lon="9.402549651717047"><ele>1350.6666666666665</ele><time>2026-04-11T10:20:15Z</time></trkpt><trkpt lat="46.04115885802344" lon="9.402563139325224"><ele>1349.0</ele><time>2026-04-11T10:20:16Z</time></trkpt><trkpt lat="46.04107845604084" lon="9.402566299150585"><ele>1347.3333333333333</ele><time>2026-04-11T10:20:17Z</time></trkpt><trkpt lat="46.04099545395119" lon="9.402567586635822"><ele>1345.6666666666667</ele><time>2026-04-11T10:20:18Z</time></trkpt><trkpt lat="46.04091864475776" lon="9.40257077648134"><ele>1344.0</ele><time>2026-04-11T10:20:19Z</time></trkpt><trkpt lat="46.04082931754077" lon="9.402582237309966"><ele>1342.5</ele><time>2026-04-11T10:20:20Z</time></trkpt><trkpt lat="46.04075036763704" lon="9.402571170773253"><ele>1341.0</ele><time>2026-04-11T10:20:21Z</time></trkpt><trkpt lat="46.040670511606464" lon="9.402608732451448"><ele>1339.5</ele><time>2026-04-11T10:20:22Z</time></trkpt><trkpt lat="46.040580429216135" lon="9.40263771834433"><ele>1338.0</ele><time>2026-04-11T10:20:23Z</time></trkpt><trkpt lat="46.040483133323406" lon="9.402674959602587"><ele>1336.5</ele><time>2026-04-11T10:20:24Z</time></trkpt><trkpt lat="46.04039366772506" lon="9.402709025048651"><ele>1335.0</ele><time>2026-04-11T10:20:25Z</time></trkpt><trkpt lat="46.04030868893526" lon="9.402701860057062"><ele>1335.0</ele><time>2026-04-11T10:20:26Z</time></trkpt><trkpt lat="46.04023403612174" lon="9.402710545324432"><ele>1335.0</ele><time>2026-04-11T10:20:27Z</time></trkpt><trkpt lat="46.04014829560286" lon="9.402708628078972"><ele>1335.0</ele><time>2026-04-11T10:20:28Z</time></trkpt><trkpt lat="46.04007234826865" lon="9.402697930419409"><ele>1335.0</ele><time>2026-04-11T10:20:29Z</time></trkpt><trkpt lat="46.04000033080307" lon="9.402640051363711"><ele>1335.0</ele><time>2026-04-11T10:20:30Z</time></trkpt><trkpt lat="46.039916750149494" lon="9.402592116583786"><ele>1335.0</ele><time>2026-04-11T10:20:31Z</time></trkpt><trkpt lat="46.03982756475224" lon="9.402555923107808"><ele>1336.0</ele><time>2026-04-11T10:20:32Z</time></trkpt><trkpt lat="46.03973746234949" lon="9.402527323119058"><ele>1337.0</ele><time>2026-04-11T10:20:33Z</time></trkpt><trkpt lat="46.03963353267711" lon="9.402509779859619"><ele>1338.0</ele><time>2026-04-11T10:20:34Z</time></trkpt><trkpt lat="46.03952829797158" lon="9.402505543184335"><ele>1339.0</ele><time>2026-04-11T10:20:35Z</time></trkpt><trkpt lat="46.039424435587335" lon="9.40252692966628"><ele>1340.0</ele><time>2026-04-11T10:20:36Z</time></trkpt><trkpt lat="46.03934547709723" lon="9.402550320159511"><ele>1340.0</ele><time>2026-04-11T10:20:37Z</time></trkpt><trkpt lat="46.039272880670865" lon="9.402562521230793"><ele>1340.0</ele><time>2026-04-11T10:20:38Z</time></trkpt><trkpt lat="46.03917942524584" lon="9.402555796088883"><ele>1340.0</ele><time>2026-04-11T10:20:40Z</time></trkpt><trkpt lat="46.03911509122831" lon="9.402534273781828"><ele>1340.0</ele><time>2026-04-11T10:20:42Z</time></trkpt><trkpt lat="46.03905288654394" lon="9.402497467046544"><ele>1340.0</ele><time>2026-04-11T10:20:44Z</time></trkpt><trkpt lat="46.03896694150101" lon="9.402436697231657"><ele>1340.0</ele><time>2026-04-11T10:20:46Z</time></trkpt><trkpt lat="46.03888525832958" lon="9.40235513082045"><ele>1342.6</ele><time>2026-04-11T10:20:48Z</time></trkpt><trkpt lat="46.03883339499871" lon="9.402248882528632"><ele>1345.2</ele><time>2026-04-11T10:20:50Z</time></trkpt><trkpt lat="46.03888802534217" lon="9.402076025524181"><ele>1347.8000000000002</ele><time>2026-04-11T10:20:52Z</time></trkpt><trkpt lat="46.0389377489436" lon="9.401984963618888"><ele>1350.4</ele><time>2026-04-11T10:20:53Z</time></trkpt><trkpt lat="46.03897596749942" lon="9.401894607587382"><ele>1353.0</ele><time>2026-04-11T10:20:54Z</time></trkpt><trkpt lat="46.0390093357447" lon="9.401782473517349"><ele>1353.0</ele><time>2026-04-11T10:20:55Z</time></trkpt><trkpt lat="46.03903403413453" lon="9.401676178255135"><ele>1353.0</ele><time>2026-04-11T10:20:56Z</time></trkpt><trkpt lat="46.0390605058492" lon="9.401561537909908"><ele>1353.0</ele><time>2026-04-11T10:20:57Z</time></trkpt><trkpt lat="46.03907738030469" lon="9.401448385118627"><ele>1353.0</ele><time>2026-04-11T10:20:58Z</time></trkpt><trkpt lat="46.039095159533765" lon="9.401332394176476"><ele>1353.0</ele><time>2026-04-11T10:20:59Z</time></trkpt><trkpt lat="46.039115003597765" lon="9.401227187374692"><ele>1353.0</ele><time>2026-04-11T10:21:00Z</time></trkpt><trkpt lat="46.03914176857422" lon="9.401109511255875"><ele>1349.1666666666667</ele><time>2026-04-11T10:21:01Z</time></trkpt><trkpt lat="46.0391635745868" lon="9.40099990164813"><ele>1345.3333333333333</ele><time>2026-04-11T10:21:02Z</time></trkpt><trkpt lat="46.03918825264112" lon="9.400878449973154"><ele>1341.5</ele><time>2026-04-11T10:21:03Z</time></trkpt><trkpt lat="46.03920332797553" lon="9.400774845295743"><ele>1337.6666666666665</ele><time>2026-04-11T10:21:04Z</time></trkpt><trkpt lat="46.039217058325875" lon="9.400663692339627"><ele>1333.8333333333333</ele><time>2026-04-11T10:21:05Z</time></trkpt><trkpt lat="46.039240735840615" lon="9.40054643464312"><ele>1330.0</ele><time>2026-04-11T10:21:06Z</time></trkpt><trkpt lat="46.03926475908012" lon="9.400414309194478"><ele>1327.1666666666665</ele><time>2026-04-11T10:21:07Z</time></trkpt><trkpt lat="46.039278014500496" lon="9.40029797952176"><ele>1324.3333333333333</ele><time>2026-04-11T10:21:08Z</time></trkpt><trkpt lat="46.03928782856348" lon="9.400179338944378"><ele>1321.5</ele><time>2026-04-11T10:21:09Z</time></trkpt><trkpt lat="46.03929161116582" lon="9.400074679473638"><ele>1318.6666666666667</ele><time>2026-04-11T10:21:10Z</time></trkpt><trkpt lat="46.03929505373659" lon="9.399969164280005"><ele>1315.8333333333335</ele><time>2026-04-11T10:21:11Z</time></trkpt><trkpt lat="46.0393071026621" lon="9.399876291252799"><ele>1313.0</ele><time>2026-04-11T10:21:12Z</time></trkpt><trkpt lat="46.03927560851631" lon="9.399707873423724"><ele>1310.1666666666667</ele><time>2026-04-11T10:21:14Z</time></trkpt><trkpt lat="46.0392095475097" lon="9.39963653525877"><ele>1307.3333333333335</ele><time>2026-04-11T10:21:15Z</time></trkpt><trkpt lat="46.039134036264095" lon="9.399606199646163"><ele>1304.5</ele><time>2026-04-11T10:21:16Z</time></trkpt><trkpt lat="46.03904790629024" lon="9.399594056650493"><ele>1301.6666666666667</ele><time>2026-04-11T10:21:17Z</time></trkpt><trkpt lat="46.038953486298105" lon="9.399640227913922"><ele>1298.8333333333333</ele><time>2026-04-11T10:21:18Z</time></trkpt><trkpt lat="46.03886720769856" lon="9.399660219478498"><ele>1296.0</ele><time>2026-04-11T10:21:19Z</time></trkpt><trkpt lat="46.03877334953929" lon="9.399672792183198"><ele>1296.0</ele><time>2026-04-11T10:21:20Z</time></trkpt><trkpt lat="46.03867640914931" lon="9.399706263956592"><ele>1296.0</ele><time>2026-04-11T10:21:21Z</time></trkpt><trkpt lat="46.03858468840077" lon="9.399741915298437"><ele>1296.0</ele><time>2026-04-11T10:21:22Z</time></trkpt><trkpt lat="46.03848743659001" lon="9.399782565924376"><ele>1296.0</ele><time>2026-04-11T10:21:23Z</time></trkpt><trkpt lat="46.0383932037242" lon="9.399827303654694"><ele>1296.0</ele><time>2026-04-11T10:21:24Z</time></trkpt><trkpt lat="46.03830490064939" lon="9.399870799882596"><ele>1291.2</ele><time>2026-04-11T10:21:25Z</time></trkpt><trkpt lat="46.038206854895684" lon="9.399914098813356"><ele>1286.3999999999999</ele><time>2026-04-11T10:21:26Z</time></trkpt><trkpt lat="46.03811159305779" lon="9.399945393935775"><ele>1281.6</ele><time>2026-04-11T10:21:27Z</time></trkpt><trkpt lat="46.03802640205964" lon="9.399966753655663"><ele>1276.8</ele><time>2026-04-11T10:21:28Z</time></trkpt><trkpt lat="46.03793462901449" lon="9.399991348296247"><ele>1272.0</ele><time>2026-04-11T10:21:29Z</time></trkpt><trkpt lat="46.03785174536495" lon="9.400015754634152"><ele>1272.0</ele><time>2026-04-11T10:21:30Z</time></trkpt><trkpt lat="46.03777022405259" lon="9.400056025631786"><ele>1272.0</ele><time>2026-04-11T10:21:31Z</time></trkpt><trkpt lat="46.03768372007201" lon="9.400094716984093"><ele>1272.0</ele><time>2026-04-11T10:21:31.999Z</time></trkpt><trkpt lat="46.03760738914911" lon="9.400127501305079"><ele>1272.0</ele><time>2026-04-11T10:21:32.999Z</time></trkpt><trkpt lat="46.03749950540154" lon="9.400169042721886"><ele>1272.0</ele><time>2026-04-11T10:21:34.999Z</time></trkpt><trkpt lat="46.0374282521538" lon="9.400188804623115"><ele>1272.0</ele><time>2026-04-11T10:21:36.999Z</time></trkpt><trkpt lat="46.03743536240383" lon="9.400097260561717"><ele>1272.0</ele><time>2026-04-11T10:21:39.999Z</time></trkpt><trkpt lat="46.03755554206667" lon="9.400044283309173"><ele>1272.0</ele><time>2026-04-11T10:21:41.999Z</time></trkpt><trkpt lat="46.03763891312822" lon="9.40000894455409"><ele>1272.0</ele><time>2026-04-11T10:21:42.999Z</time></trkpt><trkpt lat="46.03771499422303" lon="9.39996693465976"><ele>1272.0</ele><time>2026-04-11T10:21:43.999Z</time></trkpt><trkpt lat="46.03778599121773" lon="9.399932002397776"><ele>1272.0</ele><time>2026-04-11T10:21:44.999Z</time></trkpt><trkpt lat="46.037856067732115" lon="9.399886686471596"><ele>1272.0</ele><time>2026-04-11T10:21:45.999Z</time></trkpt><trkpt lat="46.03792339005007" lon="9.399849603021407"><ele>1272.0</ele><time>2026-04-11T10:21:46.999Z</time></trkpt><trkpt lat="46.03799794990147" lon="9.399815151917704"><ele>1272.0</ele><time>2026-04-11T10:21:47.999Z</time></trkpt><trkpt lat="46.038070333895924" lon="9.399784777665484"><ele>1272.0</ele><time>2026-04-11T10:21:48.999Z</time></trkpt><trkpt lat="46.03817756217028" lon="9.399706871422078"><ele>1272.0</ele><time>2026-04-11T10:21:50.999Z</time></trkpt><trkpt lat="46.03823849612102" lon="9.39964438786211"><ele>1272.0</ele><time>2026-04-11T10:21:52.999Z</time></trkpt><trkpt lat="46.038198498156845" lon="9.399482493761681"><ele>1264.6666666666667</ele><time>2026-04-11T10:21:55.999Z</time></trkpt><trkpt lat="46.03810436869884" lon="9.399527983916316"><ele>1257.3333333333333</ele><time>2026-04-11T10:21:57Z</time></trkpt><trkpt lat="46.038032265940586" lon="9.399548643223348"><ele>1250.0</ele><time>2026-04-11T10:21:58Z</time></trkpt><trkpt lat="46.037947608508844" lon="9.39957289971141"><ele>1242.6666666666665</ele><time>2026-04-11T10:21:59Z</time></trkpt><trkpt lat="46.03786722612122" lon="9.399595931140778"><ele>1235.3333333333333</ele><time>2026-04-11T10:22:00Z</time></trkpt><trkpt lat="46.03779125947282" lon="9.39961760782312"><ele>1228.0</ele><time>2026-04-11T10:22:01Z</time></trkpt><trkpt lat="46.03771192292818" lon="9.399639507117978"><ele>1228.0</ele><time>2026-04-11T10:22:02Z</time></trkpt><trkpt lat="46.03763139967995" lon="9.399661734016513"><ele>1228.0</ele><time>2026-04-11T10:22:03Z</time></trkpt><trkpt lat="46.03754841023427" lon="9.39969098590899"><ele>1228.0</ele><time>2026-04-11T10:22:04Z</time></trkpt><trkpt lat="46.0374730740268" lon="9.399730365640872"><ele>1228.0</ele><time>2026-04-11T10:22:05Z</time></trkpt><trkpt lat="46.037365806821725" lon="9.39977814306954"><ele>1228.0</ele><time>2026-04-11T10:22:07Z</time></trkpt><trkpt lat="46.037278254226855" lon="9.39974969728707"><ele>1228.0</ele><time>2026-04-11T10:22:11Z</time></trkpt><trkpt lat="46.03736130819659" lon="9.399626225609598"><ele>1228.0</ele><time>2026-04-11T10:22:13Z</time></trkpt><trkpt lat="46.037438457539075" lon="9.399597618973205"><ele>1228.0</ele><time>2026-04-11T10:22:14Z</time></trkpt><trkpt lat="46.03750806523943" lon="9.399532443623134"><ele>1228.0</ele><time>2026-04-11T10:22:15Z</time></trkpt><trkpt lat="46.03758367986559" lon="9.39948777166684"><ele>1228.0</ele><time>2026-04-11T10:22:16Z</time></trkpt><trkpt lat="46.037661683534836" lon="9.39944381477566"><ele>1228.0</ele><time>2026-04-11T10:22:17Z</time></trkpt><trkpt lat="46.03773930759462" lon="9.399401782166022"><ele>1228.0</ele><time>2026-04-11T10:22:18Z</time></trkpt><trkpt lat="46.037817116872866" lon="9.399359649220262"><ele>1228.0</ele><time>2026-04-11T10:22:19Z</time></trkpt><trkpt lat="46.037892651475204" lon="9.39931874809374"><ele>1228.0</ele><time>2026-04-11T10:22:20Z</time></trkpt><trkpt lat="46.03797353148756" lon="9.39929652131399"><ele>1228.0</ele><time>2026-04-11T10:22:21Z</time></trkpt><trkpt lat="46.0380396798712" lon="9.399243084612367"><ele>1228.0</ele><time>2026-04-11T10:22:22Z</time></trkpt><trkpt lat="46.0381096408112" lon="9.399192713244176"><ele>1228.0</ele><time>2026-04-11T10:22:23Z</time></trkpt><trkpt lat="46.0381922570596" lon="9.39914281940438"><ele>1228.0</ele><time>2026-04-11T10:22:24Z</time></trkpt><trkpt lat="46.038291567361654" lon="9.399105195531986"><ele>1228.0</ele><time>2026-04-11T10:22:25Z</time></trkpt><trkpt lat="46.03837222040417" lon="9.399071446022724"><ele>1228.0</ele><time>2026-04-11T10:22:26Z</time></trkpt><trkpt lat="46.03845849372764" lon="9.3990348814032"><ele>1228.0</ele><time>2026-04-11T10:22:27Z</time></trkpt><trkpt lat="46.03853928192382" lon="9.398989279290886"><ele>1228.0</ele><time>2026-04-11T10:22:28Z</time></trkpt><trkpt lat="46.038615414307365" lon="9.398935119923287"><ele>1228.0</ele><time>2026-04-11T10:22:29Z</time></trkpt><trkpt lat="46.038701994116934" lon="9.398924705608334"><ele>1232.0</ele><time>2026-04-11T10:22:30Z</time></trkpt><trkpt lat="46.03878123398001" lon="9.39889787407644"><ele>1236.0</ele><time>2026-04-11T10:22:31Z</time></trkpt><trkpt lat="46.038865077855256" lon="9.398854978101683"><ele>1240.0</ele><time>2026-04-11T10:22:32Z</time></trkpt><trkpt lat="46.038933526082104" lon="9.398809526116183"><ele>1244.0</ele><time>2026-04-11T10:22:33Z</time></trkpt><trkpt lat="46.03901831607711" lon="9.39872456181285"><ele>1248.0</ele><time>2026-04-11T10:22:35Z</time></trkpt><trkpt lat="46.0390049272747" lon="9.398539391187265"><ele>1239.0</ele><time>2026-04-11T10:22:38Z</time></trkpt><trkpt lat="46.038918367854244" lon="9.398579119411284"><ele>1230.0</ele><time>2026-04-11T10:22:39Z</time></trkpt><trkpt lat="46.038832210318546" lon="9.39858854569423"><ele>1221.0</ele><time>2026-04-11T10:22:40Z</time></trkpt><trkpt lat="46.038750327098164" lon="9.398633509190029"><ele>1212.0</ele><time>2026-04-11T10:22:41Z</time></trkpt><trkpt lat="46.03865685325343" lon="9.398673594896321"><ele>1203.0</ele><time>2026-04-11T10:22:42Z</time></trkpt><trkpt lat="46.03856651050944" lon="9.398696781940458"><ele>1203.0</ele><time>2026-04-11T10:22:43Z</time></trkpt><trkpt lat="46.038475804204836" lon="9.398713654390654"><ele>1203.0</ele><time>2026-04-11T10:22:44Z</time></trkpt><trkpt lat="46.03838487564467" lon="9.398726562677842"><ele>1203.0</ele><time>2026-04-11T10:22:45Z</time></trkpt><trkpt lat="46.038297244983745" lon="9.398733655682689"><ele>1203.0</ele><time>2026-04-11T10:22:46Z</time></trkpt><trkpt lat="46.03820949973749" lon="9.398744801112906"><ele>1203.0</ele><time>2026-04-11T10:22:47Z</time></trkpt><trkpt lat="46.038123617362864" lon="9.398736762169849"><ele>1203.0</ele><time>2026-04-11T10:22:48Z</time></trkpt><trkpt lat="46.03803980045221" lon="9.398743027156895"><ele>1201.3333333333333</ele><time>2026-04-11T10:22:49Z</time></trkpt><trkpt lat="46.037960985347105" lon="9.398755430038573"><ele>1199.6666666666667</ele><time>2026-04-11T10:22:50Z</time></trkpt><trkpt lat="46.03787975432164" lon="9.398762060691956"><ele>1198.0</ele><time>2026-04-11T10:22:51Z</time></trkpt><trkpt lat="46.03779979962126" lon="9.398765423018302"><ele>1196.3333333333335</ele><time>2026-04-11T10:22:52Z</time></trkpt><trkpt lat="46.03771978550158" lon="9.398765066556123"><ele>1194.6666666666667</ele><time>2026-04-11T10:22:53Z</time></trkpt><trkpt lat="46.03763597651483" lon="9.39877333293936"><ele>1193.0</ele><time>2026-04-11T10:22:54Z</time></trkpt><trkpt lat="46.03754062660372" lon="9.398787074735468"><ele>1191.5</ele><time>2026-04-11T10:22:55Z</time></trkpt><trkpt lat="46.037451095051" lon="9.39880112664626"><ele>1190.0</ele><time>2026-04-11T10:22:56Z</time></trkpt><trkpt lat="46.03737971610912" lon="9.398820659682379"><ele>1188.5</ele><time>2026-04-11T10:22:57Z</time></trkpt><trkpt lat="46.03731432141818" lon="9.398809194225377"><ele>1187.0</ele><time>2026-04-11T10:22:58Z</time></trkpt><trkpt lat="46.037214843952206" lon="9.398805492190498"><ele>1185.5</ele><time>2026-04-11T10:23:00Z</time></trkpt><trkpt lat="46.03716703045309" lon="9.398729621440626"><ele>1184.0</ele><time>2026-04-11T10:23:03Z</time></trkpt><trkpt lat="46.03723753616989" lon="9.398664655571453"><ele>1184.0</ele><time>2026-04-11T10:23:05Z</time></trkpt><trkpt lat="46.037316551990514" lon="9.398655791314106"><ele>1184.0</ele><time>2026-04-11T10:23:06Z</time></trkpt><trkpt lat="46.03740990978245" lon="9.398637699209685"><ele>1184.0</ele><time>2026-04-11T10:23:07Z</time></trkpt><trkpt lat="46.037503479224405" lon="9.398605887807149"><ele>1184.0</ele><time>2026-04-11T10:23:08Z</time></trkpt><trkpt lat="46.03759467732219" lon="9.39856260061986"><ele>1184.0</ele><time>2026-04-11T10:23:09Z</time></trkpt><trkpt lat="46.0376877874226" lon="9.398510524414627"><ele>1185.8</ele><time>2026-04-11T10:23:10Z</time></trkpt><trkpt lat="46.03778337308935" lon="9.398459206771943"><ele>1187.6000000000001</ele><time>2026-04-11T10:23:11Z</time></trkpt><trkpt lat="46.03787551016214" lon="9.39842633487125"><ele>1189.4</ele><time>2026-04-11T10:23:12Z</time></trkpt><trkpt lat="46.037960994789984" lon="9.39838053586318"><ele>1191.2</ele><time>2026-04-11T10:23:13Z</time></trkpt><trkpt lat="46.03804869567983" lon="9.39834230239083"><ele>1193.0</ele><time>2026-04-11T10:23:14Z</time></trkpt><trkpt lat="46.03813439438051" lon="9.398328473482351"><ele>1193.0</ele><time>2026-04-11T10:23:15Z</time></trkpt><trkpt lat="46.038217042445254" lon="9.39834362879947"><ele>1193.0</ele><time>2026-04-11T10:23:16Z</time></trkpt><trkpt lat="46.03829555837676" lon="9.398380358661043"><ele>1193.0</ele><time>2026-04-11T10:23:17Z</time></trkpt><trkpt lat="46.038363148611175" lon="9.398410647103148"><ele>1193.0</ele><time>2026-04-11T10:23:18Z</time></trkpt><trkpt lat="46.03845506811587" lon="9.398416970853866"><ele>1193.0</ele><time>2026-04-11T10:23:20Z</time></trkpt><trkpt lat="46.03850750683316" lon="9.398313281069356"><ele>1193.0</ele><time>2026-04-11T10:23:22Z</time></trkpt><trkpt lat="46.03848100248685" lon="9.398215335653724"><ele>1193.0</ele><time>2026-04-11T10:23:23Z</time></trkpt><trkpt lat="46.03839425009714" lon="9.398203034999199"><ele>1193.0</ele><time>2026-04-11T10:23:24Z</time></trkpt><trkpt lat="46.038316467817836" lon="9.398199757294053"><ele>1193.0</ele><time>2026-04-11T10:23:25Z</time></trkpt><trkpt lat="46.03823127024684" lon="9.398175522109396"><ele>1193.0</ele><time>2026-04-11T10:23:26Z</time></trkpt><trkpt lat="46.03810711953622" lon="9.398130614381653"><ele>1193.0</ele><time>2026-04-11T10:23:27Z</time></trkpt><trkpt lat="46.03802667905712" lon="9.398107107332653"><ele>1193.0</ele><time>2026-04-11T10:23:28Z</time></trkpt><trkpt lat="46.03793746622839" lon="9.398107423206925"><ele>1193.0</ele><time>2026-04-11T10:23:28.999Z</time></trkpt><trkpt lat="46.03785183572218" lon="9.398115213638743"><ele>1193.0</ele><time>2026-04-11T10:23:29.999Z</time></trkpt><trkpt lat="46.037762062175965" lon="9.398114687714944"><ele>1193.0</ele><time>2026-04-11T10:23:30.999Z</time></trkpt><trkpt lat="46.037678193525636" lon="9.398111957977022"><ele>1193.0</ele><time>2026-04-11T10:23:31.999Z</time></trkpt><trkpt lat="46.03759496791854" lon="9.39811071089675"><ele>1193.0</ele><time>2026-04-11T10:23:32.999Z</time></trkpt><trkpt lat="46.03751640545386" lon="9.398108185268354"><ele>1191.5</ele><time>2026-04-11T10:23:33.999Z</time></trkpt><trkpt lat="46.03743762502075" lon="9.398106011280577"><ele>1190.0</ele><time>2026-04-11T10:23:34.999Z</time></trkpt><trkpt lat="46.03736072683227" lon="9.3981098970003"><ele>1188.5</ele><time>2026-04-11T10:23:35.999Z</time></trkpt><trkpt lat="46.03728831300103" lon="9.398096782217456"><ele>1187.0</ele><time>2026-04-11T10:23:36.999Z</time></trkpt><trkpt lat="46.037187089376694" lon="9.398066081633447"><ele>1185.5</ele><time>2026-04-11T10:23:38.999Z</time></trkpt><trkpt lat="46.03716302278827" lon="9.397972701296506"><ele>1184.0</ele><time>2026-04-11T10:23:41.999Z</time></trkpt><trkpt lat="46.037221496343975" lon="9.39792335386637"><ele>1178.6000000000001</ele><time>2026-04-11T10:23:42.999Z</time></trkpt><trkpt lat="46.03730997552011" lon="9.397898145418592"><ele>1173.2</ele><time>2026-04-11T10:23:43.999Z</time></trkpt><trkpt lat="46.03741115655698" lon="9.397879223466099"><ele>1167.8000000000002</ele><time>2026-04-11T10:23:44.999Z</time></trkpt><trkpt lat="46.03751630371438" lon="9.39786957302658"><ele>1162.4</ele><time>2026-04-11T10:23:45.999Z</time></trkpt><trkpt lat="46.03760709011011" lon="9.397874186273244"><ele>1157.0</ele><time>2026-04-11T10:23:46.999Z</time></trkpt><trkpt lat="46.03770176306831" lon="9.397864351969401"><ele>1157.0</ele><time>2026-04-11T10:23:47.999Z</time></trkpt><trkpt lat="46.03778800424158" lon="9.39782708926243"><ele>1157.0</ele><time>2026-04-11T10:23:48.999Z</time></trkpt><trkpt lat="46.03788571074311" lon="9.397812157528925"><ele>1157.0</ele><time>2026-04-11T10:23:49.999Z</time></trkpt><trkpt lat="46.03798739579319" lon="9.397788174771947"><ele>1157.0</ele><time>2026-04-11T10:23:50.999Z</time></trkpt><trkpt lat="46.038085932555624" lon="9.397756581557154"><ele>1157.0</ele><time>2026-04-11T10:23:51.999Z</time></trkpt><trkpt lat="46.038184846773554" lon="9.397745120364547"><ele>1157.0</ele><time>2026-04-11T10:23:52.999Z</time></trkpt><trkpt lat="46.03828699453445" lon="9.39775439718945"><ele>1157.0</ele><time>2026-04-11T10:23:53.999Z</time></trkpt><trkpt lat="46.038385495827946" lon="9.397749474754946"><ele>1157.0</ele><time>2026-04-11T10:23:54.999Z</time></trkpt><trkpt lat="46.038479941380984" lon="9.39770569435918"><ele>1157.0</ele><time>2026-04-11T10:23:55.999Z</time></trkpt><trkpt lat="46.0385729853246" lon="9.39765677475468"><ele>1157.0</ele><time>2026-04-11T10:23:56.999Z</time></trkpt><trkpt lat="46.03867220933463" lon="9.397621949686169"><ele>1156.6</ele><time>2026-04-11T10:23:57.999Z</time></trkpt><trkpt lat="46.0387670420579" lon="9.397582133073508"><ele>1156.2</ele><time>2026-04-11T10:23:58.999Z</time></trkpt><trkpt lat="46.03885835811415" lon="9.397584914271649"><ele>1155.8</ele><time>2026-04-11T10:23:59.999Z</time></trkpt><trkpt lat="46.03895286965611" lon="9.397577309200457"><ele>1155.4</ele><time>2026-04-11T10:24:00.999Z</time></trkpt><trkpt lat="46.039052079876775" lon="9.397573093309159"><ele>1155.0</ele><time>2026-04-11T10:24:01.999Z</time></trkpt><trkpt lat="46.03913976494828" lon="9.397543408115089"><ele>1155.0</ele><time>2026-04-11T10:24:03Z</time></trkpt><trkpt lat="46.039219898175766" lon="9.397558261028797"><ele>1155.0</ele><time>2026-04-11T10:24:04Z</time></trkpt><trkpt lat="46.039287970617586" lon="9.397560180185403"><ele>1155.0</ele><time>2026-04-11T10:24:05Z</time></trkpt><trkpt lat="46.03938723056676" lon="9.397569057180714"><ele>1155.0</ele><time>2026-04-11T10:24:07Z</time></trkpt><trkpt lat="46.03943311334428" lon="9.39747373710032"><ele>1155.0</ele><time>2026-04-11T10:24:09Z</time></trkpt><trkpt lat="46.03934983223926" lon="9.397373666569383"><ele>1155.0</ele><time>2026-04-11T10:24:11Z</time></trkpt><trkpt lat="46.039277655501934" lon="9.397331457071843"><ele>1155.0</ele><time>2026-04-11T10:24:12Z</time></trkpt><trkpt lat="46.03918422587717" lon="9.397307545019865"><ele>1155.0</ele><time>2026-04-11T10:24:13Z</time></trkpt><trkpt lat="46.03908890372011" lon="9.39729119195679"><ele>1155.0</ele><time>2026-04-11T10:24:14Z</time></trkpt><trkpt lat="46.03899099939643" lon="9.39727637098526"><ele>1155.0</ele><time>2026-04-11T10:24:15Z</time></trkpt><trkpt lat="46.03889420846597" lon="9.39726417127306"><ele>1155.0</ele><time>2026-04-11T10:24:16Z</time></trkpt><trkpt lat="46.038806610367104" lon="9.397255382405257"><ele>1156.2</ele><time>2026-04-11T10:24:17Z</time></trkpt><trkpt lat="46.03871504166041" lon="9.397246195148753"><ele>1157.4</ele><time>2026-04-11T10:24:18Z</time></trkpt><trkpt lat="46.038626939417064" lon="9.397235428629473"><ele>1158.6</ele><time>2026-04-11T10:24:19Z</time></trkpt><trkpt lat="46.03853864284983" lon="9.397219596313588"><ele>1159.8</ele><time>2026-04-11T10:24:20Z</time></trkpt><trkpt lat="46.03845296891018" lon="9.397200900662291"><ele>1161.0</ele><time>2026-04-11T10:24:21Z</time></trkpt><trkpt lat="46.038355560229796" lon="9.397177737873292"><ele>1152.3999999999999</ele><time>2026-04-11T10:24:22Z</time></trkpt><trkpt lat="46.03824748925355" lon="9.397150739390636"><ele>1143.8</ele><time>2026-04-11T10:24:23Z</time></trkpt><trkpt lat="46.038139386467286" lon="9.397120553692167"><ele>1135.1999999999998</ele><time>2026-04-11T10:24:24Z</time></trkpt><trkpt lat="46.03803615637037" lon="9.397099227727155"><ele>1126.6</ele><time>2026-04-11T10:24:25Z</time></trkpt><trkpt lat="46.03793792987445" lon="9.397056418642093"><ele>1118.0</ele><time>2026-04-11T10:24:26Z</time></trkpt><trkpt lat="46.037834027879065" lon="9.397036266792497"><ele>1118.0</ele><time>2026-04-11T10:24:27Z</time></trkpt><trkpt lat="46.037731701971026" lon="9.396985153216079"><ele>1118.0</ele><time>2026-04-11T10:24:28Z</time></trkpt><trkpt lat="46.03762468219267" lon="9.396964473269863"><ele>1118.0</ele><time>2026-04-11T10:24:29Z</time></trkpt><trkpt lat="46.03752277159563" lon="9.396973717461346"><ele>1118.0</ele><time>2026-04-11T10:24:30Z</time></trkpt><trkpt lat="46.03741735529647" lon="9.396979679583666"><ele>1118.0</ele><time>2026-04-11T10:24:31Z</time></trkpt><trkpt lat="46.037317669791605" lon="9.396968559328892"><ele>1115.3333333333335</ele><time>2026-04-11T10:24:32Z</time></trkpt><trkpt lat="46.037234606446326" lon="9.396982800293749"><ele>1112.6666666666667</ele><time>2026-04-11T10:24:33Z</time></trkpt><trkpt lat="46.03716678879691" lon="9.396994427332096"><ele>1110.0</ele><time>2026-04-11T10:24:34Z</time></trkpt><trkpt lat="46.037072531560135" lon="9.396990937923492"><ele>1107.3333333333333</ele><time>2026-04-11T10:24:36Z</time></trkpt><trkpt lat="46.03706934925679" lon="9.396882844992597"><ele>1104.6666666666665</ele><time>2026-04-11T10:24:39Z</time></trkpt><trkpt lat="46.037128652778954" lon="9.396849124387948"><ele>1102.0</ele><time>2026-04-11T10:24:40Z</time></trkpt><trkpt lat="46.037205347958825" lon="9.39680968680877"><ele>1102.0</ele><time>2026-04-11T10:24:41Z</time></trkpt><trkpt lat="46.03731823262513" lon="9.396760044811963"><ele>1102.0</ele><time>2026-04-11T10:24:42Z</time></trkpt><trkpt lat="46.03744213938975" lon="9.396722901627413"><ele>1102.0</ele><time>2026-04-11T10:24:43Z</time></trkpt><trkpt lat="46.037556581975416" lon="9.396670574597769"><ele>1102.0</ele><time>2026-04-11T10:24:44Z</time></trkpt><trkpt lat="46.03767067557946" lon="9.396647347451061"><ele>1106.0</ele><time>2026-04-11T10:24:45Z</time></trkpt><trkpt lat="46.03778876494596" lon="9.396639681538305"><ele>1110.0</ele><time>2026-04-11T10:24:46Z</time></trkpt><trkpt lat="46.03789702324922" lon="9.396622710939738"><ele>1114.0</ele><time>2026-04-11T10:24:47Z</time></trkpt><trkpt lat="46.038017586737915" lon="9.396606199147318"><ele>1118.0</ele><time>2026-04-11T10:24:48Z</time></trkpt><trkpt lat="46.03813003986767" lon="9.396613984196309"><ele>1118.0</ele><time>2026-04-11T10:24:49Z</time></trkpt><trkpt lat="46.03824348691375" lon="9.396633635970806"><ele>1118.0</ele><time>2026-04-11T10:24:50Z</time></trkpt><trkpt lat="46.03835728133554" lon="9.3966112168505"><ele>1118.0</ele><time>2026-04-11T10:24:51Z</time></trkpt><trkpt lat="46.03847432751219" lon="9.3965715035509"><ele>1118.0</ele><time>2026-04-11T10:24:52Z</time></trkpt><trkpt lat="46.03860054176872" lon="9.396541114015193"><ele>1117.75</ele><time>2026-04-11T10:24:53Z</time></trkpt><trkpt lat="46.03872299483944" lon="9.396515523014893"><ele>1117.5</ele><time>2026-04-11T10:24:54Z</time></trkpt><trkpt lat="46.03884434329128" lon="9.396522603960499"><ele>1117.25</ele><time>2026-04-11T10:24:55Z</time></trkpt><trkpt lat="46.03896145302341" lon="9.396508161526711"><ele>1117.0</ele><time>2026-04-11T10:24:56Z</time></trkpt><trkpt lat="46.0390852344617" lon="9.39649896986082"><ele>1115.2</ele><time>2026-04-11T10:24:57Z</time></trkpt><trkpt lat="46.03919778633475" lon="9.39650278048333"><ele>1113.4</ele><time>2026-04-11T10:24:58Z</time></trkpt><trkpt lat="46.03928957000518" lon="9.396523658537568"><ele>1111.6</ele><time>2026-04-11T10:24:59Z</time></trkpt><trkpt lat="46.03937620610634" lon="9.396541348811228"><ele>1109.8</ele><time>2026-04-11T10:25:00Z</time></trkpt><trkpt lat="46.03944390425258" lon="9.396551724428146"><ele>1108.0</ele><time>2026-04-11T10:25:01Z</time></trkpt><trkpt lat="46.03955051551419" lon="9.396548306629603"><ele>1108.0</ele><time>2026-04-11T10:25:03Z</time></trkpt><trkpt lat="46.03960729798742" lon="9.396476937459452"><ele>1108.0</ele><time>2026-04-11T10:25:05Z</time></trkpt><trkpt lat="46.03960781793933" lon="9.396316046895356"><ele>1108.0</ele><time>2026-04-11T10:25:07Z</time></trkpt><trkpt lat="46.039467351853375" lon="9.39632595066676"><ele>1108.0</ele><time>2026-04-11T10:25:08Z</time></trkpt><trkpt lat="46.039367637347674" lon="9.396282154292171"><ele>1108.0</ele><time>2026-04-11T10:25:09Z</time></trkpt><trkpt lat="46.039251085390305" lon="9.396239065675905"><ele>1100.5</ele><time>2026-04-11T10:25:10Z</time></trkpt><trkpt lat="46.03912819237784" lon="9.39622617187075"><ele>1093.0</ele><time>2026-04-11T10:25:11Z</time></trkpt><trkpt lat="46.039012045789775" lon="9.396181777109966"><ele>1085.5</ele><time>2026-04-11T10:25:12Z</time></trkpt><trkpt lat="46.03889656565673" lon="9.396147370573301"><ele>1078.0</ele><time>2026-04-11T10:25:13Z</time></trkpt><trkpt lat="46.038786073959145" lon="9.396106253779058"><ele>1078.0</ele><time>2026-04-11T10:25:14Z</time></trkpt><trkpt lat="46.03867633665271" lon="9.396073446814162"><ele>1078.0</ele><time>2026-04-11T10:25:15Z</time></trkpt><trkpt lat="46.03856297230957" lon="9.396043703082437"><ele>1078.0</ele><time>2026-04-11T10:25:16Z</time></trkpt><trkpt lat="46.03845199896373" lon="9.395993549837282"><ele>1078.0</ele><time>2026-04-11T10:25:17Z</time></trkpt><trkpt lat="46.03834759255929" lon="9.395959964114082"><ele>1076.4</ele><time>2026-04-11T10:25:18Z</time></trkpt><trkpt lat="46.038237417413846" lon="9.395923679652714"><ele>1074.8</ele><time>2026-04-11T10:25:19Z</time></trkpt><trkpt lat="46.038134292941756" lon="9.395889717213791"><ele>1073.2</ele><time>2026-04-11T10:25:20Z</time></trkpt><trkpt lat="46.038033475892654" lon="9.395855667642756"><ele>1071.6</ele><time>2026-04-11T10:25:21Z</time></trkpt><trkpt lat="46.03794064080353" lon="9.395823060021007"><ele>1070.0</ele><time>2026-04-11T10:25:22Z</time></trkpt><trkpt lat="46.0378723544685" lon="9.39579569139347"><ele>1070.0</ele><time>2026-04-11T10:25:23Z</time></trkpt><trkpt lat="46.037810299960135" lon="9.395769806095414"><ele>1070.0</ele><time>2026-04-11T10:25:24Z</time></trkpt><trkpt lat="46.03774499253068" lon="9.395718947574595"><ele>1070.0</ele><time>2026-04-11T10:25:26Z</time></trkpt><trkpt lat="46.03790534346622" lon="9.395616817886822"><ele>1070.0</ele><time>2026-04-11T10:25:30Z</time></trkpt><trkpt lat="46.038022874850725" lon="9.395664536235588"><ele>1070.0</ele><time>2026-04-11T10:25:31Z</time></trkpt><trkpt lat="46.038150128599185" lon="9.395667958917207"><ele>1070.0</ele><time>2026-04-11T10:25:32Z</time></trkpt><trkpt lat="46.038268016942794" lon="9.395657218503501"><ele>1070.0</ele><time>2026-04-11T10:25:33Z</time></trkpt><trkpt lat="46.03838306415326" lon="9.39564296940042"><ele>1070.0</ele><time>2026-04-11T10:25:34Z</time></trkpt><trkpt lat="46.03850268495557" lon="9.395619902412875"><ele>1070.0</ele><time>2026-04-11T10:25:35Z</time></trkpt><trkpt lat="46.03862041524351" lon="9.395597095421506"><ele>1072.0</ele><time>2026-04-11T10:25:36Z</time></trkpt><trkpt lat="46.03874401955165" lon="9.395575281973619"><ele>1074.0</ele><time>2026-04-11T10:25:37Z</time></trkpt><trkpt lat="46.03886012724507" lon="9.395564196126536"><ele>1076.0</ele><time>2026-04-11T10:25:38Z</time></trkpt><trkpt lat="46.038977825299625" lon="9.395553558583035"><ele>1078.0</ele><time>2026-04-11T10:25:39Z</time></trkpt><trkpt lat="46.039095384751775" lon="9.39554612559879"><ele>1077.0</ele><time>2026-04-11T10:25:40Z</time></trkpt><trkpt lat="46.0392130768497" lon="9.395539412311644"><ele>1076.0</ele><time>2026-04-11T10:25:41Z</time></trkpt><trkpt lat="46.039329347442134" lon="9.395565559652807"><ele>1075.0</ele><time>2026-04-11T10:25:42Z</time></trkpt><trkpt lat="46.03944139378556" lon="9.395580839284493"><ele>1074.0</ele><time>2026-04-11T10:25:43Z</time></trkpt><trkpt lat="46.03955171002798" lon="9.395605815066032"><ele>1074.0</ele><time>2026-04-11T10:25:44Z</time></trkpt><trkpt lat="46.03964486887144" lon="9.395624634212925"><ele>1074.0</ele><time>2026-04-11T10:25:45Z</time></trkpt><trkpt lat="46.03972093744146" lon="9.395626015719277"><ele>1074.0</ele><time>2026-04-11T10:25:46Z</time></trkpt><trkpt lat="46.039822108492764" lon="9.395645338167343"><ele>1074.0</ele><time>2026-04-11T10:25:48Z</time></trkpt><trkpt lat="46.03989140128154" lon="9.395616793633833"><ele>1074.0</ele><time>2026-04-11T10:25:50Z</time></trkpt><trkpt lat="46.03985323891203" lon="9.395439521394081"><ele>1064.75</ele><time>2026-04-11T10:25:51Z</time></trkpt><trkpt lat="46.039749618628605" lon="9.395410791173374"><ele>1055.5</ele><time>2026-04-11T10:25:52Z</time></trkpt><trkpt lat="46.03965115477828" lon="9.395352098042665"><ele>1046.25</ele><time>2026-04-11T10:25:53Z</time></trkpt><trkpt lat="46.03952808608138" lon="9.39529583561523"><ele>1037.0</ele><time>2026-04-11T10:25:54Z</time></trkpt><trkpt lat="46.03941800831575" lon="9.395245808189578"><ele>1037.0</ele><time>2026-04-11T10:25:55Z</time></trkpt><trkpt lat="46.039313008782486" lon="9.395203262150517"><ele>1037.0</ele><time>2026-04-11T10:25:56Z</time></trkpt><trkpt lat="46.03920449201422" lon="9.395167118538955"><ele>1037.0</ele><time>2026-04-11T10:25:57Z</time></trkpt><trkpt lat="46.03908267719768" lon="9.395142193692143"><ele>1037.0</ele><time>2026-04-11T10:25:57.999Z</time></trkpt><trkpt lat="46.038972382875514" lon="9.39509141812567"><ele>1037.5</ele><time>2026-04-11T10:25:58.999Z</time></trkpt><trkpt lat="46.038861605151595" lon="9.395049885925786"><ele>1038.0</ele><time>2026-04-11T10:25:59.999Z</time></trkpt><trkpt lat="46.03875078361164" lon="9.39501044216956"><ele>1038.5</ele><time>2026-04-11T10:26:00.999Z</time></trkpt><trkpt lat="46.0386394416298" lon="9.39498023357759"><ele>1039.0</ele><time>2026-04-11T10:26:01.999Z</time></trkpt><trkpt lat="46.03853415517478" lon="9.39492833008872"><ele>1039.0</ele><time>2026-04-11T10:26:02.999Z</time></trkpt><trkpt lat="46.03843339673413" lon="9.394894637292705"><ele>1039.0</ele><time>2026-04-11T10:26:03.999Z</time></trkpt><trkpt lat="46.0383476028317" lon="9.394865948627489"><ele>1039.0</ele><time>2026-04-11T10:26:04.999Z</time></trkpt><trkpt lat="46.03828522142554" lon="9.394838521158913"><ele>1039.0</ele><time>2026-04-11T10:26:05.999Z</time></trkpt><trkpt lat="46.03820428725305" lon="9.394775307895449"><ele>1039.0</ele><time>2026-04-11T10:26:07.999Z</time></trkpt><trkpt lat="46.038214295180175" lon="9.394674693685795"><ele>1039.0</ele><time>2026-04-11T10:26:11Z</time></trkpt><trkpt lat="46.03836888285414" lon="9.39469267281022"><ele>1039.0</ele><time>2026-04-11T10:26:13Z</time></trkpt><trkpt lat="46.03848071750143" lon="9.394705181915933"><ele>1039.0</ele><time>2026-04-11T10:26:14Z</time></trkpt><trkpt lat="46.0385987937987" lon="9.394693670633224"><ele>1039.0</ele><time>2026-04-11T10:26:15Z</time></trkpt><trkpt lat="46.0387168331648" lon="9.394672383388235"><ele>1039.0</ele><time>2026-04-11T10:26:16Z</time></trkpt><trkpt lat="46.03884093411665" lon="9.394652163883215"><ele>1031.0</ele><time>2026-04-11T10:26:17Z</time></trkpt><trkpt lat="46.038963684535815" lon="9.394647678342098"><ele>1023.0</ele><time>2026-04-11T10:26:18Z</time></trkpt><trkpt lat="46.039093716428056" lon="9.394639953585294"><ele>1015.0</ele><time>2026-04-11T10:26:19Z</time></trkpt><trkpt lat="46.03922983666264" lon="9.394627116553766"><ele>1007.0</ele><time>2026-04-11T10:26:20Z</time></trkpt><trkpt lat="46.03935524011274" lon="9.394610726687953"><ele>1005.25</ele><time>2026-04-11T10:26:21Z</time></trkpt><trkpt lat="46.03948211995018" lon="9.394595342342038"><ele>1003.5</ele><time>2026-04-11T10:26:22Z</time></trkpt><trkpt lat="46.03960759817847" lon="9.394574052439763"><ele>1001.75</ele><time>2026-04-11T10:26:23Z</time></trkpt><trkpt lat="46.03973006457031" lon="9.394560389979672"><ele>1000.0</ele><time>2026-04-11T10:26:24Z</time></trkpt><trkpt lat="46.039852302216005" lon="9.394587387110715"><ele>997.5</ele><time>2026-04-11T10:26:25Z</time></trkpt><trkpt lat="46.03997258305966" lon="9.394601189308549"><ele>995.0</ele><time>2026-04-11T10:26:26Z</time></trkpt><trkpt lat="46.04008983098915" lon="9.394628563706545"><ele>992.5</ele><time>2026-04-11T10:26:27Z</time></trkpt><trkpt lat="46.040211152410656" lon="9.394654832844141"><ele>990.0</ele><time>2026-04-11T10:26:28Z</time></trkpt><trkpt lat="46.04033034220904" lon="9.39471148917604"><ele>994.25</ele><time>2026-04-11T10:26:29Z</time></trkpt><trkpt lat="46.04046889459505" lon="9.394760925194529"><ele>998.5</ele><time>2026-04-11T10:26:30Z</time></trkpt><trkpt lat="46.04061533191823" lon="9.394810378636961"><ele>1002.75</ele><time>2026-04-11T10:26:31Z</time></trkpt><trkpt lat="46.04075354671523" lon="9.394887228788956"><ele>1007.0</ele><time>2026-04-11T10:26:32Z</time></trkpt><trkpt lat="46.040890856581136" lon="9.394941834404184"><ele>1007.0</ele><time>2026-04-11T10:26:33Z</time></trkpt><trkpt lat="46.04102909152429" lon="9.395002363812582"><ele>1007.0</ele><time>2026-04-11T10:26:34Z</time></trkpt><trkpt lat="46.0411751640421" lon="9.39505536240188"><ele>1007.0</ele><time>2026-04-11T10:26:35Z</time></trkpt><trkpt lat="46.04130511185553" lon="9.395144216043029"><ele>1007.0</ele><time>2026-04-11T10:26:36Z</time></trkpt><trkpt lat="46.04144388650345" lon="9.395191995656207"><ele>1007.0</ele><time>2026-04-11T10:26:37Z</time></trkpt><trkpt lat="46.04158184052393" lon="9.395278883979119"><ele>1007.0</ele><time>2026-04-11T10:26:38Z</time></trkpt><trkpt lat="46.04170414502297" lon="9.39536576278782"><ele>1007.0</ele><time>2026-04-11T10:26:39Z</time></trkpt><trkpt lat="46.04183985861572" lon="9.39544080663385"><ele>1007.0</ele><time>2026-04-11T10:26:40Z</time></trkpt><trkpt lat="46.04197515521766" lon="9.395481167325718"><ele>1006.5</ele><time>2026-04-11T10:26:41Z</time></trkpt><trkpt lat="46.04211677656234" lon="9.395519677229288"><ele>1006.0</ele><time>2026-04-11T10:26:42Z</time></trkpt><trkpt lat="46.04224632574223" lon="9.395577970927025"><ele>1005.5</ele><time>2026-04-11T10:26:43Z</time></trkpt><trkpt lat="46.042384254402855" lon="9.395636689022353"><ele>1005.0</ele><time>2026-04-11T10:26:44Z</time></trkpt><trkpt lat="46.04252089664938" lon="9.395661620840727"><ele>999.5</ele><time>2026-04-11T10:26:45Z</time></trkpt><trkpt lat="46.042667214021456" lon="9.395649825172697"><ele>994.0</ele><time>2026-04-11T10:26:46Z</time></trkpt><trkpt lat="46.04280608388441" lon="9.39566753816864"><ele>988.5</ele><time>2026-04-11T10:26:47Z</time></trkpt><trkpt lat="46.042945380012746" lon="9.395652141201227"><ele>983.0</ele><time>2026-04-11T10:26:48Z</time></trkpt><trkpt lat="46.043086021331845" lon="9.395668579070444"><ele>983.0</ele><time>2026-04-11T10:26:49Z</time></trkpt><trkpt lat="46.043225420009925" lon="9.395675794276343"><ele>983.0</ele><time>2026-04-11T10:26:50Z</time></trkpt><trkpt lat="46.04336572963112" lon="9.395673902266283"><ele>983.0</ele><time>2026-04-11T10:26:51Z</time></trkpt><trkpt lat="46.04351088348033" lon="9.395666238207893"><ele>983.0</ele><time>2026-04-11T10:26:52Z</time></trkpt><trkpt lat="46.04364645045262" lon="9.395655521250506"><ele>980.0</ele><time>2026-04-11T10:26:53Z</time></trkpt><trkpt lat="46.043788552101994" lon="9.395648419881478"><ele>977.0</ele><time>2026-04-11T10:26:54Z</time></trkpt><trkpt lat="46.04392745653916" lon="9.39564459229163"><ele>974.0</ele><time>2026-04-11T10:26:55Z</time></trkpt><trkpt lat="46.04407002456584" lon="9.395642423737979"><ele>971.0</ele><time>2026-04-11T10:26:56Z</time></trkpt><trkpt lat="46.04420545724472" lon="9.395646102724381"><ele>967.75</ele><time>2026-04-11T10:26:57Z</time></trkpt><trkpt lat="46.04434971472762" lon="9.39565486295812"><ele>964.5</ele><time>2026-04-11T10:26:58Z</time></trkpt><trkpt lat="46.04449250569532" lon="9.395665925768412"><ele>961.25</ele><time>2026-04-11T10:26:59Z</time></trkpt><trkpt lat="46.04464039093749" lon="9.395682496807758"><ele>958.0</ele><time>2026-04-11T10:27:00Z</time></trkpt><trkpt lat="46.04477680268893" lon="9.395697831088384"><ele>958.0</ele><time>2026-04-11T10:27:01Z</time></trkpt><trkpt lat="46.044921804752285" lon="9.39571375007986"><ele>958.0</ele><time>2026-04-11T10:27:02Z</time></trkpt><trkpt lat="46.04506428694963" lon="9.395728422754045"><ele>958.0</ele><time>2026-04-11T10:27:03Z</time></trkpt><trkpt lat="46.04520489324503" lon="9.39572615640383"><ele>958.0</ele><time>2026-04-11T10:27:04Z</time></trkpt><trkpt lat="46.045352694999174" lon="9.395692255333628"><ele>955.5</ele><time>2026-04-11T10:27:05Z</time></trkpt><trkpt lat="46.045484290186806" lon="9.395655400039471"><ele>953.0</ele><time>2026-04-11T10:27:06Z</time></trkpt><trkpt lat="46.045623428555245" lon="9.395635972679836"><ele>950.5</ele><time>2026-04-11T10:27:07Z</time></trkpt><trkpt lat="46.04576086646743" lon="9.395642383686907"><ele>948.0</ele><time>2026-04-11T10:27:08Z</time></trkpt><trkpt lat="46.04590180318898" lon="9.395651533304155"><ele>947.0</ele><time>2026-04-11T10:27:09Z</time></trkpt><trkpt lat="46.04603959595192" lon="9.395644066141537"><ele>946.0</ele><time>2026-04-11T10:27:10Z</time></trkpt><trkpt lat="46.04617735769478" lon="9.395618803860318"><ele>945.0</ele><time>2026-04-11T10:27:11Z</time></trkpt><trkpt lat="46.04631765949654" lon="9.39556626130054"><ele>944.0</ele><time>2026-04-11T10:27:12Z</time></trkpt><trkpt lat="46.046449662564406" lon="9.395510166463112"><ele>936.5</ele><time>2026-04-11T10:27:13Z</time></trkpt><trkpt lat="46.04658333468102" lon="9.395461428277901"><ele>929.0</ele><time>2026-04-11T10:27:14Z</time></trkpt><trkpt lat="46.04670816298209" lon="9.395433499591418"><ele>921.5</ele><time>2026-04-11T10:27:15Z</time></trkpt><trkpt lat="46.04682328451339" lon="9.395420361349165"><ele>914.0</ele><time>2026-04-11T10:27:16Z</time></trkpt><trkpt lat="46.04692886227162" lon="9.395415666784334"><ele>914.0000000000001</ele><time>2026-04-11T10:27:17Z</time></trkpt><trkpt lat="46.04702683253261" lon="9.395445225942503"><ele>914.0</ele><time>2026-04-11T10:27:18Z</time></trkpt><trkpt lat="46.04711576850361" lon="9.395450998845488"><ele>914.0</ele><time>2026-04-11T10:27:19Z</time></trkpt><trkpt lat="46.0471918853876" lon="9.395428560635116"><ele>914.0</ele><time>2026-04-11T10:27:20Z</time></trkpt><trkpt lat="46.047291719882956" lon="9.395396189511569"><ele>914.0000000000001</ele><time>2026-04-11T10:27:22Z</time></trkpt><trkpt lat="46.04735873208674" lon="9.395363934101919"><ele>914.0</ele><time>2026-04-11T10:27:25Z</time></trkpt><trkpt lat="46.047333830924174" lon="9.395166850350778"><ele>914.0</ele><time>2026-04-11T10:27:27Z</time></trkpt><trkpt lat="46.047290777526406" lon="9.395059601138499"><ele>914.0000000000001</ele><time>2026-04-11T10:27:28Z</time></trkpt><trkpt lat="46.04724760103664" lon="9.39493328707915"><ele>914.0000000000001</ele><time>2026-04-11T10:27:29Z</time></trkpt><trkpt lat="46.047199417957614" lon="9.394784891613055"><ele>914.0</ele><time>2026-04-11T10:27:30Z</time></trkpt><trkpt lat="46.04714566491718" lon="9.394613291919534"><ele>914.0</ele><time>2026-04-11T10:27:31Z</time></trkpt><trkpt lat="46.047089972644095" lon="9.394441101346846"><ele>911.0</ele><time>2026-04-11T10:27:32Z</time></trkpt><trkpt lat="46.04703900233124" lon="9.3942547545725"><ele>908.0</ele><time>2026-04-11T10:27:33Z</time></trkpt><trkpt lat="46.04700551845344" lon="9.394054779499822"><ele>905.0</ele><time>2026-04-11T10:27:34Z</time></trkpt><trkpt lat="46.046989042960526" lon="9.393860531067785"><ele>902.0</ele><time>2026-04-11T10:27:35Z</time></trkpt><trkpt lat="46.046971206391234" lon="9.393671053920803"><ele>900.5</ele><time>2026-04-11T10:27:36Z</time></trkpt><trkpt lat="46.04694565052697" lon="9.393477826813045"><ele>899.0</ele><time>2026-04-11T10:27:37Z</time></trkpt><trkpt lat="46.04691525519328" lon="9.393298271692121"><ele>897.5</ele><time>2026-04-11T10:27:38Z</time></trkpt><trkpt lat="46.04686762960019" lon="9.393136861576178"><ele>896.0</ele><time>2026-04-11T10:27:39Z</time></trkpt><trkpt lat="46.046786712740705" lon="9.392998751369936"><ele>896.0</ele><time>2026-04-11T10:27:40Z</time></trkpt><trkpt lat="46.04667132049111" lon="9.392902184315004"><ele>896.0</ele><time>2026-04-11T10:27:41Z</time></trkpt><trkpt lat="46.046544718897565" lon="9.392813415983696"><ele>896.0</ele><time>2026-04-11T10:27:42Z</time></trkpt><trkpt lat="46.04643051002561" lon="9.39272634292449"><ele>896.0</ele><time>2026-04-11T10:27:43Z</time></trkpt><trkpt lat="46.046315751936845" lon="9.39263568108936"><ele>891.5</ele><time>2026-04-11T10:27:44Z</time></trkpt><trkpt lat="46.04620634532235" lon="9.39253582221066"><ele>887.0</ele><time>2026-04-11T10:27:45Z</time></trkpt><trkpt lat="46.046109426780866" lon="9.392423792196174"><ele>882.5</ele><time>2026-04-11T10:27:46Z</time></trkpt><trkpt lat="46.046014601752255" lon="9.392307479505304"><ele>878.0</ele><time>2026-04-11T10:27:47Z</time></trkpt><trkpt lat="46.04591669785302" lon="9.392200960102398"><ele>876.75</ele><time>2026-04-11T10:27:48Z</time></trkpt><trkpt lat="46.045806761207274" lon="9.392103747354392"><ele>875.5</ele><time>2026-04-11T10:27:49Z</time></trkpt><trkpt lat="46.04568734074629" lon="9.392019600637797"><ele>874.25</ele><time>2026-04-11T10:27:50Z</time></trkpt><trkpt lat="46.045566364484685" lon="9.3919523149485"><ele>873.0</ele><time>2026-04-11T10:27:51Z</time></trkpt><trkpt lat="46.04545755311722" lon="9.391891844100012"><ele>873.0</ele><time>2026-04-11T10:27:52Z</time></trkpt><trkpt lat="46.04534803175738" lon="9.391835757684232"><ele>873.0</ele><time>2026-04-11T10:27:53Z</time></trkpt><trkpt lat="46.04524100567846" lon="9.391781365037433"><ele>873.0</ele><time>2026-04-11T10:27:54Z</time></trkpt><trkpt lat="46.045133387955936" lon="9.39172663145393"><ele>873.0</ele><time>2026-04-11T10:27:55Z</time></trkpt><trkpt lat="46.045038990549806" lon="9.391679974063337"><ele>873.0</ele><time>2026-04-11T10:27:56Z</time></trkpt><trkpt lat="46.04496317566277" lon="9.391641823766934"><ele>872.3333333333334</ele><time>2026-04-11T10:27:57Z</time></trkpt><trkpt lat="46.04489186939532" lon="9.391602307595885"><ele>871.6666666666667</ele><time>2026-04-11T10:27:58Z</time></trkpt><trkpt lat="46.04481731827149" lon="9.391574488135662"><ele>871.0</ele><time>2026-04-11T10:27:59Z</time></trkpt><trkpt lat="46.04473609128658" lon="9.39152352620448"><ele>870.3333333333334</ele><time>2026-04-11T10:28:00Z</time></trkpt><trkpt lat="46.04465873180799" lon="9.391439464051995"><ele>869.6666666666667</ele><time>2026-04-11T10:28:01Z</time></trkpt><trkpt lat="46.04457499452935" lon="9.39135215058103"><ele>869.0</ele><time>2026-04-11T10:28:02Z</time></trkpt><trkpt lat="46.0444823697068" lon="9.391264689635406"><ele>869.0</ele><time>2026-04-11T10:28:03Z</time></trkpt><trkpt lat="46.044375215538686" lon="9.391178081827317"><ele>869.0</ele><time>2026-04-11T10:28:04Z</time></trkpt><trkpt lat="46.04426642248971" lon="9.391096545890877"><ele>869.0</ele><time>2026-04-11T10:28:05Z</time></trkpt><trkpt lat="46.044159220518864" lon="9.391017768919978"><ele>869.0</ele><time>2026-04-11T10:28:06Z</time></trkpt><trkpt lat="46.04405233315804" lon="9.39092975776728"><ele>865.25</ele><time>2026-04-11T10:28:07Z</time></trkpt><trkpt lat="46.04395291603772" lon="9.390835728016844"><ele>861.5</ele><time>2026-04-11T10:28:08Z</time></trkpt><trkpt lat="46.04385335599467" lon="9.390754808255394"><ele>857.75</ele><time>2026-04-11T10:28:09Z</time></trkpt><trkpt lat="46.043754359019964" lon="9.390683845961785"><ele>854.0</ele><time>2026-04-11T10:28:10Z</time></trkpt><trkpt lat="46.043661395530435" lon="9.390601022318842"><ele>855.25</ele><time>2026-04-11T10:28:11Z</time></trkpt><trkpt lat="46.04357185048676" lon="9.390497761956494"><ele>856.5</ele><time>2026-04-11T10:28:12Z</time></trkpt><trkpt lat="46.04348339686924" lon="9.390371369760933"><ele>857.75</ele><time>2026-04-11T10:28:13Z</time></trkpt><trkpt lat="46.043390215110215" lon="9.390216267974884"><ele>859.0</ele><time>2026-04-11T10:28:14Z</time></trkpt><trkpt lat="46.043287696681524" lon="9.39003794375021"><ele>858.75</ele><time>2026-04-11T10:28:15Z</time></trkpt><trkpt lat="46.043191071067255" lon="9.38986674646914"><ele>858.5</ele><time>2026-04-11T10:28:16Z</time></trkpt><trkpt lat="46.04309807276042" lon="9.389712931743068"><ele>858.25</ele><time>2026-04-11T10:28:17Z</time></trkpt><trkpt lat="46.04298871191432" lon="9.389559568818663"><ele>858.0</ele><time>2026-04-11T10:28:18Z</time></trkpt><trkpt lat="46.04285578754691" lon="9.389419078773143"><ele>858.0</ele><time>2026-04-11T10:28:19Z</time></trkpt><trkpt lat="46.042716007193356" lon="9.38929537320677"><ele>858.0</ele><time>2026-04-11T10:28:20Z</time></trkpt><trkpt lat="46.042566889925794" lon="9.38916834210255"><ele>858.0</ele><time>2026-04-11T10:28:21Z</time></trkpt><trkpt lat="46.04243428876661" lon="9.389054171239518"><ele>854.0</ele><time>2026-04-11T10:28:22Z</time></trkpt><trkpt lat="46.042315843305644" lon="9.388920436017022"><ele>850.0</ele><time>2026-04-11T10:28:23Z</time></trkpt><trkpt lat="46.042172527016575" lon="9.38882692671996"><ele>846.0</ele><time>2026-04-11T10:28:24Z</time></trkpt><trkpt lat="46.04204619098101" lon="9.388708104760923"><ele>846.0</ele><time>2026-04-11T10:28:25Z</time></trkpt><trkpt lat="46.041923432746025" lon="9.388587725570957"><ele>846.0</ele><time>2026-04-11T10:28:26Z</time></trkpt><trkpt lat="46.0418079442509" lon="9.38846409973124"><ele>846.0</ele><time>2026-04-11T10:28:27Z</time></trkpt><trkpt lat="46.04170750506186" lon="9.388340160707994"><ele>846.0</ele><time>2026-04-11T10:28:28Z</time></trkpt><trkpt lat="46.04160198318468" lon="9.388217235352828"><ele>845.5</ele><time>2026-04-11T10:28:29Z</time></trkpt><trkpt lat="46.04149641943495" lon="9.38811401698797"><ele>845.0</ele><time>2026-04-11T10:28:30Z</time></trkpt><trkpt lat="46.04138558636215" lon="9.387987642269367"><ele>844.5</ele><time>2026-04-11T10:28:31Z</time></trkpt><trkpt lat="46.0412350360175" lon="9.387873058478396"><ele>844.0</ele><time>2026-04-11T10:28:32Z</time></trkpt><trkpt lat="46.0410798174311" lon="9.387759963540748"><ele>844.0</ele><time>2026-04-11T10:28:33Z</time></trkpt><trkpt lat="46.04094603381513" lon="9.387649450387645"><ele>844.0</ele><time>2026-04-11T10:28:34Z</time></trkpt><trkpt lat="46.040820332025575" lon="9.387558499137356"><ele>844.0</ele><time>2026-04-11T10:28:35Z</time></trkpt><trkpt lat="46.04069121048059" lon="9.387465488961732"><ele>844.0</ele><time>2026-04-11T10:28:36Z</time></trkpt><trkpt lat="46.04057533231772" lon="9.38737642728116"><ele>843.0</ele><time>2026-04-11T10:28:37Z</time></trkpt><trkpt lat="46.04045447845069" lon="9.387289242650398"><ele>842.0</ele><time>2026-04-11T10:28:38Z</time></trkpt><trkpt lat="46.04033220435157" lon="9.387206000408348"><ele>841.0</ele><time>2026-04-11T10:28:39Z</time></trkpt><trkpt lat="46.04019531933411" lon="9.387129797700554"><ele>840.0</ele><time>2026-04-11T10:28:40Z</time></trkpt><trkpt lat="46.04005563405179" lon="9.387057714942067"><ele>835.5</ele><time>2026-04-11T10:28:41Z</time></trkpt><trkpt lat="46.039918003327195" lon="9.386985480703078"><ele>831.0</ele><time>2026-04-11T10:28:42Z</time></trkpt><trkpt lat="46.03978780964428" lon="9.386918509210576"><ele>826.5</ele><time>2026-04-11T10:28:43Z</time></trkpt><trkpt lat="46.03966014604477" lon="9.386849709590496"><ele>822.0</ele><time>2026-04-11T10:28:44Z</time></trkpt><trkpt lat="46.039536296610805" lon="9.386767455990856"><ele>822.0</ele><time>2026-04-11T10:28:45Z</time></trkpt><trkpt lat="46.03943366538172" lon="9.38664865790761"><ele>822.0</ele><time>2026-04-11T10:28:46Z</time></trkpt><trkpt lat="46.0393237734405" lon="9.38654051157847"><ele>822.0</ele><time>2026-04-11T10:28:47Z</time></trkpt><trkpt lat="46.03920584639335" lon="9.386449128620765"><ele>822.0</ele><time>2026-04-11T10:28:48Z</time></trkpt><trkpt lat="46.039087600935204" lon="9.386327292836395"><ele>817.6666666666667</ele><time>2026-04-11T10:28:49Z</time></trkpt><trkpt lat="46.03895657501029" lon="9.386195025291697"><ele>813.3333333333334</ele><time>2026-04-11T10:28:50Z</time></trkpt><trkpt lat="46.038814978390754" lon="9.386054521843509"><ele>809.0</ele><time>2026-04-11T10:28:51Z</time></trkpt><trkpt lat="46.038665963449674" lon="9.385906084600624"><ele>809.0</ele><time>2026-04-11T10:28:52Z</time></trkpt><trkpt lat="46.03853849144038" lon="9.385747272659168"><ele>809.0</ele><time>2026-04-11T10:28:53Z</time></trkpt><trkpt lat="46.038407782337345" lon="9.38561003860363"><ele>809.0</ele><time>2026-04-11T10:28:54Z</time></trkpt><trkpt lat="46.03828309307743" lon="9.385505340870685"><ele>807.5</ele><time>2026-04-11T10:28:55Z</time></trkpt><trkpt lat="46.038178499336034" lon="9.385366954123551"><ele>806.0</ele><time>2026-04-11T10:28:56Z</time></trkpt><trkpt lat="46.038069378193924" lon="9.385250231417992"><ele>804.5</ele><time>2026-04-11T10:28:57Z</time></trkpt><trkpt lat="46.03796415358594" lon="9.385137676628434"><ele>803.0</ele><time>2026-04-11T10:28:58Z</time></trkpt><trkpt lat="46.03785847086877" lon="9.385025021417094"><ele>803.0</ele><time>2026-04-11T10:28:59Z</time></trkpt><trkpt lat="46.03775773079589" lon="9.38491917625211"><ele>803.0</ele><time>2026-04-11T10:29:00Z</time></trkpt><trkpt lat="46.03765856161706" lon="9.384814981464435"><ele>803.0</ele><time>2026-04-11T10:29:01Z</time></trkpt><trkpt lat="46.03756473802108" lon="9.384716402996563"><ele>803.0</ele><time>2026-04-11T10:29:02Z</time></trkpt><trkpt lat="46.037473158683945" lon="9.384620166446961"><ele>801.8</ele><time>2026-04-11T10:29:03Z</time></trkpt><trkpt lat="46.03737551988874" lon="9.38454696954127"><ele>800.5999999999999</ele><time>2026-04-11T10:29:04Z</time></trkpt><trkpt lat="46.03730323927076" lon="9.384437326983814"><ele>799.4000000000001</ele><time>2026-04-11T10:29:05Z</time></trkpt><trkpt lat="46.037231046555306" lon="9.384336468824202"><ele>798.2</ele><time>2026-04-11T10:29:06Z</time></trkpt><trkpt lat="46.03714475637486" lon="9.384234615495929"><ele>797.0</ele><time>2026-04-11T10:29:07Z</time></trkpt><trkpt lat="46.037069608807684" lon="9.384095781321244"><ele>797.0</ele><time>2026-04-11T10:29:08Z</time></trkpt><trkpt lat="46.03697757977171" lon="9.383967842708781"><ele>797.0</ele><time>2026-04-11T10:29:09Z</time></trkpt><trkpt lat="46.036885239910696" lon="9.383846722780715"><ele>797.0</ele><time>2026-04-11T10:29:10Z</time></trkpt><trkpt lat="46.03676724684954" lon="9.383773014371004"><ele>797.0</ele><time>2026-04-11T10:29:11Z</time></trkpt><trkpt lat="46.03667003285712" lon="9.383694135169387"><ele>795.25</ele><time>2026-04-11T10:29:12Z</time></trkpt><trkpt lat="46.03657412222854" lon="9.38360735407841"><ele>793.5</ele><time>2026-04-11T10:29:13Z</time></trkpt><trkpt lat="46.036472161196556" lon="9.383509551321767"><ele>791.75</ele><time>2026-04-11T10:29:14Z</time></trkpt><trkpt lat="46.036368001628" lon="9.38340109557095"><ele>790.0</ele><time>2026-04-11T10:29:15Z</time></trkpt><trkpt lat="46.03626281607939" lon="9.3832788308882"><ele>790.0</ele><time>2026-04-11T10:29:16Z</time></trkpt><trkpt lat="46.03615507899057" lon="9.383146652161809"><ele>790.0</ele><time>2026-04-11T10:29:17Z</time></trkpt><trkpt lat="46.03603865271804" lon="9.38299592939808"><ele>790.0</ele><time>2026-04-11T10:29:18Z</time></trkpt><trkpt lat="46.03592795936175" lon="9.382859102833688"><ele>790.0</ele><time>2026-04-11T10:29:19Z</time></trkpt><trkpt lat="46.035826988002405" lon="9.382722140617277"><ele>787.25</ele><time>2026-04-11T10:29:20Z</time></trkpt><trkpt lat="46.035723145549795" lon="9.382589852069602"><ele>784.5</ele><time>2026-04-11T10:29:21Z</time></trkpt><trkpt lat="46.03562876955411" lon="9.382458685831002"><ele>781.75</ele><time>2026-04-11T10:29:22Z</time></trkpt><trkpt lat="46.03554502229107" lon="9.382334877382592"><ele>779.0</ele><time>2026-04-11T10:29:23Z</time></trkpt><trkpt lat="46.03546720927452" lon="9.382212918624653"><ele>783.0</ele><time>2026-04-11T10:29:24Z</time></trkpt><trkpt lat="46.0353979911775" lon="9.382091655683075"><ele>787.0</ele><time>2026-04-11T10:29:25Z</time></trkpt><trkpt lat="46.03533937729732" lon="9.381970889442837"><ele>791.0</ele><time>2026-04-11T10:29:26Z</time></trkpt><trkpt lat="46.03528978612849" lon="9.381857134860489"><ele>795.0</ele><time>2026-04-11T10:29:27Z</time></trkpt><trkpt lat="46.035242332836155" lon="9.381751340199932"><ele>799.0</ele><time>2026-04-11T10:29:28Z</time></trkpt><trkpt lat="46.035194136036324" lon="9.381656300121303"><ele>799.0</ele><time>2026-04-11T10:29:29Z</time></trkpt><trkpt lat="46.03513593372754" lon="9.381584632210345"><ele>799.0</ele><time>2026-04-11T10:29:30Z</time></trkpt><trkpt lat="46.0350406465888" lon="9.381544239039732"><ele>799.0</ele><time>2026-04-11T10:29:32Z</time></trkpt><trkpt lat="46.03506772730786" lon="9.381629251773909"><ele>799.0</ele><time>2026-04-11T10:29:34Z</time></trkpt><trkpt lat="46.035036816750534" lon="9.381827511513388"><ele>799.0</ele><time>2026-04-11T10:29:37Z</time></trkpt><trkpt lat="46.035080376184304" lon="9.381955129435447"><ele>799.0</ele><time>2026-04-11T10:29:38Z</time></trkpt><trkpt lat="46.03512309545573" lon="9.38211625078535"><ele>799.0</ele><time>2026-04-11T10:29:39Z</time></trkpt><trkpt lat="46.03517641131443" lon="9.382288612877387"><ele>799.0</ele><time>2026-04-11T10:29:40Z</time></trkpt><trkpt lat="46.03521978552171" lon="9.382464424775158"><ele>799.0</ele><time>2026-04-11T10:29:41Z</time></trkpt><trkpt lat="46.03527733639629" lon="9.382653201479158"><ele>794.0</ele><time>2026-04-11T10:29:42Z</time></trkpt><trkpt lat="46.03532859857186" lon="9.38283019766961"><ele>789.0</ele><time>2026-04-11T10:29:43Z</time></trkpt><trkpt lat="46.03537558183405" lon="9.382998048743348"><ele>784.0</ele><time>2026-04-11T10:29:44Z</time></trkpt><trkpt lat="46.03542134646268" lon="9.383158708795683"><ele>779.0</ele><time>2026-04-11T10:29:45Z</time></trkpt><trkpt lat="46.035464973074546" lon="9.383310620808654"><ele>777.4000000000001</ele><time>2026-04-11T10:29:46Z</time></trkpt><trkpt lat="46.035508145295175" lon="9.383460950468429"><ele>775.8</ele><time>2026-04-11T10:29:47Z</time></trkpt><trkpt lat="46.035547166639205" lon="9.38359682510331"><ele>774.2</ele><time>2026-04-11T10:29:48Z</time></trkpt><trkpt lat="46.03558932902012" lon="9.383738428627664"><ele>772.5999999999999</ele><time>2026-04-11T10:29:49Z</time></trkpt><trkpt lat="46.03563362258049" lon="9.383888394973955"><ele>771.0</ele><time>2026-04-11T10:29:50Z</time></trkpt><trkpt lat="46.035679022700556" lon="9.384042107852881"><ele>769.75</ele><time>2026-04-11T10:29:51Z</time></trkpt><trkpt lat="46.035724163464096" lon="9.384194942677775"><ele>768.5</ele><time>2026-04-11T10:29:52Z</time></trkpt><trkpt lat="46.03576905641848" lon="9.38434693844826"><ele>767.25</ele><time>2026-04-11T10:29:53Z</time></trkpt><trkpt lat="46.035813112148276" lon="9.384494998710462"><ele>766.0</ele><time>2026-04-11T10:29:54Z</time></trkpt><trkpt lat="46.03586388426292" lon="9.38463202821805"><ele>767.5</ele><time>2026-04-11T10:29:55Z</time></trkpt><trkpt lat="46.035897195899736" lon="9.384764441811482"><ele>769.0</ele><time>2026-04-11T10:29:56Z</time></trkpt><trkpt lat="46.03593219117844" lon="9.384875240376203"><ele>770.5</ele><time>2026-04-11T10:29:57Z</time></trkpt><trkpt lat="46.035971304530136" lon="9.384956361723248"><ele>772.0</ele><time>2026-04-11T10:29:58Z</time></trkpt><trkpt lat="46.03599200589971" lon="9.385058087759898"><ele>773.4999999999999</ele><time>2026-04-11T10:30:00Z</time></trkpt><trkpt lat="46.03591068640902" lon="9.385125618212623"><ele>775.0</ele><time>2026-04-11T10:30:02Z</time></trkpt><trkpt lat="46.03580442193425" lon="9.38504145502207"><ele>773.2</ele><time>2026-04-11T10:30:04Z</time></trkpt><trkpt lat="46.03574409854723" lon="9.38494180987339"><ele>771.4</ele><time>2026-04-11T10:30:05Z</time></trkpt><trkpt lat="46.03565937868837" lon="9.384821469200004"><ele>769.5999999999999</ele><time>2026-04-11T10:30:06Z</time></trkpt><trkpt lat="46.035567875391344" lon="9.38470284037283"><ele>767.8</ele><time>2026-04-11T10:30:07Z</time></trkpt><trkpt lat="46.035485116269484" lon="9.38459647205804"><ele>766.0</ele><time>2026-04-11T10:30:08Z</time></trkpt><trkpt lat="46.03540947877549" lon="9.38449303803552"><ele>766.0</ele><time>2026-04-11T10:30:09Z</time></trkpt><trkpt lat="46.03533475598342" lon="9.38439849262419"><ele>766.0</ele><time>2026-04-11T10:30:10Z</time></trkpt><trkpt lat="46.03525374742036" lon="9.384309660564975"><ele>766.0</ele><time>2026-04-11T10:30:11Z</time></trkpt><trkpt lat="46.03517082889386" lon="9.384246864511203"><ele>766.0</ele><time>2026-04-11T10:30:12Z</time></trkpt><trkpt lat="46.03507389786521" lon="9.384191270938567"><ele>766.0</ele><time>2026-04-11T10:30:13Z</time></trkpt><trkpt lat="46.03497656814668" lon="9.384137555598837"><ele>763.4</ele><time>2026-04-11T10:30:14Z</time></trkpt><trkpt lat="46.03487704911851" lon="9.384085760920854"><ele>760.8</ele><time>2026-04-11T10:30:15Z</time></trkpt><trkpt lat="46.034781861513" lon="9.384028950826478"><ele>758.1999999999999</ele><time>2026-04-11T10:30:16Z</time></trkpt><trkpt lat="46.034681917907086" lon="9.383977154014545"><ele>755.5999999999999</ele><time>2026-04-11T10:30:17Z</time></trkpt><trkpt lat="46.03458416961423" lon="9.383926710110066"><ele>753.0</ele><time>2026-04-11T10:30:18Z</time></trkpt><trkpt lat="46.03449064157115" lon="9.383889152145025"><ele>753.0</ele><time>2026-04-11T10:30:19Z</time></trkpt><trkpt lat="46.03438941745172" lon="9.383867936111994"><ele>753.0</ele><time>2026-04-11T10:30:20Z</time></trkpt><trkpt lat="46.03427945829791" lon="9.383886785681996"><ele>753.0</ele><time>2026-04-11T10:30:21Z</time></trkpt><trkpt lat="46.03415565995078" lon="9.383937110440181"><ele>753.0</ele><time>2026-04-11T10:30:22Z</time></trkpt><trkpt lat="46.03403429954928" lon="9.38398788077605"><ele>754.4</ele><time>2026-04-11T10:30:23Z</time></trkpt><trkpt lat="46.03391897453198" lon="9.384032882501975"><ele>755.8</ele><time>2026-04-11T10:30:24Z</time></trkpt><trkpt lat="46.0338092645068" lon="9.38405761546373"><ele>757.2</ele><time>2026-04-11T10:30:25Z</time></trkpt><trkpt lat="46.03370062426741" lon="9.384047729361862"><ele>758.6</ele><time>2026-04-11T10:30:26Z</time></trkpt><trkpt lat="46.033600213297525" lon="9.383995832315144"><ele>760.0</ele><time>2026-04-11T10:30:27Z</time></trkpt><trkpt lat="46.03352409414703" lon="9.383889568165138"><ele>758.0</ele><time>2026-04-11T10:30:28Z</time></trkpt><trkpt lat="46.033466979959" lon="9.383738659986856"><ele>756.0</ele><time>2026-04-11T10:30:29Z</time></trkpt><trkpt lat="46.03342518845779" lon="9.383568631592327"><ele>754.0</ele><time>2026-04-11T10:30:30Z</time></trkpt><trkpt lat="46.03338969778352" lon="9.38337476044737"><ele>752.0</ele><time>2026-04-11T10:30:31Z</time></trkpt><trkpt lat="46.03334668611149" lon="9.383178120644171"><ele>750.5</ele><time>2026-04-11T10:30:32Z</time></trkpt><trkpt lat="46.03330310188094" lon="9.382990809627021"><ele>749.0</ele><time>2026-04-11T10:30:33Z</time></trkpt><trkpt lat="46.0332578380452" lon="9.382808931801751"><ele>747.5</ele><time>2026-04-11T10:30:34Z</time></trkpt><trkpt lat="46.03321287809164" lon="9.382630763763794"><ele>746.0</ele><time>2026-04-11T10:30:35Z</time></trkpt><trkpt lat="46.033172166543764" lon="9.38245591041821"><ele>746.0</ele><time>2026-04-11T10:30:36Z</time></trkpt><trkpt lat="46.03313376163953" lon="9.382284612867284"><ele>746.0</ele><time>2026-04-11T10:30:37Z</time></trkpt><trkpt lat="46.03309129046247" lon="9.382109529383326"><ele>746.0</ele><time>2026-04-11T10:30:38Z</time></trkpt><trkpt lat="46.0330468870448" lon="9.38194154831248"><ele>746.0</ele><time>2026-04-11T10:30:39Z</time></trkpt><trkpt lat="46.03299672494514" lon="9.381777882820408"><ele>743.25</ele><time>2026-04-11T10:30:40Z</time></trkpt><trkpt lat="46.03293970780869" lon="9.381619512524566"><ele>740.5</ele><time>2026-04-11T10:30:41Z</time></trkpt><trkpt lat="46.032881835190885" lon="9.381469962522255"><ele>737.75</ele><time>2026-04-11T10:30:42Z</time></trkpt><trkpt lat="46.03283288284694" lon="9.381322242673303"><ele>735.0</ele><time>2026-04-11T10:30:43Z</time></trkpt><trkpt lat="46.03278570032545" lon="9.381170006812843"><ele>732.75</ele><time>2026-04-11T10:30:44Z</time></trkpt><trkpt lat="46.03272371682109" lon="9.38103023598079"><ele>730.5</ele><time>2026-04-11T10:30:45Z</time></trkpt><trkpt lat="46.0326373627086" lon="9.380921486218233"><ele>728.25</ele><time>2026-04-11T10:30:46Z</time></trkpt><trkpt lat="46.0325232779662" lon="9.380857927976514"><ele>726.0</ele><time>2026-04-11T10:30:47Z</time></trkpt><trkpt lat="46.032401995180365" lon="9.380805924891213"><ele>726.0</ele><time>2026-04-11T10:30:48Z</time></trkpt><trkpt lat="46.03232109307085" lon="9.380745762425018"><ele>726.0</ele><time>2026-04-11T10:30:49Z</time></trkpt><trkpt lat="46.03220125511733" lon="9.380696992691389"><ele>726.0</ele><time>2026-04-11T10:30:50Z</time></trkpt><trkpt lat="46.03208551760893" lon="9.380620282860553"><ele>726.0</ele><time>2026-04-11T10:30:51Z</time></trkpt><trkpt lat="46.03198090742709" lon="9.38055570679071"><ele>724.1999999999999</ele><time>2026-04-11T10:30:52Z</time></trkpt><trkpt lat="46.03187889994362" lon="9.380491566481545"><ele>722.4</ele><time>2026-04-11T10:30:53Z</time></trkpt><trkpt lat="46.03177889086439" lon="9.38042996926238"><ele>720.6</ele><time>2026-04-11T10:30:54Z</time></trkpt><trkpt lat="46.03167928586243" lon="9.380373814734"><ele>718.8</ele><time>2026-04-11T10:30:55Z</time></trkpt><trkpt lat="46.03158158437359" lon="9.380308350863402"><ele>717.0</ele><time>2026-04-11T10:30:56Z</time></trkpt><trkpt lat="46.03147989106127" lon="9.380277866001034"><ele>716.6</ele><time>2026-04-11T10:30:57Z</time></trkpt><trkpt lat="46.03136995046677" lon="9.380274327978562"><ele>716.2</ele><time>2026-04-11T10:30:58Z</time></trkpt><trkpt lat="46.03126842810029" lon="9.380251681361655"><ele>715.8</ele><time>2026-04-11T10:30:59Z</time></trkpt><trkpt lat="46.031175187047005" lon="9.380226622907648"><ele>715.4</ele><time>2026-04-11T10:31:00Z</time></trkpt><trkpt lat="46.03108791148986" lon="9.380214889680117"><ele>715.0</ele><time>2026-04-11T10:31:01Z</time></trkpt><trkpt lat="46.0309909522535" lon="9.380205032134528"><ele>715.0</ele><time>2026-04-11T10:31:02Z</time></trkpt><trkpt lat="46.03088219593139" lon="9.380215966263068"><ele>715.0</ele><time>2026-04-11T10:31:03Z</time></trkpt><trkpt lat="46.03077641503173" lon="9.380213387712933"><ele>715.0</ele><time>2026-04-11T10:31:04Z</time></trkpt><trkpt lat="46.03064794916933" lon="9.380230149283319"><ele>715.0</ele><time>2026-04-11T10:31:05Z</time></trkpt><trkpt lat="46.03052096230555" lon="9.380243362176552"><ele>714.0</ele><time>2026-04-11T10:31:06Z</time></trkpt><trkpt lat="46.03040102068458" lon="9.380270384352404"><ele>713.0</ele><time>2026-04-11T10:31:07Z</time></trkpt><trkpt lat="46.03029023438522" lon="9.380278709463235"><ele>712.0</ele><time>2026-04-11T10:31:08Z</time></trkpt><trkpt lat="46.030187474512296" lon="9.380298141209948"><ele>711.0</ele><time>2026-04-11T10:31:09Z</time></trkpt><trkpt lat="46.03008467046565" lon="9.380322093575217"><ele>710.0</ele><time>2026-04-11T10:31:10Z</time></trkpt><trkpt lat="46.029988876888595" lon="9.380339529453243"><ele>710.0</ele><time>2026-04-11T10:31:11Z</time></trkpt><trkpt lat="46.029904502117546" lon="9.380350669393275"><ele>710.0</ele><time>2026-04-11T10:31:12Z</time></trkpt><trkpt lat="46.0298265149064" lon="9.380373061111642"><ele>710.0</ele><time>2026-04-11T10:31:13Z</time></trkpt><trkpt lat="46.029764729704354" lon="9.38040448621241"><ele>710.0</ele><time>2026-04-11T10:31:14Z</time></trkpt><trkpt lat="46.02971060269687" lon="9.380485357236008"><ele>710.0</ele><time>2026-04-11T10:31:15Z</time></trkpt><trkpt lat="46.02965870212979" lon="9.380593251816293"><ele>710.0</ele><time>2026-04-11T10:31:16Z</time></trkpt><trkpt lat="46.02957701270245" lon="9.38066690588774"><ele>710.0</ele><time>2026-04-11T10:31:17Z</time></trkpt><trkpt lat="46.02946325470319" lon="9.380695938414826"><ele>710.0</ele><time>2026-04-11T10:31:18Z</time></trkpt><trkpt lat="46.029348848797426" lon="9.380783078020459"><ele>710.0</ele><time>2026-04-11T10:31:19Z</time></trkpt><trkpt lat="46.02922952851629" lon="9.380856147381534"><ele>710.0</ele><time>2026-04-11T10:31:20Z</time></trkpt><trkpt lat="46.02913503634407" lon="9.38093539559675"><ele>710.75</ele><time>2026-04-11T10:31:21Z</time></trkpt><trkpt lat="46.02906197185393" lon="9.381033055311967"><ele>711.5</ele><time>2026-04-11T10:31:22Z</time></trkpt><trkpt lat="46.02899696004968" lon="9.381180793569719"><ele>712.25</ele><time>2026-04-11T10:31:23Z</time></trkpt><trkpt lat="46.028947772158865" lon="9.381351313580074"><ele>713.0</ele><time>2026-04-11T10:31:24Z</time></trkpt><trkpt lat="46.02888637185982" lon="9.381511326089978"><ele>715.6666666666666</ele><time>2026-04-11T10:31:25Z</time></trkpt><trkpt lat="46.028841006001926" lon="9.38165049153335"><ele>718.3333333333333</ele><time>2026-04-11T10:31:26Z</time></trkpt><trkpt lat="46.02880521555076" lon="9.381765454694388"><ele>721.0</ele><time>2026-04-11T10:31:27Z</time></trkpt><trkpt lat="46.02876852801486" lon="9.38185316992209"><ele>723.6666666666666</ele><time>2026-04-11T10:31:28Z</time></trkpt><trkpt lat="46.02872149477201" lon="9.381918049108565"><ele>726.3333333333334</ele><time>2026-04-11T10:31:29Z</time></trkpt><trkpt lat="46.02864587686984" lon="9.381915041242172"><ele>729.0</ele><time>2026-04-11T10:31:30Z</time></trkpt><trkpt lat="46.02857044911709" lon="9.381858349007082"><ele>729.0</ele><time>2026-04-11T10:31:31Z</time></trkpt><trkpt lat="46.02854563955054" lon="9.38171369129113"><ele>729.0</ele><time>2026-04-11T10:31:32Z</time></trkpt><trkpt lat="46.02846100884984" lon="9.381592699982251"><ele>729.0</ele><time>2026-04-11T10:31:33Z</time></trkpt><trkpt lat="46.02837984851031" lon="9.381444327092465"><ele>729.0</ele><time>2026-04-11T10:31:34Z</time></trkpt><trkpt lat="46.02826009743621" lon="9.381301058454854"><ele>734.0</ele><time>2026-04-11T10:31:35Z</time></trkpt><trkpt lat="46.0281204815009" lon="9.381147738666186"><ele>739.0</ele><time>2026-04-11T10:31:36Z</time></trkpt><trkpt lat="46.027984216382585" lon="9.381001770466282"><ele>744.0</ele><time>2026-04-11T10:31:37Z</time></trkpt><trkpt lat="46.02786337610646" lon="9.380812690416336"><ele>744.0</ele><time>2026-04-11T10:31:38Z</time></trkpt><trkpt lat="46.02772142464496" lon="9.380613915063725"><ele>744.0</ele><time>2026-04-11T10:31:39Z</time></trkpt><trkpt lat="46.02757356628291" lon="9.38045123844199"><ele>744.0</ele><time>2026-04-11T10:31:40Z</time></trkpt><trkpt lat="46.027432631092715" lon="9.380270569589527"><ele>746.6666666666666</ele><time>2026-04-11T10:31:41Z</time></trkpt><trkpt lat="46.027300530300536" lon="9.380103150148779"><ele>749.3333333333333</ele><time>2026-04-11T10:31:42Z</time></trkpt><trkpt lat="46.02716103346882" lon="9.379933222375977"><ele>752.0</ele><time>2026-04-11T10:31:43Z</time></trkpt><trkpt lat="46.0270308659626" lon="9.379775157194382"><ele>756.0</ele><time>2026-04-11T10:31:44Z</time></trkpt><trkpt lat="46.026899526484314" lon="9.379614508114893"><ele>760.0</ele><time>2026-04-11T10:31:45Z</time></trkpt><trkpt lat="46.026760146761674" lon="9.379444076779476"><ele>764.0</ele><time>2026-04-11T10:31:46Z</time></trkpt><trkpt lat="46.0266198496402" lon="9.379276277004953"><ele>764.0</ele><time>2026-04-11T10:31:47Z</time></trkpt><trkpt lat="46.0264820629948" lon="9.379125033894827"><ele>764.0</ele><time>2026-04-11T10:31:48Z</time></trkpt><trkpt lat="46.02633184483111" lon="9.378975863406295"><ele>764.0</ele><time>2026-04-11T10:31:49Z</time></trkpt><trkpt lat="46.02620114896263" lon="9.37881930225466"><ele>756.3333333333333</ele><time>2026-04-11T10:31:50Z</time></trkpt><trkpt lat="46.026043942162524" lon="9.37868788425063"><ele>748.6666666666666</ele><time>2026-04-11T10:31:51Z</time></trkpt><trkpt lat="46.02591991857667" lon="9.378546082414834"><ele>741.0</ele><time>2026-04-11T10:31:52Z</time></trkpt><trkpt lat="46.025826805245465" lon="9.378401352413833"><ele>740.25</ele><time>2026-04-11T10:31:53Z</time></trkpt><trkpt lat="46.02571384233967" lon="9.37828908801077"><ele>739.5</ele><time>2026-04-11T10:31:54Z</time></trkpt><trkpt lat="46.02560025080315" lon="9.37816943756778"><ele>738.75</ele><time>2026-04-11T10:31:55Z</time></trkpt><trkpt lat="46.02546244474936" lon="9.378070820008787"><ele>738.0</ele><time>2026-04-11T10:31:56Z</time></trkpt><trkpt lat="46.02531179651781" lon="9.377983843113602"><ele>738.0</ele><time>2026-04-11T10:31:57Z</time></trkpt><trkpt lat="46.02516529496544" lon="9.377895709395897"><ele>738.0</ele><time>2026-04-11T10:31:58Z</time></trkpt><trkpt lat="46.02504489523992" lon="9.377825110032585"><ele>738.0</ele><time>2026-04-11T10:31:59Z</time></trkpt><trkpt lat="46.02491298838927" lon="9.377765258996307"><ele>738.0</ele><time>2026-04-11T10:32:00Z</time></trkpt><trkpt lat="46.02476059697644" lon="9.377742380836734"><ele>739.6666666666666</ele><time>2026-04-11T10:32:01Z</time></trkpt><trkpt lat="46.02459414562077" lon="9.377755400793962"><ele>741.3333333333333</ele><time>2026-04-11T10:32:02Z</time></trkpt><trkpt lat="46.02442249650242" lon="9.377778022778253"><ele>743.0</ele><time>2026-04-11T10:32:03Z</time></trkpt><trkpt lat="46.024274144217806" lon="9.377789673007921"><ele>742.5</ele><time>2026-04-11T10:32:04Z</time></trkpt><trkpt lat="46.0241423385031" lon="9.37779494987525"><ele>742.0</ele><time>2026-04-11T10:32:05Z</time></trkpt><trkpt lat="46.02402624351737" lon="9.377805666600285"><ele>741.5</ele><time>2026-04-11T10:32:06Z</time></trkpt><trkpt lat="46.023911344988434" lon="9.377838895725077"><ele>741.0</ele><time>2026-04-11T10:32:07Z</time></trkpt><trkpt lat="46.02380227439801" lon="9.377926545309874"><ele>747.75</ele><time>2026-04-11T10:32:08Z</time></trkpt><trkpt lat="46.02369729182694" lon="9.37806510382671"><ele>754.5</ele><time>2026-04-11T10:32:09Z</time></trkpt><trkpt lat="46.023591848545855" lon="9.378208602377313"><ele>761.25</ele><time>2026-04-11T10:32:10Z</time></trkpt><trkpt lat="46.023502866547545" lon="9.378330408890596"><ele>768.0</ele><time>2026-04-11T10:32:11Z</time></trkpt><trkpt lat="46.02342666952427" lon="9.378420282429023"><ele>768.0</ele><time>2026-04-11T10:32:12Z</time></trkpt><trkpt lat="46.02335565304057" lon="9.378490979068173"><ele>768.0</ele><time>2026-04-11T10:32:13Z</time></trkpt><trkpt lat="46.023276708141736" lon="9.378515376809979"><ele>768.0</ele><time>2026-04-11T10:32:14Z</time></trkpt><trkpt lat="46.02318973203956" lon="9.37845081539166"><ele>768.0</ele><time>2026-04-11T10:32:15Z</time></trkpt><trkpt lat="46.02307926198261" lon="9.378443338825106"><ele>768.0</ele><time>2026-04-11T10:32:16Z</time></trkpt><trkpt lat="46.022965958549314" lon="9.378440579559651"><ele>765.1666666666666</ele><time>2026-04-11T10:32:17Z</time></trkpt><trkpt lat="46.02286540676022" lon="9.378462122235122"><ele>762.3333333333334</ele><time>2026-04-11T10:32:18Z</time></trkpt><trkpt lat="46.02277282179886" lon="9.378499634132693"><ele>759.5</ele><time>2026-04-11T10:32:19Z</time></trkpt><trkpt lat="46.02269541111051" lon="9.378555007732427"><ele>756.6666666666667</ele><time>2026-04-11T10:32:20Z</time></trkpt><trkpt lat="46.02263551788921" lon="9.378633702069687"><ele>753.8333333333334</ele><time>2026-04-11T10:32:21Z</time></trkpt><trkpt lat="46.022593088686534" lon="9.378735274793819"><ele>751.0</ele><time>2026-04-11T10:32:22Z</time></trkpt><trkpt lat="46.022576187159" lon="9.37884306461009"><ele>750.5</ele><time>2026-04-11T10:32:23Z</time></trkpt><trkpt lat="46.022525044473696" lon="9.3789751595668"><ele>750.0</ele><time>2026-04-11T10:32:25Z</time></trkpt><trkpt lat="46.02246408726725" lon="9.379001246033646"><ele>749.5</ele><time>2026-04-11T10:32:26Z</time></trkpt><trkpt lat="46.0223728061339" lon="9.37899469377265"><ele>749.0</ele><time>2026-04-11T10:32:27Z</time></trkpt><trkpt lat="46.022297827506236" lon="9.379070470406248"><ele>748.5</ele><time>2026-04-11T10:32:28Z</time></trkpt><trkpt lat="46.022230725120565" lon="9.379116511682088"><ele>748.0</ele><time>2026-04-11T10:32:29.001Z</time></trkpt><trkpt lat="46.02220336770841" lon="9.379297948260842"><ele>748.0</ele><time>2026-04-11T10:32:31Z</time></trkpt><trkpt lat="46.02222058330296" lon="9.379410912260415"><ele>748.0</ele><time>2026-04-11T10:32:32Z</time></trkpt><trkpt lat="46.02223604846337" lon="9.379511872274891"><ele>748.0</ele><time>2026-04-11T10:32:33Z</time></trkpt><trkpt lat="46.022233743971434" lon="9.379644531174014"><ele>748.0</ele><time>2026-04-11T10:32:35Z</time></trkpt><trkpt lat="46.0221581817038" lon="9.379731974278886"><ele>748.0</ele><time>2026-04-11T10:32:37Z</time></trkpt><trkpt lat="46.02208095268397" lon="9.37982196383198"><ele>748.0</ele><time>2026-04-11T10:32:39Z</time></trkpt><trkpt lat="46.02202938042553" lon="9.379911245087625"><ele>752.2</ele><time>2026-04-11T10:32:41Z</time></trkpt><trkpt lat="46.02198698675552" lon="9.380000388889611"><ele>756.4</ele><time>2026-04-11T10:32:42Z</time></trkpt><trkpt lat="46.02191447695697" lon="9.380124245124646"><ele>760.6</ele><time>2026-04-11T10:32:43Z</time></trkpt><trkpt lat="46.02183838401252" lon="9.380242726593217"><ele>764.8000000000001</ele><time>2026-04-11T10:32:44Z</time></trkpt><trkpt lat="46.021767442576035" lon="9.380322160361983"><ele>769.0</ele><time>2026-04-11T10:32:45Z</time></trkpt><trkpt lat="46.02173118062698" lon="9.380420794706966"><ele>769.0</ele><time>2026-04-11T10:32:46Z</time></trkpt><trkpt lat="46.02168937120144" lon="9.380510955733463"><ele>769.0</ele><time>2026-04-11T10:32:47Z</time></trkpt><trkpt lat="46.02164325449652" lon="9.380649245921086"><ele>769.0</ele><time>2026-04-11T10:32:48Z</time></trkpt><trkpt lat="46.021589352263945" lon="9.380797305736868"><ele>769.0</ele><time>2026-04-11T10:32:49Z</time></trkpt><trkpt lat="46.02154163311841" lon="9.380939863732953"><ele>769.0</ele><time>2026-04-11T10:32:50Z</time></trkpt><trkpt lat="46.02148170215947" lon="9.38107877537947"><ele>768.4000000000001</ele><time>2026-04-11T10:32:51Z</time></trkpt><trkpt lat="46.02141468597322" lon="9.38120377136098"><ele>767.8</ele><time>2026-04-11T10:32:52Z</time></trkpt><trkpt lat="46.02135614308656" lon="9.381304604619285"><ele>767.2</ele><time>2026-04-11T10:32:53Z</time></trkpt><trkpt lat="46.02129931627531" lon="9.381384443978952"><ele>766.5999999999999</ele><time>2026-04-11T10:32:54Z</time></trkpt><trkpt lat="46.02122552526037" lon="9.381480316941055"><ele>766.0</ele><time>2026-04-11T10:32:56Z</time></trkpt><trkpt lat="46.02122024440986" lon="9.381593454414302"><ele>769.5</ele><time>2026-04-11T10:32:58Z</time></trkpt><trkpt lat="46.02127316990168" lon="9.38166668948775"><ele>773.0</ele><time>2026-04-11T10:32:59Z</time></trkpt><trkpt lat="46.02136215371328" lon="9.381616228278729"><ele>776.5</ele><time>2026-04-11T10:33:00Z</time></trkpt><trkpt lat="46.02144560581272" lon="9.381594032794304"><ele>780.0</ele><time>2026-04-11T10:33:01Z</time></trkpt><trkpt lat="46.021540749428134" lon="9.381567411262383"><ele>783.4999999999999</ele><time>2026-04-11T10:33:02Z</time></trkpt><trkpt lat="46.021609180663994" lon="9.381550038848841"><ele>787.0</ele><time>2026-04-11T10:33:03Z</time></trkpt><trkpt lat="46.02167531550531" lon="9.381554511105367"><ele>787.0</ele><time>2026-04-11T10:33:05Z</time></trkpt><trkpt lat="46.02166225184307" lon="9.381678090971453"><ele>787.0</ele><time>2026-04-11T10:33:07Z</time></trkpt><trkpt lat="46.02155230118996" lon="9.38179420201632"><ele>787.0</ele><time>2026-04-11T10:33:09Z</time></trkpt><trkpt lat="46.021488748431885" lon="9.381896292471694"><ele>787.0</ele><time>2026-04-11T10:33:10Z</time></trkpt><trkpt lat="46.02139049712172" lon="9.382001741467016"><ele>787.0</ele><time>2026-04-11T10:33:11Z</time></trkpt><trkpt lat="46.02127773860543" lon="9.382108423013927"><ele>791.6</ele><time>2026-04-11T10:33:12Z</time></trkpt><trkpt lat="46.02116367304487" lon="9.382197363457198"><ele>796.2</ele><time>2026-04-11T10:33:13Z</time></trkpt><trkpt lat="46.021071570676895" lon="9.382265572512077"><ele>800.8</ele><time>2026-04-11T10:33:14Z</time></trkpt><trkpt lat="46.02098995128402" lon="9.382331470741526"><ele>805.4</ele><time>2026-04-11T10:33:15Z</time></trkpt><trkpt lat="46.02091787983724" lon="9.382394325486542"><ele>810.0</ele><time>2026-04-11T10:33:16Z</time></trkpt><trkpt lat="46.02086348684429" lon="9.382452144635815"><ele>810.0</ele><time>2026-04-11T10:33:17Z</time></trkpt><trkpt lat="46.02082696207311" lon="9.382527806562576"><ele>810.0</ele><time>2026-04-11T10:33:18Z</time></trkpt><trkpt lat="46.020818610151984" lon="9.382648515120025"><ele>810.0</ele><time>2026-04-11T10:33:19Z</time></trkpt><trkpt lat="46.02081535536126" lon="9.382795524238968"><ele>810.0</ele><time>2026-04-11T10:33:20Z</time></trkpt><trkpt lat="46.020801444811966" lon="9.382920182952198"><ele>810.0</ele><time>2026-04-11T10:33:21Z</time></trkpt><trkpt lat="46.020762872148424" lon="9.383015545609014"><ele>810.0</ele><time>2026-04-11T10:33:22Z</time></trkpt><trkpt lat="46.02071737055339" lon="9.383107920063827"><ele>811.5</ele><time>2026-04-11T10:33:23Z</time></trkpt><trkpt lat="46.02068040133635" lon="9.383206109172756"><ele>813.0</ele><time>2026-04-11T10:33:25Z</time></trkpt><trkpt lat="46.020693880800245" lon="9.383302845058786"><ele>814.5</ele><time>2026-04-11T10:33:46Z</time></trkpt><trkpt lat="46.02079392198796" lon="9.383328236813082"><ele>816.0</ele><time>2026-04-11T10:33:49Z</time></trkpt><trkpt lat="46.02086215903907" lon="9.383247952716825"><ele>817.5</ele><time>2026-04-11T10:33:50Z</time></trkpt><trkpt lat="46.02094079638809" lon="9.38320641989143"><ele>819.0</ele><time>2026-04-11T10:33:51Z</time></trkpt><trkpt lat="46.021014900295555" lon="9.383134437205609"><ele>816.75</ele><time>2026-04-11T10:33:52Z</time></trkpt><trkpt lat="46.02111400996086" lon="9.383072769981505"><ele>814.5</ele><time>2026-04-11T10:33:53Z</time></trkpt><trkpt lat="46.021232821799664" lon="9.382995430770702"><ele>812.25</ele><time>2026-04-11T10:33:54Z</time></trkpt><trkpt lat="46.02134792145996" lon="9.382926147462031"><ele>810.0</ele><time>2026-04-11T10:33:55Z</time></trkpt><trkpt lat="46.02146367559481" lon="9.382836205308637"><ele>810.0</ele><time>2026-04-11T10:33:56Z</time></trkpt><trkpt lat="46.021571971604665" lon="9.382758441389166"><ele>810.0</ele><time>2026-04-11T10:33:57Z</time></trkpt><trkpt lat="46.02162793728113" lon="9.38271372903973"><ele>810.0</ele><time>2026-04-11T10:33:58Z</time></trkpt><trkpt lat="46.0216975107116" lon="9.38267335887608"><ele>810.0</ele><time>2026-04-11T10:33:59Z</time></trkpt><trkpt lat="46.02180754846152" lon="9.382621096427398"><ele>810.0</ele><time>2026-04-11T10:34:01Z</time></trkpt><trkpt lat="46.02186957532441" lon="9.382583025622344"><ele>810.0</ele><time>2026-04-11T10:34:02Z</time></trkpt><trkpt lat="46.02197596943826" lon="9.382509021127442"><ele>809.1666666666666</ele><time>2026-04-11T10:34:04Z</time></trkpt><trkpt lat="46.02206952475043" lon="9.3824378376613"><ele>808.3333333333333</ele><time>2026-04-11T10:34:06Z</time></trkpt><trkpt lat="46.022129907930655" lon="9.382390771442898"><ele>807.5</ele><time>2026-04-11T10:34:08Z</time></trkpt><trkpt lat="46.022183298609285" lon="9.382339497243514"><ele>806.6666666666666</ele><time>2026-04-11T10:35:30Z</time></trkpt><trkpt lat="46.02225772033457" lon="9.382245483803999"><ele>805.8333333333333</ele><time>2026-04-11T10:36:04Z</time></trkpt><trkpt lat="46.022314793370235" lon="9.382166875601055"><ele>805.0</ele><time>2026-04-11T10:36:05Z</time></trkpt><trkpt lat="46.02237042803738" lon="9.382076355776368"><ele>804.9999999999999</ele><time>2026-04-11T10:36:06Z</time></trkpt><trkpt lat="46.02241193866118" lon="9.381972865593578"><ele>805.0</ele><time>2026-04-11T10:36:07Z</time></trkpt><trkpt lat="46.02245513400545" lon="9.381863145904273"><ele>805.0</ele><time>2026-04-11T10:36:08Z</time></trkpt><trkpt lat="46.02249798120041" lon="9.38175662010411"><ele>805.0</ele><time>2026-04-11T10:36:09Z</time></trkpt><trkpt lat="46.02253844243784" lon="9.381675816818817"><ele>804.9999999999999</ele><time>2026-04-11T10:36:10Z</time></trkpt><trkpt lat="46.022606291875796" lon="9.381583788227356"><ele>805.0</ele><time>2026-04-11T10:36:12Z</time></trkpt><trkpt lat="46.02268149274147" lon="9.381534074594033"><ele>810.4</ele><time>2026-04-11T10:36:15Z</time></trkpt><trkpt lat="46.02263886995519" lon="9.38171007145699"><ele>815.8</ele><time>2026-04-11T10:36:17Z</time></trkpt><trkpt lat="46.02263090760847" lon="9.381804573710028"><ele>821.2</ele><time>2026-04-11T10:36:18Z</time></trkpt><trkpt lat="46.02259505537477" lon="9.381912638784096"><ele>826.6</ele><time>2026-04-11T10:36:19Z</time></trkpt><trkpt lat="46.02257602177215" lon="9.382031621480223"><ele>832.0</ele><time>2026-04-11T10:36:20Z</time></trkpt><trkpt lat="46.02255368294729" lon="9.382167788779315"><ele>831.3333333333333</ele><time>2026-04-11T10:36:21Z</time></trkpt><trkpt lat="46.022535283383924" lon="9.382267046302866"><ele>830.6666666666666</ele><time>2026-04-11T10:36:22Z</time></trkpt><trkpt lat="46.02250374110995" lon="9.382361228704717"><ele>830.0</ele><time>2026-04-11T10:36:23Z</time></trkpt><trkpt lat="46.02245797443679" lon="9.382446654554755"><ele>829.3333333333333</ele><time>2026-04-11T10:36:24Z</time></trkpt><trkpt lat="46.022389644422816" lon="9.382578079225103"><ele>828.6666666666666</ele><time>2026-04-11T10:36:25Z</time></trkpt><trkpt lat="46.022326998355915" lon="9.382712601066855"><ele>828.0</ele><time>2026-04-11T10:36:26Z</time></trkpt><trkpt lat="46.022267455955756" lon="9.38284138008404"><ele>828.0</ele><time>2026-04-11T10:36:27Z</time></trkpt><trkpt lat="46.02220538156206" lon="9.3829582945847"><ele>828.0</ele><time>2026-04-11T10:36:28Z</time></trkpt><trkpt lat="46.02213169117" lon="9.38306720267866"><ele>828.0</ele><time>2026-04-11T10:36:29Z</time></trkpt><trkpt lat="46.0220607961961" lon="9.38318349372144"><ele>828.0</ele><time>2026-04-11T10:36:29.999Z</time></trkpt><trkpt lat="46.021984986227146" lon="9.383300144863737"><ele>828.0</ele><time>2026-04-11T10:36:30.999Z</time></trkpt><trkpt lat="46.02190407187817" lon="9.383404255957174"><ele>834.25</ele><time>2026-04-11T10:36:31.999Z</time></trkpt><trkpt lat="46.02182855859037" lon="9.383521067668344"><ele>840.5</ele><time>2026-04-11T10:36:32.999Z</time></trkpt><trkpt lat="46.02174973145838" lon="9.383647062014692"><ele>846.75</ele><time>2026-04-11T10:36:33.999Z</time></trkpt><trkpt lat="46.02167223999109" lon="9.383777512973495"><ele>853.0</ele><time>2026-04-11T10:36:34.999Z</time></trkpt><trkpt lat="46.021592048870765" lon="9.38390457488461"><ele>854.2</ele><time>2026-04-11T10:36:35.999Z</time></trkpt><trkpt lat="46.02153652895817" lon="9.384013248624267"><ele>855.4</ele><time>2026-04-11T10:36:36.999Z</time></trkpt><trkpt lat="46.02147738382417" lon="9.38412822846938"><ele>856.6000000000001</ele><time>2026-04-11T10:36:37.999Z</time></trkpt><trkpt lat="46.02141966767347" lon="9.384235995568405"><ele>857.8000000000001</ele><time>2026-04-11T10:36:39Z</time></trkpt><trkpt lat="46.021352865346046" lon="9.384340870057565"><ele>859.0</ele><time>2026-04-11T10:36:40Z</time></trkpt><trkpt lat="46.02128716326644" lon="9.384429412122376"><ele>859.0</ele><time>2026-04-11T10:36:41Z</time></trkpt><trkpt lat="46.02122129948044" lon="9.38453252529895"><ele>859.0000000000001</ele><time>2026-04-11T10:36:42Z</time></trkpt><trkpt lat="46.02116049533384" lon="9.384644018436568"><ele>859.0000000000001</ele><time>2026-04-11T10:36:43Z</time></trkpt><trkpt lat="46.02109489619769" lon="9.384748843361796"><ele>859.0</ele><time>2026-04-11T10:36:44Z</time></trkpt><trkpt lat="46.02101658798525" lon="9.384857383758964"><ele>859.0</ele><time>2026-04-11T10:36:45Z</time></trkpt><trkpt lat="46.020961431738954" lon="9.38492584564296"><ele>862.1666666666666</ele><time>2026-04-11T10:36:46Z</time></trkpt><trkpt lat="46.0208773647536" lon="9.385030141542902"><ele>865.3333333333333</ele><time>2026-04-11T10:36:48Z</time></trkpt><trkpt lat="46.020805599785504" lon="9.385036550350403"><ele>868.5</ele><time>2026-04-11T10:36:50Z</time></trkpt><trkpt lat="46.02074265120806" lon="9.384992998464487"><ele>871.6666666666667</ele><time>2026-04-11T10:36:52Z</time></trkpt><trkpt lat="46.02065241017221" lon="9.38496546790801"><ele>874.8333333333334</ele><time>2026-04-11T10:36:54Z</time></trkpt><trkpt lat="46.02059358355834" lon="9.385027086542394"><ele>878.0</ele><time>2026-04-11T10:36:56Z</time></trkpt><trkpt lat="46.020641166243855" lon="9.385156737585664"><ele>878.0</ele><time>2026-04-11T10:36:58Z</time></trkpt><trkpt lat="46.020766176670826" lon="9.385205948017916"><ele>878.0</ele><time>2026-04-11T10:37:00Z</time></trkpt><trkpt lat="46.02083150347945" lon="9.385233167555754"><ele>878.0</ele><time>2026-04-11T10:37:01Z</time></trkpt><trkpt lat="46.02089946927998" lon="9.385254676384477"><ele>878.0</ele><time>2026-04-11T10:37:02Z</time></trkpt><trkpt lat="46.021016205080585" lon="9.38517720558539"><ele>878.0</ele><time>2026-04-11T10:37:04Z</time></trkpt><trkpt lat="46.02108090789081" lon="9.385135349521999"><ele>878.8</ele><time>2026-04-11T10:37:05Z</time></trkpt><trkpt lat="46.02117923206552" lon="9.385107126487249"><ele>879.5999999999999</ele><time>2026-04-11T10:37:06Z</time></trkpt><trkpt lat="46.021277198599854" lon="9.38506331889094"><ele>880.4000000000001</ele><time>2026-04-11T10:37:07Z</time></trkpt><trkpt lat="46.02139223412321" lon="9.385017645076978"><ele>881.2</ele><time>2026-04-11T10:37:08Z</time></trkpt><trkpt lat="46.02151232073565" lon="9.384970213491105"><ele>882.0</ele><time>2026-04-11T10:37:09Z</time></trkpt><trkpt lat="46.02163543753681" lon="9.38492252018869"><ele>883.4000000000001</ele><time>2026-04-11T10:37:10Z</time></trkpt><trkpt lat="46.02173026151498" lon="9.384874058747872"><ele>884.8000000000001</ele><time>2026-04-11T10:37:11Z</time></trkpt><trkpt lat="46.02182471150332" lon="9.384826072112558"><ele>886.2</ele><time>2026-04-11T10:37:12Z</time></trkpt><trkpt lat="46.02191887854013" lon="9.384775380325593"><ele>887.6</ele><time>2026-04-11T10:37:13Z</time></trkpt><trkpt lat="46.02200689936456" lon="9.384740952185972"><ele>889.0</ele><time>2026-04-11T10:37:14Z</time></trkpt><trkpt lat="46.02209224202705" lon="9.384667878192635"><ele>889.0</ele><time>2026-04-11T10:37:15Z</time></trkpt><trkpt lat="46.02217601646929" lon="9.384585254465328"><ele>889.0000000000001</ele><time>2026-04-11T10:37:16Z</time></trkpt><trkpt lat="46.02225084536152" lon="9.384499553956282"><ele>889.0000000000001</ele><time>2026-04-11T10:37:17Z</time></trkpt><trkpt lat="46.022312870241734" lon="9.384432833873499"><ele>889.0</ele><time>2026-04-11T10:37:18Z</time></trkpt><trkpt lat="46.02247216230269" lon="9.384343567528413"><ele>889.0</ele><time>2026-04-11T10:37:20Z</time></trkpt><trkpt lat="46.0225679406858" lon="9.384282850093761"><ele>894.2</ele><time>2026-04-11T10:37:21Z</time></trkpt><trkpt lat="46.022639425187776" lon="9.384172237747118"><ele>899.4000000000001</ele><time>2026-04-11T10:37:22Z</time></trkpt><trkpt lat="46.02272890912465" lon="9.384113505957515"><ele>904.6</ele><time>2026-04-11T10:37:23Z</time></trkpt><trkpt lat="46.02281195665434" lon="9.384057773886113"><ele>909.8</ele><time>2026-04-11T10:37:24Z</time></trkpt><trkpt lat="46.02288354123077" lon="9.383986081115573"><ele>915.0</ele><time>2026-04-11T10:37:25Z</time></trkpt><trkpt lat="46.02296223894247" lon="9.383934530319966"><ele>915.0</ele><time>2026-04-11T10:37:26Z</time></trkpt><trkpt lat="46.023067852746074" lon="9.383855075309807"><ele>915.0</ele><time>2026-04-11T10:37:28Z</time></trkpt><trkpt lat="46.02317725050719" lon="9.38369637300376"><ele>915.0</ele><time>2026-04-11T10:37:30Z</time></trkpt><trkpt lat="46.02321912982293" lon="9.383625599133877"><ele>915.0</ele><time>2026-04-11T10:37:31Z</time></trkpt><trkpt lat="46.023332352876295" lon="9.383589368279456"><ele>915.6</ele><time>2026-04-11T10:37:33Z</time></trkpt><trkpt lat="46.02339672329173" lon="9.383550403446781"><ele>916.2</ele><time>2026-04-11T10:37:34Z</time></trkpt><trkpt lat="46.02353945388147" lon="9.383540377483397"><ele>916.8</ele><time>2026-04-11T10:37:36Z</time></trkpt><trkpt lat="46.02361743765271" lon="9.383567178057978"><ele>917.4</ele><time>2026-04-11T10:37:37Z</time></trkpt><trkpt lat="46.023714107179686" lon="9.383572049372441"><ele>918.0</ele><time>2026-04-11T10:37:38Z</time></trkpt><trkpt lat="46.02379614038976" lon="9.383554050888137"><ele>918.0</ele><time>2026-04-11T10:37:39Z</time></trkpt><trkpt lat="46.023885727398124" lon="9.383563340679823"><ele>918.0</ele><time>2026-04-11T10:37:40Z</time></trkpt><trkpt lat="46.023961619439675" lon="9.38358253845652"><ele>918.0</ele><time>2026-04-11T10:37:41Z</time></trkpt><trkpt lat="46.02403691676298" lon="9.383600359563253"><ele>918.0</ele><time>2026-04-11T10:37:42Z</time></trkpt><trkpt lat="46.024149073469104" lon="9.383624418041947"><ele>918.0</ele><time>2026-04-11T10:37:44Z</time></trkpt><trkpt lat="46.02422391007851" lon="9.383676325563759"><ele>918.0</ele><time>2026-04-11T10:37:46Z</time></trkpt><trkpt lat="46.02416236644274" lon="9.383749457040226"><ele>918.0</ele><time>2026-04-11T10:37:49Z</time></trkpt><trkpt lat="46.02407539458566" lon="9.383711342546661"><ele>918.0</ele><time>2026-04-11T10:37:51Z</time></trkpt><trkpt lat="46.02398965541731" lon="9.383720020916254"><ele>918.0</ele><time>2026-04-11T10:37:52Z</time></trkpt><trkpt lat="46.02391458793046" lon="9.383747837143815"><ele>918.0</ele><time>2026-04-11T10:37:53Z</time></trkpt><trkpt lat="46.02383455750959" lon="9.38378570546489"><ele>918.0</ele><time>2026-04-11T10:37:54Z</time></trkpt><trkpt lat="46.02376510186469" lon="9.383822025773753"><ele>918.0</ele><time>2026-04-11T10:37:55Z</time></trkpt><trkpt lat="46.023690037886" lon="9.383862093079866"><ele>922.6666666666666</ele><time>2026-04-11T10:37:56Z</time></trkpt><trkpt lat="46.023620564256525" lon="9.383901669327894"><ele>927.3333333333333</ele><time>2026-04-11T10:37:57Z</time></trkpt><trkpt lat="46.0235506308986" lon="9.383959079740775"><ele>932.0</ele><time>2026-04-11T10:37:58Z</time></trkpt><trkpt lat="46.02348392857707" lon="9.384028181779831"><ele>936.6666666666666</ele><time>2026-04-11T10:37:59Z</time></trkpt><trkpt lat="46.02343015408535" lon="9.384102476485523"><ele>941.3333333333333</ele><time>2026-04-11T10:38:00Z</time></trkpt><trkpt lat="46.02338074875614" lon="9.384169099420427"><ele>946.0</ele><time>2026-04-11T10:38:01Z</time></trkpt><trkpt lat="46.02333693184307" lon="9.384260006495806"><ele>946.0</ele><time>2026-04-11T10:38:02Z</time></trkpt><trkpt lat="46.02327769333611" lon="9.384308069489284"><ele>945.9999999999999</ele><time>2026-04-11T10:38:03Z</time></trkpt><trkpt lat="46.02319463876365" lon="9.384421472060376"><ele>945.9999999999999</ele><time>2026-04-11T10:38:05Z</time></trkpt><trkpt lat="46.02309342449241" lon="9.384556374600184"><ele>946.0</ele><time>2026-04-11T10:38:07Z</time></trkpt><trkpt lat="46.023043920092086" lon="9.384631926287955"><ele>946.0</ele><time>2026-04-11T10:38:08Z</time></trkpt><trkpt lat="46.02299018148153" lon="9.384716539078326"><ele>946.0</ele><time>2026-04-11T10:38:09Z</time></trkpt><trkpt lat="46.02295746355922" lon="9.384799002853146"><ele>945.9999999999999</ele><time>2026-04-11T10:38:10Z</time></trkpt><trkpt lat="46.022900219849504" lon="9.384928473927813"><ele>945.9999999999999</ele><time>2026-04-11T10:38:12Z</time></trkpt><trkpt lat="46.02286846508724" lon="9.385010358947959"><ele>946.0</ele><time>2026-04-11T10:38:13Z</time></trkpt><trkpt lat="46.02281331283001" lon="9.385155217506139"><ele>946.0</ele><time>2026-04-11T10:38:15Z</time></trkpt><trkpt lat="46.022721646608176" lon="9.385280500964175"><ele>946.0</ele><time>2026-04-11T10:38:17Z</time></trkpt><trkpt lat="46.02265275289997" lon="9.385329946864804"><ele>946.0</ele><time>2026-04-11T10:38:18Z</time></trkpt><trkpt lat="46.0225912276888" lon="9.385381830213568"><ele>946.0</ele><time>2026-04-11T10:38:19Z</time></trkpt><trkpt lat="46.02254335174953" lon="9.385442983177683"><ele>946.0</ele><time>2026-04-11T10:38:20Z</time></trkpt><trkpt lat="46.022498287613985" lon="9.385508560794467"><ele>946.0</ele><time>2026-04-11T10:38:21Z</time></trkpt><trkpt lat="46.02244062982555" lon="9.385564449707603"><ele>946.0</ele><time>2026-04-11T10:38:22Z</time></trkpt><trkpt lat="46.02238378957621" lon="9.385639714209605"><ele>946.0</ele><time>2026-04-11T10:38:23Z</time></trkpt><trkpt lat="46.022313753625305" lon="9.385742318160474"><ele>945.5999999999999</ele><time>2026-04-11T10:38:24Z</time></trkpt><trkpt lat="46.022264908454254" lon="9.385839154922738"><ele>945.1999999999999</ele><time>2026-04-11T10:38:25Z</time></trkpt><trkpt lat="46.02221687810084" lon="9.38594988778288"><ele>944.8000000000001</ele><time>2026-04-11T10:38:26Z</time></trkpt><trkpt lat="46.02217109771762" lon="9.386061674391451"><ele>944.4000000000001</ele><time>2026-04-11T10:38:27Z</time></trkpt><trkpt lat="46.02211296781245" lon="9.386215500435096"><ele>944.0</ele><time>2026-04-11T10:38:28.999Z</time></trkpt><trkpt lat="46.02204198741206" lon="9.386327678908234"><ele>945.0000000000001</ele><time>2026-04-11T10:38:30.999Z</time></trkpt><trkpt lat="46.02193699123642" lon="9.386421417304259"><ele>946.0</ele><time>2026-04-11T10:38:32.999Z</time></trkpt><trkpt lat="46.021886263758624" lon="9.386492806246244"><ele>947.0</ele><time>2026-04-11T10:38:33.999Z</time></trkpt><trkpt lat="46.02182058943601" lon="9.38654113023862"><ele>948.0</ele><time>2026-04-11T10:38:34.999Z</time></trkpt><trkpt lat="46.02175875858241" lon="9.386606722069093"><ele>949.0000000000001</ele><time>2026-04-11T10:38:35.999Z</time></trkpt><trkpt lat="46.021708180102365" lon="9.386683662371867"><ele>950.0</ele><time>2026-04-11T10:38:36.999Z</time></trkpt><trkpt lat="46.02164758300007" lon="9.386752636491057"><ele>950.0</ele><time>2026-04-11T10:38:37.999Z</time></trkpt><trkpt lat="46.02160247689905" lon="9.386829052642176"><ele>950.0000000000001</ele><time>2026-04-11T10:38:38.999Z</time></trkpt><trkpt lat="46.02157392530172" lon="9.386911181387642"><ele>950.0</ele><time>2026-04-11T10:38:39.999Z</time></trkpt><trkpt lat="46.02153064829018" lon="9.387023029975783"><ele>950.0</ele><time>2026-04-11T10:38:41.999Z</time></trkpt><trkpt lat="46.02147073933122" lon="9.38709502668544"><ele>950.0000000000001</ele><time>2026-04-11T10:38:43.999Z</time></trkpt><trkpt lat="46.021411757651315" lon="9.387128285408313"><ele>950.0</ele><time>2026-04-11T10:38:45Z</time></trkpt><trkpt lat="46.021352207827995" lon="9.387168324653972"><ele>950.0</ele><time>2026-04-11T10:38:46Z</time></trkpt><trkpt lat="46.021268006638415" lon="9.387214010917434"><ele>954.5000000000001</ele><time>2026-04-11T10:38:47Z</time></trkpt><trkpt lat="46.02119060280587" lon="9.387282137852436"><ele>959.0</ele><time>2026-04-11T10:38:48Z</time></trkpt><trkpt lat="46.02114455829075" lon="9.387405361524834"><ele>963.5</ele><time>2026-04-11T10:38:49Z</time></trkpt><trkpt lat="46.02107660479393" lon="9.387477898972909"><ele>968.0</ele><time>2026-04-11T10:38:50Z</time></trkpt><trkpt lat="46.02101823797492" lon="9.387559303418781"><ele>972.5000000000001</ele><time>2026-04-11T10:38:51Z</time></trkpt><trkpt lat="46.02095409047288" lon="9.387640255791005"><ele>977.0</ele><time>2026-04-11T10:38:52Z</time></trkpt><trkpt lat="46.020884327601536" lon="9.387713383825844"><ele>977.8333333333334</ele><time>2026-04-11T10:38:53Z</time></trkpt><trkpt lat="46.020813913490926" lon="9.387796229292467"><ele>978.6666666666667</ele><time>2026-04-11T10:38:54Z</time></trkpt><trkpt lat="46.02074789840789" lon="9.387857333426552"><ele>979.5</ele><time>2026-04-11T10:38:55Z</time></trkpt><trkpt lat="46.02066972909234" lon="9.387942346479731"><ele>980.3333333333333</ele><time>2026-04-11T10:38:56Z</time></trkpt><trkpt lat="46.020606128139526" lon="9.38804361758478"><ele>981.1666666666666</ele><time>2026-04-11T10:38:57Z</time></trkpt><trkpt lat="46.020571585729755" lon="9.38814659495001"><ele>982.0</ele><time>2026-04-11T10:38:58Z</time></trkpt><trkpt lat="46.020533541117956" lon="9.38822929955041"><ele>982.0</ele><time>2026-04-11T10:38:59Z</time></trkpt><trkpt lat="46.02050897837686" lon="9.388411244218126"><ele>982.0</ele><time>2026-04-11T10:39:01Z</time></trkpt><trkpt lat="46.02046486262017" lon="9.388519841041013"><ele>982.0</ele><time>2026-04-11T10:39:03Z</time></trkpt><trkpt lat="46.02042412474149" lon="9.388594702475094"><ele>982.0</ele><time>2026-04-11T10:39:05Z</time></trkpt><trkpt lat="46.02033093645882" lon="9.388644552430272"><ele>982.0</ele><time>2026-04-11T10:39:07Z</time></trkpt><trkpt lat="46.020259039702765" lon="9.388675624980776"><ele>982.0</ele><time>2026-04-11T10:39:08Z</time></trkpt><trkpt lat="46.020181056522134" lon="9.38869878601806"><ele>982.0</ele><time>2026-04-11T10:39:09Z</time></trkpt><trkpt lat="46.02010850303468" lon="9.388718199006899"><ele>982.0</ele><time>2026-04-11T10:39:10Z</time></trkpt><trkpt lat="46.02001813013461" lon="9.388746826158439"><ele>982.0</ele><time>2026-04-11T10:39:11Z</time></trkpt><trkpt lat="46.01989915649903" lon="9.388747202062385"><ele>982.0</ele><time>2026-04-11T10:39:13Z</time></trkpt><trkpt lat="46.019805447551526" lon="9.38876067774897"><ele>983.4000000000001</ele><time>2026-04-11T10:39:15Z</time></trkpt><trkpt lat="46.01971660600832" lon="9.38882814608793"><ele>984.8000000000001</ele><time>2026-04-11T10:39:17Z</time></trkpt><trkpt lat="46.01965405465308" lon="9.388989877091767"><ele>986.2</ele><time>2026-04-11T10:39:19Z</time></trkpt><trkpt lat="46.01962552302388" lon="9.389083476760602"><ele>987.6</ele><time>2026-04-11T10:39:20Z</time></trkpt><trkpt lat="46.01957601498749" lon="9.389212637014746"><ele>989.0</ele><time>2026-04-11T10:39:21Z</time></trkpt><trkpt lat="46.01949658967243" lon="9.389288644842534"><ele>989.0000000000001</ele><time>2026-04-11T10:39:22Z</time></trkpt><trkpt lat="46.01943757376477" lon="9.389382182455401"><ele>989.0</ele><time>2026-04-11T10:39:23Z</time></trkpt><trkpt lat="46.01938420141205" lon="9.38946615593777"><ele>989.0</ele><time>2026-04-11T10:39:24Z</time></trkpt><trkpt lat="46.0193248282084" lon="9.389549887241266"><ele>989.0</ele><time>2026-04-11T10:39:25Z</time></trkpt><trkpt lat="46.01926823121901" lon="9.389643634124567"><ele>989.0000000000001</ele><time>2026-04-11T10:39:26Z</time></trkpt><trkpt lat="46.01923923970595" lon="9.38979300273132"><ele>989.0</ele><time>2026-04-11T10:39:28Z</time></trkpt><trkpt lat="46.01920305623127" lon="9.389978548907015"><ele>991.5000000000001</ele><time>2026-04-11T10:39:30Z</time></trkpt><trkpt lat="46.01920610891431" lon="9.390080579150034"><ele>994.0</ele><time>2026-04-11T10:39:31Z</time></trkpt><trkpt lat="46.01921212591656" lon="9.390184007632925"><ele>996.5</ele><time>2026-04-11T10:39:33Z</time></trkpt><trkpt lat="46.019156999990706" lon="9.390285072867739"><ele>999.0</ele><time>2026-04-11T10:39:36Z</time></trkpt><trkpt lat="46.01909129270217" lon="9.39032876785466"><ele>1001.5000000000001</ele><time>2026-04-11T10:39:37Z</time></trkpt><trkpt lat="46.018978217516306" lon="9.39037994032812"><ele>1004.0</ele><time>2026-04-11T10:39:39Z</time></trkpt><trkpt lat="46.01885643284098" lon="9.390467768484388"><ele>1002.2</ele><time>2026-04-11T10:39:41Z</time></trkpt><trkpt lat="46.01880367499246" lon="9.390522494813348"><ele>1000.4000000000001</ele><time>2026-04-11T10:39:42Z</time></trkpt><trkpt lat="46.01872922157797" lon="9.39064381293427"><ele>998.6</ele><time>2026-04-11T10:39:44Z</time></trkpt><trkpt lat="46.01869819353486" lon="9.390792382974658"><ele>996.8</ele><time>2026-04-11T10:39:46Z</time></trkpt><trkpt lat="46.01872464929655" lon="9.390901946079826"><ele>995.0</ele><time>2026-04-11T10:39:48Z</time></trkpt><trkpt lat="46.018693463090386" lon="9.39077082039165"><ele>995.0</ele><time>2026-04-11T10:40:47.999Z</time></trkpt><trkpt lat="46.018899756003485" lon="9.390662042484333"><ele>995.0</ele><time>2026-04-11T10:40:48.999Z</time></trkpt><trkpt lat="46.01899265569745" lon="9.390598699659082"><ele>995.0</ele><time>2026-04-11T10:40:51Z</time></trkpt><trkpt lat="46.01908462513157" lon="9.390567951161627"><ele>995.0</ele><time>2026-04-11T10:40:53Z</time></trkpt><trkpt lat="46.0191969351227" lon="9.390544633987913"><ele>996.8</ele><time>2026-04-11T10:40:55Z</time></trkpt><trkpt lat="46.01927959317859" lon="9.39051400773855"><ele>998.6</ele><time>2026-04-11T10:40:57Z</time></trkpt><trkpt lat="46.01935222747297" lon="9.390479238315526"><ele>1000.4000000000001</ele><time>2026-04-11T10:40:59Z</time></trkpt><trkpt lat="46.019413888278095" lon="9.390402208836383"><ele>1002.2</ele><time>2026-04-11T10:41:01Z</time></trkpt><trkpt lat="46.01942061255436" lon="9.390252388954668"><ele>1004.0</ele><time>2026-04-11T10:41:03Z</time></trkpt><trkpt lat="46.01949152079721" lon="9.390130086380656"><ele>1004.0000000000001</ele><time>2026-04-11T10:41:05Z</time></trkpt><trkpt lat="46.0195800372532" lon="9.390000472400045"><ele>1004.0</ele><time>2026-04-11T10:41:07Z</time></trkpt><trkpt lat="46.01963517115647" lon="9.389956594132462"><ele>1004.0</ele><time>2026-04-11T10:41:08Z</time></trkpt><trkpt lat="46.019697843117015" lon="9.389902475704869"><ele>1004.0</ele><time>2026-04-11T10:41:09Z</time></trkpt><trkpt lat="46.01975787678858" lon="9.389855802464059"><ele>1004.0000000000001</ele><time>2026-04-11T10:41:10Z</time></trkpt><trkpt lat="46.01983167793383" lon="9.389827921222585"><ele>1004.0</ele><time>2026-04-11T10:41:11Z</time></trkpt><trkpt lat="46.0198965795129" lon="9.38978052716852"><ele>1003.9999999999999</ele><time>2026-04-11T10:41:12Z</time></trkpt><trkpt lat="46.01993983216802" lon="9.38971445520669"><ele>1004.0</ele><time>2026-04-11T10:41:13Z</time></trkpt><trkpt lat="46.01999914652231" lon="9.389674565565773"><ele>1003.9999999999999</ele><time>2026-04-11T10:41:14Z</time></trkpt><trkpt lat="46.02005835427362" lon="9.38963358529303"><ele>1003.9999999999999</ele><time>2026-04-11T10:41:15Z</time></trkpt><trkpt lat="46.02012937988149" lon="9.389597932844971"><ele>1004.0</ele><time>2026-04-11T10:41:16Z</time></trkpt><trkpt lat="46.02019346454534" lon="9.38959938546385"><ele>1003.9999999999999</ele><time>2026-04-11T10:41:17Z</time></trkpt><trkpt lat="46.02026817729274" lon="9.389575222075578"><ele>1003.9999999999999</ele><time>2026-04-11T10:41:18Z</time></trkpt><trkpt lat="46.02034489013261" lon="9.389553176314946"><ele>1006.6</ele><time>2026-04-11T10:41:19Z</time></trkpt><trkpt lat="46.02048495200816" lon="9.38951731246911"><ele>1009.2</ele><time>2026-04-11T10:41:21Z</time></trkpt><trkpt lat="46.02055403107111" lon="9.3895004995208"><ele>1011.8000000000001</ele><time>2026-04-11T10:41:22Z</time></trkpt><trkpt lat="46.02063501261016" lon="9.389477691615108"><ele>1014.4000000000001</ele><time>2026-04-11T10:41:24Z</time></trkpt><trkpt lat="46.020729272904035" lon="9.38938001141099"><ele>1017.0</ele><time>2026-04-11T10:41:26Z</time></trkpt><trkpt lat="46.02075661690083" lon="9.389234125054225"><ele>1017.0</ele><time>2026-04-11T10:41:28Z</time></trkpt><trkpt lat="46.02078991740506" lon="9.38915114611549"><ele>1016.9999999999999</ele><time>2026-04-11T10:41:29Z</time></trkpt><trkpt lat="46.020828460257775" lon="9.389051635314342"><ele>1017.0</ele><time>2026-04-11T10:41:30Z</time></trkpt><trkpt lat="46.02087399695009" lon="9.388963933296875"><ele>1017.0</ele><time>2026-04-11T10:41:31Z</time></trkpt><trkpt lat="46.0209200868044" lon="9.38888580275914"><ele>1016.9999999999999</ele><time>2026-04-11T10:41:32Z</time></trkpt><trkpt lat="46.020977815196936" lon="9.388834281883318"><ele>1017.0</ele><time>2026-04-11T10:41:33Z</time></trkpt><trkpt lat="46.02101557434499" lon="9.38875568299273"><ele>1017.0</ele><time>2026-04-11T10:41:34Z</time></trkpt><trkpt lat="46.02110416649306" lon="9.388675992016713"><ele>1015.8</ele><time>2026-04-11T10:41:36Z</time></trkpt><trkpt lat="46.02118876040124" lon="9.38862376059513"><ele>1014.6</ele><time>2026-04-11T10:41:38Z</time></trkpt><trkpt lat="46.02130525781981" lon="9.388557563403749"><ele>1013.3999999999999</ele><time>2026-04-11T10:41:40Z</time></trkpt><trkpt lat="46.02136517240999" lon="9.388527739850101"><ele>1012.1999999999999</ele><time>2026-04-11T10:41:41Z</time></trkpt><trkpt lat="46.02142151504905" lon="9.388468002929521"><ele>1011.0</ele><time>2026-04-11T10:41:42Z</time></trkpt><trkpt lat="46.021544660927496" lon="9.38842606411274"><ele>1019.1999999999999</ele><time>2026-04-11T10:41:44Z</time></trkpt><trkpt lat="46.0216524798357" lon="9.388387552154153"><ele>1027.3999999999999</ele><time>2026-04-11T10:41:46Z</time></trkpt><trkpt lat="46.021761772930375" lon="9.388373037089135"><ele>1035.6</ele><time>2026-04-11T10:41:48Z</time></trkpt><trkpt lat="46.02187441576834" lon="9.388394007093892"><ele>1043.8</ele><time>2026-04-11T10:41:50Z</time></trkpt><trkpt lat="46.02194236131537" lon="9.388392285077769"><ele>1052.0</ele><time>2026-04-11T10:41:51Z</time></trkpt><trkpt lat="46.022044872495385" lon="9.38835717189332"><ele>1052.0</ele><time>2026-04-11T10:41:53Z</time></trkpt><trkpt lat="46.02210589333088" lon="9.388275962498726"><ele>1052.0</ele><time>2026-04-11T10:41:55Z</time></trkpt><trkpt lat="46.022219861602615" lon="9.388201735444017"><ele>1052.0</ele><time>2026-04-11T10:41:57Z</time></trkpt><trkpt lat="46.02227638097496" lon="9.388153500571697"><ele>1052.0</ele><time>2026-04-11T10:41:58Z</time></trkpt><trkpt lat="46.022340440395695" lon="9.388117200835293"><ele>1052.0</ele><time>2026-04-11T10:41:59Z</time></trkpt><trkpt lat="46.02245145974452" lon="9.388050082432612"><ele>1051.0</ele><time>2026-04-11T10:42:01Z</time></trkpt><trkpt lat="46.022575953636654" lon="9.388002108209045"><ele>1050.0</ele><time>2026-04-11T10:42:03Z</time></trkpt><trkpt lat="46.02263881358111" lon="9.38797115161754"><ele>1049.0</ele><time>2026-04-11T10:42:04Z</time></trkpt><trkpt lat="46.02270616453046" lon="9.387940122408997"><ele>1048.0</ele><time>2026-04-11T10:42:05Z</time></trkpt><trkpt lat="46.02277022037936" lon="9.387918591448063"><ele>1047.0</ele><time>2026-04-11T10:42:06Z</time></trkpt><trkpt lat="46.02288191608807" lon="9.387911063440246"><ele>1046.0</ele><time>2026-04-11T10:42:08Z</time></trkpt><trkpt lat="46.02296217298857" lon="9.387922199042677"><ele>1046.0</ele><time>2026-04-11T10:42:10Z</time></trkpt><trkpt lat="46.023036258141794" lon="9.387975864507798"><ele>1046.0</ele><time>2026-04-11T10:42:12Z</time></trkpt><trkpt lat="46.02312874920621" lon="9.388020080383345"><ele>1046.0</ele><time>2026-04-11T10:42:14Z</time></trkpt><trkpt lat="46.0231980150494" lon="9.388015792341783"><ele>1046.0</ele><time>2026-04-11T10:42:15Z</time></trkpt><trkpt lat="46.02328722110304" lon="9.387976475192197"><ele>1046.0</ele><time>2026-04-11T10:42:17Z</time></trkpt><trkpt lat="46.0233733899537" lon="9.38785440344759"><ele>1049.0</ele><time>2026-04-11T10:42:19Z</time></trkpt><trkpt lat="46.023440581185255" lon="9.387776967203932"><ele>1052.0</ele><time>2026-04-11T10:42:21Z</time></trkpt><trkpt lat="46.023523380093046" lon="9.387770748140639"><ele>1055.0</ele><time>2026-04-11T10:42:23Z</time></trkpt><trkpt lat="46.02357886045085" lon="9.387814668359448"><ele>1058.0</ele><time>2026-04-11T10:42:24Z</time></trkpt><trkpt lat="46.02369444207308" lon="9.387816004522406"><ele>1061.0</ele><time>2026-04-11T10:42:26Z</time></trkpt><trkpt lat="46.023758990902685" lon="9.387793612024518"><ele>1064.0</ele><time>2026-04-11T10:42:26.999Z</time></trkpt><trkpt lat="46.02386589732886" lon="9.38783910382731"><ele>1064.0</ele><time>2026-04-11T10:42:28.999Z</time></trkpt><trkpt lat="46.02396872431453" lon="9.387872823891607"><ele>1064.0</ele><time>2026-04-11T10:42:31.999Z</time></trkpt><trkpt lat="46.02402084932704" lon="9.387990408815561"><ele>1064.0</ele><time>2026-04-11T10:42:33.999Z</time></trkpt><trkpt lat="46.02407460507917" lon="9.388120013850727"><ele>1064.0</ele><time>2026-04-11T10:42:35.999Z</time></trkpt><trkpt lat="46.0241075836619" lon="9.388203828131651"><ele>1064.0</ele><time>2026-04-11T10:42:36.999Z</time></trkpt><trkpt lat="46.024137119146175" lon="9.388289402505839"><ele>1064.0</ele><time>2026-04-11T10:42:37.999Z</time></trkpt><trkpt lat="46.02416288812561" lon="9.38837397785947"><ele>1069.75</ele><time>2026-04-11T10:42:38.999Z</time></trkpt><trkpt lat="46.024190144068335" lon="9.388472879680442"><ele>1075.5</ele><time>2026-04-11T10:42:39.999Z</time></trkpt><trkpt lat="46.02422859666506" lon="9.388647671187341"><ele>1081.25</ele><time>2026-04-11T10:42:41.999Z</time></trkpt><trkpt lat="46.024270042067904" lon="9.388827492490185"><ele>1087.0</ele><time>2026-04-11T10:42:43.999Z</time></trkpt><trkpt lat="46.02431609290804" lon="9.388991579184575"><ele>1089.6666666666665</ele><time>2026-04-11T10:42:45.999Z</time></trkpt><trkpt lat="46.02434198702871" lon="9.389081319549746"><ele>1092.3333333333333</ele><time>2026-04-11T10:42:46.999Z</time></trkpt><trkpt lat="46.02437676948846" lon="9.389204689025254"><ele>1095.0</ele><time>2026-04-11T10:42:48.999Z</time></trkpt><trkpt lat="46.024402432147035" lon="9.389320364980595"><ele>1097.6666666666667</ele><time>2026-04-11T10:42:50.999Z</time></trkpt><trkpt lat="46.02441685708056" lon="9.389409202477541"><ele>1100.3333333333335</ele><time>2026-04-11T10:42:52.999Z</time></trkpt><trkpt lat="46.02439671792422" lon="9.389296964433502"><ele>1103.0</ele><time>2026-04-11T10:43:42Z</time></trkpt><trkpt lat="46.024363343121905" lon="9.38921664579768"><ele>1103.0</ele><time>2026-04-11T10:43:43Z</time></trkpt><trkpt lat="46.02424834544727" lon="9.389131563480932"><ele>1103.0</ele><time>2026-04-11T10:43:45Z</time></trkpt><trkpt lat="46.02417604255606" lon="9.389025943534055"><ele>1103.0</ele><time>2026-04-11T10:43:47Z</time></trkpt><trkpt lat="46.02412780873277" lon="9.388929407157502"><ele>1103.0</ele><time>2026-04-11T10:43:49Z</time></trkpt><trkpt lat="46.02407688578032" lon="9.388822466238464"><ele>1103.0</ele><time>2026-04-11T10:43:51Z</time></trkpt><trkpt lat="46.024032876577465" lon="9.388747443222476"><ele>1101.0</ele><time>2026-04-11T10:43:53Z</time></trkpt><trkpt lat="46.023975948596046" lon="9.388675544699892"><ele>1099.0</ele><time>2026-04-11T10:43:55Z</time></trkpt><trkpt lat="46.02390774353525" lon="9.388625125122937"><ele>1097.0</ele><time>2026-04-11T10:43:57Z</time></trkpt><trkpt lat="46.023838107604085" lon="9.388596451969287"><ele>1095.0</ele><time>2026-04-11T10:43:59Z</time></trkpt><trkpt lat="46.023756280998015" lon="9.388557082034668"><ele>1093.0</ele><time>2026-04-11T10:44:01Z</time></trkpt><trkpt lat="46.023677543867585" lon="9.388572606786774"><ele>1091.0</ele><time>2026-04-11T10:44:03Z</time></trkpt><trkpt lat="46.02357845573637" lon="9.388610343323762"><ele>1091.0</ele><time>2026-04-11T10:44:05Z</time></trkpt><trkpt lat="46.023516299208524" lon="9.38864345105291"><ele>1091.0</ele><time>2026-04-11T10:44:07Z</time></trkpt><trkpt lat="46.0234507530529" lon="9.388687627737761"><ele>1091.0</ele><time>2026-04-11T10:44:09Z</time></trkpt><trkpt lat="46.02338842975407" lon="9.388744675776685"><ele>1091.0</ele><time>2026-04-11T10:44:11Z</time></trkpt><trkpt lat="46.02332969478037" lon="9.38881672067767"><ele>1091.0</ele><time>2026-04-11T10:44:13Z</time></trkpt><trkpt lat="46.02325604544241" lon="9.388931680341157"><ele>1091.0</ele><time>2026-04-11T10:44:16Z</time></trkpt><trkpt lat="46.02320333058924" lon="9.389008815209415"><ele>1094.3999999999999</ele><time>2026-04-11T10:44:18Z</time></trkpt><trkpt lat="46.02315261739969" lon="9.389092901834694"><ele>1097.8</ele><time>2026-04-11T10:44:38.999Z</time></trkpt><trkpt lat="46.02305737189087" lon="9.389177780642013"><ele>1101.1999999999998</ele><time>2026-04-11T10:44:40.999Z</time></trkpt><trkpt lat="46.022946423636235" lon="9.38926248442803"><ele>1104.6</ele><time>2026-04-11T10:44:42.999Z</time></trkpt><trkpt lat="46.022861303315295" lon="9.389327517181474"><ele>1108.0</ele><time>2026-04-11T10:44:44.999Z</time></trkpt><trkpt lat="46.022775574131344" lon="9.389386931302903"><ele>1108.0</ele><time>2026-04-11T10:44:46.999Z</time></trkpt><trkpt lat="46.02271893836924" lon="9.389427494969283"><ele>1108.0</ele><time>2026-04-11T10:44:47.999Z</time></trkpt><trkpt lat="46.02261429341649" lon="9.38946087407651"><ele>1108.0</ele><time>2026-04-11T10:44:49.999Z</time></trkpt><trkpt lat="46.022518264381176" lon="9.389527832937443"><ele>1108.0</ele><time>2026-04-11T10:44:51.999Z</time></trkpt><trkpt lat="46.022435815170915" lon="9.389657969340089"><ele>1108.0</ele><time>2026-04-11T10:44:53.999Z</time></trkpt><trkpt lat="46.02232849322028" lon="9.389769811890758"><ele>1109.0</ele><time>2026-04-11T10:44:55.999Z</time></trkpt><trkpt lat="46.022274102487295" lon="9.389838455893303"><ele>1110.0</ele><time>2026-04-11T10:44:56.999Z</time></trkpt><trkpt lat="46.02222433030637" lon="9.389901817337902"><ele>1111.0</ele><time>2026-04-11T10:44:57.999Z</time></trkpt><trkpt lat="46.02213154809075" lon="9.390026378999286"><ele>1112.0</ele><time>2026-04-11T10:44:59.999Z</time></trkpt><trkpt lat="46.02204086784183" lon="9.390132949499833"><ele>1113.0</ele><time>2026-04-11T10:45:01.999Z</time></trkpt><trkpt lat="46.02194659095388" lon="9.390213429132825"><ele>1113.0</ele><time>2026-04-11T10:45:04Z</time></trkpt><trkpt lat="46.02185060639432" lon="9.390294514985735"><ele>1113.0</ele><time>2026-04-11T10:45:06Z</time></trkpt><trkpt lat="46.02175687826194" lon="9.390406431233489"><ele>1113.0</ele><time>2026-04-11T10:45:08Z</time></trkpt><trkpt lat="46.0217097551319" lon="9.390517593867042"><ele>1113.0</ele><time>2026-04-11T10:45:09Z</time></trkpt><trkpt lat="46.02166727972649" lon="9.390624981435465"><ele>1113.0</ele><time>2026-04-11T10:45:10Z</time></trkpt><trkpt lat="46.02162929155024" lon="9.390718803270028"><ele>1112.8</ele><time>2026-04-11T10:45:11Z</time></trkpt><trkpt lat="46.02156135575734" lon="9.390860863081697"><ele>1112.6</ele><time>2026-04-11T10:45:13Z</time></trkpt><trkpt lat="46.02152110193311" lon="9.390937407894663"><ele>1112.4</ele><time>2026-04-11T10:45:14Z</time></trkpt><trkpt lat="46.02147428599529" lon="9.391013437329732"><ele>1112.2</ele><time>2026-04-11T10:45:15Z</time></trkpt><trkpt lat="46.02137315046994" lon="9.391112036403204"><ele>1112.0</ele><time>2026-04-11T10:45:17Z</time></trkpt><trkpt lat="46.02128068048354" lon="9.391195237968377"><ele>1112.0</ele><time>2026-04-11T10:45:19Z</time></trkpt><trkpt lat="46.02118836704148" lon="9.391306954524191"><ele>1112.0</ele><time>2026-04-11T10:45:21Z</time></trkpt><trkpt lat="46.02113361931707" lon="9.39137853505347"><ele>1112.0</ele><time>2026-04-11T10:45:22Z</time></trkpt><trkpt lat="46.0210917938058" lon="9.391472989916359"><ele>1112.0</ele><time>2026-04-11T10:45:23Z</time></trkpt><trkpt lat="46.02105201157236" lon="9.391572830753017"><ele>1112.0</ele><time>2026-04-11T10:45:24Z</time></trkpt><trkpt lat="46.02102289591633" lon="9.391685846710718"><ele>1112.0</ele><time>2026-04-11T10:45:25Z</time></trkpt><trkpt lat="46.02098542267541" lon="9.39176687484798"><ele>1113.8</ele><time>2026-04-11T10:45:26Z</time></trkpt><trkpt lat="46.02095651080931" lon="9.391854492403276"><ele>1115.6</ele><time>2026-04-11T10:45:27Z</time></trkpt><trkpt lat="46.02091200259877" lon="9.392009974921121"><ele>1117.3999999999999</ele><time>2026-04-11T10:45:29Z</time></trkpt><trkpt lat="46.02087311009829" lon="9.392139961029564"><ele>1119.2</ele><time>2026-04-11T10:45:31Z</time></trkpt><trkpt lat="46.020831072954614" lon="9.392286133175304"><ele>1121.0</ele><time>2026-04-11T10:45:33Z</time></trkpt><trkpt lat="46.02080071664348" lon="9.39239903260138"><ele>1121.0</ele><time>2026-04-11T10:45:34Z</time></trkpt><trkpt lat="46.02076812405165" lon="9.39252024933795"><ele>1121.0</ele><time>2026-04-11T10:45:35Z</time></trkpt><trkpt lat="46.02073659564125" lon="9.392608568006631"><ele>1121.0</ele><time>2026-04-11T10:45:36Z</time></trkpt><trkpt lat="46.02066082506073" lon="9.392727026929839"><ele>1121.0</ele><time>2026-04-11T10:45:38Z</time></trkpt><trkpt lat="46.02060978906316" lon="9.392786850548285"><ele>1121.0</ele><time>2026-04-11T10:45:39Z</time></trkpt><trkpt lat="46.02048683024571" lon="9.392864865752017"><ele>1121.0</ele><time>2026-04-11T10:45:41Z</time></trkpt><trkpt lat="46.02043219806977" lon="9.392923041235694"><ele>1121.0</ele><time>2026-04-11T10:45:42Z</time></trkpt><trkpt lat="46.02033066675978" lon="9.393058982370254"><ele>1121.0</ele><time>2026-04-11T10:45:44Z</time></trkpt><trkpt lat="46.02027912124035" lon="9.39321878812638"><ele>1121.0</ele><time>2026-04-11T10:45:46Z</time></trkpt><trkpt lat="46.02025923701025" lon="9.393385554085345"><ele>1121.0</ele><time>2026-04-11T10:45:48Z</time></trkpt><trkpt lat="46.02025395914499" lon="9.39356747086481"><ele>1123.8333333333335</ele><time>2026-04-11T10:45:50Z</time></trkpt><trkpt lat="46.02026862905917" lon="9.393696182182104"><ele>1126.6666666666667</ele><time>2026-04-11T10:45:51Z</time></trkpt><trkpt lat="46.02028533320533" lon="9.393786071175619"><ele>1129.5</ele><time>2026-04-11T10:45:52Z</time></trkpt><trkpt lat="46.02031513972867" lon="9.393953558048976"><ele>1132.3333333333333</ele><time>2026-04-11T10:45:54Z</time></trkpt><trkpt lat="46.0203258983565" lon="9.39404403653188"><ele>1135.1666666666665</ele><time>2026-04-11T10:45:55Z</time></trkpt><trkpt lat="46.02033321501134" lon="9.39413433940424"><ele>1138.0</ele><time>2026-04-11T10:45:56Z</time></trkpt><trkpt lat="46.020343990605305" lon="9.394310094345654"><ele>1141.6</ele><time>2026-04-11T10:45:58Z</time></trkpt><trkpt lat="46.020351518086386" lon="9.394445352180487"><ele>1145.1999999999998</ele><time>2026-04-11T10:46:00Z</time></trkpt><trkpt lat="46.02036277584011" lon="9.394604157152553"><ele>1148.8</ele><time>2026-04-11T10:46:02Z</time></trkpt><trkpt lat="46.0203697115181" lon="9.394738564766117"><ele>1152.3999999999999</ele><time>2026-04-11T10:46:04Z</time></trkpt><trkpt lat="46.020369964904425" lon="9.394859450254351"><ele>1156.0</ele><time>2026-04-11T10:46:06Z</time></trkpt><trkpt lat="46.02029249365409" lon="9.394965592046603"><ele>1160.6</ele><time>2026-04-11T10:46:08Z</time></trkpt><trkpt lat="46.020239247640674" lon="9.395014846393883"><ele>1165.1999999999998</ele><time>2026-04-11T10:46:09Z</time></trkpt><trkpt lat="46.02016259339185" lon="9.395116058675546"><ele>1169.8000000000002</ele><time>2026-04-11T10:46:11Z</time></trkpt><trkpt lat="46.02010266322291" lon="9.395238660167612"><ele>1174.4</ele><time>2026-04-11T10:46:13Z</time></trkpt><trkpt lat="46.020082252313074" lon="9.395345625222209"><ele>1179.0</ele><time>2026-04-11T10:46:15Z</time></trkpt><trkpt lat="46.02004379634226" lon="9.395500275835495"><ele>1179.0</ele><time>2026-04-11T10:46:17Z</time></trkpt><trkpt lat="46.020021591180836" lon="9.395589150640522"><ele>1179.0</ele><time>2026-04-11T10:46:19Z</time></trkpt><trkpt lat="46.02006640000025" lon="9.395474480533725"><ele>1179.0</ele><time>2026-04-11T10:50:13Z</time></trkpt><trkpt lat="46.02009504659532" lon="9.395360999610489"><ele>1179.0</ele><time>2026-04-11T10:50:16Z</time></trkpt><trkpt lat="46.020115259140205" lon="9.395262385115494"><ele>1179.0</ele><time>2026-04-11T10:50:18Z</time></trkpt><trkpt lat="46.02016338698988" lon="9.395120353371341"><ele>1179.0</ele><time>2026-04-11T10:50:21Z</time></trkpt><trkpt lat="46.02022075777944" lon="9.395018237540542"><ele>1178.9999999999998</ele><time>2026-04-11T10:50:23Z</time></trkpt><trkpt lat="46.02029021512545" lon="9.394967999862063"><ele>1179.0</ele><time>2026-04-11T10:50:25Z</time></trkpt><trkpt lat="46.020329635738385" lon="9.394888280627457"><ele>1179.0</ele><time>2026-04-11T10:50:27Z</time></trkpt><trkpt lat="46.02038725115827" lon="9.394847657638193"><ele>1179.0</ele><time>2026-04-11T10:50:28.999Z</time></trkpt><trkpt lat="46.02038351450951" lon="9.394719700894699"><ele>1179.0</ele><time>2026-04-11T10:50:31.999Z</time></trkpt><trkpt lat="46.02037282650408" lon="9.394623542501344"><ele>1178.9999999999998</ele><time>2026-04-11T10:50:33.999Z</time></trkpt><trkpt lat="46.02035584146075" lon="9.394509868135218"><ele>1179.0</ele><time>2026-04-11T10:50:36.999Z</time></trkpt><trkpt lat="46.02034954996385" lon="9.394409987876257"><ele>1175.1666666666667</ele><time>2026-04-11T10:50:38.999Z</time></trkpt><trkpt lat="46.02034342647816" lon="9.394299957827872"><ele>1171.3333333333333</ele><time>2026-04-11T10:50:40.999Z</time></trkpt><trkpt lat="46.02033678723776" lon="9.394180660162617"><ele>1167.5</ele><time>2026-04-11T10:50:42.999Z</time></trkpt><trkpt lat="46.02032929136135" lon="9.394082701109463"><ele>1163.6666666666665</ele><time>2026-04-11T10:50:44.999Z</time></trkpt><trkpt lat="46.020334363508184" lon="9.39397438382634"><ele>1159.8333333333333</ele><time>2026-04-11T10:50:46.999Z</time></trkpt><trkpt lat="46.020301993020965" lon="9.393871961334693"><ele>1156.0</ele><time>2026-04-11T10:50:48.999Z</time></trkpt><trkpt lat="46.02028205514301" lon="9.393768680738992"><ele>1153.0</ele><time>2026-04-11T10:50:50.999Z</time></trkpt><trkpt lat="46.020266421299155" lon="9.393680208451233"><ele>1150.0</ele><time>2026-04-11T10:50:52.999Z</time></trkpt><trkpt lat="46.02025578265412" lon="9.393578500698228"><ele>1147.0</ele><time>2026-04-11T10:50:54.999Z</time></trkpt><trkpt lat="46.020273332198514" lon="9.39344928808189"><ele>1144.0</ele><time>2026-04-11T10:50:56.999Z</time></trkpt><trkpt lat="46.02028074110934" lon="9.393353575124943"><ele>1141.0</ele><time>2026-04-11T10:50:58.999Z</time></trkpt><trkpt lat="46.020299952529825" lon="9.393225202899913"><ele>1138.0</ele><time>2026-04-11T10:51:01.999Z</time></trkpt><trkpt lat="46.020336318072275" lon="9.393141770961444"><ele>1138.0</ele><time>2026-04-11T10:51:03.999Z</time></trkpt><trkpt lat="46.020371635284185" lon="9.393064726392481"><ele>1138.0</ele><time>2026-04-11T10:51:05.999Z</time></trkpt><trkpt lat="46.020432241737865" lon="9.392970376024193"><ele>1138.0</ele><time>2026-04-11T10:51:08.999Z</time></trkpt><trkpt lat="46.0205045690629" lon="9.392913247340704"><ele>1138.0</ele><time>2026-04-11T10:51:10.999Z</time></trkpt><trkpt lat="46.02057581013698" lon="9.392852099511884"><ele>1138.0</ele><time>2026-04-11T10:51:12.999Z</time></trkpt><trkpt lat="46.02063313883528" lon="9.392806532312077"><ele>1138.0</ele><time>2026-04-11T10:51:14.999Z</time></trkpt><trkpt lat="46.02069885769229" lon="9.392738899545122"><ele>1137.2</ele><time>2026-04-11T10:51:16.999Z</time></trkpt><trkpt lat="46.02076607518211" lon="9.39261967987429"><ele>1136.4</ele><time>2026-04-11T10:51:18.999Z</time></trkpt><trkpt lat="46.02080253117799" lon="9.392521027991453"><ele>1135.6000000000001</ele><time>2026-04-11T10:51:21Z</time></trkpt><trkpt lat="46.02083316595958" lon="9.39241102903514"><ele>1134.8</ele><time>2026-04-11T10:51:23Z</time></trkpt><trkpt lat="46.020865874387475" lon="9.392289747856514"><ele>1134.0</ele><time>2026-04-11T10:51:25Z</time></trkpt><trkpt lat="46.02090159625001" lon="9.392166076320736"><ele>1134.0</ele><time>2026-04-11T10:51:28Z</time></trkpt><trkpt lat="46.02092975271027" lon="9.392068596718659"><ele>1134.0</ele><time>2026-04-11T10:51:30Z</time></trkpt><trkpt lat="46.020946519588556" lon="9.391947983720272"><ele>1134.0</ele><time>2026-04-11T10:51:32Z</time></trkpt><trkpt lat="46.02097586221753" lon="9.391856621331968"><ele>1134.0</ele><time>2026-04-11T10:51:34Z</time></trkpt><trkpt lat="46.0210132824358" lon="9.391774621339492"><ele>1134.0</ele><time>2026-04-11T10:51:36Z</time></trkpt><trkpt lat="46.02105576505228" lon="9.391698738529563"><ele>1134.0</ele><time>2026-04-11T10:51:38Z</time></trkpt><trkpt lat="46.021095917665214" lon="9.391604933516021"><ele>1134.0</ele><time>2026-04-11T10:51:40Z</time></trkpt><trkpt lat="46.02111922098853" lon="9.391514686664182"><ele>1134.0</ele><time>2026-04-11T10:51:42Z</time></trkpt><trkpt lat="46.02117179461797" lon="9.391389520946781"><ele>1134.0</ele><time>2026-04-11T10:51:44Z</time></trkpt><trkpt lat="46.02123149754368" lon="9.391280077137326"><ele>1134.0</ele><time>2026-04-11T10:51:46Z</time></trkpt><trkpt lat="46.021291016265764" lon="9.391207892840193"><ele>1134.0</ele><time>2026-04-11T10:51:48Z</time></trkpt><trkpt lat="46.02138017857417" lon="9.391148734555241"><ele>1134.0</ele><time>2026-04-11T10:51:50Z</time></trkpt><trkpt lat="46.021449521211" lon="9.391102902954573"><ele>1136.0</ele><time>2026-04-11T10:51:52Z</time></trkpt><trkpt lat="46.02152057228793" lon="9.391013285168738"><ele>1138.0</ele><time>2026-04-11T10:51:54Z</time></trkpt><trkpt lat="46.02156409051642" lon="9.390909123726926"><ele>1140.0</ele><time>2026-04-11T10:51:56Z</time></trkpt><trkpt lat="46.021632890254715" lon="9.390796262174156"><ele>1142.0</ele><time>2026-04-11T10:51:58Z</time></trkpt><trkpt lat="46.021676530493586" lon="9.390709765780619"><ele>1144.0</ele><time>2026-04-11T10:52:00Z</time></trkpt><trkpt lat="46.02172666273173" lon="9.390591794394709"><ele>1138.8333333333333</ele><time>2026-04-11T10:52:02Z</time></trkpt><trkpt lat="46.02177497240751" lon="9.390477348119303"><ele>1133.6666666666665</ele><time>2026-04-11T10:52:03.999Z</time></trkpt><trkpt lat="46.02184199331504" lon="9.390408433928831"><ele>1128.5</ele><time>2026-04-11T10:52:05.999Z</time></trkpt><trkpt lat="46.02190756069412" lon="9.390327565107404"><ele>1123.3333333333333</ele><time>2026-04-11T10:52:07.999Z</time></trkpt><trkpt lat="46.021969692159416" lon="9.39027700916399"><ele>1118.1666666666667</ele><time>2026-04-11T10:52:09.999Z</time></trkpt><trkpt lat="46.022042731406444" lon="9.390234726499651"><ele>1113.0</ele><time>2026-04-11T10:52:11.999Z</time></trkpt><trkpt lat="46.02209173072508" lon="9.390143961560316"><ele>1113.0</ele><time>2026-04-11T10:52:13.999Z</time></trkpt><trkpt lat="46.02214589275442" lon="9.390060679766817"><ele>1113.0</ele><time>2026-04-11T10:52:15.999Z</time></trkpt><trkpt lat="46.022211887932976" lon="9.389979314121764"><ele>1113.0</ele><time>2026-04-11T10:52:17.999Z</time></trkpt><trkpt lat="46.022280990759704" lon="9.3898895720375"><ele>1113.0</ele><time>2026-04-11T10:52:19.999Z</time></trkpt><trkpt lat="46.022335888920686" lon="9.389792673410458"><ele>1113.0</ele><time>2026-04-11T10:52:21.999Z</time></trkpt><trkpt lat="46.022414846973184" lon="9.389716205732627"><ele>1113.0</ele><time>2026-04-11T10:52:23.999Z</time></trkpt><trkpt lat="46.02249122085648" lon="9.389627085051805"><ele>1112.0</ele><time>2026-04-11T10:52:25.999Z</time></trkpt><trkpt lat="46.02256328177058" lon="9.389544781384313"><ele>1111.0</ele><time>2026-04-11T10:52:27.999Z</time></trkpt><trkpt lat="46.022662656789194" lon="9.389476999490487"><ele>1110.0</ele><time>2026-04-11T10:52:29.999Z</time></trkpt><trkpt lat="46.02276505484713" lon="9.389414196926237"><ele>1109.0</ele><time>2026-04-11T10:52:31.999Z</time></trkpt><trkpt lat="46.02285352957742" lon="9.389356091720451"><ele>1108.0</ele><time>2026-04-11T10:52:33.999Z</time></trkpt><trkpt lat="46.02294408761136" lon="9.38930101345984"><ele>1108.0</ele><time>2026-04-11T10:52:35.999Z</time></trkpt><trkpt lat="46.023027252713426" lon="9.389232549086602"><ele>1108.0</ele><time>2026-04-11T10:52:37.999Z</time></trkpt><trkpt lat="46.02310452308578" lon="9.389175404533578"><ele>1108.0</ele><time>2026-04-11T10:52:39.999Z</time></trkpt><trkpt lat="46.0231711844266" lon="9.38909462728638"><ele>1108.0</ele><time>2026-04-11T10:52:42.999Z</time></trkpt><trkpt lat="46.02325021710364" lon="9.389005908589766"><ele>1108.0</ele><time>2026-04-11T10:52:45.999Z</time></trkpt><trkpt lat="46.02329507542334" lon="9.388940970586884"><ele>1108.0</ele><time>2026-04-11T10:52:47.999Z</time></trkpt><trkpt lat="46.02333020761724" lon="9.388864465229647"><ele>1105.1666666666665</ele><time>2026-04-11T10:52:49.999Z</time></trkpt><trkpt lat="46.02338847740312" lon="9.38881772989645"><ele>1102.3333333333333</ele><time>2026-04-11T10:52:51.999Z</time></trkpt><trkpt lat="46.023461298453626" lon="9.388726704278856"><ele>1099.5</ele><time>2026-04-11T10:52:54.999Z</time></trkpt><trkpt lat="46.023536590532885" lon="9.388657842783866"><ele>1096.6666666666667</ele><time>2026-04-11T10:52:57.999Z</time></trkpt><trkpt lat="46.02360285731357" lon="9.388625602339118"><ele>1093.8333333333335</ele><time>2026-04-11T10:52:59.999Z</time></trkpt><trkpt lat="46.023674594207705" lon="9.388621726986129"><ele>1091.0</ele><time>2026-04-11T10:53:01.999Z</time></trkpt><trkpt lat="46.023743965904764" lon="9.38860128858081"><ele>1091.0</ele><time>2026-04-11T10:53:03.999Z</time></trkpt><trkpt lat="46.02380786791214" lon="9.388599981176668"><ele>1091.0</ele><time>2026-04-11T10:53:05.999Z</time></trkpt><trkpt lat="46.02387387969816" lon="9.388621744967502"><ele>1091.0</ele><time>2026-04-11T10:53:07.999Z</time></trkpt><trkpt lat="46.02395081394457" lon="9.388694894872957"><ele>1091.0</ele><time>2026-04-11T10:53:10.999Z</time></trkpt><trkpt lat="46.02400698146133" lon="9.388795622147553"><ele>1091.0</ele><time>2026-04-11T10:53:13.999Z</time></trkpt><trkpt lat="46.02404392088596" lon="9.388884669306863"><ele>1091.0</ele><time>2026-04-11T10:53:15.999Z</time></trkpt><trkpt lat="46.024087893207536" lon="9.38895636642268"><ele>1092.7142857142858</ele><time>2026-04-11T10:53:17.999Z</time></trkpt><trkpt lat="46.024127481106206" lon="9.389034272154548"><ele>1094.4285714285716</ele><time>2026-04-11T10:53:19.999Z</time></trkpt><trkpt lat="46.02417974603348" lon="9.389102116312209"><ele>1096.1428571428573</ele><time>2026-04-11T10:53:21.999Z</time></trkpt><trkpt lat="46.024214363148154" lon="9.38919338542685"><ele>1097.857142857143</ele><time>2026-04-11T10:53:23.999Z</time></trkpt><trkpt lat="46.0242555249496" lon="9.389278907798852"><ele>1099.5714285714287</ele><time>2026-04-11T10:53:25.999Z</time></trkpt><trkpt lat="46.024306333288365" lon="9.389388457915596"><ele>1101.2857142857144</ele><time>2026-04-11T10:53:28.999Z</time></trkpt><trkpt lat="46.02435870583083" lon="9.38945292650482"><ele>1103.0</ele><time>2026-04-11T10:53:31.999Z</time></trkpt><trkpt lat="46.02441782491972" lon="9.389500917442545"><ele>1103.0</ele><time>2026-04-11T10:53:37.999Z</time></trkpt><trkpt lat="46.024449199906975" lon="9.389375083217264"><ele>1103.0</ele><time>2026-04-11T10:53:38.999Z</time></trkpt><trkpt lat="46.02443663850325" lon="9.389281587681557"><ele>1103.0</ele><time>2026-04-11T10:53:40.999Z</time></trkpt><trkpt lat="46.02440838733699" lon="9.38918961901396"><ele>1103.0</ele><time>2026-04-11T10:53:42.999Z</time></trkpt><trkpt lat="46.02437204182654" lon="9.389060631372212"><ele>1103.0</ele><time>2026-04-11T10:53:44.999Z</time></trkpt><trkpt lat="46.024324745684346" lon="9.388954394206026"><ele>1103.0</ele><time>2026-04-11T10:53:46.999Z</time></trkpt><trkpt lat="46.024298271202" lon="9.388837528290418"><ele>1099.8</ele><time>2026-04-11T10:53:48.999Z</time></trkpt><trkpt lat="46.024264241491935" lon="9.388714144445059"><ele>1096.6</ele><time>2026-04-11T10:53:50.999Z</time></trkpt><trkpt lat="46.02424195116537" lon="9.388599861509345"><ele>1093.4</ele><time>2026-04-11T10:53:52.999Z</time></trkpt><trkpt lat="46.024214367849844" lon="9.388469183283947"><ele>1090.2</ele><time>2026-04-11T10:53:54.999Z</time></trkpt><trkpt lat="46.02418425490843" lon="9.388342438800235"><ele>1087.0</ele><time>2026-04-11T10:53:56.999Z</time></trkpt><trkpt lat="46.02415516362628" lon="9.388216244778777"><ele>1087.6666666666665</ele><time>2026-04-11T10:53:58.999Z</time></trkpt><trkpt lat="46.024111771697164" lon="9.388109197689424"><ele>1088.3333333333333</ele><time>2026-04-11T10:54:00.999Z</time></trkpt><trkpt lat="46.024056553637664" lon="9.388015051726645"><ele>1089.0</ele><time>2026-04-11T10:54:02.999Z</time></trkpt><trkpt lat="46.02400163162495" lon="9.387921583143356"><ele>1089.6666666666667</ele><time>2026-04-11T10:54:04.999Z</time></trkpt><trkpt lat="46.02395429695101" lon="9.387835967965776"><ele>1090.3333333333335</ele><time>2026-04-11T10:54:06.999Z</time></trkpt><trkpt lat="46.02388031145776" lon="9.38779041617091"><ele>1091.0</ele><time>2026-04-11T10:54:08.999Z</time></trkpt><trkpt lat="46.02379782093945" lon="9.387775667960913"><ele>1087.142857142857</ele><time>2026-04-11T10:54:10.999Z</time></trkpt><trkpt lat="46.02371823907688" lon="9.387768503016892"><ele>1083.2857142857142</ele><time>2026-04-11T10:54:12.999Z</time></trkpt><trkpt lat="46.02364695798387" lon="9.387767678956674"><ele>1079.4285714285716</ele><time>2026-04-11T10:54:14.999Z</time></trkpt><trkpt lat="46.02356869266372" lon="9.387761060887586"><ele>1075.5714285714284</ele><time>2026-04-11T10:54:16.999Z</time></trkpt><trkpt lat="46.02350021133188" lon="9.38774156175244"><ele>1071.7142857142858</ele><time>2026-04-11T10:54:18.999Z</time></trkpt><trkpt lat="46.023429209907604" lon="9.387754737855712"><ele>1067.857142857143</ele><time>2026-04-11T10:54:20.999Z</time></trkpt><trkpt lat="46.023367356217406" lon="9.387811017524676"><ele>1064.0</ele><time>2026-04-11T10:54:22.999Z</time></trkpt><trkpt lat="46.02331547064647" lon="9.387867716713707"><ele>1061.0</ele><time>2026-04-11T10:54:23.999Z</time></trkpt><trkpt lat="46.0232580195957" lon="9.387929870878699"><ele>1058.0</ele><time>2026-04-11T10:54:25.999Z</time></trkpt><trkpt lat="46.02319855796921" lon="9.38797987543286"><ele>1055.0</ele><time>2026-04-11T10:54:27.999Z</time></trkpt><trkpt lat="46.02312323685427" lon="9.387971734480352"><ele>1052.0</ele><time>2026-04-11T10:54:29.999Z</time></trkpt><trkpt lat="46.023054722592306" lon="9.387957516070303"><ele>1049.0</ele><time>2026-04-11T10:54:31.999Z</time></trkpt><trkpt lat="46.02298193422433" lon="9.387886407609805"><ele>1046.0</ele><time>2026-04-11T10:54:33.999Z</time></trkpt><trkpt lat="46.02288854723912" lon="9.38788816201125"><ele>1046.0</ele><time>2026-04-11T10:54:35.999Z</time></trkpt><trkpt lat="46.022794410431736" lon="9.387875204397362"><ele>1046.0</ele><time>2026-04-11T10:54:37.999Z</time></trkpt><trkpt lat="46.022712202647995" lon="9.387897726900457"><ele>1046.0</ele><time>2026-04-11T10:54:39.999Z</time></trkpt><trkpt lat="46.02264718351088" lon="9.387932062176473"><ele>1046.0</ele><time>2026-04-11T10:54:40.999Z</time></trkpt><trkpt lat="46.02255714365435" lon="9.387975869901183"><ele>1046.0</ele><time>2026-04-11T10:54:42.999Z</time></trkpt><trkpt lat="46.02246648665892" lon="9.388017207387142"><ele>1046.0</ele><time>2026-04-11T10:54:44.999Z</time></trkpt><trkpt lat="46.022368622668395" lon="9.388068309688824"><ele>1047.0</ele><time>2026-04-11T10:54:46.999Z</time></trkpt><trkpt lat="46.022283989542345" lon="9.388118750941258"><ele>1048.0</ele><time>2026-04-11T10:54:48.999Z</time></trkpt><trkpt lat="46.0221983912616" lon="9.388174741339972"><ele>1049.0</ele><time>2026-04-11T10:54:50.999Z</time></trkpt><trkpt lat="46.0221222691094" lon="9.388227349824694"><ele>1050.0</ele><time>2026-04-11T10:54:52.999Z</time></trkpt><trkpt lat="46.022054678288036" lon="9.388277039024098"><ele>1051.0</ele><time>2026-04-11T10:54:54.999Z</time></trkpt><trkpt lat="46.021994439623654" lon="9.388324885591398"><ele>1052.0</ele><time>2026-04-11T10:54:56.999Z</time></trkpt><trkpt lat="46.021930523171186" lon="9.388360857298748"><ele>1052.0</ele><time>2026-04-11T10:54:58.999Z</time></trkpt><trkpt lat="46.02186176253651" lon="9.388339385367434"><ele>1052.0</ele><time>2026-04-11T10:55:00.999Z</time></trkpt><trkpt lat="46.021761837803226" lon="9.388335043474243"><ele>1052.0</ele><time>2026-04-11T10:55:02.999Z</time></trkpt><trkpt lat="46.021676205947806" lon="9.388331848174428"><ele>1052.0</ele><time>2026-04-11T10:55:04.999Z</time></trkpt><trkpt lat="46.021580571458536" lon="9.38836361386182"><ele>1052.0</ele><time>2026-04-11T10:55:06.999Z</time></trkpt><trkpt lat="46.021502805663566" lon="9.388390718193795"><ele>1052.0</ele><time>2026-04-11T10:55:08.999Z</time></trkpt><trkpt lat="46.021409037705226" lon="9.38844741124468"><ele>1043.8</ele><time>2026-04-11T10:55:10.999Z</time></trkpt><trkpt lat="46.021314553639364" lon="9.388530140250298"><ele>1035.6</ele><time>2026-04-11T10:55:12.999Z</time></trkpt><trkpt lat="46.021235679786614" lon="9.388558827518088"><ele>1027.3999999999999</ele><time>2026-04-11T10:55:14.999Z</time></trkpt><trkpt lat="46.021148615302856" lon="9.388609838756526"><ele>1019.1999999999999</ele><time>2026-04-11T10:55:16.999Z</time></trkpt><trkpt lat="46.021074243936496" lon="9.388668009895703"><ele>1011.0</ele><time>2026-04-11T10:55:18.999Z</time></trkpt><trkpt lat="46.020989129616616" lon="9.388755370871504"><ele>1012.1999999999999</ele><time>2026-04-11T10:55:20.999Z</time></trkpt><trkpt lat="46.02091680887793" lon="9.388852142290396"><ele>1013.3999999999999</ele><time>2026-04-11T10:55:22.999Z</time></trkpt><trkpt lat="46.020841418232195" lon="9.388979496735951"><ele>1014.6</ele><time>2026-04-11T10:55:24.999Z</time></trkpt><trkpt lat="46.02079047806117" lon="9.389090396613264"><ele>1015.8</ele><time>2026-04-11T10:55:26.999Z</time></trkpt><trkpt lat="46.02074909187214" lon="9.389185889171035"><ele>1017.0</ele><time>2026-04-11T10:55:28.999Z</time></trkpt><trkpt lat="46.02070509221002" lon="9.389297606417845"><ele>1017.0</ele><time>2026-04-11T10:55:30.999Z</time></trkpt><trkpt lat="46.02066825464645" lon="9.389392238367394"><ele>1017.0</ele><time>2026-04-11T10:55:32.999Z</time></trkpt><trkpt lat="46.02057540607659" lon="9.389459773307332"><ele>1017.0</ele><time>2026-04-11T10:55:36Z</time></trkpt><trkpt lat="46.020461677403794" lon="9.389480991486236"><ele>1017.0</ele><time>2026-04-11T10:55:38Z</time></trkpt><trkpt lat="46.0203561824587" lon="9.389516439828814"><ele>1017.0</ele><time>2026-04-11T10:55:40Z</time></trkpt><trkpt lat="46.020249392020844" lon="9.389551983853362"><ele>1017.0</ele><time>2026-04-11T10:55:42Z</time></trkpt><trkpt lat="46.020187850966245" lon="9.389573852195351"><ele>1017.0</ele><time>2026-04-11T10:55:43Z</time></trkpt><trkpt lat="46.02007163377049" lon="9.389594863535843"><ele>1017.0</ele><time>2026-04-11T10:55:45Z</time></trkpt><trkpt lat="46.01999077744033" lon="9.389641288685821"><ele>1017.0</ele><time>2026-04-11T10:55:47Z</time></trkpt><trkpt lat="46.019929576896835" lon="9.389694284180814"><ele>1017.0</ele><time>2026-04-11T10:55:49Z</time></trkpt><trkpt lat="46.01981779376688" lon="9.389804786954933"><ele>1014.4000000000001</ele><time>2026-04-11T10:55:51Z</time></trkpt><trkpt lat="46.0197480309907" lon="9.389853760119884"><ele>1011.8000000000001</ele><time>2026-04-11T10:55:52Z</time></trkpt><trkpt lat="46.01968992629721" lon="9.389893243030787"><ele>1009.2</ele><time>2026-04-11T10:55:53Z</time></trkpt><trkpt lat="46.019593373250316" lon="9.389986697900241"><ele>1006.6</ele><time>2026-04-11T10:55:55Z</time></trkpt><trkpt lat="46.01949232108681" lon="9.390066858643907"><ele>1004.0</ele><time>2026-04-11T10:55:57Z</time></trkpt><trkpt lat="46.019416894089446" lon="9.390188718595587"><ele>1004.0000000000001</ele><time>2026-04-11T10:55:59Z</time></trkpt><trkpt lat="46.01938763965059" lon="9.390298682991347"><ele>1004.0</ele><time>2026-04-11T10:56:01Z</time></trkpt><trkpt lat="46.019355743682546" lon="9.390415859791407"><ele>1004.0</ele><time>2026-04-11T10:56:04Z</time></trkpt><trkpt lat="46.01929366254967" lon="9.390474965866915"><ele>1004.0</ele><time>2026-04-11T10:56:06Z</time></trkpt><trkpt lat="46.019230517826955" lon="9.390497158103459"><ele>1004.0000000000001</ele><time>2026-04-11T10:56:07Z</time></trkpt><trkpt lat="46.019131042017705" lon="9.390540193040007"><ele>1004.0</ele><time>2026-04-11T10:56:09Z</time></trkpt><trkpt lat="46.01904108366222" lon="9.390550387312999"><ele>1002.5000000000001</ele><time>2026-04-11T10:56:11Z</time></trkpt><trkpt lat="46.01895995804684" lon="9.390587255724823"><ele>1001.0</ele><time>2026-04-11T10:56:13Z</time></trkpt><trkpt lat="46.01887845946947" lon="9.390643706874837"><ele>999.5</ele><time>2026-04-11T10:56:15Z</time></trkpt><trkpt lat="46.01882487076747" lon="9.390705594136323"><ele>998.0</ele><time>2026-04-11T10:56:17Z</time></trkpt><trkpt lat="46.0187653681107" lon="9.390785014236885"><ele>996.5000000000001</ele><time>2026-04-11T10:56:19.999Z</time></trkpt><trkpt lat="46.01881986266709" lon="9.390677971959697"><ele>995.0</ele><time>2026-04-11T10:56:29.999Z</time></trkpt><trkpt lat="46.01889066444352" lon="9.390602063475885"><ele>995.0000000000001</ele><time>2026-04-11T10:56:32.999Z</time></trkpt><trkpt lat="46.01894929964055" lon="9.390551061810859"><ele>995.0</ele><time>2026-04-11T10:56:34.999Z</time></trkpt><trkpt lat="46.01901545474825" lon="9.390519042342776"><ele>995.0</ele><time>2026-04-11T10:56:36.999Z</time></trkpt><trkpt lat="46.019115290924745" lon="9.3904945048373"><ele>995.0</ele><time>2026-04-11T10:56:39.999Z</time></trkpt><trkpt lat="46.01918250300582" lon="9.390475843553661"><ele>995.0000000000001</ele><time>2026-04-11T10:56:41.999Z</time></trkpt><trkpt lat="46.019271609041674" lon="9.390442844565582"><ele>995.0</ele><time>2026-04-11T10:56:44.999Z</time></trkpt><trkpt lat="46.0192834665346" lon="9.390351286760149"><ele>993.5</ele><time>2026-04-11T10:56:48.999Z</time></trkpt><trkpt lat="46.01921642889216" lon="9.389969985698444"><ele>992.0</ele><time>2026-04-11T10:56:49.999Z</time></trkpt><trkpt lat="46.01922243570775" lon="9.389842411805683"><ele>990.5</ele><time>2026-04-11T10:56:51.999Z</time></trkpt><trkpt lat="46.01924489159201" lon="9.389721046736975"><ele>989.0</ele><time>2026-04-11T10:56:53.999Z</time></trkpt><trkpt lat="46.019301881410435" lon="9.389628586290927"><ele>989.0</ele><time>2026-04-11T10:56:55.999Z</time></trkpt><trkpt lat="46.019363555663155" lon="9.389517633816846"><ele>989.0000000000001</ele><time>2026-04-11T10:56:57.999Z</time></trkpt><trkpt lat="46.01943893292759" lon="9.38939549205926"><ele>989.0000000000001</ele><time>2026-04-11T10:56:59.999Z</time></trkpt><trkpt lat="46.0195143294433" lon="9.389300196120162"><ele>989.0</ele><time>2026-04-11T10:57:01.999Z</time></trkpt><trkpt lat="46.019577752999716" lon="9.389211216218861"><ele>989.0</ele><time>2026-04-11T10:57:03.999Z</time></trkpt><trkpt lat="46.01963574769175" lon="9.389064963619596"><ele>989.0000000000001</ele><time>2026-04-11T10:57:05.999Z</time></trkpt><trkpt lat="46.01966185349975" lon="9.388948710215045"><ele>989.0</ele><time>2026-04-11T10:57:07.999Z</time></trkpt><trkpt lat="46.0197221401074" lon="9.388885277805134"><ele>989.0</ele><time>2026-04-11T10:57:09.999Z</time></trkpt><trkpt lat="46.019766720464" lon="9.388810789217395"><ele>989.0</ele><time>2026-04-11T10:57:11.999Z</time></trkpt><trkpt lat="46.01983771442168" lon="9.38880710721746"><ele>989.0000000000001</ele><time>2026-04-11T10:57:13.999Z</time></trkpt><trkpt lat="46.019925956275316" lon="9.38879164038358"><ele>989.0</ele><time>2026-04-11T10:57:15.999Z</time></trkpt><trkpt lat="46.01999572497158" lon="9.388763743754875"><ele>987.6</ele><time>2026-04-11T10:57:17.999Z</time></trkpt><trkpt lat="46.02010024994497" lon="9.38875597705669"><ele>986.2</ele><time>2026-04-11T10:57:19.999Z</time></trkpt><trkpt lat="46.02020422614029" lon="9.388722400028211"><ele>984.8000000000001</ele><time>2026-04-11T10:57:21.999Z</time></trkpt><trkpt lat="46.02030520796731" lon="9.388675953928862"><ele>983.4000000000001</ele><time>2026-04-11T10:57:23.999Z</time></trkpt><trkpt lat="46.020402889178115" lon="9.388627898513622"><ele>982.0</ele><time>2026-04-11T10:57:25.999Z</time></trkpt><trkpt lat="46.020488118690395" lon="9.388562459164444"><ele>982.0</ele><time>2026-04-11T10:57:27.999Z</time></trkpt><trkpt lat="46.02052690931211" lon="9.388411511089563"><ele>982.0</ele><time>2026-04-11T10:57:29.999Z</time></trkpt><trkpt lat="46.02053681333268" lon="9.388290894969291"><ele>982.0</ele><time>2026-04-11T10:57:31.999Z</time></trkpt><trkpt lat="46.02057413926908" lon="9.388189660115483"><ele>982.0</ele><time>2026-04-11T10:57:33.999Z</time></trkpt><trkpt lat="46.02061178345885" lon="9.388072039411872"><ele>982.0</ele><time>2026-04-11T10:57:35.999Z</time></trkpt><trkpt lat="46.02068561814504" lon="9.387954492323685"><ele>981.1666666666666</ele><time>2026-04-11T10:57:38Z</time></trkpt><trkpt lat="46.02074358147224" lon="9.387911831258508"><ele>980.3333333333333</ele><time>2026-04-11T10:57:39Z</time></trkpt><trkpt lat="46.02080482208355" lon="9.387845384532586"><ele>979.5</ele><time>2026-04-11T10:57:40Z</time></trkpt><trkpt lat="46.02086655029459" lon="9.387786586681903"><ele>978.6666666666667</ele><time>2026-04-11T10:57:41Z</time></trkpt><trkpt lat="46.02092709633986" lon="9.387720126406803"><ele>977.8333333333334</ele><time>2026-04-11T10:57:42Z</time></trkpt><trkpt lat="46.02101600498728" lon="9.387616920207558"><ele>977.0</ele><time>2026-04-11T10:57:44Z</time></trkpt><trkpt lat="46.021094964335255" lon="9.387500841798383"><ele>977.0</ele><time>2026-04-11T10:57:46Z</time></trkpt><trkpt lat="46.02114101970396" lon="9.387418031932167"><ele>977.0</ele><time>2026-04-11T10:57:47Z</time></trkpt><trkpt lat="46.02118800178614" lon="9.387349912843675"><ele>977.0</ele><time>2026-04-11T10:57:48Z</time></trkpt><trkpt lat="46.021279524705434" lon="9.387249526430834"><ele>977.0</ele><time>2026-04-11T10:57:50Z</time></trkpt><trkpt lat="46.021375509230154" lon="9.387185850188837"><ele>977.0</ele><time>2026-04-11T10:57:52Z</time></trkpt><trkpt lat="46.02145472199452" lon="9.387125990138953"><ele>976.3333333333334</ele><time>2026-04-11T10:57:54Z</time></trkpt><trkpt lat="46.021532067823195" lon="9.387054141722068"><ele>975.6666666666667</ele><time>2026-04-11T10:57:56Z</time></trkpt><trkpt lat="46.02157827966215" lon="9.386969700567663"><ele>975.0</ele><time>2026-04-11T10:57:58Z</time></trkpt><trkpt lat="46.021619929341156" lon="9.386887032240885"><ele>974.3333333333333</ele><time>2026-04-11T10:58:00Z</time></trkpt><trkpt lat="46.02166951193434" lon="9.386786103110321"><ele>973.6666666666666</ele><time>2026-04-11T10:58:02Z</time></trkpt><trkpt lat="46.02173107851174" lon="9.386701516499794"><ele>973.0</ele><time>2026-04-11T10:58:04Z</time></trkpt><trkpt lat="46.0218026266795" lon="9.386604334525494"><ele>973.0</ele><time>2026-04-11T10:58:06Z</time></trkpt><trkpt lat="46.02190003607032" lon="9.386509420067318"><ele>973.0</ele><time>2026-04-11T10:58:08Z</time></trkpt><trkpt lat="46.021955644625024" lon="9.386461054236216"><ele>973.0</ele><time>2026-04-11T10:58:09Z</time></trkpt><trkpt lat="46.02204326362943" lon="9.386357327256889"><ele>973.0</ele><time>2026-04-11T10:58:11Z</time></trkpt><trkpt lat="46.022126838132344" lon="9.386268227195952"><ele>973.0</ele><time>2026-04-11T10:58:13Z</time></trkpt><trkpt lat="46.02216613873859" lon="9.386188693630155"><ele>968.8571428571429</ele><time>2026-04-11T10:58:14Z</time></trkpt><trkpt lat="46.02218599359075" lon="9.386084519980685"><ele>964.7142857142858</ele><time>2026-04-11T10:58:15Z</time></trkpt><trkpt lat="46.02221740323668" lon="9.386003398904444"><ele>960.5714285714286</ele><time>2026-04-11T10:58:16Z</time></trkpt><trkpt lat="46.022258782909375" lon="9.385922256977747"><ele>956.4285714285714</ele><time>2026-04-11T10:58:17Z</time></trkpt><trkpt lat="46.0223177139919" lon="9.385829802587747"><ele>952.2857142857143</ele><time>2026-04-11T10:58:18Z</time></trkpt><trkpt lat="46.02236656002719" lon="9.385750825668365"><ele>948.1428571428571</ele><time>2026-04-11T10:58:19Z</time></trkpt><trkpt lat="46.02241100394913" lon="9.385679765396178"><ele>944.0</ele><time>2026-04-11T10:58:19.999Z</time></trkpt><trkpt lat="46.02246906137041" lon="9.385579197887925"><ele>944.4000000000001</ele><time>2026-04-11T10:58:21.999Z</time></trkpt><trkpt lat="46.02254037071226" lon="9.385488481406107"><ele>944.8000000000001</ele><time>2026-04-11T10:58:24.999Z</time></trkpt><trkpt lat="46.0226051437186" lon="9.385405091605051"><ele>945.1999999999999</ele><time>2026-04-11T10:58:26.999Z</time></trkpt><trkpt lat="46.022682489658216" lon="9.385338579012107"><ele>945.5999999999999</ele><time>2026-04-11T10:58:28.999Z</time></trkpt><trkpt lat="46.022754636544605" lon="9.385252505992671"><ele>946.0</ele><time>2026-04-11T10:58:30.999Z</time></trkpt><trkpt lat="46.02282784660441" lon="9.385186424618007"><ele>946.0</ele><time>2026-04-11T10:58:32.999Z</time></trkpt><trkpt lat="46.022868414713955" lon="9.385114317232588"><ele>946.0</ele><time>2026-04-11T10:58:34.999Z</time></trkpt><trkpt lat="46.022890151152076" lon="9.385024244518203"><ele>946.0</ele><time>2026-04-11T10:58:42.999Z</time></trkpt><trkpt lat="46.022916056371216" lon="9.384939714487862"><ele>946.0</ele><time>2026-04-11T10:58:44.999Z</time></trkpt><trkpt lat="46.022946669443066" lon="9.384860382168798"><ele>946.0</ele><time>2026-04-11T10:58:47.999Z</time></trkpt><trkpt lat="46.02299469330036" lon="9.384786367167985"><ele>946.0</ele><time>2026-04-11T10:58:49.999Z</time></trkpt><trkpt lat="46.02304670127405" lon="9.3846896307792"><ele>946.0</ele><time>2026-04-11T10:58:51.999Z</time></trkpt><trkpt lat="46.02309625918497" lon="9.38461833849812"><ele>946.0</ele><time>2026-04-11T10:58:53.999Z</time></trkpt><trkpt lat="46.02315836402713" lon="9.384521265715033"><ele>945.9999999999999</ele><time>2026-04-11T10:58:55.999Z</time></trkpt><trkpt lat="46.023229313169686" lon="9.384419764440748"><ele>945.9999999999999</ele><time>2026-04-11T10:58:57.999Z</time></trkpt><trkpt lat="46.02329263994203" lon="9.384331897870148"><ele>946.0</ele><time>2026-04-11T10:58:59.999Z</time></trkpt><trkpt lat="46.0233682764163" lon="9.384251468907584"><ele>946.0</ele><time>2026-04-11T10:59:01.999Z</time></trkpt><trkpt lat="46.02344611775115" lon="9.384146499908363"><ele>946.0</ele><time>2026-04-11T10:59:03.999Z</time></trkpt><trkpt lat="46.02351569707021" lon="9.38403542355711"><ele>945.9999999999999</ele><time>2026-04-11T10:59:05.999Z</time></trkpt><trkpt lat="46.02358675026152" lon="9.3839658877663"><ele>945.9999999999999</ele><time>2026-04-11T10:59:07.999Z</time></trkpt><trkpt lat="46.02368758328743" lon="9.38389053480789"><ele>946.0</ele><time>2026-04-11T10:59:09.999Z</time></trkpt><trkpt lat="46.02378706489427" lon="9.383853953305708"><ele>946.0</ele><time>2026-04-11T10:59:11.999Z</time></trkpt><trkpt lat="46.0238627434887" lon="9.383824540534885"><ele>942.6666666666666</ele><time>2026-04-11T10:59:13.999Z</time></trkpt><trkpt lat="46.02395009135574" lon="9.383771444184104"><ele>939.3333333333333</ele><time>2026-04-11T10:59:15.999Z</time></trkpt><trkpt lat="46.024041521556725" lon="9.383737835624677"><ele>936.0</ele><time>2026-04-11T10:59:17.999Z</time></trkpt><trkpt lat="46.024122717199084" lon="9.383740055100796"><ele>932.6666666666667</ele><time>2026-04-11T10:59:19.999Z</time></trkpt><trkpt lat="46.02419744080733" lon="9.383746407487257"><ele>929.3333333333334</ele><time>2026-04-11T10:59:22.999Z</time></trkpt><trkpt lat="46.024224442573015" lon="9.383622520200369"><ele>926.0</ele><time>2026-04-11T10:59:25.999Z</time></trkpt><trkpt lat="46.02416594370282" lon="9.383551111489396"><ele>924.4</ele><time>2026-04-11T10:59:26.999Z</time></trkpt><trkpt lat="46.024066348648" lon="9.38354089740745"><ele>922.8</ele><time>2026-04-11T10:59:27.999Z</time></trkpt><trkpt lat="46.024001938133196" lon="9.383535096431299"><ele>921.1999999999999</ele><time>2026-04-11T10:59:28.999Z</time></trkpt><trkpt lat="46.023882920245434" lon="9.383526842874312"><ele>919.5999999999999</ele><time>2026-04-11T10:59:30.999Z</time></trkpt><trkpt lat="46.02377248961896" lon="9.38352976359382"><ele>918.0</ele><time>2026-04-11T10:59:32.999Z</time></trkpt><trkpt lat="46.02368283434511" lon="9.383529512990291"><ele>918.0</ele><time>2026-04-11T10:59:34.999Z</time></trkpt><trkpt lat="46.02358912104665" lon="9.38353080643799"><ele>918.0</ele><time>2026-04-11T10:59:36.999Z</time></trkpt><trkpt lat="46.023494544776725" lon="9.383510463037867"><ele>918.0</ele><time>2026-04-11T10:59:38.999Z</time></trkpt><trkpt lat="46.02338678342176" lon="9.383523577759503"><ele>918.0</ele><time>2026-04-11T10:59:40.999Z</time></trkpt><trkpt lat="46.023276651251344" lon="9.383563160423176"><ele>918.0</ele><time>2026-04-11T10:59:42.999Z</time></trkpt><trkpt lat="46.023192705753594" lon="9.383623785948728"><ele>917.5</ele><time>2026-04-11T10:59:45Z</time></trkpt><trkpt lat="46.023138229714924" lon="9.383681965373567"><ele>917.0</ele><time>2026-04-11T10:59:46Z</time></trkpt><trkpt lat="46.02309078532924" lon="9.383749186648076"><ele>916.5</ele><time>2026-04-11T10:59:47Z</time></trkpt><trkpt lat="46.023033855091285" lon="9.383830079398642"><ele>916.0</ele><time>2026-04-11T10:59:48Z</time></trkpt><trkpt lat="46.02293086656944" lon="9.383921112959435"><ele>915.5</ele><time>2026-04-11T10:59:50Z</time></trkpt><trkpt lat="46.02286804546789" lon="9.38396565690913"><ele>915.0</ele><time>2026-04-11T10:59:51Z</time></trkpt><trkpt lat="46.02279764745192" lon="9.384039954168008"><ele>915.0</ele><time>2026-04-11T10:59:52Z</time></trkpt><trkpt lat="46.022728927607155" lon="9.38408739569547"><ele>915.0</ele><time>2026-04-11T10:59:53Z</time></trkpt><trkpt lat="46.02266646434362" lon="9.384105734084518"><ele>915.0</ele><time>2026-04-11T10:59:54Z</time></trkpt><trkpt lat="46.022594697616576" lon="9.384172266472385"><ele>915.0</ele><time>2026-04-11T10:59:55Z</time></trkpt><trkpt lat="46.02254865881452" lon="9.384263805673415"><ele>915.0</ele><time>2026-04-11T10:59:56Z</time></trkpt><trkpt lat="46.02248032949426" lon="9.384315745665834"><ele>915.0</ele><time>2026-04-11T10:59:57Z</time></trkpt><trkpt lat="46.022376152977316" lon="9.38433629786461"><ele>915.4</ele><time>2026-04-11T10:59:58Z</time></trkpt><trkpt lat="46.022270889176134" lon="9.384436539411338"><ele>915.8</ele><time>2026-04-11T11:00:00Z</time></trkpt><trkpt lat="46.02220576974274" lon="9.384489053260353"><ele>916.2</ele><time>2026-04-11T11:00:01Z</time></trkpt><trkpt lat="46.022153696937316" lon="9.384546414694874"><ele>916.6</ele><time>2026-04-11T11:00:02Z</time></trkpt><trkpt lat="46.022060559463306" lon="9.384661932051003"><ele>917.0</ele><time>2026-04-11T11:00:04Z</time></trkpt><trkpt lat="46.02194363407671" lon="9.384733810346775"><ele>917.0</ele><time>2026-04-11T11:00:06Z</time></trkpt><trkpt lat="46.021815106593706" lon="9.384799365603804"><ele>917.0</ele><time>2026-04-11T11:00:08Z</time></trkpt><trkpt lat="46.02173854280666" lon="9.384830882333164"><ele>917.0</ele><time>2026-04-11T11:00:09Z</time></trkpt><trkpt lat="46.021655847382156" lon="9.38486492307929"><ele>917.0</ele><time>2026-04-11T11:00:10Z</time></trkpt><trkpt lat="46.02156536126851" lon="9.384900179770218"><ele>917.0</ele><time>2026-04-11T11:00:11Z</time></trkpt><trkpt lat="46.021468591192864" lon="9.384937756801362"><ele>910.0</ele><time>2026-04-11T11:00:12Z</time></trkpt><trkpt lat="46.021376811296044" lon="9.384974197102233"><ele>903.0</ele><time>2026-04-11T11:00:13Z</time></trkpt><trkpt lat="46.021284973640725" lon="9.38501066033176"><ele>896.0</ele><time>2026-04-11T11:00:14Z</time></trkpt><trkpt lat="46.02120291062175" lon="9.385046205072298"><ele>889.0</ele><time>2026-04-11T11:00:15Z</time></trkpt><trkpt lat="46.021140554032115" lon="9.385099863497068"><ele>882.0</ele><time>2026-04-11T11:00:16Z</time></trkpt><trkpt lat="46.02102872758312" lon="9.385134248771756"><ele>882.0</ele><time>2026-04-11T11:00:18Z</time></trkpt><trkpt lat="46.02093283762643" lon="9.38519797539975"><ele>882.0</ele><time>2026-04-11T11:00:20Z</time></trkpt><trkpt lat="46.02082376259077" lon="9.385195624759938"><ele>882.0</ele><time>2026-04-11T11:00:22Z</time></trkpt><trkpt lat="46.02074144890912" lon="9.385145895136622"><ele>882.0</ele><time>2026-04-11T11:00:24Z</time></trkpt><trkpt lat="46.02066060860922" lon="9.385106281469593"><ele>882.0</ele><time>2026-04-11T11:00:26Z</time></trkpt><trkpt lat="46.020681055470185" lon="9.384996527770674"><ele>882.0</ele><time>2026-04-11T11:00:31Z</time></trkpt><trkpt lat="46.0207912651941" lon="9.38507268830458"><ele>882.0</ele><time>2026-04-11T11:00:33Z</time></trkpt><trkpt lat="46.020883961405275" lon="9.38505741648011"><ele>882.0</ele><time>2026-04-11T11:00:35Z</time></trkpt><trkpt lat="46.02096576646138" lon="9.384964587877977"><ele>882.0</ele><time>2026-04-11T11:00:37Z</time></trkpt><trkpt lat="46.0210395217072" lon="9.384860081888897"><ele>882.0</ele><time>2026-04-11T11:00:39Z</time></trkpt><trkpt lat="46.02111938313548" lon="9.384754805264615"><ele>882.0</ele><time>2026-04-11T11:00:40.999Z</time></trkpt><trkpt lat="46.02116501623468" lon="9.384685375948576"><ele>882.0</ele><time>2026-04-11T11:00:41.999Z</time></trkpt><trkpt lat="46.021236423271375" lon="9.384547399017459"><ele>882.0</ele><time>2026-04-11T11:00:43.999Z</time></trkpt><trkpt lat="46.021317177876156" lon="9.384403123462073"><ele>882.0</ele><time>2026-04-11T11:00:45.999Z</time></trkpt><trkpt lat="46.021413810945745" lon="9.384270514386275"><ele>882.0</ele><time>2026-04-11T11:00:47.999Z</time></trkpt><trkpt lat="46.02145714578389" lon="9.384199195453471"><ele>878.1666666666666</ele><time>2026-04-11T11:00:48.999Z</time></trkpt><trkpt lat="46.021500207754265" lon="9.384122766882584"><ele>874.3333333333333</ele><time>2026-04-11T11:00:49.999Z</time></trkpt><trkpt lat="46.021549995202655" lon="9.384020016657468"><ele>870.5</ele><time>2026-04-11T11:00:50.999Z</time></trkpt><trkpt lat="46.02160447942745" lon="9.383920570290806"><ele>866.6666666666666</ele><time>2026-04-11T11:00:51.999Z</time></trkpt><trkpt lat="46.02166115383404" lon="9.383818011864156"><ele>862.8333333333333</ele><time>2026-04-11T11:00:52.999Z</time></trkpt><trkpt lat="46.021725096149424" lon="9.383716233789709"><ele>859.0</ele><time>2026-04-11T11:00:53.999Z</time></trkpt><trkpt lat="46.02178947362009" lon="9.383620553455055"><ele>857.9999999999999</ele><time>2026-04-11T11:00:54.999Z</time></trkpt><trkpt lat="46.021851783116595" lon="9.38352595594664"><ele>857.0</ele><time>2026-04-11T11:00:55.999Z</time></trkpt><trkpt lat="46.02191586544976" lon="9.383436657259633"><ele>856.0</ele><time>2026-04-11T11:00:56.999Z</time></trkpt><trkpt lat="46.02198066606074" lon="9.383358672363943"><ele>855.0</ele><time>2026-04-11T11:00:57.999Z</time></trkpt><trkpt lat="46.02204145383491" lon="9.383282523904866"><ele>853.9999999999999</ele><time>2026-04-11T11:00:58.999Z</time></trkpt><trkpt lat="46.02210010036298" lon="9.383191680662522"><ele>853.0</ele><time>2026-04-11T11:00:59.999Z</time></trkpt><trkpt lat="46.02215296252339" lon="9.383104375374845"><ele>848.0</ele><time>2026-04-11T11:01:00.999Z</time></trkpt><trkpt lat="46.02221796836795" lon="9.382991525491093"><ele>843.0</ele><time>2026-04-11T11:01:01.999Z</time></trkpt><trkpt lat="46.0222705860905" lon="9.38286783826403"><ele>838.0</ele><time>2026-04-11T11:01:02.999Z</time></trkpt><trkpt lat="46.02232525938128" lon="9.382742840087989"><ele>833.0</ele><time>2026-04-11T11:01:03.999Z</time></trkpt><trkpt lat="46.02238182730477" lon="9.382641840983489"><ele>828.0</ele><time>2026-04-11T11:01:04.999Z</time></trkpt><trkpt lat="46.02244159027051" lon="9.382546826069179"><ele>828.5714285714287</ele><time>2026-04-11T11:01:05.999Z</time></trkpt><trkpt lat="46.02249027363079" lon="9.382458075256448"><ele>829.1428571428571</ele><time>2026-04-11T11:01:06.999Z</time></trkpt><trkpt lat="46.022530019645686" lon="9.382378134063206"><ele>829.7142857142858</ele><time>2026-04-11T11:01:07.999Z</time></trkpt><trkpt lat="46.02256059618103" lon="9.382295092276784"><ele>830.2857142857143</ele><time>2026-04-11T11:01:08.999Z</time></trkpt><trkpt lat="46.02258267576731" lon="9.382195255799816"><ele>830.8571428571429</ele><time>2026-04-11T11:01:09.999Z</time></trkpt><trkpt lat="46.02259284253363" lon="9.382082328913251"><ele>831.4285714285714</ele><time>2026-04-11T11:01:10.999Z</time></trkpt><trkpt lat="46.02261373118416" lon="9.381993848970584"><ele>832.0</ele><time>2026-04-11T11:01:11.999Z</time></trkpt><trkpt lat="46.02262306607784" lon="9.38190334734962"><ele>832.0</ele><time>2026-04-11T11:01:12.999Z</time></trkpt><trkpt lat="46.022654510246085" lon="9.381742057132199"><ele>832.0</ele><time>2026-04-11T11:01:14.999Z</time></trkpt><trkpt lat="46.02270329730978" lon="9.381629744470334"><ele>832.0</ele><time>2026-04-11T11:01:16.999Z</time></trkpt><trkpt lat="46.022709196826504" lon="9.38150652846217"><ele>832.0</ele><time>2026-04-11T11:01:19.999Z</time></trkpt><trkpt lat="46.022583833831966" lon="9.381484147866502"><ele>832.0</ele><time>2026-04-11T11:01:21.999Z</time></trkpt><trkpt lat="46.02253894127265" lon="9.381610390179679"><ele>831.9999999999999</ele><time>2026-04-11T11:01:22.999Z</time></trkpt><trkpt lat="46.02248655312265" lon="9.381696509224332"><ele>832.0</ele><time>2026-04-11T11:01:23.999Z</time></trkpt><trkpt lat="46.02244773075458" lon="9.381786000322146"><ele>832.0</ele><time>2026-04-11T11:01:24.999Z</time></trkpt><trkpt lat="46.02241488850256" lon="9.381867652009939"><ele>832.0</ele><time>2026-04-11T11:01:25.999Z</time></trkpt><trkpt lat="46.02238124381874" lon="9.38195377121982"><ele>831.9999999999999</ele><time>2026-04-11T11:01:26.999Z</time></trkpt><trkpt lat="46.02234759761973" lon="9.382036694062382"><ele>832.0</ele><time>2026-04-11T11:01:27.999Z</time></trkpt><trkpt lat="46.022284517579415" lon="9.382145800480105"><ele>831.3333333333333</ele><time>2026-04-11T11:01:29.999Z</time></trkpt><trkpt lat="46.0222194019926" lon="9.382230654088202"><ele>830.6666666666666</ele><time>2026-04-11T11:01:31.999Z</time></trkpt><trkpt lat="46.02216587804005" lon="9.382296750579297"><ele>830.0</ele><time>2026-04-11T11:01:35.999Z</time></trkpt><trkpt lat="46.022099463402206" lon="9.382366637159521"><ele>829.3333333333333</ele><time>2026-04-11T11:01:54Z</time></trkpt><trkpt lat="46.02204972330728" lon="9.382436487514283"><ele>828.6666666666666</ele><time>2026-04-11T11:01:55Z</time></trkpt><trkpt lat="46.02194432076307" lon="9.382513756482407"><ele>828.0</ele><time>2026-04-11T11:01:57Z</time></trkpt><trkpt lat="46.021877352772286" lon="9.382561889664144"><ele>828.0</ele><time>2026-04-11T11:01:58Z</time></trkpt><trkpt lat="46.02180345498195" lon="9.382611440857314"><ele>828.0</ele><time>2026-04-11T11:01:59Z</time></trkpt><trkpt lat="46.02172200901322" lon="9.382630651352967"><ele>828.0</ele><time>2026-04-11T11:02:00Z</time></trkpt><trkpt lat="46.021648259831025" lon="9.382668785927935"><ele>828.0</ele><time>2026-04-11T11:02:01Z</time></trkpt><trkpt lat="46.021582167999824" lon="9.382726878330468"><ele>828.0</ele><time>2026-04-11T11:02:02Z</time></trkpt><trkpt lat="46.02151418940657" lon="9.382780787967642"><ele>828.0</ele><time>2026-04-11T11:02:03Z</time></trkpt><trkpt lat="46.021442401213434" lon="9.382839817390416"><ele>828.1666666666666</ele><time>2026-04-11T11:02:04Z</time></trkpt><trkpt lat="46.0213719455031" lon="9.382895667761137"><ele>828.3333333333333</ele><time>2026-04-11T11:02:05Z</time></trkpt><trkpt lat="46.02129946348243" lon="9.382941975647853"><ele>828.5</ele><time>2026-04-11T11:02:06Z</time></trkpt><trkpt lat="46.021228729545584" lon="9.382971912450403"><ele>828.6666666666666</ele><time>2026-04-11T11:02:07Z</time></trkpt><trkpt lat="46.021142131986515" lon="9.383042227750414"><ele>828.8333333333333</ele><time>2026-04-11T11:02:08Z</time></trkpt><trkpt lat="46.021068325931786" lon="9.383091182619001"><ele>829.0</ele><time>2026-04-11T11:02:09Z</time></trkpt><trkpt lat="46.020997488396716" lon="9.383138358478037"><ele>828.9999999999999</ele><time>2026-04-11T11:02:10Z</time></trkpt><trkpt lat="46.02092438503677" lon="9.383174869912473"><ele>829.0</ele><time>2026-04-11T11:02:11Z</time></trkpt><trkpt lat="46.020858750818114" lon="9.383228819789615"><ele>829.0</ele><time>2026-04-11T11:02:12Z</time></trkpt><trkpt lat="46.02080099143268" lon="9.383270878771107"><ele>829.0</ele><time>2026-04-11T11:02:13Z</time></trkpt><trkpt lat="46.02072057606212" lon="9.383290730899034"><ele>828.9999999999999</ele><time>2026-04-11T11:02:15Z</time></trkpt><trkpt lat="46.02067803392933" lon="9.38317634472464"><ele>829.0</ele><time>2026-04-11T11:02:17Z</time></trkpt><trkpt lat="46.02075050026441" lon="9.38310365349568"><ele>825.8333333333333</ele><time>2026-04-11T11:02:18Z</time></trkpt><trkpt lat="46.02079396304535" lon="9.383013166222403"><ele>822.6666666666666</ele><time>2026-04-11T11:02:19Z</time></trkpt><trkpt lat="46.02083383783721" lon="9.3828902529525"><ele>819.5</ele><time>2026-04-11T11:02:20Z</time></trkpt><trkpt lat="46.02085241401992" lon="9.38277551109834"><ele>816.3333333333333</ele><time>2026-04-11T11:02:21Z</time></trkpt><trkpt lat="46.02085284417202" lon="9.382671013938632"><ele>813.1666666666666</ele><time>2026-04-11T11:02:22Z</time></trkpt><trkpt lat="46.02086409654818" lon="9.382571672735954"><ele>810.0</ele><time>2026-04-11T11:02:23Z</time></trkpt><trkpt lat="46.02092160176087" lon="9.382418016729767"><ele>810.0</ele><time>2026-04-11T11:02:25Z</time></trkpt><trkpt lat="46.02103217459097" lon="9.382347585864537"><ele>810.0</ele><time>2026-04-11T11:02:27Z</time></trkpt><trkpt lat="46.02114191644427" lon="9.382254651979384"><ele>810.0</ele><time>2026-04-11T11:02:29Z</time></trkpt><trkpt lat="46.021198785568004" lon="9.38220655471653"><ele>810.0</ele><time>2026-04-11T11:02:30Z</time></trkpt><trkpt lat="46.02125383608503" lon="9.382161191425874"><ele>810.0</ele><time>2026-04-11T11:02:31Z</time></trkpt><trkpt lat="46.021309349031995" lon="9.382116722296683"><ele>810.0</ele><time>2026-04-11T11:02:32Z</time></trkpt><trkpt lat="46.02137108411669" lon="9.382066238175797"><ele>809.1666666666666</ele><time>2026-04-11T11:02:33Z</time></trkpt><trkpt lat="46.021438062730624" lon="9.382003335919423"><ele>808.3333333333333</ele><time>2026-04-11T11:02:34Z</time></trkpt><trkpt lat="46.02149796169224" lon="9.381932770050899"><ele>807.5</ele><time>2026-04-11T11:02:35Z</time></trkpt><trkpt lat="46.021552773694786" lon="9.381860095261423"><ele>806.6666666666666</ele><time>2026-04-11T11:02:36Z</time></trkpt><trkpt lat="46.021595042035294" lon="9.38177511470831"><ele>805.8333333333333</ele><time>2026-04-11T11:02:37Z</time></trkpt><trkpt lat="46.02167230272803" lon="9.381667722173022"><ele>805.0</ele><time>2026-04-11T11:02:39Z</time></trkpt><trkpt lat="46.021710078028335" lon="9.38159003278211"><ele>804.9999999999999</ele><time>2026-04-11T11:02:42Z</time></trkpt><trkpt lat="46.021678030049536" lon="9.38148750029923"><ele>805.0</ele><time>2026-04-11T11:02:43Z</time></trkpt><trkpt lat="46.02155744983078" lon="9.381510545398058"><ele>805.0</ele><time>2026-04-11T11:02:44Z</time></trkpt><trkpt lat="46.02146724129591" lon="9.381546493315334"><ele>805.0</ele><time>2026-04-11T11:02:45Z</time></trkpt><trkpt lat="46.021385164455275" lon="9.381580855748567"><ele>804.9999999999999</ele><time>2026-04-11T11:02:46Z</time></trkpt><trkpt lat="46.021319892559816" lon="9.38157704358089"><ele>805.0</ele><time>2026-04-11T11:02:47Z</time></trkpt><trkpt lat="46.02124455082471" lon="9.381593241655727"><ele>801.9999999999999</ele><time>2026-04-11T11:02:48.999Z</time></trkpt><trkpt lat="46.02124552459365" lon="9.381448174455585"><ele>799.0</ele><time>2026-04-11T11:02:50.999Z</time></trkpt><trkpt lat="46.02132309893941" lon="9.381402927928459"><ele>796.0</ele><time>2026-04-11T11:02:51.999Z</time></trkpt><trkpt lat="46.02138322428873" lon="9.381336972439147"><ele>793.0</ele><time>2026-04-11T11:02:52.999Z</time></trkpt><trkpt lat="46.021431654202395" lon="9.381256019450188"><ele>789.9999999999999</ele><time>2026-04-11T11:02:53.999Z</time></trkpt><trkpt lat="46.021475479005275" lon="9.38116509340666"><ele>787.0</ele><time>2026-04-11T11:02:54.999Z</time></trkpt><trkpt lat="46.02151601952453" lon="9.381071636758657"><ele>787.2</ele><time>2026-04-11T11:02:55.999Z</time></trkpt><trkpt lat="46.021549963140714" lon="9.380988796759752"><ele>787.4000000000001</ele><time>2026-04-11T11:02:56.999Z</time></trkpt><trkpt lat="46.02159027173864" lon="9.380883368093194"><ele>787.5999999999999</ele><time>2026-04-11T11:02:58.999Z</time></trkpt><trkpt lat="46.02163569125304" lon="9.38074413992902"><ele>787.8</ele><time>2026-04-11T11:03:00.999Z</time></trkpt><trkpt lat="46.021702221741634" lon="9.38055438990385"><ele>788.0</ele><time>2026-04-11T11:03:02.999Z</time></trkpt><trkpt lat="46.02174403425092" lon="9.38044794441359"><ele>784.8333333333334</ele><time>2026-04-11T11:03:03.999Z</time></trkpt><trkpt lat="46.021793698192596" lon="9.380349548369212"><ele>781.6666666666667</ele><time>2026-04-11T11:03:04.999Z</time></trkpt><trkpt lat="46.02184879197195" lon="9.380267734822375"><ele>778.5</ele><time>2026-04-11T11:03:05.999Z</time></trkpt><trkpt lat="46.02190457623806" lon="9.380180668178001"><ele>775.3333333333333</ele><time>2026-04-11T11:03:06.999Z</time></trkpt><trkpt lat="46.02195643283234" lon="9.380097435193212"><ele>772.1666666666666</ele><time>2026-04-11T11:03:07.999Z</time></trkpt><trkpt lat="46.02199996105957" lon="9.380027569694187"><ele>769.0</ele><time>2026-04-11T11:03:08.999Z</time></trkpt><trkpt lat="46.022046319894336" lon="9.379950579548801"><ele>768.9999999999999</ele><time>2026-04-11T11:03:09.999Z</time></trkpt><trkpt lat="46.022089125672764" lon="9.379878760452582"><ele>769.0</ele><time>2026-04-11T11:03:10.999Z</time></trkpt><trkpt lat="46.022135794529206" lon="9.379798529453707"><ele>769.0</ele><time>2026-04-11T11:03:11.999Z</time></trkpt><trkpt lat="46.02216996790684" lon="9.379711505663451"><ele>769.0</ele><time>2026-04-11T11:03:12.999Z</time></trkpt><trkpt lat="46.02223180150867" lon="9.379682953904448"><ele>768.9999999999999</ele><time>2026-04-11T11:03:13.999Z</time></trkpt><trkpt lat="46.02226616589844" lon="9.379573736402145"><ele>769.0</ele><time>2026-04-11T11:03:15.999Z</time></trkpt><trkpt lat="46.02224580815123" lon="9.379366058597103"><ele>770.2</ele><time>2026-04-11T11:03:17.999Z</time></trkpt><trkpt lat="46.02223515036526" lon="9.379259576213641"><ele>771.4000000000001</ele><time>2026-04-11T11:03:18.999Z</time></trkpt><trkpt lat="46.02224510520541" lon="9.379167771690955"><ele>772.6</ele><time>2026-04-11T11:03:19.999Z</time></trkpt><trkpt lat="46.02231882910765" lon="9.379055930968336"><ele>773.8</ele><time>2026-04-11T11:03:21.999Z</time></trkpt><trkpt lat="46.02242743796181" lon="9.37901106137942"><ele>775.0</ele><time>2026-04-11T11:03:23.999Z</time></trkpt><trkpt lat="46.02252680838648" lon="9.378971928027017"><ele>774.9999999999999</ele><time>2026-04-11T11:03:25.999Z</time></trkpt><trkpt lat="46.022615589206346" lon="9.378880322041827"><ele>775.0</ele><time>2026-04-11T11:03:27.999Z</time></trkpt><trkpt lat="46.022646897504075" lon="9.378789398601244"><ele>775.0</ele><time>2026-04-11T11:03:28.999Z</time></trkpt><trkpt lat="46.022668439595385" lon="9.378679686922448"><ele>775.0</ele><time>2026-04-11T11:03:29.999Z</time></trkpt><trkpt lat="46.0227232621977" lon="9.378599320197004"><ele>774.9999999999999</ele><time>2026-04-11T11:03:30.999Z</time></trkpt><trkpt lat="46.022778225902194" lon="9.37852071358431"><ele>775.0</ele><time>2026-04-11T11:03:31.999Z</time></trkpt><trkpt lat="46.022871244757035" lon="9.378519321088461"><ele>773.6</ele><time>2026-04-11T11:03:32.999Z</time></trkpt><trkpt lat="46.022970237757335" lon="9.378493614256358"><ele>772.2</ele><time>2026-04-11T11:03:33.999Z</time></trkpt><trkpt lat="46.02307453412488" lon="9.378460621476199"><ele>770.8</ele><time>2026-04-11T11:03:34.999Z</time></trkpt><trkpt lat="46.023171107100474" lon="9.378495090661952"><ele>769.4</ele><time>2026-04-11T11:03:35.999Z</time></trkpt><trkpt lat="46.02326996302568" lon="9.378495296983276"><ele>768.0</ele><time>2026-04-11T11:03:36.999Z</time></trkpt><trkpt lat="46.02335868241423" lon="9.378505745217524"><ele>768.0</ele><time>2026-04-11T11:03:37.999Z</time></trkpt><trkpt lat="46.02344556515308" lon="9.378450584721005"><ele>768.0</ele><time>2026-04-11T11:03:38.999Z</time></trkpt><trkpt lat="46.023523700887" lon="9.378332943285448"><ele>768.0</ele><time>2026-04-11T11:03:39.999Z</time></trkpt><trkpt lat="46.02362382875492" lon="9.378223900668324"><ele>768.0</ele><time>2026-04-11T11:03:40.999Z</time></trkpt><trkpt lat="46.023712193779296" lon="9.378113458276063"><ele>763.0</ele><time>2026-04-11T11:03:41.999Z</time></trkpt><trkpt lat="46.02379881905275" lon="9.378005813111065"><ele>758.0</ele><time>2026-04-11T11:03:42.999Z</time></trkpt><trkpt lat="46.02389253198511" lon="9.377924778703834"><ele>753.0</ele><time>2026-04-11T11:03:43.999Z</time></trkpt><trkpt lat="46.023993022544325" lon="9.377855191254683"><ele>748.0</ele><time>2026-04-11T11:03:44.999Z</time></trkpt><trkpt lat="46.02410578694809" lon="9.37784069880478"><ele>743.0</ele><time>2026-04-11T11:03:45.999Z</time></trkpt><trkpt lat="46.024223713360016" lon="9.37783174367175"><ele>743.0</ele><time>2026-04-11T11:03:46.999Z</time></trkpt><trkpt lat="46.02434074000421" lon="9.377810354522895"><ele>743.0</ele><time>2026-04-11T11:03:47.999Z</time></trkpt><trkpt lat="46.024474970385356" lon="9.377797177922176"><ele>743.0</ele><time>2026-04-11T11:03:48.999Z</time></trkpt><trkpt lat="46.02461028414133" lon="9.377784847332945"><ele>743.0</ele><time>2026-04-11T11:03:49.999Z</time></trkpt><trkpt lat="46.024737393265404" lon="9.377772421818607"><ele>743.0</ele><time>2026-04-11T11:03:50.999Z</time></trkpt><trkpt lat="46.02486527131043" lon="9.37777507369321"><ele>743.0</ele><time>2026-04-11T11:03:51.999Z</time></trkpt><trkpt lat="46.02498311919103" lon="9.377832454806338"><ele>743.0</ele><time>2026-04-11T11:03:52.999Z</time></trkpt><trkpt lat="46.025102612967004" lon="9.377875981605929"><ele>743.0</ele><time>2026-04-11T11:03:53.999Z</time></trkpt><trkpt lat="46.02521825374575" lon="9.37795291836455"><ele>747.25</ele><time>2026-04-11T11:03:54.999Z</time></trkpt><trkpt lat="46.02532958917487" lon="9.378018462685548"><ele>751.5</ele><time>2026-04-11T11:03:56Z</time></trkpt><trkpt lat="46.025434849842775" lon="9.378078926598251"><ele>755.75</ele><time>2026-04-11T11:03:57Z</time></trkpt><trkpt lat="46.02554087230501" lon="9.378145727302611"><ele>760.0</ele><time>2026-04-11T11:03:58Z</time></trkpt><trkpt lat="46.02565269007437" lon="9.378240629797052"><ele>760.0</ele><time>2026-04-11T11:03:59Z</time></trkpt><trkpt lat="46.02577046013662" lon="9.378367614333118"><ele>760.0</ele><time>2026-04-11T11:04:00Z</time></trkpt><trkpt lat="46.02588306867965" lon="9.378538812773199"><ele>760.0</ele><time>2026-04-11T11:04:01Z</time></trkpt><trkpt lat="46.02601609963077" lon="9.378691229784936"><ele>761.3333333333334</ele><time>2026-04-11T11:04:02Z</time></trkpt><trkpt lat="46.02616991829662" lon="9.378820250998244"><ele>762.6666666666666</ele><time>2026-04-11T11:04:03Z</time></trkpt><trkpt lat="46.02632486071863" lon="9.378977204249194"><ele>764.0</ele><time>2026-04-11T11:04:04Z</time></trkpt><trkpt lat="46.02646157354654" lon="9.379123616630281"><ele>764.0</ele><time>2026-04-11T11:04:05Z</time></trkpt><trkpt lat="46.02658730221268" lon="9.37925742935952"><ele>764.0</ele><time>2026-04-11T11:04:06Z</time></trkpt><trkpt lat="46.02670609023247" lon="9.379388530821885"><ele>764.0</ele><time>2026-04-11T11:04:07Z</time></trkpt><trkpt lat="46.026824222045484" lon="9.379559220883973"><ele>760.0</ele><time>2026-04-11T11:04:08Z</time></trkpt><trkpt lat="46.02694434949428" lon="9.379708136881895"><ele>756.0</ele><time>2026-04-11T11:04:09Z</time></trkpt><trkpt lat="46.027077340966486" lon="9.379844044093163"><ele>752.0</ele><time>2026-04-11T11:04:10Z</time></trkpt><trkpt lat="46.02720376453222" lon="9.38000067305064"><ele>752.0</ele><time>2026-04-11T11:04:11Z</time></trkpt><trkpt lat="46.02731888916495" lon="9.380148849874281"><ele>752.0</ele><time>2026-04-11T11:04:12Z</time></trkpt><trkpt lat="46.02745139004191" lon="9.380312774018567"><ele>752.0</ele><time>2026-04-11T11:04:13Z</time></trkpt><trkpt lat="46.02757116617327" lon="9.380469938593649"><ele>750.0</ele><time>2026-04-11T11:04:14Z</time></trkpt><trkpt lat="46.02768847545586" lon="9.380623911826104"><ele>748.0</ele><time>2026-04-11T11:04:15Z</time></trkpt><trkpt lat="46.02779417774041" lon="9.380765642327628"><ele>746.0</ele><time>2026-04-11T11:04:16Z</time></trkpt><trkpt lat="46.027895240657166" lon="9.380899929700231"><ele>744.0</ele><time>2026-04-11T11:04:17Z</time></trkpt><trkpt lat="46.02799411261254" lon="9.381031053064955"><ele>744.0</ele><time>2026-04-11T11:04:18Z</time></trkpt><trkpt lat="46.028090473987575" lon="9.381151439836353"><ele>744.0</ele><time>2026-04-11T11:04:19Z</time></trkpt><trkpt lat="46.02819273448052" lon="9.381260234070854"><ele>744.0</ele><time>2026-04-11T11:04:20Z</time></trkpt><trkpt lat="46.02828386973709" lon="9.381383615231318"><ele>744.0</ele><time>2026-04-11T11:04:21Z</time></trkpt><trkpt lat="46.02837841923434" lon="9.381472896413193"><ele>741.0</ele><time>2026-04-11T11:04:22Z</time></trkpt><trkpt lat="46.0284444680018" lon="9.38158422111263"><ele>738.0</ele><time>2026-04-11T11:04:23Z</time></trkpt><trkpt lat="46.02850225877237" lon="9.381691519091005"><ele>735.0</ele><time>2026-04-11T11:04:24Z</time></trkpt><trkpt lat="46.02854246437197" lon="9.381780844341012"><ele>732.0</ele><time>2026-04-11T11:04:25Z</time></trkpt><trkpt lat="46.028577540089174" lon="9.381858628416882"><ele>729.0</ele><time>2026-04-11T11:04:26Z</time></trkpt><trkpt lat="46.028687362789675" lon="9.381941938410986"><ele>729.0</ele><time>2026-04-11T11:04:28Z</time></trkpt><trkpt lat="46.0287543107398" lon="9.381932502026125"><ele>729.0</ele><time>2026-04-11T11:04:29Z</time></trkpt><trkpt lat="46.028842202390365" lon="9.381807252998316"><ele>729.0</ele><time>2026-04-11T11:04:30Z</time></trkpt><trkpt lat="46.02888656173911" lon="9.381623626556761"><ele>729.0</ele><time>2026-04-11T11:04:31Z</time></trkpt><trkpt lat="46.02894496270712" lon="9.381447872222987"><ele>725.8000000000001</ele><time>2026-04-11T11:04:32Z</time></trkpt><trkpt lat="46.02900235833322" lon="9.381287687671671"><ele>722.6</ele><time>2026-04-11T11:04:33Z</time></trkpt><trkpt lat="46.02905175063871" lon="9.381150784762166"><ele>719.4</ele><time>2026-04-11T11:04:34Z</time></trkpt><trkpt lat="46.029111545134036" lon="9.38103851068255"><ele>716.2</ele><time>2026-04-11T11:04:35Z</time></trkpt><trkpt lat="46.02917844515707" lon="9.380947865625354"><ele>713.0</ele><time>2026-04-11T11:04:36Z</time></trkpt><trkpt lat="46.02926841643915" lon="9.380871542968862"><ele>712.4</ele><time>2026-04-11T11:04:37Z</time></trkpt><trkpt lat="46.02937235437284" lon="9.380804888323246"><ele>711.8</ele><time>2026-04-11T11:04:38Z</time></trkpt><trkpt lat="46.02947366366558" lon="9.380741522581776"><ele>711.2</ele><time>2026-04-11T11:04:39Z</time></trkpt><trkpt lat="46.02956661895803" lon="9.380691294883585"><ele>710.6</ele><time>2026-04-11T11:04:40Z</time></trkpt><trkpt lat="46.02963354963779" lon="9.380656716234625"><ele>710.0</ele><time>2026-04-11T11:04:41Z</time></trkpt><trkpt lat="46.02972282704359" lon="9.38056112938313"><ele>710.0</ele><time>2026-04-11T11:04:43Z</time></trkpt><trkpt lat="46.02975043891238" lon="9.380469497297595"><ele>710.0</ele><time>2026-04-11T11:04:45Z</time></trkpt><trkpt lat="46.0298344423185" lon="9.380403080428067"><ele>710.0</ele><time>2026-04-11T11:04:47.999Z</time></trkpt><trkpt lat="46.02992854781681" lon="9.380372065541863"><ele>710.0</ele><time>2026-04-11T11:04:48.999Z</time></trkpt><trkpt lat="46.030035075459125" lon="9.380346347426219"><ele>710.0</ele><time>2026-04-11T11:04:49.999Z</time></trkpt><trkpt lat="46.030152083105165" lon="9.38031994879785"><ele>710.0</ele><time>2026-04-11T11:04:50.999Z</time></trkpt><trkpt lat="46.03025916654054" lon="9.380294973469166"><ele>710.0</ele><time>2026-04-11T11:04:51.999Z</time></trkpt><trkpt lat="46.03034320357614" lon="9.38029039669863"><ele>710.0</ele><time>2026-04-11T11:04:52.999Z</time></trkpt><trkpt lat="46.03044038723515" lon="9.380312943612353"><ele>710.0</ele><time>2026-04-11T11:04:53.999Z</time></trkpt><trkpt lat="46.03042757599793" lon="9.380405739487111"><ele>710.0</ele><time>2026-04-11T11:04:54.999Z</time></trkpt><trkpt lat="46.03053830910381" lon="9.380504729671047"><ele>710.0</ele><time>2026-04-11T11:04:56.999Z</time></trkpt><trkpt lat="46.030621431882494" lon="9.380521455817705"><ele>710.0</ele><time>2026-04-11T11:04:57.999Z</time></trkpt><trkpt lat="46.030700004489844" lon="9.380512693494417"><ele>710.0</ele><time>2026-04-11T11:04:58.999Z</time></trkpt><trkpt lat="46.03077032467015" lon="9.380486547462612"><ele>710.0</ele><time>2026-04-11T11:04:59.999Z</time></trkpt><trkpt lat="46.030825127950116" lon="9.380369778714718"><ele>710.0</ele><time>2026-04-11T11:05:01.999Z</time></trkpt><trkpt lat="46.030844683741975" lon="9.380274306544246"><ele>710.0</ele><time>2026-04-11T11:05:03.999Z</time></trkpt><trkpt lat="46.030691825289374" lon="9.380194408252565"><ele>710.0</ele><time>2026-04-11T11:05:05.999Z</time></trkpt><trkpt lat="46.03059385660889" lon="9.380214228544174"><ele>710.0</ele><time>2026-04-11T11:05:06.999Z</time></trkpt><trkpt lat="46.030455255693155" lon="9.380239575543968"><ele>710.0</ele><time>2026-04-11T11:05:07.999Z</time></trkpt><trkpt lat="46.030305562160734" lon="9.380271974508362"><ele>710.0</ele><time>2026-04-11T11:05:08.999Z</time></trkpt><trkpt lat="46.03014484160278" lon="9.380302514222516"><ele>710.0</ele><time>2026-04-11T11:05:09.999Z</time></trkpt><trkpt lat="46.02998529673677" lon="9.380329381787766"><ele>710.0</ele><time>2026-04-11T11:05:10.999Z</time></trkpt><trkpt lat="46.02984451515615" lon="9.38035337317286"><ele>710.0</ele><time>2026-04-11T11:05:11.999Z</time></trkpt><trkpt lat="46.029710967627366" lon="9.38037925172272"><ele>710.0</ele><time>2026-04-11T11:05:12.999Z</time></trkpt><trkpt lat="46.029581443510054" lon="9.380398541418883"><ele>710.0</ele><time>2026-04-11T11:05:13.999Z</time></trkpt><trkpt lat="46.02946523016459" lon="9.38041063634839"><ele>710.0</ele><time>2026-04-11T11:05:14.999Z</time></trkpt><trkpt lat="46.029353634948684" lon="9.380431069368154"><ele>710.0</ele><time>2026-04-11T11:05:15.999Z</time></trkpt><trkpt lat="46.029251127717856" lon="9.380478070038473"><ele>710.0</ele><time>2026-04-11T11:05:16.999Z</time></trkpt><trkpt lat="46.02916674314794" lon="9.380585659309864"><ele>710.0</ele><time>2026-04-11T11:05:17.999Z</time></trkpt><trkpt lat="46.029094873891594" lon="9.380745254166024"><ele>710.6</ele><time>2026-04-11T11:05:18.999Z</time></trkpt><trkpt lat="46.02903264795894" lon="9.380899111068144"><ele>711.2</ele><time>2026-04-11T11:05:19.999Z</time></trkpt><trkpt lat="46.028965414833976" lon="9.381003747200433"><ele>711.8</ele><time>2026-04-11T11:05:20.999Z</time></trkpt><trkpt lat="46.028887613438975" lon="9.381070925710542"><ele>712.4</ele><time>2026-04-11T11:05:21.999Z</time></trkpt><trkpt lat="46.02879576628369" lon="9.381094617971804"><ele>713.0</ele><time>2026-04-11T11:05:22.999Z</time></trkpt><trkpt lat="46.02870449381201" lon="9.38106782711981"><ele>713.0</ele><time>2026-04-11T11:05:23.999Z</time></trkpt><trkpt lat="46.028627747061726" lon="9.380989298038276"><ele>713.0</ele><time>2026-04-11T11:05:24.999Z</time></trkpt><trkpt lat="46.028602291709596" lon="9.380831083003763"><ele>713.0</ele><time>2026-04-11T11:05:25.999Z</time></trkpt><trkpt lat="46.028546600893776" lon="9.380670391004756"><ele>713.0</ele><time>2026-04-11T11:05:26.999Z</time></trkpt><trkpt lat="46.02847078972651" lon="9.380505019776658"><ele>717.3333333333333</ele><time>2026-04-11T11:05:27.999Z</time></trkpt><trkpt lat="46.02838778708568" lon="9.380291616677722"><ele>721.6666666666666</ele><time>2026-04-11T11:05:28.999Z</time></trkpt><trkpt lat="46.02829097188019" lon="9.38008004212637"><ele>726.0</ele><time>2026-04-11T11:05:29.999Z</time></trkpt><trkpt lat="46.028187519956106" lon="9.379879894171141"><ele>726.0</ele><time>2026-04-11T11:05:30.999Z</time></trkpt><trkpt lat="46.02811640753914" lon="9.379698277033755"><ele>726.0</ele><time>2026-04-11T11:05:31.999Z</time></trkpt><trkpt lat="46.02805118313162" lon="9.37952469299519"><ele>726.0</ele><time>2026-04-11T11:05:32.999Z</time></trkpt><trkpt lat="46.02799035825482" lon="9.379339048206592"><ele>726.0</ele><time>2026-04-11T11:05:33.999Z</time></trkpt><trkpt lat="46.027902900921724" lon="9.379181496384867"><ele>721.25</ele><time>2026-04-11T11:05:34.999Z</time></trkpt><trkpt lat="46.02780058564092" lon="9.379044116343495"><ele>716.5</ele><time>2026-04-11T11:05:35.999Z</time></trkpt><trkpt lat="46.027677943155325" lon="9.37891802413753"><ele>711.75</ele><time>2026-04-11T11:05:36.999Z</time></trkpt><trkpt lat="46.02758403186143" lon="9.378759331042666"><ele>707.0</ele><time>2026-04-11T11:05:37.999Z</time></trkpt><trkpt lat="46.02751183166749" lon="9.378588851774294"><ele>709.3333333333333</ele><time>2026-04-11T11:05:38.999Z</time></trkpt><trkpt lat="46.02744479884999" lon="9.378393619914531"><ele>711.6666666666666</ele><time>2026-04-11T11:05:39.999Z</time></trkpt><trkpt lat="46.027380900444165" lon="9.378160823486741"><ele>714.0</ele><time>2026-04-11T11:05:40.999Z</time></trkpt><trkpt lat="46.02732203766349" lon="9.377938905106548"><ele>707.6666666666666</ele><time>2026-04-11T11:05:41.999Z</time></trkpt><trkpt lat="46.02725811756788" lon="9.377740085018063"><ele>701.3333333333333</ele><time>2026-04-11T11:05:42.999Z</time></trkpt><trkpt lat="46.02717215312454" lon="9.377525902361741"><ele>695.0</ele><time>2026-04-11T11:05:43.999Z</time></trkpt><trkpt lat="46.02707623726337" lon="9.37733670863131"><ele>688.6666666666666</ele><time>2026-04-11T11:05:44.999Z</time></trkpt><trkpt lat="46.02694762550697" lon="9.377184715751714"><ele>682.3333333333334</ele><time>2026-04-11T11:05:45.999Z</time></trkpt><trkpt lat="46.026837832655424" lon="9.377045298685209"><ele>676.0</ele><time>2026-04-11T11:05:46.999Z</time></trkpt><trkpt lat="46.02674556841021" lon="9.376898924739322"><ele>676.0</ele><time>2026-04-11T11:05:47.999Z</time></trkpt><trkpt lat="46.02667283084292" lon="9.376725180154347"><ele>676.0</ele><time>2026-04-11T11:05:48.999Z</time></trkpt><trkpt lat="46.026665465108714" lon="9.376519432669568"><ele>676.0</ele><time>2026-04-11T11:05:49.999Z</time></trkpt><trkpt lat="46.026645505282424" lon="9.37634339532397"><ele>676.0</ele><time>2026-04-11T11:05:50.999Z</time></trkpt><trkpt lat="46.02662838199022" lon="9.376195209205902"><ele>677.0</ele><time>2026-04-11T11:05:51.999Z</time></trkpt><trkpt lat="46.02661405341704" lon="9.376077848457337"><ele>678.0</ele><time>2026-04-11T11:05:52.999Z</time></trkpt><trkpt lat="46.026598758792645" lon="9.37598335454816"><ele>679.0</ele><time>2026-04-11T11:05:53.999Z</time></trkpt><trkpt lat="46.02655622236364" lon="9.37581673065616"><ele>680.0</ele><time>2026-04-11T11:05:55.999Z</time></trkpt><trkpt lat="46.026402588385" lon="9.375849233370442"><ele>681.0</ele><time>2026-04-11T11:05:56.999Z</time></trkpt><trkpt lat="46.02631851113788" lon="9.375807900045055"><ele>681.0</ele><time>2026-04-11T11:05:57.999Z</time></trkpt><trkpt lat="46.02625656271666" lon="9.375692154210945"><ele>681.0</ele><time>2026-04-11T11:05:58.999Z</time></trkpt><trkpt lat="46.02616861943821" lon="9.375607538872744"><ele>681.0</ele><time>2026-04-11T11:05:59.999Z</time></trkpt><trkpt lat="46.02604681629789" lon="9.375546966847125"><ele>681.0</ele><time>2026-04-11T11:06:00.999Z</time></trkpt><trkpt lat="46.025910611520466" lon="9.37548496864155"><ele>679.0</ele><time>2026-04-11T11:06:02Z</time></trkpt><trkpt lat="46.02576117169889" lon="9.375433172695823"><ele>677.0</ele><time>2026-04-11T11:06:03Z</time></trkpt><trkpt lat="46.0256093983079" lon="9.375394159899155"><ele>675.0</ele><time>2026-04-11T11:06:04Z</time></trkpt><trkpt lat="46.02547848638935" lon="9.375335558859023"><ele>673.0</ele><time>2026-04-11T11:06:05Z</time></trkpt><trkpt lat="46.02535620053579" lon="9.37529477911511"><ele>673.0</ele><time>2026-04-11T11:06:06Z</time></trkpt><trkpt lat="46.02523494486971" lon="9.375257232726861"><ele>673.0</ele><time>2026-04-11T11:06:07Z</time></trkpt><trkpt lat="46.025107616943885" lon="9.375242772636392"><ele>673.0</ele><time>2026-04-11T11:06:08Z</time></trkpt><trkpt lat="46.02498251829964" lon="9.375204475886218"><ele>673.0</ele><time>2026-04-11T11:06:09Z</time></trkpt><trkpt lat="46.0248604134203" lon="9.375175898324542"><ele>673.25</ele><time>2026-04-11T11:06:10Z</time></trkpt><trkpt lat="46.024741897748605" lon="9.375148814177738"><ele>673.5</ele><time>2026-04-11T11:06:11Z</time></trkpt><trkpt lat="46.024622609680875" lon="9.375123258041793"><ele>673.75</ele><time>2026-04-11T11:06:12Z</time></trkpt><trkpt lat="46.024505128354086" lon="9.375101542661735"><ele>674.0</ele><time>2026-04-11T11:06:13Z</time></trkpt><trkpt lat="46.024385967488776" lon="9.3750947970498"><ele>674.0</ele><time>2026-04-11T11:06:14Z</time></trkpt><trkpt lat="46.02425925861276" lon="9.37510879472306"><ele>674.0</ele><time>2026-04-11T11:06:15Z</time></trkpt><trkpt lat="46.024121678825665" lon="9.37514132768068"><ele>674.0</ele><time>2026-04-11T11:06:16Z</time></trkpt><trkpt lat="46.02399086303403" lon="9.375175656151962"><ele>674.0</ele><time>2026-04-11T11:06:17Z</time></trkpt><trkpt lat="46.02385973149583" lon="9.375219036391432"><ele>673.6</ele><time>2026-04-11T11:06:18Z</time></trkpt><trkpt lat="46.023742168397135" lon="9.375275967416428"><ele>673.2</ele><time>2026-04-11T11:06:19Z</time></trkpt><trkpt lat="46.02363196693965" lon="9.375339413458448"><ele>672.8000000000001</ele><time>2026-04-11T11:06:20Z</time></trkpt><trkpt lat="46.02352795514058" lon="9.375364257306547"><ele>672.4000000000001</ele><time>2026-04-11T11:06:21Z</time></trkpt><trkpt lat="46.0234400275612" lon="9.375411225292789"><ele>672.0</ele><time>2026-04-11T11:06:22Z</time></trkpt><trkpt lat="46.023360448194126" lon="9.375426447108206"><ele>671.5</ele><time>2026-04-11T11:06:23Z</time></trkpt><trkpt lat="46.023293545260145" lon="9.375449337978308"><ele>671.0</ele><time>2026-04-11T11:06:24Z</time></trkpt><trkpt lat="46.02319535172481" lon="9.375476090637052"><ele>670.5</ele><time>2026-04-11T11:06:26Z</time></trkpt><trkpt lat="46.0231160172591" lon="9.375537694301427"><ele>670.0</ele><time>2026-04-11T11:06:28Z</time></trkpt><trkpt lat="46.02305888316741" lon="9.375585201788622"><ele>669.5</ele><time>2026-04-11T11:06:29Z</time></trkpt><trkpt lat="46.02301297562194" lon="9.37569266352405"><ele>669.0</ele><time>2026-04-11T11:06:29.999Z</time></trkpt><trkpt lat="46.02297363152484" lon="9.375772105061655"><ele>670.4000000000001</ele><time>2026-04-11T11:06:30.999Z</time></trkpt><trkpt lat="46.022929397138505" lon="9.375841613691183"><ele>671.8</ele><time>2026-04-11T11:06:31.999Z</time></trkpt><trkpt lat="46.02284922119461" lon="9.375974367061412"><ele>673.2</ele><time>2026-04-11T11:06:33.999Z</time></trkpt><trkpt lat="46.022778327979665" lon="9.37609182855148"><ele>674.5999999999999</ele><time>2026-04-11T11:06:35.999Z</time></trkpt><trkpt lat="46.022705215438904" lon="9.376163773755136"><ele>676.0</ele><time>2026-04-11T11:06:38.999Z</time></trkpt><trkpt lat="46.022590670684224" lon="9.376243132507328"><ele>676.0</ele><time>2026-04-11T11:06:40.999Z</time></trkpt><trkpt lat="46.02251336076703" lon="9.376292379361782"><ele>676.0</ele><time>2026-04-11T11:06:42.999Z</time></trkpt><trkpt lat="46.02243359852119" lon="9.376332105192716"><ele>653.0</ele><time>2026-04-11T11:06:45.999Z</time></trkpt></trkseg></trk></gpx>